Daily Reports


METAR STATION :  PALERMO BOCCADIFALCO

 

Date / Time           Temp   Dew  HtIx Chill %Rh Press  Rain  Wind  Wind  Wind Visib Cloud Sky/Weather
                        C    C    C    C   %   hPa    mm   Dir   Spd  Gust    km    km ---/---

01/01/2005 07:55      11.0   8.0  13.5   9.0  82  1021   ---   WNW     6     6   ---   0.7 Broken Clouds/
01/01/2005 08:55      10.0   7.0  12.5   7.9  82  1021   ---     W     6     6   ---   0.7 Broken Clouds/
01/01/2005 10:55      15.0  11.0  17.1  15.0  77  1023   ---   WNW     5     5   ---   0.7 Broken Clouds/
01/01/2005 11:55      14.0   7.0  15.2  14.0  63  1023   ---     N     0     0   ---   0.7 Scattered Clouds/
01/01/2005 12:55      14.0   8.0  15.5   8.7  67  1023   ---     N    13    13   ---   0.7 Broken Clouds/
01/01/2005 13:55      14.0   8.0  15.5  12.3  67  1022   ---     N     6     6   ---   0.7 Broken Clouds/
01/01/2005 14:55      12.0   7.0  13.7  12.0  71  1022   ---   NNW     5     5   ---   0.7 Broken Clouds/
01/01/2005 15:55      12.0   7.0  13.7  10.1  71  1022   ---     N     6     6   ---   0.7 Scattered Clouds/
01/01/2005 16:55      12.0   6.0  13.4  12.0  67  1022   ---   NNW     5     5   ---   0.7 Scattered Clouds/
01/01/2005 17:55      10.0   6.0  12.1   7.9  76  1023   ---     W     6     6   ---   0.7 Scattered Clouds/
01/01/2005 17:55      10.0   6.0  12.1   7.9  76  1023   ---     W     6     6   ---   0.7 Scattered Clouds/None reported
01/01/2005 19:55       9.0   7.0  11.9   9.0  87  1023   ---    SW     5     5   ---   0.7 Scattered Clouds/
02/01/2005 07:55      10.0   7.0  12.5  10.0  82  1014   ---     N     0     0   ---   0.8 Overcast/
02/01/2005 08:55      10.0   7.0  12.5  10.0  82  1024   ---   ---     0     0   ---   0.8 Overcast/
02/01/2005 09:55      11.0   7.0  13.1   6.5  76  1025   ---     W    10    10   ---   0.8 Overcast/
02/01/2005 10:55      12.0   8.0  14.1   8.5  77  1025   ---   WNW     8     8   ---   0.8 Broken Clouds/
02/01/2005 15:55      12.0   7.0  13.7   5.3  71  1024   ---   WNW    14    14   ---   0.8 Scattered Clouds/
02/01/2005 19:55       9.0   7.0  11.9   9.0  87  1024   ---    SW     3     3   ---   0.8 Few Clouds/
02/01/2005 19:55       9.0   7.0  11.9   9.0  87  1024   ---    SW     3     3   ---   0.8 Few Clouds/None reported
02/01/2005 19:55       9.0   7.0  11.9   9.0  87  1024   ---    SW     3     3   ---   0.8 Few Clouds/None reported
03/01/2005 07:55      10.0   8.0  12.9   3.6  87  1021   ---     W    13    13   ---   0.7 Broken Clouds/
03/01/2005 08:55      10.0   7.0  12.5   5.3  82  1021   ---     W    10    10   ---   0.7 Few Clouds/
03/01/2005 10:55      13.0   8.0  14.8  13.0  72  1021   ---   WNW     5     5   ---   0.9 Broken Clouds/
03/01/2005 10:55      13.0   8.0  14.8  13.0  72  1021   ---   WNW     5     5   ---   0.9 Broken Clouds/None reported
03/01/2005 10:55      13.0   8.0  14.8  13.0  72  1021   ---   WNW     5     5   ---   0.9 Broken Clouds/None reported
03/01/2005 11:55      14.0   6.0  14.9  10.8  59  1021   ---     N     8     8   ---   0.7 Broken Clouds/
03/01/2005 13:55      13.0  10.0  15.5   9.7  82  1021   ---    NW     8     8   ---   0.6 Broken Clouds/
03/01/2005 13:55      13.0  10.0  15.5   9.7  82  1021   ---    NW     8     8   ---   0.6 Broken Clouds/None reported
03/01/2005 15:55      12.0  10.0  14.9   3.0  88  1020   ---    NW    21    21   ---   --- Overcast/ Light Rain
03/01/2005 16:55      11.0   9.0  13.9   6.5  87  1020   ---   NNW    10    10   ---   0.6 Broken Clouds/
03/01/2005 17:55      11.0  10.0  14.4   9.0  94  1021   ---     N     6     6   ---   0.5 Broken Clouds/
03/01/2005 18:55      11.0   9.0  13.9   6.5  87  1022   ---   NNW    10    10   ---   0.5 Overcast/
03/01/2005 19:55      11.0   9.0  13.9   6.5  87  1023   ---     N    10    10   ---   0.5 Overcast/
03/01/2005 07:55      10.0   8.0  12.9   3.6  87  1021   ---     W    13    13   ---   0.7 Broken Clouds/
04/01/2005 08:55      10.0   2.0  10.9   5.3  58  1031   ---     N    10    10   ---   0.7 Scattered Clouds/
03/01/2005 10:55      13.0   8.0  14.8  13.0  72  1021   ---   WNW     5     5   ---   0.9 Broken Clouds/
04/01/2005 11:55      12.0   3.0  12.7   7.7  54  1032   ---    NE    10    10   ---   0.7 Few Clouds/
03/01/2005 12:55      13.0   7.0  14.4   8.9  67  1021   ---   WNW    10    10   ---   0.6 Overcast/
04/01/2005 14:55      14.0   4.0  14.5  12.3  51  1032   ---   NNE     6     6   ---   0.7 Few Clouds/
04/01/2005 15:55      13.0   4.0  13.7  11.2  54  1032   ---     N     6     6   ---   --- /
04/01/2005 16:55      11.0   3.0  11.9  11.0  58  1033   ---     N     0     0   ---   --- /
04/01/2005 17:55      10.0   4.0  11.4   7.9  66  1033   ---     W     6     6   ---   0.7 Few Clouds/
04/01/2005 18:55       8.0   4.0  10.0   8.0  76  1034   ---     W     5     5   ---   0.7 Few Clouds/
04/01/2005 19:55       8.0   4.0  10.0   5.7  76  1034   ---     W     6     6   ---   0.7 Few Clouds/
03/01/2005 19:55      11.0   9.0  13.9   6.5  87  1023   ---     N    10    10   ---   0.5 Overcast/
05/01/2005 07:55       9.0   6.0  11.5   9.0  81  1034   ---   SSW     5     5   ---   0.7 Scattered Clouds/
05/01/2005 08:55       9.0   7.0  11.9   9.0  87  1034   ---   SSW     5     5   ---   0.7 Few Clouds/
05/01/2005 09:55      10.0   8.0  12.9  10.0  87  1035   ---     N     0     0   ---   0.7 Scattered Clouds/
05/01/2005 10:55      12.0   9.0  14.5  12.0  82  1035   ---   ---     0     0   ---   0.8 Scattered Clouds/
05/01/2005 10:55      12.0   9.0  14.5  12.0  82  1035   ---   ---     0     0   ---   0.8 Scattered Clouds/None reported
05/01/2005 12:55      14.0   7.0  15.2  10.8  63  1035   ---   NNW     8     8   ---   0.8 Scattered Clouds/
05/01/2005 13:55      14.0   7.0  15.2  10.1  63  1034   ---   WNW    10    10   ---   0.8 Few Clouds/
05/01/2005 15:55      13.0   8.0  14.8   8.9  72  1034   ---     W    10    10   ---   1.2 Overcast/
05/01/2005 19:55      11.0   8.0  13.5  11.0  82  1034   ---     W     3     3   ---   0.6 Scattered Clouds/
06/01/2005 07:55       9.0   6.0  11.5   9.0  81  1032   ---     N     0     0   ---   0.8 Scattered Clouds/
06/01/2005 08:55       9.0   6.0  11.5   9.0  81  1031   ---   WSW     3     3   ---   0.8 Scattered Clouds/
06/01/2005 09:55      11.0   7.0  13.1   9.0  76  1031   ---   SSW     6     6   ---   0.8 Few Clouds/
06/01/2005 10:55      12.0   7.0  13.7   8.5  71  1032   ---     E     8     8   ---   0.8 Few Clouds/
06/01/2005 10:55      12.0   7.0  13.7   8.5  71  1032   ---     E     8     8   ---   0.8 Few Clouds/None reported
06/01/2005 12:55      13.0   7.0  14.4   5.8  67  1032   ---   WNW    16    16   ---   0.8 Scattered Clouds/
06/01/2005 13:55      14.0   8.0  15.5   8.0  67  1031   ---    NW    14    14   ---   0.8 Scattered Clouds/
06/01/2005 15:55      13.0   7.0  14.4   7.4  67  1030   ---    NW    13    13   ---   0.8 Scattered Clouds/
06/01/2005 15:55      13.0   7.0  14.4   7.4  67  1030   ---    NW    13    13   ---   0.8 Scattered Clouds/None reported
06/01/2005 15:55      13.0   7.0  14.4   7.4  67  1030   ---    NW    13    13   ---   0.8 Scattered Clouds/None reported
06/01/2005 15:55      13.0   7.0  14.4   7.4  67  1030   ---    NW    13    13   ---   0.8 Scattered Clouds/None reported
06/01/2005 15:55      13.0   7.0  14.4   7.4  67  1030   ---    NW    13    13   ---   0.8 Scattered Clouds/None reported
06/01/2005 19:55      11.0   8.0  13.5   9.0  82  1030   ---   WNW     6     6   ---   0.8 Scattered Clouds/
07/01/2005 07:55      10.0   8.0  12.9  10.0  87  1032   ---     W     5     5   ---   0.7 Broken Clouds/
07/01/2005 08:55      11.0   8.0  13.5  11.0  82  1033   ---     N     0     0   ---   0.7 Broken Clouds/
07/01/2005 09:55      12.0   9.0  14.5  12.0  82  1033   ---   ---     0     0   ---   0.7 Broken Clouds/
07/01/2005 10:55      13.0  11.0  15.9  11.2  88  1034   ---   WNW     6     6   ---   0.7 Broken Clouds/
07/01/2005 11:55      14.0  10.0  16.1  12.3  77  1034   ---   ENE     6     6   ---   0.7 Scattered Clouds/
07/01/2005 12:55      14.0  10.0  16.1  14.0  77  1034   ---     N     0     0   ---   0.7 Scattered Clouds/
07/01/2005 13:55      14.0  10.0  16.1  14.0  77  1034   ---    NE     5     5   ---   0.7 Scattered Clouds/
07/01/2005 15:55      14.0   6.0  14.9  10.1  59  1034   ---     N    10    10   ---   0.7 Scattered Clouds/
07/01/2005 16:55      13.0   8.0  14.8  11.2  72  1034   ---     N     6     6   ---   0.7 Few Clouds/
07/01/2005 17:55      12.0   8.0  14.1  10.1  77  1034   ---   NNW     6     6   ---   0.7 Few Clouds/
07/01/2005 18:55      11.0   8.0  13.5  11.0  82  1035   ---     N     0     0   ---   0.7 Few Clouds/
07/01/2005 19:55      10.0   7.0  12.5  10.0  82  1035   ---   SSW     5     5   ---   0.7 Scattered Clouds/
08/01/2005 07:55      10.0   6.0  12.1   7.9  76  1034   ---   WSW     6     6   ---   --- /
08/01/2005 08:55      10.0   5.0  11.7   7.9  71  1034   ---   WSW     6     6   ---   --- /
08/01/2005 09:55      11.0   5.0  12.4   9.0  66  1034   ---   SSW     6     6   ---   --- /
08/01/2005 10:55      12.0   6.0  13.4  12.0  67  1035   ---     N     0     0   ---   --- /
08/01/2005 11:55      15.0   8.0  16.2  15.0  63  1035   ---   ---     0     0   ---   --- /
08/01/2005 12:55      15.0   5.0  15.5  15.0  51  1034   ---   ---     0     0   ---   --- /
08/01/2005 13:55      16.0   4.0  16.2  16.0  45  1033   ---   ---     0     0   ---   --- /
08/01/2005 14:55      16.0   8.0  16.9  14.4  59  1033   ---     E     6     6   ---   --- /
08/01/2005 15:55      15.0   9.0  16.5  15.0  67  1032   ---   ESE     5     5   ---   --- /
08/01/2005 16:55      15.0  10.0  16.8  13.3  72  1032   ---     E     6     6   ---   --- /
08/01/2005 17:55      13.0  10.0  15.5  13.0  82  1033   ---     N     0     0   ---   0.6 Few Clouds/
08/01/2005 18:55      11.0   8.0  13.5   7.3  82  1033   ---   SSW     8     8   ---   0.6 Few Clouds/
08/01/2005 19:55      11.0   9.0  13.9   9.0  87  1033   ---   SSW     6     6   ---   0.6 Scattered Clouds/
09/01/2005 07:55       8.0   3.0   9.7   3.8  71  1032   ---    SW     8     8   ---   --- /
09/01/2005 08:55       8.0   4.0  10.0   1.0  76  1032   ---    SW    13    13   ---   --- /
09/01/2005 09:55       9.0   4.0  10.7   6.8  71  1033   ---   SSW     6     6   ---   --- /
09/01/2005 10:55      10.0   6.0  12.1  10.0  76  1033   ---     N     0     0   ---   --- /
09/01/2005 11:55      12.0   8.0  14.1  12.0  77  1033   ---     W     3     3   ---   --- /
08/01/2005 12:55      15.0   5.0  15.5  15.0  51  1034   ---     N     0     0   ---   --- /
09/01/2005 13:55      14.0   9.0  15.8  14.0  72  1032   ---     E     5     5   ---   --- /
09/01/2005 14:55      14.0   9.0  15.8  14.0  72  1032   ---     S     3     3   ---   --- /
09/01/2005 15:55      14.0   9.0  15.8  14.0  72  1032   ---   ESE     3     3   ---   --- /
09/01/2005 16:55      13.0   9.0  15.1  13.0  77  1032   ---     E     5     5   ---   --- /
09/01/2005 17:55      11.0   8.0  13.5  11.0  82  1032   ---     N     0     0   ---   --- /
09/01/2005 18:55      10.0   8.0  12.9  10.0  87  1032   ---   ---     0     0   ---   --- /
09/01/2005 19:55      10.0   7.0  12.5   7.9  82  1033   ---    SW     6     6   ---   --- /
08/01/2005 19:55      11.0   9.0  13.9   9.0  87  1033   ---   SSW     6     6   ---   0.6 Scattered Clouds/
08/01/2005 19:55      11.0   9.0  13.9   9.0  87  1033   ---   SSW     6     6   ---   0.6 Scattered Clouds/None reported
10/01/2005 07:55       8.0   3.0   9.7   3.8  71  1033   ---    SW     8     8   ---   --- /
09/01/2005 08:55       8.0   4.0  10.0   1.0  76  1032   ---    SW    13    13   ---   --- /
10/01/2005 09:55      12.0   8.0  14.1  10.1  77  1033   ---   SSW     6     6   ---   0.5 Few Clouds/
10/01/2005 10:55      14.0  10.0  16.1  14.0  77  1034   ---     N     0     0   ---   --- /
10/01/2005 11:55      14.0   8.0  15.5  14.0  67  1033   ---   ENE     3     3   ---   --- /
10/01/2005 12:55      14.0   8.0  15.5  14.0  67  1033   ---     E     3     3   ---   --- /
10/01/2005 13:55      14.0   9.0  15.8  12.3  72  1033   ---     E     6     6   ---   0.6 Few Clouds/
10/01/2005 14:55      14.0   9.0  15.8  12.3  72  1032   ---     E     6     6   ---   --- /
10/01/2005 15:55      14.0   9.0  15.8  12.3  72  1032   ---   ENE     6     6   ---   --- /
10/01/2005 17:55      11.0   9.0  13.9  11.0  87  1032   ---     N     0     0   ---   0.4 Scattered Clouds/
10/01/2005 18:55      11.0   9.0  13.9  11.0  87  1032   ---   SSW     3     3   ---   0.4 Scattered Clouds/
10/01/2005 19:55      11.0  10.0  14.4  11.0  94  1032   ---    SW     3     3   ---   0.4 Scattered Clouds/
11/01/2005 07:55       9.0   7.0  11.9   6.8  87  1031   ---   SSW     6     6   ---   0.7 Broken Clouds/
11/01/2005 08:55      10.0   7.0  12.5  10.0  82  1031   ---    SW     5     5   ---   0.7 Broken Clouds/
11/01/2005 09:55      11.0   8.0  13.5  11.0  82  1031   ---   SSW     5     5   ---   0.7 Broken Clouds/
11/01/2005 10:55      12.0   8.0  14.1  12.0  77  1031   ---     N     0     0   ---   3.0 Scattered Clouds/
11/01/2005 11:55      13.0   8.0  14.8  13.0  72  1032   ---   ---     0     0   ---   3.0 Scattered Clouds/
11/01/2005 12:55      13.0   8.0  14.8  13.0  72  1031   ---   ---     0     0   ---   3.0 Scattered Clouds/
11/01/2005 13:55      14.0   8.0  15.5  12.3  67  1030   ---   NNE     6     6   ---   0.7 Scattered Clouds/
11/01/2005 14:55      14.0   9.0  15.8  14.0  72  1030   ---    NE     5     5   ---   0.7 Scattered Clouds/
11/01/2005 15:55      13.0   9.0  15.1  11.2  77  1029   ---     E     6     6   ---   0.7 Broken Clouds/
11/01/2005 16:55      13.0   9.0  15.1  11.2  77  1030   ---     E     6     6   ---   0.7 Broken Clouds/
11/01/2005 17:55      12.0   9.0  14.5  12.0  82  1030   ---   ESE     5     5   ---   0.7 Broken Clouds/
11/01/2005 18:55      12.0   9.0  14.5  12.0  82  1030   ---     N     0     0   ---   0.7 Broken Clouds/
11/01/2005 19:55      12.0   9.0  14.5  12.0  82  1030   ---   ---     0     0   ---   0.7 Broken Clouds/
12/01/2005 07:55      10.0   8.0  12.9  10.0  87  1029   ---    SW     5     5   ---   1.0 Broken Clouds/
12/01/2005 08:55      10.0   8.0  12.9  10.0  87  1029   ---   SSW     5     5   ---   1.0 Broken Clouds/
12/01/2005 09:55      11.0   9.0  13.9  11.0  87  1029   ---     N     0     0   ---   1.0 Broken Clouds/
12/01/2005 10:55      12.0   8.0  14.1  12.0  77  1029   ---   ---     0     0   ---   1.0 Broken Clouds/
12/01/2005 11:55      14.0   9.0  15.8  14.0  72  1029   ---   ---     0     0   ---   0.7 Broken Clouds/
12/01/2005 12:55      14.0   8.0  15.5  14.0  67  1028   ---   ---     0     0   ---   0.7 Broken Clouds/
12/01/2005 13:55      13.0   8.0  14.8  13.0  72  1028   ---   ENE     5     5   ---   0.7 Broken Clouds/
12/01/2005 14:55      13.0   9.0  15.1  13.0  77  1027   ---   ENE     3     3   ---   0.7 Broken Clouds/
12/01/2005 15:55      12.0   9.0  14.5  12.0  82  1027   ---     N     0     0   ---   0.7 Overcast/
12/01/2005 16:55      12.0   9.0  14.5  12.0  82  1027   ---   ---     0     0   ---   0.6 Overcast/
12/01/2005 17:55      12.0   9.0  14.5  12.0  82  1027   ---   ---     0     0   ---   0.6 Broken Clouds/
12/01/2005 18:55      11.0   8.0  13.5  11.0  82  1027   ---   ---     0     0   ---   0.6 Broken Clouds/
12/01/2005 19:55      10.0   8.0  12.9  10.0  87  1027   ---    SW     5     5   ---   0.6 Broken Clouds/
12/01/2005 19:55      10.0   8.0  12.9  10.0  87  1027   ---    SW     5     5   ---   0.6 Broken Clouds/None reported
12/01/2005 19:55      10.0   8.0  12.9  10.0  87  1027   ---    SW     5     5   ---   0.6 Broken Clouds/None reported
13/01/2005 07:55      10.0   5.0  11.7  10.0  71  1025   ---     N     0     0   ---   0.7 Broken Clouds/
13/01/2005 08:55      11.0   7.0  13.1   7.3  76  1025   ---     W     8     8   ---   --- Overcast/ Light Rain
13/01/2005 09:55      10.0   7.0  12.5   5.3  82  1026   ---     S    10    10   ---   0.7 Broken Clouds/
13/01/2005 10:55      13.0   9.0  15.1  13.0  77  1026   ---     N     0     0   ---   0.7 Broken Clouds/
13/01/2005 11:55      13.0   8.0  14.8   7.4  72  1026   ---     W    13    13   ---   0.7 Broken Clouds/
13/01/2005 12:55      14.0   9.0  15.8  10.1  72  1025   ---     W    10    10   ---   0.7 Broken Clouds/
13/01/2005 13:55      13.0   8.0  14.8   7.4  72  1025   ---   WNW    13    13   ---   0.7 Broken Clouds/
13/01/2005 14:55      11.0   7.0  13.1   4.0  76  1024   ---   WNW    14    14   ---   0.7 Broken Clouds/
13/01/2005 15:55      12.0   6.0  13.4   7.7  67  1024   ---    NW    10    10   ---   0.7 Broken Clouds/
13/01/2005 16:55      12.0   6.0  13.4   8.5  67  1024   ---     W     8     8   ---   0.7 Broken Clouds/
13/01/2005 17:55      11.0   7.0  13.1   7.3  76  1024   ---   WNW     8     8   ---   0.7 Broken Clouds/
13/01/2005 18:55      10.0   7.0  12.5   6.2  82  1024   ---     W     8     8   ---   --- Overcast/ Light Rain
13/01/2005 19:55       9.0   7.0  11.9   5.0  87  1024   ---   SSE     8     8   ---   0.6 Broken Clouds/
14/01/2005 07:55       9.0   8.0  12.4   9.0  93  1022   ---    SE     5     5   ---   --- Overcast/ Rain
14/01/2005 08:55      10.0   8.0  12.9   6.2  87  1023   ---     S     8     8   ---   0.7 Broken Clouds/
14/01/2005 09:55      10.0   9.0  13.4   7.9  94  1023   ---     S     6     6   ---   0.7 Scattered Clouds/
14/01/2005 10:55      13.0  11.0  15.9  13.0  88  1023   ---     N     0     0   ---   0.7 Broken Clouds/
14/01/2005 11:55      13.0   9.0  15.1  13.0  77  1023   ---     N     5     5   ---   0.7 Broken Clouds/
14/01/2005 12:55      12.0   8.0  14.1   5.3  77  1023   ---   WNW    14    14   ---   0.7 Broken Clouds/
14/01/2005 13:55      13.0   8.0  14.8  13.0  72  1022   ---     W     5     5   ---   0.7 Scattered Clouds/
14/01/2005 14:55      12.0   9.0  14.5   6.2  82  1022   ---     N    13    13   ---   0.7 Scattered Clouds/
14/01/2005 15:55      12.0   8.0  14.1   7.7  77  1022   ---   NNW    10    10   ---   0.7 Broken Clouds/
14/01/2005 17:55      11.0   8.0  13.5  11.0  82  1022   ---   WNW     3     3   ---   0.7 Scattered Clouds/
14/01/2005 18:55      11.0   8.0  13.5  11.0  82  1022   ---     W     5     5   ---   0.7 Scattered Clouds/
14/01/2005 18:55      11.0   8.0  13.5  11.0  82  1022   ---     W     5     5   ---   0.7 Scattered Clouds/None reported
14/01/2005 19:55       9.0   7.0  11.9   9.0  87  1022   ---     W     5     5   ---   0.7 Scattered Clouds/
15/01/2005 07:55       9.0   7.0  11.9   1.4  87  1022   ---   WNW    14    14   ---   0.5 Overcast/
15/01/2005 08:55       8.0   6.0  10.9   3.8  87  1022   ---     S     8     8   ---   0.6 Broken Clouds/
15/01/2005 09:55       9.0   7.0  11.9   9.0  87  1022   ---     W     3     3   ---   0.7 Broken Clouds/
15/01/2005 10:55      10.0   7.0  12.5  10.0  82  1023   ---     N     5     5   ---   0.7 Broken Clouds/
15/01/2005 11:55      12.0   7.0  13.7  10.1  71  1023   ---   NNW     6     6   ---   0.7 Broken Clouds/
15/01/2005 12:55      10.0   7.0  12.5  10.0  82  1023   ---    SE     3     3   ---   0.6 Broken Clouds/
15/01/2005 13:55      11.0   5.0  12.4   3.1  66  1023   ---   NNE    16    16   ---   0.6 Broken Clouds/
15/01/2005 14:55      11.0   5.0  12.4   3.1  66  1022   ---     N    16    16   ---   0.8 Scattered Clouds/
15/01/2005 15:55      11.0   5.0  12.4   4.0  66  1023   ---     N    14    14   ---   0.8 Scattered Clouds/
15/01/2005 16:55      10.0   4.0  11.4   3.6  66  1023   ---     N    13    13   ---   0.8 Scattered Clouds/
15/01/2005 16:55      10.0   4.0  11.4   3.6  66  1023   ---     N    13    13   ---   0.8 Scattered Clouds/None reported
14/01/2005 18:55      11.0   8.0  13.5  11.0  82  1022   ---     W     5     5   ---   0.7 Scattered Clouds/
15/01/2005 19:55       9.0   2.0  10.1   9.0  62  1023   ---   NNW     5     5   ---   0.8 Scattered Clouds/
16/01/2005 07:55       9.0   5.0  11.1   4.1  76  1021   ---     N    10    10   ---   0.7 Broken Clouds/
16/01/2005 08:55       9.0   4.0  10.7   4.1  71  1021   ---   NNE    10    10   ---   0.7 Broken Clouds/
16/01/2005 09:55       9.0   3.0  10.4   4.1  66  1022   ---     N    10    10   ---   0.7 Broken Clouds/
16/01/2005 10:55      10.0   3.0  11.1   5.3  62  1022   ---     N    10    10   ---   0.7 Broken Clouds/
16/01/2005 11:55      10.0   3.0  11.1   6.2  62  1022   ---     N     8     8   ---   0.7 Broken Clouds/
16/01/2005 12:55      10.0   2.0  10.9   0.5  58  1022   ---   NNE    19    19   ---   0.7 Broken Clouds/
16/01/2005 13:55      10.0   4.0  11.4   2.7  66  1022   ---     N    14    14   ---   0.7 Broken Clouds/
16/01/2005 14:55       9.0   2.0  10.1   2.3  62  1022   ---     N    13    13   ---   0.7 Broken Clouds/
16/01/2005 15:55       9.0   2.0  10.1  -0.0  62  1022   ---   NNE    18    18   ---   0.7 Broken Clouds/
16/01/2005 16:55       9.0   0.0   9.6  -0.9  53  1022   ---     N    19    19   ---   0.7 Broken Clouds/
16/01/2005 17:55       9.0   0.0   9.6   1.4  53  1022   ---     N    14    14   ---   0.7 Broken Clouds/
16/01/2005 18:55       9.0  -2.0   9.2   2.3  46  1022   ---     N    13    13   ---   0.7 Broken Clouds/
16/01/2005 19:55       9.0  -2.0   9.2   4.1  46  1022   ---     N    10    10   ---   0.7 Broken Clouds/
17/01/2005 07:55       8.0   0.0   8.8   2.9  57  1022   ---   NNE    10    10   ---   0.7 Broken Clouds/
17/01/2005 08:55       8.0   0.0   8.8   8.0  57  1022   ---   NNE     5     5   ---   0.7 Broken Clouds/
17/01/2005 09:55       8.0   1.0   9.1   5.7  61  1023   ---     N     6     6   ---   0.7 Broken Clouds/
17/01/2005 10:55       9.0   2.0  10.1   5.0  62  1024   ---     N     8     8   ---   0.7 Broken Clouds/
17/01/2005 11:55       9.0   1.0   9.8   2.3  57  1024   ---   NNE    13    13   ---   0.7 Broken Clouds/
17/01/2005 12:55       9.0   1.0   9.8   1.4  57  1024   ---     N    14    14   ---   0.7 Broken Clouds/
17/01/2005 13:55       9.0   0.0   9.6   1.4  53  1023   ---   NNE    14    14   ---   0.7 Broken Clouds/
17/01/2005 14:55       9.0   1.0   9.8   5.0  57  1023   ---     N     8     8   ---   0.7 Broken Clouds/
17/01/2005 15:55       9.0   1.0   9.8   2.3  57  1023   ---   NNE    13    13   ---   0.8 Scattered Clouds/
17/01/2005 16:55       9.0   1.0   9.8   4.1  57  1023   ---     N    10    10   ---   0.8 Scattered Clouds/
17/01/2005 17:55       8.0   1.0   9.1   8.0  61  1023   ---     N     3     3   ---   0.8 Scattered Clouds/
17/01/2005 18:55       7.0   2.0   8.7   7.0  70  1023   ---     W     5     5   ---   0.9 Scattered Clouds/
17/01/2005 19:55       6.0   2.0   8.0   3.5  75  1023   ---    SW     6     6   ---   0.9 Scattered Clouds/
18/01/2005 07:55       6.0   3.0   8.4   1.5  81  1021   ---   SSW     8     8   ---   0.7 Broken Clouds/
18/01/2005 07:55       6.0   3.0   8.4   1.5  81  1021   ---   SSW     8     8   ---   0.7 Broken Clouds/None reported
18/01/2005 08:55       7.0   3.0   9.0   4.6  76  1020   ---    SW     6     6   ---   0.7 Broken Clouds/
18/01/2005 09:55       8.0   3.0   9.7   3.8  71  1021   ---   SSW     8     8   ---   0.7 Broken Clouds/
18/01/2005 10:55      11.0   5.0  12.4  11.0  66  1020   ---     N     0     0   ---   0.7 Broken Clouds/
18/01/2005 11:55      13.0   5.0  13.9   6.6  58  1020   ---    NW    14    14   ---   0.7 Broken Clouds/
18/01/2005 12:55      13.0   5.0  13.9  13.0  58  1019   ---   SSW     5     5   ---   0.7 Broken Clouds/
17/01/2005 15:55       9.0   1.0   9.8   2.3  57  1023   ---   NNE    13    13   ---   0.8 Scattered Clouds/
18/01/2005 16:55      12.0   4.0  12.9  10.1  58  1016   ---   WSW     6     6   ---   0.7 Broken Clouds/
18/01/2005 17:55      10.0   4.0  11.4  10.0  66  1015   ---   SSW     5     5   ---   0.7 Broken Clouds/
18/01/2005 18:55      10.0   4.0  11.4  10.0  66  1014   ---     N     0     0   ---   0.7 Broken Clouds/
17/01/2005 19:55       6.0   2.0   8.0   3.5  75  1023   ---    SW     6     6   ---   0.9 Scattered Clouds/
18/01/2005 19:55      10.0   5.0  11.7   3.6  71  1013   ---     S    13    13   ---   0.7 Broken Clouds/
19/01/2005 07:55       8.0   6.0  10.9  -0.9  87   998   ---     W    16    39   ---   --- Overcast/ Light Rain
19/01/2005 08:55       8.0   5.0  10.5   5.7  81   998   ---   WSW     6     6   ---   0.8 Broken Clouds/
19/01/2005 09:55       8.0   2.0   9.4   8.0  66   997   ---     N     0     0   ---   0.8 Overcast/
19/01/2005 10:55       9.0   2.0  10.1   2.3  62   997   ---   WSW    13    13   ---   0.8 Broken Clouds/
19/01/2005 12:55      10.0   4.0  11.4   3.6  66   995   ---   WSW    13    31   ---   0.8 Broken Clouds/
19/01/2005 13:55      10.0   3.0  11.1   3.6  62   994   ---   SSW    13    34   ---   0.8 Broken Clouds/
19/01/2005 15:55      10.0   4.0  11.4   6.2  66   992   ---    SW     8     8   ---   0.8 Few Clouds/
19/01/2005 16:55       9.0   3.0  10.4   9.0  66   992   ---     N     0     0   ---   0.7 Broken Clouds/
19/01/2005 17:55       9.0   3.0  10.4   9.0  66   992   ---   SSW     5     5   ---   0.7 Broken Clouds/
19/01/2005 18:55       8.0   5.0  10.5   8.0  81   993   ---     N     0     0   ---   0.7 Broken Clouds/
18/01/2005 19:55      10.0   5.0  11.7   3.6  71  1013   ---     S    13    13   ---   0.7 Broken Clouds/
19/01/2005 19:55       8.0   5.0  10.5   8.0  81   993   ---     W     5     5   ---   0.7 Broken Clouds/
20/01/2005 07:55       8.0   6.0  10.9   8.0  87  1002   ---     N     0     0   ---   0.6 Broken Clouds/
20/01/2005 08:55       9.0   7.0  11.9   9.0  87  1004   ---     W     3     3   ---   0.5 Broken Clouds/
20/01/2005 09:55       9.0   7.0  11.9   9.0  87  1006   ---    SE     5     5   ---   --- Overcast/ Light Rain
20/01/2005 10:55       9.0   7.0  11.9   6.8  87  1008   ---    NE     6     6   ---   --- Overcast/ Light Rain
20/01/2005 11:55      11.0   8.0  13.5  11.0  82  1008   ---   NNW     5     5   ---   0.6 Broken Clouds/
20/01/2005 12:55      12.0   8.0  14.1  12.0  77  1009   ---     N     5     5   ---   0.6 Broken Clouds/
20/01/2005 13:55      12.0   9.0  14.5   2.6  82  1009   ---     N    23    23   ---   0.5 Broken Clouds/
20/01/2005 15:55      12.0   7.0  13.7   6.2  71  1010   ---   NNE    13    13   ---   0.6 Broken Clouds/
20/01/2005 16:55      12.0   8.0  14.1   7.7  77  1012   ---     N    10    10   ---   0.5 Broken Clouds/
20/01/2005 17:55      12.0   8.0  14.1   6.2  77  1012   ---     N    13    13   ---   0.5 Broken Clouds/
20/01/2005 18:55      11.0   8.0  13.5   4.9  82  1013   ---     N    13    13   ---   0.6 Broken Clouds/
20/01/2005 19:55      12.0   9.0  14.5   7.7  82  1014   ---     N    10    10   ---   0.6 Broken Clouds/
20/01/2005 19:55      12.0   9.0  14.5   7.7  82  1014   ---     N    10    10   ---   0.6 Broken Clouds/None reported
21/01/2005 07:55       8.0   2.0   9.4   5.7  66  1011   ---   SSW     6     6   ---   --- /
21/01/2005 08:55       9.0   3.0  10.4   9.0  66  1010   ---   NNE     3     3   ---   6.0 Scattered Clouds/
21/01/2005 09:55      11.0   4.0  12.1   7.3  62  1010   ---   SSE     8     8   ---   0.8 Scattered Clouds/
21/01/2005 10:55      13.0   8.0  14.8  13.0  72  1010   ---     N     0     0   ---   0.7 Broken Clouds/
21/01/2005 11:55      14.0   9.0  15.8  14.0  72  1010   ---   SSW     5     5   ---   0.7 Broken Clouds/
21/01/2005 12:55      14.0   9.0  15.8  10.8  72  1009   ---     W     8     8   ---   0.7 Overcast/
21/01/2005 13:55      14.0   8.0  15.5  10.8  67  1008   ---   WSW     8     8   ---   0.7 Broken Clouds/
21/01/2005 14:55      15.0   8.0  16.2  13.3  63  1007   ---     W     6     6   ---   0.7 Broken Clouds/
21/01/2005 15:55      15.0   7.0  15.9  15.0  59  1007   ---     N     0     0   ---   0.7 Broken Clouds/
21/01/2005 16:55      14.0   8.0  15.5   8.0  67  1007   ---   WNW    14    32   ---   0.7 Broken Clouds/
21/01/2005 17:55      13.0   7.0  14.4   5.8  67  1007   ---   WNW    16    16   ---   0.7 Scattered Clouds/
21/01/2005 18:55      11.0   8.0  13.5   9.0  82  1008   ---   WNW     6     6   ---   0.6 Few Clouds/
21/01/2005 18:55      11.0   8.0  13.5   9.0  82  1008   ---   WNW     6     6   ---   0.6 Few Clouds/None reported
21/01/2005 19:55      10.0   7.0  12.5  10.0  82  1008   ---     N     0     0   ---   0.6 Few Clouds/
20/01/2005 19:55      12.0   9.0  14.5   7.7  82  1014   ---     N    10    10   ---   0.6 Broken Clouds/
22/01/2005 07:55      11.0   8.0  13.5  11.0  82  1008   ---     N     0     0   ---   0.7 Broken Clouds/
22/01/2005 08:55      12.0   8.0  14.1  12.0  77  1008   ---   ---     0     0   ---   3.0 Scattered Clouds/
22/01/2005 09:55      12.0   9.0  14.5   8.5  82  1008   ---    SW     8     8   ---   3.0 Scattered Clouds/
22/01/2005 09:55      12.0   9.0  14.5   8.5  82  1008   ---    SW     8     8   ---   0.2 Scattered Clouds/None reported
22/01/2005 09:55      12.0   9.0  14.5   8.5  82  1008   ---    SW     8     8   ---   0.2 Scattered Clouds/None reported
22/01/2005 11:55      14.0   7.0  15.2  10.8  63  1009   ---     W     8     8   ---   0.7 Few Clouds/
22/01/2005 12:55      14.0   7.0  15.2   8.7  63  1009   ---   WNW    13    13   ---   0.7 Few Clouds/
22/01/2005 13:55      15.0   7.0  15.9   8.6  59  1009   ---     W    16    16   ---   0.7 Scattered Clouds/
22/01/2005 14:55      14.0   8.0  15.5   8.0  67  1009   ---     W    14    14   ---   0.7 Scattered Clouds/
22/01/2005 15:55      14.0   9.0  15.8   8.0  72  1009   ---   WNW    14    14   ---   0.7 Scattered Clouds/
22/01/2005 16:55      14.0   9.0  15.8   8.7  72  1009   ---   WNW    13    13   ---   0.7 Scattered Clouds/
22/01/2005 17:55      13.0   8.0  14.8   6.6  72  1009   ---   WNW    14    14   ---   0.7 Scattered Clouds/
22/01/2005 18:55      12.0   8.0  14.1   4.1  77  1010   ---   WNW    18    18   ---   0.7 Scattered Clouds/
22/01/2005 19:55      13.0   9.0  15.1   7.4  77  1011   ---    NW    13    13   ---   0.7 Scattered Clouds/

23/01/2005 07:55      12.0   9.0  14.5  12.0  82  1013   ---     S     5     5   ---   0.7 Broken Clouds/
23/01/2005 08:55      12.0   8.0  14.1   8.5  77  1014   ---    SE     8     8   ---   0.7 Scattered Clouds/
23/01/2005 09:55      13.0   9.0  15.1   9.7  77  1014   ---   SSE     8     8   ---   0.7 Scattered Clouds/
23/01/2005 10:55      14.0   8.0  15.5  12.3  67  1015   ---     S     6     6   ---   0.7 Scattered Clouds/
23/01/2005 10:55      14.0   8.0  15.5  12.3  67  1015   ---     S     6     6   ---   0.7 Scattered Clouds/None reported
23/01/2005 10:55      14.0   8.0  15.5  12.3  67  1015   ---     S     6     6   ---   0.7 Scattered Clouds/None reported
23/01/2005 10:55      14.0   8.0  15.5  12.3  67  1015   ---     S     6     6   ---   0.7 Scattered Clouds/None reported
23/01/2005 11:55      15.0   8.0  16.2  15.0  63  1015   ---     N     0     0   ---   0.7 Scattered Clouds/
23/01/2005 12:55      15.0   7.0  15.9  15.0  59  1015   ---    SE     3     3   ---   0.7 Broken Clouds/
23/01/2005 13:55      16.0   7.0  16.7  13.2  55  1014   ---    NW     8     8   ---   0.7 Scattered Clouds/
23/01/2005 14:55      15.0   4.0  15.3  11.3  48  1014   ---    NW    10    10   ---   0.7 Scattered Clouds/
23/01/2005 15:55      14.0   6.0  14.9  10.1  59  1014   ---   WNW    10    10   ---   0.7 Scattered Clouds/
23/01/2005 16:55      14.0   8.0  15.5  10.8  67  1013   ---     W     8     8   ---   0.7 Broken Clouds/
23/01/2005 17:55      14.0   8.0  15.5  12.3  67  1013   ---   WSW     6     6   ---   0.7 Broken Clouds/
23/01/2005 18:55      13.0   7.0  14.4  13.0  67  1013   ---    SW     3     3   ---   0.7 Broken Clouds/
23/01/2005 19:55      13.0   9.0  15.1   7.4  77  1013   ---     W    13    13   ---   0.7 Broken Clouds/
23/01/2005 19:55      13.0   9.0  15.1   7.4  77  1013   ---     W    13    13   ---   0.7 Broken Clouds/None reported
24/01/2005 07:55      11.0   7.0  13.1  11.0  76  1009   ---     N     0     0   ---   0.7 Few Clouds/
24/01/2005 08:55      12.0   8.0  14.1  10.1  77  1008   ---   WSW     6     6   ---   0.7 Broken Clouds/
24/01/2005 09:55      13.0   8.0  14.8   6.6  72  1008   ---   WSW    14    32   ---   0.8 Broken Clouds/
24/01/2005 10:55      14.0   9.0  15.8  14.0  72  1007   ---    SW     5     5   ---   0.8 Broken Clouds/
24/01/2005 11:55      13.0   8.0  14.8   5.5  72  1006   ---   WSW    18    18   ---   0.8 Broken Clouds/
24/01/2005 12:55      13.0  10.0  15.5   4.8  82  1005   ---     W    19    19   ---   0.8 Broken Clouds/
24/01/2005 13:55      13.0  11.0  15.9   4.4  88  1004   ---     W    21    21   ---   0.7 Broken Clouds/
24/01/2005 14:55      14.0   9.0  15.8  10.8  72  1003   ---    SW     8     8   ---   0.8 Broken Clouds/
24/01/2005 15:55      13.0   9.0  15.1   6.6  77  1003   ---   WNW    14    14   ---   --- Overcast/ Light Rain
24/01/2005 16:55      12.0  10.0  14.9   5.3  88  1003   ---     W    14    14   ---   0.8 Broken Clouds/
24/01/2005 17:55      12.0   8.0  14.1   6.2  77  1002   ---   WSW    13    13   ---   0.8 Broken Clouds/
24/01/2005 18:55      11.0   7.0  13.1   4.9  76  1002   ---   WSW    13    13   ---   0.8 Broken Clouds/
24/01/2005 19:55      12.0   8.0  14.1   7.7  77  1003   ---   WSW    10    10   ---   0.8 Broken Clouds/
24/01/2005 19:55      12.0   8.0  14.1   7.7  77  1003   ---   WSW    10    10   ---   0.8 Broken Clouds/None reported
25/01/2005 08:55       8.0   6.0  10.9   3.8  87  1000   ---   SSW     8     8   ---   0.7 Broken Clouds/
25/01/2005 09:55       9.0   7.0  11.9   9.0  87   999   ---     N     0     0   ---   0.7 Broken Clouds/
25/01/2005 10:55       8.0   6.0  10.9   3.8  87   999   ---   SSW     8     8   ---   --- Overcast/ Light Rain
25/01/2005 11:55       8.0   7.0  11.4   8.0  93   999   ---     N     0     0   ---   --- Overcast/ Light Rain
25/01/2005 12:55       8.0   6.0  10.9   8.0  87   998   ---   ---     0     0   ---   --- Overcast/ Light Rain
25/01/2005 13:55       7.0   5.0   9.9   4.6  87   998   ---   SSW     6     6   ---   --- Overcast/ Light Rain
25/01/2005 14:55       7.0   5.0   9.9   4.6  87   997   ---     S     6     6   ---   0.6 Overcast/
24/01/2005 15:55      13.0   9.0  15.1   6.6  77  1003   ---   WNW    14    14   ---   --- Overcast/ Light Rain
25/01/2005 16:55       7.0   2.0   8.7  -5.9  70   996   ---     W    27    27   ---   --- Overcast/ Light Rain
25/01/2005 17:55       8.0  -4.0   8.1  -5.0  42   995   ---     W    31    31   ---   0.6 Broken Clouds/
25/01/2005 18:55       7.0   0.0   8.1   2.7  61   995   ---    SW     8     8   ---   0.6 Overcast/
25/01/2005 19:55       5.0   1.0   7.0  -2.8  75   995   ---   WSW    13    13   ---   0.6 Overcast/
26/01/2005 07:55       4.0   1.0   6.4  -1.9  81   993   ---    SW    10    10   ---   0.7 Broken Clouds/
26/01/2005 08:55       4.0   2.0   6.9   4.0  87   993   ---     E     5     5   ---   0.6 Broken Clouds/
26/01/2005 09:55       5.0   1.0   7.0  -5.5  75   993   ---   SSW    18    18   ---   0.6 Broken Clouds/
26/01/2005 10:55       7.0   4.0   9.4   1.7  81   993   ---   WSW    10    10   ---   0.6 Broken Clouds/
26/01/2005 11:55       6.0   3.0   8.4   6.0  81   994   ---     W     5     5   ---   --- Overcast/ Rain
26/01/2005 12:55       8.0   3.0   9.7  -3.2  71   993   ---   WSW    23    23   ---   0.7 Broken Clouds/
26/01/2005 14:55       4.0   2.0   6.9  -9.9  87   994   ---     W    26    26   ---   --- Overcast/ Rain
26/01/2005 15:55       5.0   3.0   7.9  -6.5  87   994   ---     W    19    19   ---   0.6 Broken Clouds/
26/01/2005 15:55       5.0   3.0   7.9  -6.5  87   994   ---     W    19    19   ---   0.6 Broken Clouds/None reported
26/01/2005 15:55       5.0   3.0   7.9  -6.5  87   994   ---     W    19    19   ---   0.6 Broken Clouds/None reported
27/01/2005 12:55       7.0   3.0   9.0   2.7  76  1002   ---   WSW     8     8   ---   0.6 Broken Clouds/
27/01/2005 13:55       7.0   4.0   9.4   7.0  81  1003   ---   WSW     5     5   ---   0.6 Broken Clouds/
27/01/2005 14:55       8.0   5.0  10.5   5.7  81  1003   ---     N     6     6   ---   0.7 Broken Clouds/
27/01/2005 16:55       6.0   3.0   8.4   1.5  81  1004   ---    NE     8     8   ---   0.7 Broken Clouds/
27/01/2005 17:55       6.0   3.0   8.4   3.5  81  1004   ---   ENE     6     6   ---   0.7 Broken Clouds/
27/01/2005 18:55       5.0   2.0   7.4   2.4  81  1004   ---   ENE     6     6   ---   0.7 Broken Clouds/
27/01/2005 19:55       5.0   3.0   7.9   5.0  87  1005   ---     N     0     0   ---   0.7 Broken Clouds/
28/01/2005 07:55       5.0   0.0   6.6   2.4  70  1005   ---     W     6     6   ---   0.7 Scattered Clouds/
28/01/2005 08:55       6.0   1.0   7.7   6.0  70  1005   ---     N     0     0   ---   0.7 Broken Clouds/
28/01/2005 09:55       7.0   1.0   8.4   7.0  66  1005   ---   ---     0     0   ---   0.7 Broken Clouds/
28/01/2005 10:55       8.0   3.0   9.7   5.7  71  1005   ---   SSW     6     6   ---   0.7 Broken Clouds/
28/01/2005 11:55       9.0   2.0  10.1   9.0  62  1005   ---   NNW     5     5   ---   0.7 Broken Clouds/
28/01/2005 12:55      10.0   2.0  10.9   5.3  58  1005   ---   WSW    10    10   ---   0.7 Broken Clouds/
28/01/2005 13:55      10.0   2.0  10.9   5.3  58  1004   ---   SSW    10    10   ---   0.7 Broken Clouds/
28/01/2005 14:55      10.0   2.0  10.9   0.1  58  1004   ---   NNW    21    21   ---   --- Overcast/ Light Rain
28/01/2005 16:55       5.0   3.0   7.9   0.4  87  1003   ---    SW     8     8   ---   0.7 Broken Clouds/
28/01/2005 17:55       6.0   4.0   8.9   6.0  87  1003   ---   WSW     5     5   ---   0.7 Scattered Clouds/
28/01/2005 18:55       5.0   1.0   7.0   5.0  75  1003   ---   WSW     3     3   ---   0.7 Few Clouds/
28/01/2005 18:55       5.0   1.0   7.0   5.0  75  1003   ---   WSW     3     3   ---   0.7 Few Clouds/None reported
28/01/2005 19:55       6.0   2.0   8.0   6.0  75  1003   ---   WSW     5     5   ---   0.7 Scattered Clouds/
28/01/2005 19:55       6.0   2.0   8.0   6.0  75  1003   ---   WSW     5     5   ---   0.7 Scattered Clouds/None reported
27/01/2005 19:55       5.0   3.0   7.9   5.0  87  1005   ---     N     0     0   ---   0.7 Broken Clouds/
27/01/2005 19:55       5.0   3.0   7.9   5.0  87  1005   ---   ---     0     0   ---   0.7 Broken Clouds/None reported
29/01/2005 07:55       6.0   1.0   7.7  -2.6  70   998   ---   WSW    14    14   ---   0.7 Broken Clouds/
29/01/2005 08:55       6.0   2.0   8.0   1.5  75   998   ---   WSW     8     8   ---   --- Overcast/ Light Rain
29/01/2005 09:55       6.0   3.0   8.4  -2.6  81   998   ---     W    14    14   ---   0.7 Broken Clouds/
29/01/2005 10:55       6.0   4.0   8.9  -1.5  87   999   ---     W    13    13   ---   --- Overcast/ Light Rain
29/01/2005 11:55       7.0   4.0   9.4   7.0  81  1000   ---     N     0     0   ---   0.7 Broken Clouds/
29/01/2005 12:55       7.0   3.0   9.0   4.6  76  1000   ---   WSW     6     6   ---   0.6 Broken Clouds/
29/01/2005 14:55       8.0   3.0   9.7   1.0  71   999   ---    NW    13    13   ---   --- Overcast/ Light Rain
29/01/2005 15:55       7.0   4.0   9.4   2.7  81  1000   ---     W     8     8   ---   --- Overcast/ Light Rain
29/01/2005 16:55       7.0   3.0   9.0   2.7  76  1000   ---   WNW     8     8   ---   0.5 Broken Clouds/
29/01/2005 17:55       6.0   4.0   8.9  -1.5  87  1001   ---   WNW    13    13   ---   --- Overcast/ Light Rain
29/01/2005 18:55       5.0   3.0   7.9  -0.7  87  1002   ---   WSW    10    10   ---   0.7 Broken Clouds/
29/01/2005 17:55       6.0   4.0   8.9  -1.5  87  1001   ---   WNW    13    13   ---   --- Overcast/ Light Rain
29/01/2005 18:55       5.0   3.0   7.9  -0.7  87  1002   ---   WSW    10    10   ---   0.7 Broken Clouds/
29/01/2005 19:55       5.0   2.0   7.4   5.0  81  1003   ---     W     5     5   ---   0.7 Broken Clouds/
28/01/2005 19:55       6.0   2.0   8.0   6.0  75  1003   ---   WSW     5     5   ---   0.7 Scattered Clouds/
29/01/2005 19:55       5.0   2.0   7.4   5.0  81  1003   ---     W     5     5   ---   0.7 Broken Clouds/
30/01/2005 07:55       5.0   2.0   7.4   0.4  81  1008   ---     S     8     8   ---   0.7 Broken Clouds/
30/01/2005 08:55       5.0   2.0   7.4   5.0  81  1009   ---     S     5     5   ---   --- Overcast/ Light Rain
30/01/2005 09:55       5.0   3.0   7.9   0.4  87  1010   ---     W     8     8   ---   0.7 Broken Clouds/
30/01/2005 10:55       6.0   2.0   8.0   6.0  75  1010   ---     N     0     0   ---   0.7 Scattered Clouds/
30/01/2005 11:55       9.0   1.0   9.8   6.8  57  1010   ---   WSW     6     6   ---   0.7 Scattered Clouds/
29/01/2005 12:55       7.0   3.0   9.0   4.6  76  1000   ---   WSW     6     6   ---   0.6 Broken Clouds/
30/01/2005 14:55       9.0   0.0   9.6   6.8  53  1010   ---     W     6     6   ---   0.7 Scattered Clouds/
30/01/2005 15:55       8.0  -1.0   8.6   8.0  53  1009   ---     W     5     5   ---   0.7 Broken Clouds/
30/01/2005 16:55       7.0   1.0   8.4   2.7  66  1010   ---     W     8     8   ---   0.7 Broken Clouds/
30/01/2005 17:55       6.0  -1.0   7.1   6.0  61  1010   ---   WSW     5     5   ---   0.7 Few Clouds/
29/01/2005 18:55       5.0   3.0   7.9  -0.7  87  1002   ---   WSW    10    10   ---   0.7 Broken Clouds/
29/01/2005 18:55       5.0   3.0   7.9  -0.7  87  1002   ---   WSW    10    10   ---   0.7 Broken Clouds/None reported
30/01/2005 19:55       5.0   1.0   7.0   5.0  75  1011   ---     N     0     0   ---   --- /
30/01/2005 19:55       5.0   1.0   7.0   5.0  75  1011   ---   ---     0     0   ---   --- None reported/None reported
31/01/2005 07:55       6.0   3.0   8.4   6.0  81  1016   ---   ---     0     0   ---   0.7 Broken Clouds/
31/01/2005 08:55       5.0   2.0   7.4   5.0  81  1017   ---   ---     0     0   ---   0.7 Broken Clouds/
31/01/2005 09:55       7.0   3.0   9.0   7.0  76  1017   ---   ---     0     0   ---   0.7 Broken Clouds/
31/01/2005 10:55       9.0   3.0  10.4   5.0  66  1018   ---   NNW     8     8   ---   0.7 Broken Clouds/
31/01/2005 11:55       9.0   3.0  10.4   6.8  66  1018   ---   NNW     6     6   ---   0.7 Scattered Clouds/
31/01/2005 12:55      10.0   1.0  10.6   6.2  54  1019   ---    NW     8     8   ---   0.7 Scattered Clouds/
31/01/2005 13:55      10.0   2.0  10.9   5.3  58  1019   ---    NW    10    10   ---   0.7 Broken Clouds/
31/01/2005 14:55      10.0   2.0  10.9  10.0  58  1019   ---    NW     5     5   ---   0.7 Broken Clouds/
31/01/2005 15:55      10.0   3.0  11.1   7.9  62  1019   ---   NNW     6     6   ---   0.7 Broken Clouds/
31/01/2005 16:55       9.0   3.0  10.4   5.0  66  1019   ---     N     8     8   ---   0.7 Broken Clouds/
31/01/2005 17:55       9.0   2.0  10.1   6.8  62  1019   ---   NNW     6     6   ---   0.7 Broken Clouds/
31/01/2005 18:55       8.0   2.0   9.4   8.0  66  1019   ---     N     0     0   ---   0.7 Broken Clouds/
31/01/2005 19:55       7.0   4.0   9.4   7.0  81  1020   ---   ---     0     0   ---   0.7 Scattered Clouds/
01/02/2005 07:55       7.0   3.0   9.0   4.6  76  1018   ---   WSW     6     6   ---   0.7 Scattered Clouds/
01/02/2005 08:55       7.0   2.0   8.7   4.6  70  1017   ---   WSW     6     6   ---   0.7 Scattered Clouds/
01/02/2005 09:55       9.0   1.0   9.8   4.1  57  1017   ---     S    10    10   ---   0.7 Scattered Clouds/
01/02/2005 10:55      10.0   1.0  10.6   5.3  54  1017   ---   WSW    10    10   ---   0.7 Scattered Clouds/
01/02/2005 11:55      10.0   2.0  10.9  10.0  58  1016   ---     N     0     0   ---   0.7 Broken Clouds/
01/02/2005 12:55      11.0   1.0  11.4  11.0  50  1015   ---   ---     0     0   ---   0.7 Scattered Clouds/
01/02/2005 13:55      11.0   1.0  11.4   1.5  50  1014   ---     W    21    21   ---   0.7 Broken Clouds/
01/02/2005 15:55      11.0   5.0  12.4   7.3  66  1012   ---     W     8     8   ---   0.7 Broken Clouds/
01/02/2005 16:55      10.0   6.0  12.1  10.0  76  1011   ---   WSW     5     5   ---   --- Overcast/ Light Rain
01/02/2005 17:55      10.0   5.0  11.7   6.2  71  1011   ---    NW     8     8   ---   0.6 Broken Clouds/
01/02/2005 19:55       9.0   7.0  11.9   5.0  87  1011   ---   WNW     8     8   ---   --- Overcast/ Light Rain
02/02/2005 07:55       8.0   5.0  10.5   5.7  81  1010   ---   WSW     6     6   ---   --- Overcast/ Light Rain
02/02/2005 08:55       7.0   4.0   9.4  -4.2  81  1011   ---     N    21    21   ---   --- Overcast/ Light Rain
02/02/2005 09:55       8.0   4.0  10.0   1.0  76  1012   ---   ENE    13    13   ---   0.6 Broken Clouds/
02/02/2005 10:55       9.0   3.0  10.4  -0.0  66  1013   ---    SW    18    18   ---   0.6 Broken Clouds/
02/02/2005 11:55       8.0   4.0  10.0  -2.7  76  1014   ---     N    21    21   ---   0.9 Broken Clouds/
02/02/2005 12:55       9.0   2.0  10.1  -0.0  62  1014   ---    SW    18    18   ---   0.9 Broken Clouds/
02/02/2005 13:55      10.0   0.0  10.4  -0.3  50  1015   ---     N    23    23   ---   0.9 Scattered Clouds/
02/02/2005 14:55      10.0   0.0  10.4  -0.3  50  1015   ---   ENE    23    23   ---   0.9 Broken Clouds/
02/02/2005 15:55       9.0   1.0   9.8   1.4  57  1015   ---   NNE    14    14   ---   0.9 Broken Clouds/
02/02/2005 16:55       9.0   0.0   9.6   1.4  53  1017   ---     N    14    14   ---   0.9 Broken Clouds/
02/02/2005 17:55       8.0  -3.0   8.2  -1.4  46  1017   ---   NNE    18    18   ---   0.9 Scattered Clouds/
02/02/2005 17:55       8.0  -3.0   8.2  -1.4  46  1017   ---   NNE    18    18   ---   0.9 Scattered Clouds/None reported
01/02/2005 18:55       9.0   7.0  11.9   9.0  87  1011   ---     N     0     0   ---   0.6 Broken Clouds/
02/02/2005 19:55       7.0  -2.0   7.6  -0.2  53  1018   ---   NNE    13    13   ---   0.8 Broken Clouds/
02/02/2005 19:55       7.0  -2.0   7.6  -0.2  53  1018   ---   NNE    13    13   ---   0.8 Broken Clouds/None reported
02/02/2005 19:55       7.0  -2.0   7.6  -0.2  53  1018   ---   NNE    13    13   ---   0.8 Broken Clouds/None reported
02/02/2005 19:55       7.0  -2.0   7.6  -0.2  53  1018   ---   NNE    13    13   ---   0.8 Broken Clouds/None reported
03/02/2005 07:55       7.0  -1.0   7.8  -1.3  57  1020   ---   NNW    14    14   ---   0.7 Few Clouds/
03/02/2005 07:55       7.0  -1.0   7.8  -1.3  57  1020   ---   NNW    14    14   ---   0.7 Few Clouds/None reported
03/02/2005 08:55       8.0  -2.0   8.4   2.9  49  1020   ---   NNW    10    10   ---   0.7 Scattered Clouds/
03/02/2005 09:55       9.0  -1.0   9.4   5.0  50  1021   ---     N     8     8   ---   0.7 Scattered Clouds/
03/02/2005 10:55      10.0  -1.0  10.3   6.2  46  1021   ---   NNE     8     8   ---   0.7 Scattered Clouds/
03/02/2005 11:55      10.0   0.0  10.4   3.6  50  1021   ---   NNE    13    13   ---   0.7 Scattered Clouds/
03/02/2005 12:55      11.0   1.0  11.4   4.0  50  1021   ---     N    14    14   ---   0.7 Scattered Clouds/
03/02/2005 14:55      11.0   2.0  11.6   4.9  54  1020   ---     W    13    13   ---   0.7 Scattered Clouds/
03/02/2005 15:55      11.0   1.0  11.4   7.3  50  1020   ---   NNW     8     8   ---   0.7 Few Clouds/
03/02/2005 16:55      10.0   0.0  10.4  10.0  50  1020   ---    NW     5     5   ---   0.7 Few Clouds/
03/02/2005 18:55       8.0   2.0   9.4   8.0  66  1020   ---     N     0     0   ---   --- /
03/02/2005 19:55       8.0   3.0   9.7   8.0  71  1021   ---   ---     0     0   ---   --- /
04/02/2005 07:55       7.0   5.0   9.9   7.0  87  1023   ---   ---     0     0   ---   0.8 Broken Clouds/
04/02/2005 08:55       7.0   4.0   9.4   7.0  81  1023   ---   ---     0     0   ---   0.8 Broken Clouds/
04/02/2005 09:55       9.0   4.0  10.7   9.0  71  1024   ---   ---     0     0   ---   0.8 Broken Clouds/
04/02/2005 10:55      10.0   2.0  10.9  10.0  58  1024   ---   ---     0     0   ---   0.8 Broken Clouds/
04/02/2005 12:55      11.0   0.0  11.3   6.5  47  1025   ---   ENE    10    10   ---   0.8 Scattered Clouds/
04/02/2005 13:55      10.0  -1.0  10.3   3.6  46  1024   ---    NE    13    13   ---   0.8 Scattered Clouds/
04/02/2005 14:55      10.0   0.0  10.4   5.3  50  1024   ---     E    10    10   ---   0.9 Broken Clouds/
04/02/2005 15:55      10.0   0.0  10.4   6.2  50  1023   ---     E     8     8   ---   0.9 Broken Clouds/
04/02/2005 16:55       9.0  -1.0   9.4   2.3  50  1023   ---   ENE    13    13   ---   0.9 Broken Clouds/
04/02/2005 17:55       9.0  -1.0   9.4   2.3  50  1023   ---     E    13    13   ---   0.9 Scattered Clouds/
04/02/2005 18:55       8.0  -1.0   8.6   8.0  53  1023   ---     N     0     0   ---   0.9 Few Clouds/
04/02/2005 19:55       6.0   1.0   7.7   6.0  70  1024   ---   ---     0     0   ---   0.9 Scattered Clouds/
05/02/2005 07:55       7.0   4.0   9.4   7.0  81  1022   ---   ---     0     0   ---   0.8 Overcast/
05/02/2005 08:55       6.0   4.0   8.9   6.0  87  1022   ---   ---     0     0   ---   0.8 Overcast/
05/02/2005 09:55       7.0   5.0   9.9   4.6  87  1023   ---   SSW     6     6   ---   0.8 Overcast/
05/02/2005 10:55       9.0   4.0  10.7   9.0  71  1023   ---    SW     5     5   ---   0.7 Broken Clouds/
05/02/2005 10:55       9.0   4.0  10.7   9.0  71  1023   ---    SW     5     5   ---   0.7 Broken Clouds/None reported
05/02/2005 12:55      12.0   3.0  12.7  12.0  54  1023   ---     N     0     0   ---   0.8 Broken Clouds/
05/02/2005 12:55      12.0   3.0  12.7  12.0  54  1023   ---   ---     0     0   ---   0.8 Broken Clouds/None reported
05/02/2005 12:55      12.0   3.0  12.7  12.0  54  1023   ---   ---     0     0   ---   0.8 Broken Clouds/None reported
05/02/2005 13:55      11.0   3.0  11.9   7.3  58  1022   ---     E     8     8   ---   0.8 Scattered Clouds/
05/02/2005 14:55      11.0   4.0  12.1   7.3  62  1022   ---     E     8     8   ---   0.8 Broken Clouds/
05/02/2005 15:55      10.0   5.0  11.7   6.2  71  1022   ---     E     8     8   ---   0.8 Broken Clouds/
05/02/2005 16:55      10.0   4.0  11.4   7.9  66  1022   ---     E     6     6   ---   0.8 Broken Clouds/
05/02/2005 17:55       9.0   5.0  11.1   6.8  76  1022   ---   NNE     6     6   ---   0.8 Broken Clouds/
05/02/2005 18:55       9.0   3.0  10.4   9.0  66  1022   ---     N     0     0   ---   0.7 Broken Clouds/
05/02/2005 19:55       8.0   2.0   9.4   8.0  66  1022   ---   ---     0     0   ---   0.8 Broken Clouds/
06/02/2005 07:55       5.0   0.0   6.6   5.0  70  1023   ---   ---     0     0   ---   0.8 Scattered Clouds/
06/02/2005 08:55       6.0   0.0   7.3   6.0  65  1024   ---   ---     0     0   ---   0.8 Scattered Clouds/
06/02/2005 09:55       7.0   0.0   8.1   7.0  61  1024   ---   ---     0     0   ---   0.7 Scattered Clouds/
06/02/2005 10:55      10.0  -1.0  10.3  10.0  46  1024   ---   ---     0     0   ---   0.7 Scattered Clouds/
06/02/2005 12:55       9.0  -5.0   8.8   6.8  37  1024   ---   SSE     6     6   ---   --- /
06/02/2005 13:55       9.0  -5.0   8.8   5.0  37  1024   ---     E     8     8   ---   --- /
06/02/2005 14:55       9.0  -4.0   8.9   9.0  40  1023   ---     E     5     5   ---   --- /
06/02/2005 15:55       9.0  -4.0   8.9   6.8  40  1023   ---     E     6     6   ---   --- /
06/02/2005 16:55       9.0  -4.0   8.9   5.0  40  1023   ---     E     8     8   ---   --- /
06/02/2005 16:55       9.0  -4.0   8.9   5.0  40  1023   ---     E     8     8   ---   --- None reported/None reported
06/02/2005 17:55       9.0  -3.0   9.1   9.0  43  1023   ---     E     5     5   ---   --- /
06/02/2005 18:55       7.0  -2.0   7.6   7.0  53  1023   ---     N     0     0   ---   --- /
06/02/2005 19:55       6.0   1.0   7.7   6.0  70  1023   ---   ---     0     0   ---   --- /
07/02/2005 07:55       4.0  -1.0   5.6   4.0  70  1024   ---     W     5     5   ---   --- /
07/02/2005 08:55       5.0   0.0   6.6   5.0  70  1025   ---   WSW     5     5   ---   --- /
07/02/2005 09:55       6.0  -1.0   7.1   6.0  61  1025   ---     N     0     0   ---   --- /
07/02/2005 10:55      10.0  -1.0  10.3  10.0  46  1025   ---   ---     0     0   ---   --- /
07/02/2005 11:55      11.0  -2.0  11.0  11.0  40  1026   ---   ENE     5     5   ---   --- /
07/02/2005 12:55      11.0  -1.0  11.1   7.3  43  1025   ---   ENE     8     8   ---   --- /
07/02/2005 13:55      11.0  -1.0  11.1   9.0  43  1025   ---     E     6     6   ---   --- /
07/02/2005 14:55      12.0  -1.0  12.0   7.7  41  1025   ---     E    10    10   ---   --- /
07/02/2005 15:55      12.0  -1.0  12.0  10.1  41  1025   ---   NNE     6     6   ---   --- /
07/02/2005 16:55      11.0   1.0  11.4  11.0  50  1025   ---     N     0     0   ---   --- /
07/02/2005 17:55      11.0   3.0  11.9  11.0  58  1025   ---   ---     0     0   ---   1.0 Scattered Clouds/
07/02/2005 19:55       9.0   6.0  11.5   9.0  81  1026   ---   WSW     5     5   ---   1.2 Broken Clouds/
08/02/2005 07:55       7.0   4.0   9.4   7.0  81  1027   ---     N     0     0   ---   --- /
08/02/2005 08:55       8.0   3.0   9.7   8.0  71  1027   ---     S     5     5   ---   --- /
08/02/2005 09:55      10.0   4.0  11.4  10.0  66  1027   ---     S     5     5   ---   --- /
08/02/2005 10:55      11.0   4.0  12.1   9.0  62  1027   ---    SE     6     6   ---   0.8 Few Clouds/
08/02/2005 11:55      12.0   3.0  12.7   6.2  54  1027   ---    SE    13    13   ---   0.8 Few Clouds/
08/02/2005 12:55      13.0   4.0  13.7   9.7  54  1027   ---     E     8     8   ---   0.8 Scattered Clouds/
08/02/2005 13:55      12.0   5.0  13.1  12.0  62  1026   ---     E     5     5   ---   0.8 Broken Clouds/
08/02/2005 14:55      12.0   7.0  13.7   8.5  71  1026   ---     E     8     8   ---   0.8 Broken Clouds/
08/02/2005 15:55      11.0   7.0  13.1   3.1  76  1025   ---     E    16    16   ---   0.8 Broken Clouds/
08/02/2005 16:55      11.0   7.0  13.1   4.9  76  1025   ---     E    13    13   ---   0.8 Broken Clouds/
08/02/2005 17:55      11.0   6.0  12.7   9.0  71  1024   ---    SE     6     6   ---   0.8 Broken Clouds/
08/02/2005 18:55      11.0   7.0  13.1  11.0  76  1024   ---    SE     5     5   ---   0.8 Broken Clouds/
08/02/2005 19:55      10.0   6.0  12.1  10.0  76  1025   ---     S     3     3   ---   0.8 Broken Clouds/
09/02/2005 07:55       9.0   5.0  11.1   9.0  76  1021   ---   SSE     3     3   ---   0.7 Broken Clouds/
09/02/2005 08:55       9.0   5.0  11.1   9.0  76  1021   ---     S     5     5   ---   0.9 Overcast/
09/02/2005 09:55      10.0   5.0  11.7  10.0  71  1022   ---     S     5     5   ---   0.9 Overcast/
09/02/2005 10:55      11.0   4.0  12.1  11.0  62  1022   ---     S     5     5   ---   0.9 Overcast/
09/02/2005 11:55      12.0   5.0  13.1   8.5  62  1022   ---     E     8     8   ---   0.8 Overcast/
09/02/2005 12:55      11.0   4.0  12.1   9.0  62  1022   ---   ESE     6     6   ---   0.8 Overcast/
09/02/2005 13:55      11.0   4.0  12.1  11.0  62  1022   ---   ESE     5     5   ---   0.8 Overcast/
09/02/2005 14:55      11.0   6.0  12.7  11.0  71  1021   ---     N     0     0   ---   0.8 Overcast/
09/02/2005 16:55      10.0   7.0  12.5   7.9  82  1021   ---     S     6     6   ---   0.9 Overcast/
09/02/2005 17:55       9.0   8.0  12.4   4.1  93  1021   ---     E    10    10   ---   0.5 Overcast/
09/02/2005 18:55       8.0   7.0  11.4  -2.3  93  1022   ---     E    19    19   ---   --- Overcast/ Light Rain
09/02/2005 19:55      10.0   7.0  12.5   0.5  82  1022   ---     E    19    42   ---   0.5 Overcast/
08/02/2005 19:55      10.0   6.0  12.1  10.0  76  1025   ---     S     3     3   ---   0.8 Broken Clouds/
10/02/2005 07:55       9.0   6.0  11.5   2.3  81  1026   ---   ESE    13    13   ---   0.7 Broken Clouds/
10/02/2005 08:55       9.0   6.0  11.5   9.0  81  1027   ---     S     5     5   ---   0.7 Broken Clouds/
10/02/2005 09:55      10.0   6.0  12.1   6.2  76  1028   ---   SSE     8     8   ---   0.7 Broken Clouds/
10/02/2005 10:55      11.0   5.0  12.4   9.0  66  1028   ---     E     6     6   ---   0.7 Broken Clouds/
10/02/2005 11:55      11.0   4.0  12.1   6.5  62  1029   ---     E    10    10   ---   0.7 Broken Clouds/
10/02/2005 12:55      10.0   5.0  11.7   7.9  71  1029   ---   ENE     6     6   ---   0.7 Broken Clouds/
10/02/2005 13:55      10.0   4.0  11.4   6.2  66  1029   ---     E     8     8   ---   0.7 Broken Clouds/
10/02/2005 14:55      10.0   5.0  11.7  10.0  71  1029   ---     N     5     5   ---   0.7 Broken Clouds/
10/02/2005 16:55      10.0   7.0  12.5   6.2  82  1029   ---    NW     8     8   ---   0.7 Broken Clouds/
10/02/2005 17:55      10.0   5.0  11.7   7.9  71  1029   ---   NNW     6     6   ---   0.7 Broken Clouds/
10/02/2005 18:55       9.0   5.0  11.1   9.0  76  1029   ---    NW     5     5   ---   0.6 Broken Clouds/
10/02/2005 18:55       9.0   5.0  11.1   9.0  76  1029   ---    NW     5     5   ---   0.6 Broken Clouds/None reported
10/02/2005 19:55       8.0   5.0  10.5   8.0  81  1030   ---   NNW     5     5   ---   0.6 Broken Clouds/
09/02/2005 19:55      10.0   7.0  12.5   0.5  82  1022   ---     E    19    42   ---   0.5 Overcast/
11/02/2005 07:55       6.0   2.0   8.0   6.0  75  1031   ---   WNW     5     5   ---   0.9 Broken Clouds/
11/02/2005 08:55       6.0   2.0   8.0   6.0  75  1032   ---    NW     5     5   ---   0.9 Broken Clouds/
11/02/2005 09:55       7.0   2.0   8.7   4.6  70  1032   ---   NNW     6     6   ---   0.9 Broken Clouds/
11/02/2005 10:55      11.0   3.0  11.9   7.3  58  1032   ---    NW     8     8   ---   0.9 Broken Clouds/
11/02/2005 11:55      12.0   2.0  12.5   8.5  50  1033   ---   WNW     8     8   ---   0.9 Scattered Clouds/
11/02/2005 12:55      12.0   4.0  12.9   6.2  58  1032   ---   WNW    13    13   ---   0.9 Few Clouds/
11/02/2005 13:55      12.0   3.0  12.7   3.3  54  1032   ---    NW    19    19   ---   0.9 Few Clouds/
11/02/2005 14:55      12.0   2.0  12.5   4.5  50  1031   ---   NNW    16    16   ---   0.9 Few Clouds/
11/02/2005 14:55      12.0   2.0  12.5   4.5  50  1031   ---   NNW    16    16   ---   0.9 Few Clouds/None reported
11/02/2005 18:55      10.0   4.0  11.4  10.0  66  1030   ---     W     3     3   ---   0.9 Few Clouds/
11/02/2005 19:55       8.0   5.0  10.5   8.0  81  1030   ---     W     5     5   ---   0.9 Few Clouds/
12/02/2005 07:55      10.0   7.0  12.5  10.0  82  1025   ---   WNW     5     5   ---   0.8 Overcast/
12/02/2005 08:55      10.0   8.0  12.9  10.0  87  1025   ---   WSW     3     3   ---   0.8 Overcast/
12/02/2005 09:55      10.0   8.0  12.9   7.9  87  1025   ---     W     6     6   ---   0.6 Overcast/
12/02/2005 10:55      11.0   8.0  13.5  11.0  82  1025   ---   SSW     3     3   ---   0.5 Overcast/
12/02/2005 11:55      11.0   9.0  13.9  11.0  87  1025   ---     N     0     0   ---   0.4 Overcast/
12/02/2005 12:55      11.0   9.0  13.9  11.0  87  1024   ---   ---     0     0   ---   0.4 Overcast/
12/02/2005 13:55      12.0   9.0  14.5  12.0  82  1023   ---   ---     0     0   ---   0.4 Overcast/
12/02/2005 13:55      12.0   9.0  14.5  12.0  82  1023   ---   ---     0     0   ---   0.4 Overcast/None reported
12/02/2005 14:55      11.0   8.0  13.5  11.0  82  1022   ---   ---     0     0   ---   0.4 Overcast/
12/02/2005 15:55      12.0   9.0  14.5   6.2  82  1021   ---    NW    13    13   ---   0.4 Overcast/
12/02/2005 16:55      12.0   9.0  14.5   6.2  82  1021   ---    NW    13    13   ---   0.4 Overcast/
12/02/2005 17:55      12.0   9.0  14.5   8.5  82  1021   ---    NW     8     8   ---   0.4 Overcast/
12/02/2005 18:55      12.0   8.0  14.1   3.0  77  1021   ---   WNW    21    21   ---   0.4 Overcast/
12/02/2005 19:55      12.0   8.0  14.1   4.1  77  1020   ---   WNW    18    18   ---   0.4 Overcast/
13/02/2005 07:55      13.0   7.0  14.4   1.4  67  1011   ---     W    43    77   ---   0.7 Broken Clouds/
13/02/2005 08:55      13.0   9.0  15.1   1.8  77  1011   ---     W    39    39   ---   0.7 Broken Clouds/
13/02/2005 09:55      13.0   8.0  14.8   1.8  72  1011   ---   WNW    37    56   ---   0.7 Scattered Clouds/
13/02/2005 10:55      15.0   9.0  16.5   4.9  67  1011   ---   WNW    39    39   ---   0.6 Scattered Clouds/
13/02/2005 11:55      16.0  10.0  17.5   6.3  68  1010   ---   WNW    40    64   ---   0.6 Scattered Clouds/
13/02/2005 11:55      16.0  10.0  17.5   6.3  68  1010   ---   WNW    40    64   ---   0.6 Scattered Clouds/None reported
13/02/2005 12:55      15.0   8.0  16.2   4.9  63  1010   ---   WNW    37    60   ---   0.7 Scattered Clouds/
13/02/2005 13:55      15.0   8.0  16.2   4.9  63  1010   ---   WNW    37    69   ---   0.7 Scattered Clouds/
13/02/2005 14:55      15.0   7.0  15.9   5.9  59  1009   ---   WNW    29    29   ---   0.7 Scattered Clouds/
13/02/2005 15:55      14.0   9.0  15.8   5.5  72  1007   ---   WNW    23    23   ---   0.7 Scattered Clouds/
13/02/2005 17:55      14.0   8.0  15.5   4.4  67  1006   ---     W    29    53   ---   0.7 Scattered Clouds/
13/02/2005 18:55      13.0   8.0  14.8   1.5  72  1005   ---     W    42    71   ---   --- /
13/02/2005 19:55      13.0   8.0  14.8   1.8  72  1005   ---     W    39    64   ---   --- /
14/02/2005 07:55      11.0   7.0  13.1   1.9  76   994   ---   WSW    19    19   ---   0.7 Scattered Clouds/
14/02/2005 08:55      13.0   7.0  14.4   5.5  67   993   ---   WSW    18    18   ---   0.7 Broken Clouds/
14/02/2005 09:55      14.0   8.0  15.5   4.9  67   993   ---   WSW    26    26   ---   0.7 Scattered Clouds/
14/02/2005 10:55      13.0   8.0  14.8   3.1  72   992   ---   WSW    27    55   ---   0.7 Broken Clouds/
14/02/2005 11:55      12.0   6.0  13.4   5.3  67   991   ---     W    14    14   ---   0.6 Overcast/
14/02/2005 12:55      12.0   6.0  13.4   1.1  67   990   ---     W    31    31   ---   0.6 Overcast/
14/02/2005 14:55       9.0   6.0  11.5  -1.3  81   990   ---   WNW    21    21   ---   --- Overcast/ Light Rain
14/02/2005 15:55       9.0   6.0  11.5  -2.9  81   990   ---     W    27    27   ---   0.6 Overcast/
14/02/2005 17:55       8.0   4.0  10.0  -5.3  76   989   ---   WSW    32    32   ---   0.7 Broken Clouds/
14/02/2005 18:55       7.0   3.0   9.0  -3.7  76   988   ---    SW    19    19   ---   --- Overcast/ Light Rain
14/02/2005 19:55       7.0   4.0   9.4  -2.8  81   986   ---    SW    18    18   ---   --- Overcast/ Rain
15/02/2005 07:55       9.0   2.0  10.1  -2.9  62   990   ---    NW    27    27   ---   0.7 Broken Clouds/
15/02/2005 08:55       9.0   1.0   9.8  -1.3  57   992   ---   WNW    21    21   ---   0.7 Broken Clouds/
15/02/2005 09:55       9.0   2.0  10.1   0.4  62   992   ---    NW    16    16   ---   0.7 Broken Clouds/
15/02/2005 10:55       5.0   2.0   7.4  -5.5  81   994   ---   WNW    18    18   ---   0.7 Overcast/
15/02/2005 11:55       8.0   4.0  10.0  -1.4  76   993   ---     W    18    18   ---   0.7 Scattered Clouds/
15/02/2005 12:55       7.0   3.0   9.0  -4.7  76   993   ---   WNW    23    50   ---   0.6 Scattered Clouds/
15/02/2005 13:55       9.0   4.0  10.7  -2.5  71   993   ---   WNW    26    45   ---   0.7 Scattered Clouds/
15/02/2005 14:55      10.0   0.0  10.4  -1.4  50   993   ---   WNW    27    27   ---   0.7 Scattered Clouds/
15/02/2005 15:55      11.0   1.0  11.4   7.3  50   993   ---   WNW     8     8   ---   0.7 Scattered Clouds/
15/02/2005 16:55      10.0   2.0  10.9   1.4  58   993   ---     W    18    18   ---   0.7 Scattered Clouds/
15/02/2005 17:55       8.0   3.0   9.7  -0.9  71   994   ---     W    16    16   ---   --- Overcast/ Light Rain
15/02/2005 18:55       7.0   1.0   8.4   2.7  66   994   ---     W     8     8   ---   0.7 Broken Clouds/
14/02/2005 19:55       7.0   4.0   9.4  -2.8  81   986   ---    SW    18    18   ---   --- Overcast/ Rain
15/02/2005 19:55       6.0   3.0   8.4  -5.1  81   995   ---     W    19    19   ---   0.6 Overcast/
16/02/2005 07:55       5.0   1.0   7.0  -6.5  75   998   ---     W    19    19   ---   0.7 Scattered Clouds/
16/02/2005 08:55       6.0   1.0   7.7  -5.1  70   998   ---   SSW    19    19   ---   0.7 Scattered Clouds/
16/02/2005 09:55       7.0   1.0   8.4  -0.2  66   999   ---    SW    13    13   ---   0.7 Broken Clouds/
16/02/2005 10:55       8.0   0.0   8.8   1.0  57  1000   ---    SW    13    13   ---   0.7 Scattered Clouds/
16/02/2005 12:55       9.0   3.0  10.4  -0.0  66  1001   ---     W    18    18   ---   0.7 Broken Clouds/
16/02/2005 13:55       9.0   3.0  10.4   1.4  66  1001   ---     W    14    14   ---   0.7 Broken Clouds/
16/02/2005 14:55       8.0   2.0   9.4   0.0  66  1001   ---   WSW    14    14   ---   0.7 Broken Clouds/
16/02/2005 15:55       8.0   3.0   9.7   8.0  71  1001   ---   WSW     5     5   ---   0.7 Broken Clouds/
16/02/2005 17:55       6.0   2.0   8.0  -5.6  75  1002   ---   SSW    21    21   ---   0.6 Broken Clouds/
16/02/2005 17:55       6.0   2.0   8.0  -5.6  75  1002   ---   SSW    21    21   ---   0.6 Broken Clouds/None reported
15/02/2005 18:55       7.0   1.0   8.4   2.7  66   994   ---     W     8     8   ---   0.7 Broken Clouds/
16/02/2005 19:55       5.0   2.0   7.4 -10.1  81  1002   ---   SSW    34    53   ---   0.7 Broken Clouds/
17/02/2005 07:55       5.0   1.0   7.0  -7.0  75  1005   ---     W    21    21   ---   0.3 Broken Clouds/
17/02/2005 08:55       5.0   2.0   7.4  -5.0  81  1006   ---   WNW    16    16   ---   0.3 Broken Clouds/
17/02/2005 09:55       8.0   3.0   9.7   1.0  71  1006   ---    SW    13    13   ---   0.4 Broken Clouds/
17/02/2005 10:55       8.0   4.0  10.0  -0.9  76  1007   ---   WSW    16    16   ---   0.6 Broken Clouds/
17/02/2005 12:55      10.0   4.0  11.4   1.4  66  1007   ---     W    18    18   ---   0.7 Broken Clouds/
17/02/2005 13:55      10.0   1.0  10.6   1.4  54  1007   ---     W    18    18   ---   0.7 Broken Clouds/
17/02/2005 14:55      10.0   1.0  10.6   1.8  54  1007   ---     W    16    16   ---   0.6 Broken Clouds/
17/02/2005 15:55      10.0   2.0  10.9   7.9  58  1007   ---   WSW     6     6   ---   0.7 Broken Clouds/
17/02/2005 16:55       9.0   2.0  10.1  -0.0  62  1007   ---     S    18    18   ---   0.7 Broken Clouds/
17/02/2005 17:55       8.0   3.0   9.7   3.8  71  1007   ---   SSW     8     8   ---   0.7 Broken Clouds/
17/02/2005 19:55       7.0   2.0   8.7   4.6  70  1008   ---   WSW     6     6   ---   0.7 Broken Clouds/
18/02/2005 07:55       4.0   0.0   6.0   4.0  75  1009   ---   WSW     3     3   ---   --- /
18/02/2005 08:55       5.0   1.0   7.0   5.0  75  1010   ---    SW     5     5   ---   --- /
18/02/2005 09:55       7.0   2.0   8.7   7.0  70  1010   ---   WSW     3     3   ---   0.7 Few Clouds/
18/02/2005 10:55       9.0   2.0  10.1   9.0  62  1010   ---     N     0     0   ---   0.7 Scattered Clouds/
18/02/2005 11:55      10.0   1.0  10.6  10.0  54  1010   ---   NNW     3     3   ---   0.7 Scattered Clouds/
18/02/2005 12:55      10.0   1.0  10.6   6.2  54  1010   ---   ENE     8     8   ---   0.7 Broken Clouds/
18/02/2005 13:55      11.0   2.0  11.6  11.0  54  1010   ---     E     3     3   ---   0.7 Broken Clouds/
18/02/2005 14:55      12.0   2.0  12.5  12.0  50  1010   ---     N     0     0   ---   0.7 Broken Clouds/
18/02/2005 15:55       9.0   4.0  10.7   1.4  71  1010   ---   NNW    14    14   ---   0.7 Broken Clouds/
18/02/2005 16:55      11.0   5.0  12.4  11.0  66  1010   ---     N     0     0   ---   0.7 Broken Clouds/
18/02/2005 17:55      10.0   4.0  11.4  10.0  66  1010   ---   WSW     5     5   ---   0.7 Broken Clouds/
17/02/2005 18:55       8.0   3.0   9.7   5.7  71  1007   ---    SW     6     6   ---   0.6 Broken Clouds/
18/02/2005 19:55       6.0   4.0   8.9   6.0  87  1011   ---    SW     3     3   ---   0.7 Broken Clouds/
19/02/2005 07:55       6.0   3.0   8.4   6.0  81  1013   ---   WNW     3     3   ---   --- Overcast/ Light Rain
19/02/2005 08:55       7.0   4.0   9.4   7.0  81  1013   ---     W     5     5   ---   0.7 Few Clouds/
19/02/2005 09:55       9.0   4.0  10.7   9.0  71  1013   ---     N     0     0   ---   0.7 Few Clouds/
19/02/2005 10:55      10.0   4.0  11.4  10.0  66  1013   ---   ---     0     0   ---   0.7 Few Clouds/
19/02/2005 11:55      10.0   1.0  10.6  10.0  54  1013   ---     W     3     3   ---   0.7 Scattered Clouds/
19/02/2005 12:55      11.0   1.0  11.4   6.5  50  1012   ---    NW    10    10   ---   0.7 Scattered Clouds/
19/02/2005 13:55      12.0   0.0  12.1   7.7  44  1011   ---     W    10    10   ---   0.7 Scattered Clouds/
19/02/2005 14:55      11.0   0.0  11.3   4.9  47  1010   ---     W    13    13   ---   0.7 Broken Clouds/
19/02/2005 15:55       8.0   5.0  10.5   1.0  81  1011   ---   WNW    13    13   ---   0.6 Broken Clouds/
19/02/2005 16:55       9.0   5.0  11.1   4.1  76  1010   ---     W    10    10   ---   0.7 Broken Clouds/
19/02/2005 16:55       9.0   5.0  11.1   4.1  76  1010   ---     W    10    10   ---   0.7 Broken Clouds/None reported
19/02/2005 17:55       7.0   2.0   8.7   1.7  70  1010   ---     W    10    10   ---   --- Overcast/ Light Rain
19/02/2005 18:55       6.0   2.0   8.0   1.5  75  1010   ---   WSW     8     8   ---   0.7 Few Clouds/
19/02/2005 19:55       7.0   2.0   8.7  -0.2  70  1010   ---   WSW    13    13   ---   0.7 Few Clouds/
20/02/2005 07:55       6.0   4.0   8.9   3.5  87  1004   ---     E     6     6   ---   0.7 Broken Clouds/
20/02/2005 08:55       6.0   4.0   8.9  -2.6  87  1004   ---    SW    14    14   ---   --- Overcast/ Light Rain
20/02/2005 09:55       7.0   5.0   9.9   2.7  87  1004   ---     W     8     8   ---   --- Overcast/ Light Rain
20/02/2005 10:55       7.0   5.0   9.9  -4.2  87  1004   ---     W    21    21   ---   0.7 Broken Clouds/
20/02/2005 11:55       8.0   6.0  10.9  -4.0  87  1004   ---   WNW    26    26   ---   --- Overcast/ Light Rain
20/02/2005 12:55      10.0   5.0  11.7   0.5  71  1004   ---   WNW    19    39   ---   0.7 Broken Clouds/
20/02/2005 13:55      10.0   4.0  11.4  -1.1  66  1004   ---   WNW    26    26   ---   0.7 Broken Clouds/
20/02/2005 14:55      10.0   4.0  11.4   0.1  66  1004   ---    NW    21    42   ---   0.7 Broken Clouds/
20/02/2005 15:55      10.0   5.0  11.7   1.8  71  1004   ---   WNW    16    16   ---   0.7 Broken Clouds/
20/02/2005 16:55      11.0   3.0  11.9   0.4  58  1004   ---    NW    26    26   ---   0.7 Broken Clouds/
20/02/2005 17:55      10.0   3.0  11.1   2.7  62  1004   ---   WNW    14    14   ---   0.7 Broken Clouds/
20/02/2005 18:55       9.0   4.0  10.7   1.4  71  1005   ---     W    14    14   ---   0.7 Broken Clouds/
20/02/2005 19:55       7.0   5.0   9.9   4.6  87  1005   ---   SSW     6     6   ---   0.7 Broken Clouds/
21/02/2005 07:55       8.0   3.0   9.7  -1.4  71  1005   ---    SW    18    18   ---   0.8 Broken Clouds/
21/02/2005 08:55       9.0   3.0  10.4  -1.3  66  1005   ---   SSW    21    21   ---   0.8 Broken Clouds/
21/02/2005 09:55      10.0   3.0  11.1   1.4  62  1005   ---    SW    18    43   ---   0.8 Scattered Clouds/
21/02/2005 10:55      10.0   7.0  12.5   6.2  82  1005   ---     W     8     8   ---   --- Overcast/ Light Rain
21/02/2005 11:55      11.0   7.0  13.1   7.3  76  1005   ---     E     8     8   ---   0.8 Broken Clouds/
20/02/2005 12:55      10.0   5.0  11.7   0.5  71  1004   ---   WNW    19    39   ---   0.7 Broken Clouds/
21/02/2005 13:55      13.0   6.0  14.2   7.4  62  1004   ---   WSW    13    13   ---   0.8 Broken Clouds/
21/02/2005 14:55      14.0   2.0  14.2   6.9  44  1003   ---     W    18    18   ---   0.8 Few Clouds/
21/02/2005 15:55      14.0   1.0  14.0   5.5  41  1003   ---     W    23    23   ---   0.8 Few Clouds/
21/02/2005 16:55      14.0   2.0  14.2   5.8  44  1003   ---     W    21    45   ---   0.8 Few Clouds/
21/02/2005 17:55      13.0   3.0  13.5   5.8  51  1003   ---   WSW    16    43   ---   0.8 Few Clouds/
21/02/2005 18:55      12.0   5.0  13.1   4.5  62  1004   ---   WSW    16    45   ---   0.8 Few Clouds/
21/02/2005 19:55      12.0   6.0  13.4   4.1  67  1004   ---    SW    18    18   ---   0.8 Few Clouds/
22/02/2005 07:55       8.0   5.0  10.5   5.7  81  1002   ---   SSW     6     6   ---   6.0 Scattered Clouds/
22/02/2005 08:55       8.0   5.0  10.5   8.0  81  1003   ---     N     0     0   ---   6.0 Broken Clouds/
22/02/2005 09:55       9.0   6.0  11.5   9.0  81  1003   ---   ---     0     0   ---   0.9 Broken Clouds/
22/02/2005 11:55      11.0   8.0  13.5   4.0  82  1003   ---   NNE    14    14   ---   0.9 Overcast/
22/02/2005 12:55      11.0   9.0  13.9   4.9  87  1003   ---    NE    13    13   ---   0.9 Overcast/
22/02/2005 15:55      10.0   8.0  12.9  -3.6  87  1001   ---    NW    45    74   ---   0.6 Overcast/
22/02/2005 16:55       8.0   6.0  10.9  -4.6  87  1003   ---   NNW    29    53   ---   --- Overcast/ Rain
22/02/2005 17:55       7.0   5.0   9.9  -0.2  87  1004   ---    NW    13    13   ---   0.5 Overcast/
22/02/2005 18:55       7.0   4.0   9.4   7.0  81  1006   ---     N     0     0   ---   0.6 Overcast/
22/02/2005 19:55       5.0   3.0   7.9   5.0  87  1007   ---     W     5     5   ---   0.7 Broken Clouds/
23/02/2005 07:55       8.0   3.0   9.7   5.7  71  1010   ---   WSW     6     6   ---   0.7 Few Clouds/
23/02/2005 08:55       9.0   2.0  10.1  -0.9  62  1010   ---   SSW    19    19   ---   0.7 Few Clouds/
23/02/2005 09:55      10.0   2.0  10.9   1.4  58  1010   ---   SSW    18    40   ---   0.7 Few Clouds/
23/02/2005 11:55      12.0   4.0  12.9   1.9  58  1011   ---   WSW    26    47   ---   0.7 Few Clouds/
23/02/2005 12:55      11.0   2.0  11.6   1.9  54  1011   ---    SW    19    50   ---   0.7 Few Clouds/
23/02/2005 13:55      13.0   4.0  13.7   4.8  54  1011   ---    SW    19    39   ---   0.7 Scattered Clouds/
23/02/2005 14:55      14.0   4.0  14.5   5.8  51  1011   ---   WSW    21    40   ---   0.7 Few Clouds/
23/02/2005 15:55      14.0   4.0  14.5   6.9  51  1011   ---   WSW    18    18   ---   0.7 Few Clouds/
23/02/2005 16:55      13.0   5.0  13.9   7.4  58  1011   ---    SW    13    13   ---   0.7 Scattered Clouds/
23/02/2005 17:55      13.0   5.0  13.9   6.6  58  1011   ---   WSW    14    14   ---   0.8 Scattered Clouds/
23/02/2005 18:55      11.0   5.0  12.4   4.9  66  1012   ---   SSW    13    13   ---   0.8 Broken Clouds/
23/02/2005 19:55      11.0   6.0  12.7   4.9  71  1013   ---    SW    13    13   ---   0.7 Broken Clouds/
24/02/2005 07:55      10.0   4.0  11.4   7.9  66  1013   ---   WSW     6     6   ---   --- /
24/02/2005 08:55      11.0   5.0  12.4  11.0  66  1013   ---     N     0     0   ---   --- /
24/02/2005 09:55      13.0   5.0  13.9  13.0  58  1014   ---   SSE     5     5   ---   --- /
24/02/2005 10:55      14.0   5.0  14.7  14.0  55  1014   ---     E     3     3   ---   --- /
24/02/2005 11:55      14.0   3.0  14.3  10.1  47  1014   ---     E    10    10   ---   --- /
24/02/2005 12:55      15.0   4.0  15.3  11.3  48  1013   ---     E    10    10   ---   --- /
24/02/2005 13:55      16.0   4.0  16.2  13.2  45  1012   ---   ENE     8     8   ---   --- /
24/02/2005 14:55      17.0   3.0  16.9  11.3  39  1011   ---   SSW    16    16   ---   --- /
24/02/2005 15:55      17.0   3.0  16.9  17.0  39  1011   ---    SW     3     3   ---   --- /
24/02/2005 16:55      17.0   3.0  16.9  15.5  39  1010   ---   WSW     6     6   ---   6.0 Scattered Clouds/
24/02/2005 17:55      16.0   4.0  16.2  10.6  45  1010   ---   WSW    14    14   ---   6.0 Scattered Clouds/
24/02/2005 18:55      14.0   4.0  14.5   6.9  51  1010   ---     W    18    18   ---   6.0 Scattered Clouds/
24/02/2005 19:55      13.0   3.0  13.5   5.5  51  1010   ---     W    18    18   ---   0.9 Few Clouds/
23/02/2005 19:55      11.0   6.0  12.7   4.9  71  1013   ---    SW    13    13   ---   0.7 Broken Clouds/
25/02/2005 07:55      15.0   0.0  14.8  15.0  36  1007   ---     S     3     3   ---   0.9 Overcast/
25/02/2005 09:55      14.0   1.0  14.0  14.0  41  1007   ---   NNE     3     3   ---   0.9 Overcast/
25/02/2005 10:55      14.0   5.0  14.7  14.0  55  1007   ---     N     0     0   ---   1.0 Overcast/
25/02/2005 12:55      16.0   1.0  15.8  12.5  36  1006   ---     E    10    10   ---   --- /
25/02/2005 14:55      15.0   5.0  15.5  15.0  51  1005   ---   NNE     3     3   ---   1.0 Overcast/
25/02/2005 15:55      14.0   7.0  15.2  14.0  63  1004   ---     E     5     5   ---999.00.9 Overcast/
25/02/2005 16:55      14.0   7.0  15.2  12.3  63  1004   ---     E     6     6   ---999.0--- Overcast/
25/02/2005 18:55      14.0  10.0  16.1  14.0  77  1004   ---     N     0     0   ---999.0--- Overcast/
25/02/2005 19:55      13.0  10.0  15.5  13.0  82  1004   ---   WNW     5     5   ---   2.7 Broken Clouds/
25/02/2005 19:55      13.0  10.0  15.5  13.0  82  1004   ---   WNW     5     5   ---   0.3 Broken Clouds/None reported
26/02/2005 07:55      10.0   7.0  12.5   6.2  82  1002   ---   WSW     8     8   ---   0.6 Scattered Clouds/
26/02/2005 08:55      10.0   7.0  12.5   7.9  82  1002   ---   WSW     6     6   ---   0.7 Broken Clouds/
26/02/2005 09:55      12.0   8.0  14.1  12.0  77  1002   ---   WSW     3     3   ---   0.7 Broken Clouds/
26/02/2005 10:55      14.0   9.0  15.8  14.0  72  1001   ---   SSE     5     5   ---   0.8 Overcast/
26/02/2005 11:55      14.0   9.0  15.8  10.8  72  1001   ---    SW     8     8   ---   0.7 Broken Clouds/
26/02/2005 13:55      16.0   8.0  16.9   7.8  59  1000   ---   WNW    26    51   ---   0.7 Broken Clouds/
26/02/2005 14:55      16.0   9.0  17.2   9.6  63  1000   ---   WNW    18    18   ---   0.7 Broken Clouds/
26/02/2005 15:55      15.0   9.0  16.5   7.6  67   999   ---   WNW    19    58   ---   0.7 Broken Clouds/
26/02/2005 16:55      14.0   9.0  15.8   6.2  72  1000   ---   WNW    19    43   ---   0.7 Broken Clouds/
26/02/2005 17:55      13.0   9.0  15.1   4.8  77  1000   ---   WNW    19    53   ---   --- Overcast/ Light Rain
25/02/2005 18:55      14.0  10.0  16.1  14.0  77  1004   ---     N     0     0   ---999.0--- Overcast/
26/02/2005 19:55      11.0   7.0  13.1   3.1  76  1001   ---     W    16    16   ---   --- Overcast/ Light Rain
27/02/2005 07:55       9.0   2.0  10.1  -0.0  62  1005   ---     W    18    18   ---   0.7 Broken Clouds/
27/02/2005 08:55       9.0   3.0  10.4   5.0  66  1005   ---     W     8     8   ---   0.6 Broken Clouds/
27/02/2005 09:55      10.0   5.0  11.7   1.4  71  1005   ---     W    18    18   ---   0.6 Broken Clouds/
27/02/2005 10:55       9.0   5.0  11.1  -0.9  76  1006   ---     W    19    19   ---   --- Overcast/ Rain
27/02/2005 11:55       9.0   5.0  11.1  -0.9  76  1005   ---     W    19    19   ---   0.7 Broken Clouds/
27/02/2005 12:55       9.0   4.0  10.7  -0.9  71  1005   ---     W    19    19   ---   0.6 Broken Clouds/
27/02/2005 13:55       9.0   5.0  11.1  -0.9  76  1005   ---     W    19    19   ---   --- Overcast/ Light Rain
27/02/2005 14:55       7.0   4.0   9.4  -4.7  81  1004   ---     W    23    23   ---   --- Overcast/ Light Rain
27/02/2005 15:55       7.0   5.0   9.9  -1.3  87  1004   ---     W    14    14   ---   --- Overcast/ Light Rain
27/02/2005 16:55       7.0   4.0   9.4   2.7  81  1004   ---     W     8     8   ---   0.6 Broken Clouds/
27/02/2005 17:55       7.0   4.0   9.4  -6.1  81  1003   ---   WNW    29    50   ---   0.7 Broken Clouds/
27/02/2005 18:55       8.0   3.0   9.7  -2.3  71  1003   ---   WNW    19    19   ---   0.7 Broken Clouds/
27/02/2005 19:55       8.0   2.0   9.4  -2.3  66  1003   ---     W    19    47   ---   0.6 Broken Clouds/
26/02/2005 19:55      11.0   7.0  13.1   3.1  76  1001   ---     W    16    16   ---   --- Overcast/ Light Rain
28/02/2005 07:55       7.0   3.0   9.0   2.7  76  1004   ---   WSW     8     8   ---   0.7 Broken Clouds/
28/02/2005 08:55       8.0   4.0  10.0   1.0  76  1004   ---     W    13    13   ---   0.7 Broken Clouds/
28/02/2005 09:55       8.0   3.0   9.7   2.9  71  1004   ---     W    10    10   ---   0.7 Broken Clouds/
28/02/2005 10:55      10.0   4.0  11.4   5.3  66  1004   ---   WNW    10    10   ---   0.7 Broken Clouds/
28/02/2005 12:55      12.0   4.0  12.9   7.7  58  1003   ---    NW    10    10   ---   0.7 Broken Clouds/
28/02/2005 14:55      11.0   5.0  12.4   4.9  66  1003   ---   NNW    13    13   ---   0.7 Broken Clouds/
28/02/2005 15:55      10.0   5.0  11.7   3.6  71  1003   ---   NNW    13    13   ---   0.7 Broken Clouds/
28/02/2005 17:55       8.0   6.0  10.9   3.8  87  1002   ---   WNW     8     8   ---   0.7 Overcast/
28/02/2005 18:55       7.0   5.0   9.9   4.6  87  1002   ---     W     6     6   ---   --- Overcast/ Light Rain
28/02/2005 19:55       7.0   4.0   9.4   7.0  81  1003   ---     N     0     0   ---   --- Overcast/ Light Rain
01/03/2005 07:55       6.0   3.0   8.4   6.0  81  1000   ---   ---     0     0   ---   --- Overcast/ Light Rain
01/03/2005 08:55       6.0   4.0   8.9   6.0  87  1000   ---   ---     0     0   ---   --- Overcast/ Light Rain
01/03/2005 09:55       6.0   3.0   8.4   6.0  81  1000   ---   ---     0     0   ---   --- Overcast/ Light Rain
01/03/2005 10:55       7.0   4.0   9.4   7.0  81  1000   ---   ---     0     0   ---   --- Overcast/ Light Rain
01/03/2005 11:55       7.0   4.0   9.4   7.0  81  1000   ---   ---     0     0   ---   --- Overcast/ Light Rain
28/02/2005 12:55      12.0   4.0  12.9   7.7  58  1003   ---    NW    10    10   ---   0.7 Broken Clouds/
01/03/2005 13:55       7.0   4.0   9.4   7.0  81  1000   ---     N     0     0   ---   --- Overcast/ Light Rain
01/03/2005 15:55       7.0   4.0   9.4  -0.2  81   999   ---   ENE    13    13   ---   --- Overcast/ Light Rain
01/03/2005 16:55       7.0   4.0   9.4  -1.3  81   999   ---   ENE    14    14   ---   --- Overcast/ Light Rain
01/03/2005 17:55       7.0   4.0   9.4  -2.3  81   999   ---     E    16    16   ---   --- Overcast/ Rain
01/03/2005 18:55       6.0   4.0   8.9  -2.6  87   999   ---     E    14    14   ---   --- Overcast/ Rain
01/03/2005 19:55       6.0   3.0   8.4   0.5  81  1000   ---     E    10    10   ---   --- Overcast/ Light Rain
01/03/2005 19:55       6.0   3.0   8.4   0.5  81  1000   ---     E    10    10   ---   --- Overcast/ Light Rain
01/03/2005 19:55       6.0   3.0   8.4   0.5  81  1000   ---     E    10    10   ---   --- Overcast/ Light Rain
02/03/2005 07:55       5.0   2.0   7.4   5.0  81  1004   ---   WNW     5     5   ---   0.5 Overcast/
02/03/2005 08:55       6.0   3.0   8.4   6.0  81  1005   ---   WNW     5     5   ---   0.5 Broken Clouds/
02/03/2005 09:55       7.0   3.0   9.0   7.0  76  1006   ---     N     0     0   ---   0.5 Broken Clouds/
02/03/2005 10:55       8.0   3.0   9.7   8.0  71  1007   ---     N     5     5   ---   0.5 Broken Clouds/
02/03/2005 11:55      10.0   4.0  11.4  10.0  66  1007   ---    SE     3     3   ---   0.7 Scattered Clouds/
02/03/2005 12:55      10.0   2.0  10.9   2.7  58  1008   ---    NW    14    14   ---   0.7 Broken Clouds/
02/03/2005 13:55      10.0   2.0  10.9   3.6  58  1008   ---    NW    13    13   ---   0.7 Broken Clouds/
02/03/2005 15:55      10.0   2.0  10.9   2.7  58  1008   ---    NW    14    14   ---   0.7 Broken Clouds/
02/03/2005 16:55       9.0   1.0   9.8   4.1  57  1009   ---   NNW    10    10   ---   0.7 Broken Clouds/
02/03/2005 17:55       9.0   1.0   9.8   5.0  57  1009   ---    NW     8     8   ---   0.7 Broken Clouds/
02/03/2005 18:55       9.0   2.0  10.1   9.0  62  1010   ---     N     3     3   ---   0.7 Broken Clouds/
02/03/2005 19:55       8.0   3.0   9.7   8.0  71  1010   ---     N     0     0   ---   0.7 Broken Clouds/
03/03/2005 07:55       5.0   2.0   7.4   5.0  81  1014   ---   ---     0     0   ---   --- /
03/03/2005 08:55       6.0   1.0   7.7   6.0  70  1015   ---    SW     5     5   ---   --- /
03/03/2005 09:55       8.0   2.0   9.4   3.8  66  1016   ---   SSE     8     8   ---   --- /
03/03/2005 10:55      10.0   2.0  10.9  10.0  58  1016   ---     E     3     3   ---   --- /
03/03/2005 11:55      11.0   0.0  11.3  11.0  47  1016   ---     N     0     0   ---   --- /
03/03/2005 12:55      12.0   1.0  12.3   3.3  47  1016   ---   SSW    19    19   ---   --- /
03/03/2005 13:55      13.0   0.0  13.0   4.8  41  1015   ---   SSW    19    19   ---   --- /
03/03/2005 14:55      14.0  -2.0  13.7   7.2  33  1015   ---   WSW    16    16   ---   --- /
03/03/2005 14:55      14.0  -2.0  13.7   7.2  33  1015   ---   WSW    16    16   ---   --- None reported/None reported
03/03/2005 15:55      15.0   0.0  14.8   9.3  36  1014   ---   WSW    14    14   ---   --- /
03/03/2005 15:55      15.0   0.0  14.8   9.3  36  1014   ---   WSW    14    14   ---   --- None reported/None reported
03/03/2005 15:55      15.0   0.0  14.8   9.3  36  1014   ---   WSW    14    14   ---   --- None reported/None reported
03/03/2005 17:55      14.0   2.0  14.2  10.1  44  1013   ---   WSW    10    10   ---   0.9 Scattered Clouds/
03/03/2005 18:55      12.0   6.0  13.4   3.0  67  1013   ---   WSW    21    43   ---   3.6 Broken Clouds/
03/03/2005 19:55      12.0   6.0  13.4   1.6  67  1013   ---   WSW    27    51   ---999.00.9 Overcast/
04/03/2005 07:55      13.0   9.0  15.1   2.6  77  1009   ---    SW    31    55   ---   0.7 Broken Clouds/
04/03/2005 08:55      14.0   8.0  15.5   6.9  67  1009   ---    SW    18    18   ---   0.7 Broken Clouds/
04/03/2005 09:55      15.0   9.0  16.5   7.3  67  1009   ---   SSW    21    21   ---   0.7 Broken Clouds/
04/03/2005 10:55      16.0   9.0  17.2   7.6  63  1009   ---     S    27    27   ---   3.0 Broken Clouds/
04/03/2005 12:55      17.0   8.0  17.7   9.1  55  1007   ---   SSW    27    27   ---   0.7 Broken Clouds/
04/03/2005 14:55      16.0   8.0  16.9   8.4  59  1005   ---   SSW    23    23   ---   0.7 Broken Clouds/
04/03/2005 15:55      17.0   8.0  17.7  11.0  55  1003   ---   SSW    18    18   ---   0.7 Broken Clouds/
04/03/2005 16:55      17.0   8.0  17.7  13.8  55  1002   ---     S    10    10   ---   0.7 Broken Clouds/
04/03/2005 17:55      17.0   6.0  17.4  15.5  48  1001   ---   WSW     6     6   ---   0.7 Broken Clouds/
04/03/2005 17:55      17.0   6.0  17.4  15.5  48  1001   ---   WSW     6     6   ---   0.7 Broken Clouds/None reported
04/03/2005 18:55      17.0   5.0  17.2  14.3  45  1001   ---     S     8     8   ---   0.7 Broken Clouds/
04/03/2005 19:55      17.0   4.0  17.1  12.5  42  1000   ---     N    13    13   ---   0.7 Broken Clouds/
05/03/2005 07:55      10.0   7.0  12.5   1.8  82  1000   ---    NW    16    16   ---   0.3 Overcast/
05/03/2005 08:55      10.0   7.0  12.5   5.3  82  1001   ---    NW    10    10   ---   --- Overcast/ Light Rain
05/03/2005 09:55      10.0   7.0  12.5   0.5  82  1002   ---    NW    19    19   ---   0.3 Overcast/
05/03/2005 10:55       9.0   6.0  11.5   2.3  81  1003   ---    NW    13    13   ---   --- Overcast/ Light Rain
05/03/2005 11:55       9.0   6.0  11.5   1.4  81  1004   ---    NW    14    14   ---   0.4 Overcast/
05/03/2005 12:55      10.0   7.0  12.5   2.7  82  1004   ---   WNW    14    14   ---   0.4 Overcast/
05/03/2005 13:55      10.0   6.0  12.1  -0.3  76  1004   ---    NW    23    23   ---   0.4 Broken Clouds/
05/03/2005 14:55      10.0   5.0  11.7  -1.1  71  1004   ---    NW    26    26   ---   0.4 Broken Clouds/
05/03/2005 15:55      10.0   2.0  10.9   0.5  58  1004   ---    NW    19    19   ---   0.6 Broken Clouds/
05/03/2005 16:55      10.0   2.0  10.9  -1.4  58  1004   ---    NW    27    27   ---   0.7 Broken Clouds/
05/03/2005 17:55      10.0   2.0  10.9  -1.4  58  1005   ---    NW    27    27   ---   0.7 Broken Clouds/
05/03/2005 18:55      10.0   2.0  10.9   0.5  58  1005   ---   WNW    19    19   ---   0.7 Scattered Clouds/
05/03/2005 19:55       9.0   2.0  10.1  -1.8  62  1006   ---   WNW    23    47   ---   0.7 Few Clouds/
05/03/2005 19:55       9.0   2.0  10.1  -1.8  62  1006   ---   WNW    23    47   ---   0.7 Few Clouds/None reported
06/03/2005 07:55       9.0   5.0  11.1  -1.3  76  1008   ---   WSW    21    21   ---   0.9 Broken Clouds/
06/03/2005 08:55      10.0   4.0  11.4  -1.4  66  1008   ---     W    27    27   ---   3.0 Broken Clouds/
06/03/2005 09:55      11.0   4.0  12.1   3.1  62  1009   ---     W    16    16   ---   3.0 Scattered Clouds/
06/03/2005 10:55      13.0   3.0  13.5   6.6  51  1009   ---   WSW    14    14   ---   2.7 Broken Clouds/
06/03/2005 11:55      13.0   3.0  13.5   5.8  51  1009   ---    SW    16    16   ---   0.8 Broken Clouds/
06/03/2005 12:55      13.0   4.0  13.7   3.4  54  1009   ---     W    26    55   ---   0.7 Broken Clouds/
06/03/2005 12:55      13.0   4.0  13.7   3.4  54  1009   ---     W    26    55   ---   0.7 Broken Clouds/None reported
06/03/2005 14:55      11.0   8.0  13.5   2.7  82  1008   ---     W    18    18   ---   0.7 Broken Clouds/
06/03/2005 15:55      12.0   8.0  14.1   3.3  77  1008   ---     W    19    45   ---   0.7 Broken Clouds/
06/03/2005 16:55      11.0   7.0  13.1   1.1  76  1008   ---   WNW    23    50   ---   --- Overcast/ Light Rain
06/03/2005 17:55      10.0   7.0  12.5   1.8  82  1008   ---   SSW    16    16   ---   0.8 Broken Clouds/
06/03/2005 18:55      10.0   3.0  11.1   0.1  62  1007   ---   WNW    21    53   ---   0.7 Broken Clouds/
06/03/2005 19:55       9.0   5.0  11.1  -1.8  76  1007   ---     W    23    66   ---   --- Overcast/ Light Rain
06/03/2005 19:55       9.0   5.0  11.1  -1.8  76  1007   ---     W    23    66   ---   --- Overcast/ Light Rain
07/03/2005 07:55       7.0   0.0   8.1  -5.9  61  1009   ---   WNW    27    27   ---   0.7 Broken Clouds/
07/03/2005 08:55       8.0   0.0   8.8   0.0  57  1009   ---     W    14    14   ---   0.7 Broken Clouds/
07/03/2005 09:55       8.0   0.0   8.8   0.0  57  1009   ---    NW    14    14   ---   0.7 Broken Clouds/
07/03/2005 11:55      10.0   3.0  11.1   0.1  62  1010   ---    NW    21    21   ---   0.7 Broken Clouds/
07/03/2005 12:55       9.0   1.0   9.8  -1.3  57  1010   ---    NW    21    42   ---   0.7 Broken Clouds/
07/03/2005 13:55      10.0   1.0  10.6   1.4  54  1010   ---    NW    18    18   ---   0.7 Broken Clouds/
07/03/2005 14:55      11.0   1.0  11.4   1.5  50  1009   ---    NW    21    21   ---   0.7 Scattered Clouds/
07/03/2005 15:55      10.0   0.0  10.4  -0.3  50  1009   ---    NW    23    23   ---   0.7 Broken Clouds/
07/03/2005 16:55       9.0   0.0   9.6  -3.1  53  1009   ---    NW    29    29   ---   0.7 Broken Clouds/
07/03/2005 18:55       8.0  -1.0   8.6  -2.3  53  1010   ---   WNW    19    19   ---   0.7 Broken Clouds/
07/03/2005 19:55       8.0  -1.0   8.6  -0.9  53  1010   ---   WNW    16    16   ---   0.7 Scattered Clouds/
07/03/2005 07:55       7.0   0.0   8.1  -5.9  61  1009   ---   WNW    27    27   ---   0.7 Broken Clouds/
08/03/2005 08:55       6.0   2.0   8.0   3.5  75  1012   ---   NNW     6     6   ---   0.6 Few Clouds/
08/03/2005 10:55       6.0   3.0   8.4  -1.5  81  1014   ---    NW    13    13   ---   0.6 Overcast/
08/03/2005 11:55       4.0   2.0   6.9  -6.4  87  1014   ---   SSW    16    16   ---   0.7 Overcast/
08/03/2005 12:55       6.0   3.0   8.4   6.0  81  1015   ---    NW     5     5   ---   0.7 Broken Clouds/
08/03/2005 13:55       8.0   2.0   9.4   3.8  66  1015   ---   NNW     8     8   ---   0.7 Broken Clouds/
08/03/2005 14:55       8.0   0.0   8.8  -0.9  57  1015   ---   WNW    16    16   ---   0.6 Overcast/
08/03/2005 15:55       5.0   2.0   7.4  -0.7  81  1015   ---   ESE    10    10   ---   0.6 Scattered Clouds/
08/03/2005 16:55       7.0   2.0   8.7   2.7  70  1015   ---    NW     8     8   ---   0.6 Scattered Clouds/
08/03/2005 18:55       6.0   0.0   7.3  -5.1  65  1016   ---    NW    19    43   ---   0.7 Broken Clouds/
08/03/2005 19:55       5.0   2.0   7.4  -5.0  81  1017   ---   NNW    16    16   ---   0.7 Broken Clouds/
09/03/2005 07:55       5.0   2.0   7.4   2.4  81  1021   ---     S     6     6   ---   0.7 Broken Clouds/
09/03/2005 08:55       5.0   2.0   7.4   5.0  81  1021   ---   WNW     5     5   ---   0.6 Broken Clouds/
09/03/2005 09:55       7.0   2.0   8.7  -1.3  70  1022   ---    NW    14    14   ---   0.7 Broken Clouds/
09/03/2005 10:55       8.0   1.0   9.1   0.0  61  1022   ---    NW    14    14   ---   0.7 Scattered Clouds/
09/03/2005 12:55      10.0   1.0  10.6   5.3  54  1023   ---     N    10    10   ---   0.7 Scattered Clouds/
09/03/2005 13:55      10.0   2.0  10.9   6.2  58  1023   ---     N     8     8   ---   0.7 Scattered Clouds/
09/03/2005 14:55      10.0  -4.0   9.8   5.3  37  1023   ---     N    10    10   ---   0.7 Scattered Clouds/
09/03/2005 15:55      10.0  -5.0   9.7   1.8  34  1023   ---   NNW    16    16   ---   0.7 Scattered Clouds/
09/03/2005 16:55      11.0  -4.0  10.7   4.9  35  1022   ---    NW    13    13   ---   --- /
09/03/2005 18:55       9.0  -8.0   8.5   9.0  29  1023   ---   WNW     5     5   ---   --- /
09/03/2005 19:55       8.0  -4.0   8.1   8.0  42  1023   ---   SSW     5     5   ---   --- /
10/03/2005 07:55       9.0   5.0  11.1   6.8  76  1019   ---    NW     6     6   ---   0.7 Broken Clouds/
10/03/2005 08:55       8.0   6.0  10.9   3.8  87  1020   ---   WNW     8     8   ---   0.7 Broken Clouds/
10/03/2005 09:55       8.0   5.0  10.5   3.8  81  1020   ---   WNW     8     8   ---   0.7 Broken Clouds/
10/03/2005 10:55      10.0   5.0  11.7   2.7  71  1020   ---    NW    14    14   ---   0.7 Broken Clouds/
10/03/2005 11:55      10.0   5.0  11.7   1.4  71  1020   ---   NNW    18    18   ---   0.7 Scattered Clouds/
10/03/2005 12:55      10.0   3.0  11.1   1.4  62  1021   ---   NNW    18    18   ---   0.7 Broken Clouds/
10/03/2005 13:55      12.0   4.0  12.9   4.5  58  1021   ---   NNW    16    16   ---   0.7 Broken Clouds/
10/03/2005 14:55      12.0   6.0  13.4   3.3  67  1020   ---   NNW    19    19   ---   0.7 Broken Clouds/
10/03/2005 15:55      11.0   5.0  12.4   1.1  66  1020   ---   NNW    23    23   ---   0.7 Broken Clouds/
10/03/2005 15:55      11.0   5.0  12.4   1.1  66  1020   ---   NNW    23    23   ---   0.7 Broken Clouds/None reported
10/03/2005 16:55      12.0   5.0  13.1   3.0  62  1020   ---    NW    21    21   ---   0.7 Broken Clouds/
10/03/2005 19:55      10.0   6.0  12.1   1.4  76  1020   ---    NW    18    18   ---   0.7 Broken Clouds/
11/03/2005 07:55       7.0   5.0   9.9   4.6  87  1021   ---     W     6     6   ---   --- /
11/03/2005 07:55       7.0   5.0   9.9   4.6  87  1021   ---     W     6     6   ---   --- None reported/None reported
11/03/2005 08:55       7.0   4.0   9.4   7.0  81  1022   ---    SW     3     3   ---   --- /
11/03/2005 09:55      10.0   4.0  11.4  10.0  66  1022   ---     N     0     0   ---   0.7 Few Clouds/
11/03/2005 10:55      12.0   3.0  12.7  12.0  54  1022   ---    NE     5     5   ---   0.7 Few Clouds/
11/03/2005 11:55      13.0   4.0  13.7  13.0  54  1022   ---     E     3     3   ---   0.7 Few Clouds/
11/03/2005 12:55      13.0   4.0  13.7   9.7  54  1022   ---     E     8     8   ---   0.7 Few Clouds/
11/03/2005 13:55      14.0   3.0  14.3  10.1  47  1022   ---     E    10    10   ---   0.8 Scattered Clouds/
11/03/2005 14:55      14.0   3.0  14.3   8.0  47  1021   ---   ESE    14    14   ---   0.8 Scattered Clouds/
11/03/2005 15:55      14.0   3.0  14.3   8.7  47  1021   ---     E    13    13   ---   0.8 Few Clouds/
11/03/2005 16:55      12.0   3.0  12.7   6.2  54  1021   ---     E    13    13   ---   0.8 Scattered Clouds/
11/03/2005 18:55      11.0   4.0  12.1  11.0  62  1020   ---     N     0     0   ---   0.8 Scattered Clouds/
11/03/2005 19:55      10.0   5.0  11.7  10.0  71  1020   ---   ---     0     0   ---   0.8 Scattered Clouds/
11/03/2005 19:55      10.0   5.0  11.7  10.0  71  1020   ---   ---     0     0   ---   0.8 Scattered Clouds/None reported
12/03/2005 07:55       7.0   4.0   9.4   7.0  81  1015   ---   ---     0     0   ---   --- /
12/03/2005 08:55       8.0   4.0  10.0   8.0  76  1015   ---   ---     0     0   ---   --- /
12/03/2005 09:55      10.0   5.0  11.7  10.0  71  1015   ---   NNW     3     3   ---   --- /
12/03/2005 10:55      12.0   4.0  12.9   8.5  58  1014   ---   SSW     8     8   ---   --- /
12/03/2005 11:55      14.0   5.0  14.7   6.2  55  1014   ---     W    19    19   ---   --- /
12/03/2005 12:55      16.0   2.0  15.9   9.9  39  1014   ---     W    16    16   ---   --- /
12/03/2005 14:55      17.0   6.0  17.4   8.9  48  1012   ---    SW    29    51   ---   0.7 Scattered Clouds/
12/03/2005 15:55      17.0   6.0  17.4  11.9  48  1012   ---   WSW    14    14   ---   0.7 Scattered Clouds/
12/03/2005 16:55      16.0   7.0  16.7   7.8  55  1011   ---   WSW    26    26   ---   0.7 Scattered Clouds/
12/03/2005 17:55      16.0   4.0  16.2   9.0  45  1011   ---     W    19    19   ---   0.7 Scattered Clouds/
12/03/2005 18:55      15.0   4.0  15.3   8.6  48  1011   ---   WSW    16    16   ---   --- /
12/03/2005 19:55      14.0   4.0  14.5   6.2  51  1012   ---     W    19    19   ---   --- /
12/03/2005 19:55      14.0   4.0  14.5   6.2  51  1012   ---     W    19    19   ---   --- None reported/None reported
13/03/2005 07:55       9.0  -3.0   9.1   9.0  43  1012   ---     N     0     0   ---   6.0 Scattered Clouds/
13/03/2005 08:55      10.0   1.0  10.6   7.9  54  1012   ---    SE     6     6   ---   6.0 Broken Clouds/
13/03/2005 09:55      12.0   2.0  12.5   5.3  50  1013   ---    SW    14    14   ---   6.0 Scattered Clouds/
13/03/2005 10:55      14.0   5.0  14.7  10.8  55  1013   ---   SSW     8     8   ---   6.0 Scattered Clouds/
13/03/2005 11:55      15.0   6.0  15.7   9.3  55  1013   ---     E    14    14   ---   6.0 Scattered Clouds/
13/03/2005 12:55      17.0   2.0  16.8  11.0  36  1013   ---     E    18    18   ---   6.0 Scattered Clouds/
13/03/2005 13:55      17.0   4.0  17.1  11.9  42  1013   ---     E    14    14   ---   0.7 Scattered Clouds/
13/03/2005 14:55      17.0   4.0  17.1  11.0  42  1013   ---     E    18    18   ---   0.7 Scattered Clouds/
13/03/2005 15:55      17.0   5.0  17.2  11.9  45  1013   ---   ENE    14    14   ---   6.0 Scattered Clouds/
13/03/2005 16:55      17.0   6.0  17.4  11.9  48  1013   ---     E    14    14   ---   6.0 Scattered Clouds/
13/03/2005 17:55      15.0   9.0  16.5  13.3  67  1013   ---     E     6     6   ---   6.0 Scattered Clouds/
13/03/2005 18:55      15.0  10.0  16.8  13.3  72  1013   ---     E     6     6   ---   6.0 Broken Clouds/
13/03/2005 19:55      13.0  10.0  15.5  13.0  82  1013   ---     N     0     0   ---   6.0 Broken Clouds/
14/03/2005 07:55      10.0   6.0  12.1   5.3  76  1016   ---     W    10    10   ---   6.0 Few Clouds/
14/03/2005 08:55      11.0   6.0  12.7   9.0  71  1017   ---   WSW     6     6   ---   6.0 Few Clouds/
14/03/2005 09:55      13.0   7.0  14.4  13.0  67  1018   ---    NE     3     3   ---   --- /
14/03/2005 10:55      15.0   6.0  15.7  15.0  55  1018   ---     N     0     0   ---   --- /
14/03/2005 12:55      16.0   7.0  16.7  13.2  55  1018   ---   ESE     8     8   ---   --- /
14/03/2005 13:55      16.0   8.0  16.9  12.5  59  1018   ---   ESE    10    10   ---   --- /
14/03/2005 14:55      16.0   7.0  16.7  12.5  55  1018   ---     E    10    10   ---   --- /
14/03/2005 15:55      16.0   7.0  16.7  12.5  55  1018   ---   ESE    10    10   ---   --- /
14/03/2005 16:55      15.0   9.0  16.5  12.0  67  1019   ---     E     8     8   ---   --- /
14/03/2005 17:55      14.0   8.0  15.5  12.3  67  1019   ---   ESE     6     6   ---   --- /
14/03/2005 18:55      13.0   7.0  14.4  13.0  67  1019   ---     E     3     3   ---   --- /
14/03/2005 19:55      12.0   9.0  14.5  12.0  82  1019   ---     W     5     5   ---   --- /
15/03/2005 07:55      10.0   7.0  12.5  10.0  82  1021   ---     N     0     0   ---   --- /
15/03/2005 08:55      11.0   7.0  13.1  11.0  76  1022   ---   ---     0     0   ---   --- /
15/03/2005 09:55      13.0   7.0  14.4  13.0  67  1022   ---   ---     0     0   ---   --- /
15/03/2005 10:55      15.0   9.0  16.5  15.0  67  1023   ---   ---     0     0   ---   --- /
15/03/2005 11:55      16.0   9.0  17.2  16.0  63  1023   ---     E     5     5   ---   --- /
15/03/2005 12:55      17.0   8.0  17.7  14.3  55  1023   ---   ESE     8     8   ---   --- /
15/03/2005 13:55      18.0   9.0  18.8  15.0  56  1024   ---   ESE    10    10   ---   --- /
15/03/2005 14:55      17.0  11.0  18.5  14.3  68  1024   ---     E     8     8   ---   3.0 Scattered Clouds/
15/03/2005 15:55      17.0  10.0  18.2  14.3  63  1023   ---     E     8     8   ---   3.0 Scattered Clouds/
15/03/2005 16:55      16.0  10.0  17.5  16.0  68  1024   ---   ESE     5     5   ---   3.0 Scattered Clouds/
15/03/2005 17:55      15.0  11.0  17.1  15.0  77  1024   ---   ESE     5     5   ---   --- /
15/03/2005 18:55      15.0  10.0  16.8  15.0  72  1024   ---     N     0     0   ---   --- /
15/03/2005 19:55      13.0  11.0  15.9  13.0  88  1024   ---   ---     0     0   ---   --- /
15/03/2005 19:55      13.0  11.0  15.9  13.0  88  1024   ---   ---     0     0   ---   --- None reported/None reported
16/03/2005 07:55      10.0   5.0  11.7  10.0  71  1027   ---   ---     0     0   ---   --- /
16/03/2005 08:55      11.0   5.0  12.4  11.0  66  1028   ---   ---     0     0   ---   --- /
16/03/2005 09:55      13.0   8.0  14.8  13.0  72  1028   ---   ---     0     0   ---   --- /
16/03/2005 10:55      15.0   9.0  16.5  13.3  67  1028   ---     E     6     6   ---   --- /
16/03/2005 11:55      16.0   9.0  17.2  11.3  63  1029   ---     E    13    13   ---   --- /
16/03/2005 12:55      17.0   9.0  18.0  11.9  59  1029   ---   ENE    14    14   ---   --- /
16/03/2005 13:55      17.0   9.0  18.0  11.9  59  1029   ---     E    14    14   ---   --- /
16/03/2005 14:55      16.0  11.0  17.8  10.6  72  1029   ---     E    14    14   ---   --- /
16/03/2005 16:55      15.0  11.0  17.1  11.3  77  1029   ---     E    10    10   ---   --- /
16/03/2005 17:55      15.0  11.0  17.1  12.0  77  1029   ---     E     8     8   ---   --- /
15/03/2005 19:55      13.0  11.0  15.9  13.0  88  1024   ---     N     0     0   ---   --- /
17/03/2005 07:55       9.0  -1.0   9.4   5.0  50  1031   ---   WSW     8     8   ---   --- /
17/03/2005 08:55      10.0   1.0  10.6  10.0  54  1032   ---   WSW     3     3   ---   --- /
17/03/2005 09:55      12.0   4.0  12.9  12.0  58  1032   ---     N     0     0   ---   --- /
17/03/2005 10:55      14.0   5.0  14.7  14.0  55  1032   ---   ESE     3     3   ---   --- /
17/03/2005 11:55      15.0   5.0  15.5  15.0  51  1032   ---     E     5     5   ---   --- /
17/03/2005 12:55      17.0   5.0  17.2  14.3  45  1032   ---     E     8     8   ---   --- /
17/03/2005 13:55      17.0   6.0  17.4  14.3  48  1031   ---     E     8     8   ---   --- /
17/03/2005 14:55      17.0   7.0  17.5  13.8  52  1031   ---     E    10    10   ---   --- /
17/03/2005 15:55      17.0   7.0  17.5  13.8  52  1030   ---     E    10    10   ---   --- /
17/03/2005 16:55      16.0   8.0  16.9  14.4  59  1030   ---   ESE     6     6   ---   --- /
17/03/2005 17:55      16.0   8.0  16.9  14.4  59  1030   ---   ESE     6     6   ---   --- /
17/03/2005 18:55      14.0   7.0  15.2  14.0  63  1030   ---   SSE     3     3   ---   --- /
17/03/2005 19:55      12.0   8.0  14.1  12.0  77  1031   ---     N     0     0   ---   --- /
17/03/2005 19:55      12.0   8.0  14.1  12.0  77  1031   ---   ---     0     0   ---   --- None reported/None reported
18/03/2005 07:55      11.0   6.0  12.7   7.3  71  1029   ---   WSW     8     8   ---   --- /
18/03/2005 08:55      12.0   6.0  13.4  12.0  67  1029   ---   WSW     3     3   ---   --- /
18/03/2005 09:55      15.0   5.0  15.5  15.0  51  1030   ---   ESE     3     3   ---   --- /
18/03/2005 10:55      15.0   4.0  15.3  13.3  48  1030   ---     E     6     6   ---   --- /
18/03/2005 11:55      16.0   4.0  16.2  16.0  45  1030   ---     E     5     5   ---   --- /
18/03/2005 11:55      16.0   4.0  16.2  16.0  45  1030   ---     E     5     5   ---   --- None reported/None reported
18/03/2005 12:55      17.0   4.0  17.1  17.0  42  1029   ---     E     5     5   ---   --- /
18/03/2005 13:55      18.0   4.0  17.9  16.6  39  1029   ---     E     6     6   ---   --- /
18/03/2005 14:55      17.0   4.0  17.1  13.8  42  1028   ---   ESE    10    10   ---   --- /
18/03/2005 15:55      18.0   3.0  17.8  18.0  37  1028   ---     N     0     0   ---   --- /
18/03/2005 16:55      16.0   4.0  16.2  11.3  45  1028   ---     E    13    13   ---   --- /
18/03/2005 17:55      15.0   6.0  15.7  15.0  55  1028   ---     S     3     3   ---   --- /
18/03/2005 18:55      14.0   7.0  15.2  14.0  63  1027   ---     W     3     3   ---   --- /
18/03/2005 19:55      13.0   7.0  14.4  13.0  67  1027   ---     W     3     3   ---   --- /
18/03/2005 19:55      13.0   7.0  14.4  13.0  67  1027   ---     W     3     3   ---   --- None reported/None reported
19/03/2005 07:55      11.0   0.0  11.3   4.9  47  1024   ---   WSW    13    13   ---   --- /
19/03/2005 08:55      13.0   2.0  13.3  13.0  47  1023   ---     N     0     0   ---   3.0 Broken Clouds/
19/03/2005 09:55      14.0   5.0  14.7  12.3  55  1023   ---     S     6     6   ---   3.0 Scattered Clouds/
19/03/2005 10:55      15.0   3.0  15.2  15.0  44  1023   ---     N     0     0   ---   3.0 Broken Clouds/
19/03/2005 11:55      17.0   0.0  16.6  14.3  32  1023   ---     E     8     8   ---999.0--- Broken Clouds/
19/03/2005 12:55      17.0   1.0  16.7  13.8  34  1023   ---   ESE    10    10   ---   6.0 Broken Clouds/
19/03/2005 13:55      16.0   2.0  15.9  11.3  39  1022   ---   ESE    13    13   ---999.0--- Broken Clouds/
19/03/2005 13:55      16.0   2.0  15.9  11.3  39  1022   ---   ESE    13    13   ---   1.2 Broken Clouds/None reported
19/03/2005 14:55      17.0   2.0  16.8  13.8  36  1022   ---     E    10    10   ---   3.0 Scattered Clouds/
19/03/2005 15:55      17.0   3.0  16.9  14.3  39  1021   ---     E     8     8   ---   6.0 Scattered Clouds/
19/03/2005 16:55      17.0   3.0  16.9  12.5  39  1021   ---     E    13    13   ---   6.0 Scattered Clouds/
19/03/2005 17:55      16.0   6.0  16.5  14.4  51  1021   ---    SE     6     6   ---   6.0 Scattered Clouds/
19/03/2005 18:55      15.0   7.0  15.9  15.0  59  1020   ---     N     0     0   ---   6.0 Scattered Clouds/
19/03/2005 19:55      13.0   8.0  14.8   7.4  72  1020   ---   WSW    13    13   ---   6.0 Scattered Clouds/
20/03/2005 07:55      10.0   3.0  11.1   7.9  62  1018   ---   WSW     6     6   ---   --- /
20/03/2005 08:55      11.0   3.0  11.9  11.0  58  1018   ---   WSW     3     3   ---   --- /
20/03/2005 09:55      13.0   4.0  13.7  13.0  54  1018   ---     N     0     0   ---   --- /
20/03/2005 10:55      15.0   3.0  15.2  15.0  44  1018   ---     E     3     3   ---   --- /
20/03/2005 11:55      16.0   3.0  16.0  14.4  42  1018   ---     E     6     6   ---   --- /
20/03/2005 12:55      17.0   3.0  16.9  17.0  39  1018   ---   ENE     5     5   ---   --- /
20/03/2005 13:55      18.0   1.0  17.6  18.0  32  1018   ---   ENE     5     5   ---   --- /
20/03/2005 14:55      18.0  -1.0  17.5  13.8  28  1017   ---     E    13    13   ---   6.0 Few Clouds/
20/03/2005 15:55      18.0  -2.0  17.4  15.0  26  1017   ---     E    10    10   ---   6.0 Scattered Clouds/
20/03/2005 16:55      17.0   1.0  16.7  13.8  34  1017   ---     E    10    10   ---   6.0 Scattered Clouds/
20/03/2005 17:55      17.0   4.0  17.1  14.3  42  1017   ---     E     8     8   ---   6.0 Scattered Clouds/
20/03/2005 18:55      15.0  10.0  16.8  15.0  72  1017   ---   ESE     5     5   ---   6.0 Few Clouds/
20/03/2005 19:55      12.0  10.0  14.9  12.0  88  1017   ---    SE     3     3   ---   --- /
20/03/2005 19:55      12.0  10.0  14.9  12.0  88  1017   ---    SE     3     3   ---   --- None reported/None reported
21/03/2005 07:55       8.0   1.0   9.1   3.8  61  1016   ---   WSW     8     8   ---   6.0 Scattered Clouds/
21/03/2005 09:55      13.0   8.0  14.8  13.0  72  1016   ---     N     0     0   ---   6.0 Few Clouds/
21/03/2005 11:55      15.0   9.0  16.5  13.3  67  1017   ---     E     6     6   ---   6.0 Scattered Clouds/
21/03/2005 12:55      16.0  10.0  17.5  13.2  68  1017   ---   ESE     8     8   ---   6.0 Few Clouds/
21/03/2005 13:55      16.0  10.0  17.5  13.2  68  1016   ---   ESE     8     8   ---   6.0 Scattered Clouds/
21/03/2005 14:55      16.0  10.0  17.5  12.5  68  1016   ---     E    10    10   ---   6.0 Few Clouds/
21/03/2005 15:55      15.0   9.0  16.5  11.3  67  1016   ---     E    10    10   ---   --- /
21/03/2005 16:55      15.0  10.0  16.8  11.3  72  1016   ---     E    10    10   ---   --- /
21/03/2005 17:55      14.0  11.0  16.5  10.8  82  1016   ---     E     8     8   ---   --- /
20/03/2005 18:55      15.0  10.0  16.8  15.0  72  1017   ---   ESE     5     5   ---   6.0 Few Clouds/
21/03/2005 19:55      11.0   9.0  13.9  11.0  87  1016   ---   WSW     3     3   ---   0.4 Scattered Clouds/
22/03/2005 07:55       8.0   4.0  10.0   8.0  76  1017   ---     W     3     3   ---   --- /
22/03/2005 08:55      11.0   6.0  12.7  11.0  71  1018   ---     N     0     0   ---   --- /
22/03/2005 09:55      13.0   6.0  14.2  13.0  62  1019   ---   ESE     5     5   ---   --- /
22/03/2005 10:55      14.0   9.0  15.8  12.3  72  1019   ---   ENE     6     6   ---   --- /
22/03/2005 11:55      14.0  10.0  16.1  10.1  77  1019   ---     E    10    10   ---   --- /
22/03/2005 12:55      15.0  10.0  16.8  11.3  72  1019   ---   ESE    10    10   ---   --- /
22/03/2005 13:55      15.0  10.0  16.8  12.0  72  1019   ---     E     8     8   ---   --- /
22/03/2005 14:55      16.0  10.0  17.5  14.4  68  1019   ---   ESE     6     6   ---   --- /
22/03/2005 15:55      16.0  10.0  17.5  11.3  68  1019   ---     E    13    13   ---   --- /
22/03/2005 16:55      15.0  10.0  16.8  12.0  72  1019   ---     E     8     8   ---   --- /
22/03/2005 17:55      14.0  10.0  16.1  12.3  77  1019   ---     E     6     6   ---   --- /
22/03/2005 18:55      14.0  11.0  16.5  14.0  82  1019   ---     N     0     0   ---   --- /
22/03/2005 19:55      13.0  10.0  15.5  13.0  82  1020   ---     W     3     3   ---   --- /
23/03/2005 07:55      11.0  -1.0  11.1   9.0  43  1017   ---   WSW     6     6   ---999.04.2 Scattered Clouds/
23/03/2005 08:55      12.0   1.0  12.3  12.0  47  1022   ---     N     0     0   ---   3.0 Few Clouds/
23/03/2005 09:55      16.0   5.0  16.3  16.0  48  1022   ---   ---     0     0   ---   6.0 Few Clouds/
23/03/2005 10:55      18.0   6.0  18.2  16.6  45  1022   ---     E     6     6   ---   --- /
23/03/2005 11:55      18.0   5.0  18.1  18.0  42  1022   ---     E     5     5   ---   --- /
23/03/2005 12:55      18.0   6.0  18.2  15.5  45  1022   ---   ESE     8     8   ---   --- /
23/03/2005 13:55      18.0   7.0  18.4  15.5  49  1022   ---     E     8     8   ---   --- /
23/03/2005 14:55      18.0   7.0  18.4  15.5  49  1022   ---     E     8     8   ---   --- /
23/03/2005 15:55      18.0   8.0  18.6  16.6  52  1021   ---     E     6     6   ---   6.0 Few Clouds/
23/03/2005 16:55      18.0   8.0  18.6  18.0  52  1021   ---     E     3     3   ---999.0--- Overcast/
23/03/2005 17:55      17.0   7.0  17.5  17.0  52  1021   ---     E     3     3   ---   2.4 Scattered Clouds/
23/03/2005 18:55      16.0   8.0  16.9  16.0  59  1021   ---     N     0     0   ---   2.4 Broken Clouds/
23/03/2005 19:55      14.0   9.0  15.8  14.0  72  1021   ---   ---     0     0   ---   2.4 Scattered Clouds/
22/03/2005 19:55      13.0  10.0  15.5  13.0  82  1020   ---     W     3     3   ---   --- /
24/03/2005 07:55      13.0  10.0  15.5  13.0  82  1020   ---     N     0     0   ---   3.0 Scattered Clouds/
24/03/2005 08:55      13.0  10.0  15.5  13.0  82  1020   ---   ---     0     0   ---   3.0 Scattered Clouds/
24/03/2005 09:55      14.0  10.0  16.1  14.0  77  1020   ---   ---     0     0   ---   3.0 Scattered Clouds/
24/03/2005 10:55      20.0   7.0  20.1  20.0  43  1020   ---   ---     0     0   ---   3.0 Scattered Clouds/
24/03/2005 11:55      20.0   8.0  20.2  17.8  46  1020   ---   ENE     8     8   ---999.0--- Broken Clouds/
24/03/2005 14:55      20.0  11.0  20.8  17.8  56  1020   ---     E     8     8   ---   6.0 Broken Clouds/
24/03/2005 15:55      20.0  11.0  20.8  20.0  56  1020   ---     N     0     0   ---   6.0 Broken Clouds/
24/03/2005 16:55      19.0  12.0  20.2  16.7  64  1020   ---    SE     8     8   ---   6.0 Broken Clouds/
24/03/2005 17:55      18.0  13.0  19.8  18.0  73  1020   ---     N     0     0   ---   6.0 Broken Clouds/
24/03/2005 19:55      17.0  11.0  18.5  15.5  68  1019   ---     W     6     6   ---   6.0 Broken Clouds/
25/03/2005 07:55      14.0  10.0  16.1  14.0  77  1019   ---     N     0     0   ---   0.7 Broken Clouds/
25/03/2005 08:55      15.0  10.0  16.8  15.0  72  1019   ---   ---     0     0   ---   0.9 Broken Clouds/
25/03/2005 09:55      16.0  13.0  18.5  16.0  82  1019   ---   ---     0     0   ---   0.9 Scattered Clouds/
25/03/2005 10:55      17.0  14.0  19.5  17.0  83  1020   ---   ---     0     0   ---   1.0 Scattered Clouds/
25/03/2005 11:55      20.0  14.0  21.5  18.8  68  1020   ---     E     6     6   ---   1.0 Scattered Clouds/
25/03/2005 12:55      20.0  13.0  21.3  17.8  64  1020   ---   ENE     8     8   ---   0.9 Scattered Clouds/
25/03/2005 13:55      20.0  12.0  21.0  20.0  60  1019   ---     N     0     0   ---   0.9 Broken Clouds/
25/03/2005 14:55      20.0  14.0  21.5  20.0  68  1018   ---   ESE     5     5   ---   0.9 Scattered Clouds/
25/03/2005 15:55      22.0  12.0  22.6  22.0  53  1018   ---   ENE     5     5   ---   0.9 Scattered Clouds/
25/03/2005 17:55      22.0  13.0  22.8  22.0  57  1016   ---    NE     5     5   ---   --- /
25/03/2005 18:55      21.0   9.0  21.3  19.9  46  1016   ---   ESE     6     6   ---   --- /
25/03/2005 19:55      18.0  12.0  19.5  18.0  68  1016   ---   SSW     5     5   ---   --- /
26/03/2005 07:55      22.0  -3.0  21.2  16.5  19  1013   ---     W    27    50   ---   3.0 Scattered Clouds/
26/03/2005 08:55      23.0  -1.0  22.2  17.4  20  1012   ---     W    37    64   ---   6.0 Scattered Clouds/
26/03/2005 09:55      24.0   0.0  23.2  19.2  21  1012   ---     W    34    58   ---   6.0 Scattered Clouds/
26/03/2005 10:55      25.0   1.0  24.2  20.5  21  1012   ---     W    37    64   ---   6.0 Scattered Clouds/
26/03/2005 12:55      26.0   2.0  25.2  22.9  21  1012   ---     W    23    58   ---999.00.6 Broken Clouds/
26/03/2005 13:55      27.0   1.0  26.0  24.4  18  1011   ---     W    21    21   ---   6.0 Scattered Clouds/
26/03/2005 15:55      27.0   0.0  26.0  24.0  17  1011   ---     W    29    29   ---   6.0 Broken Clouds/
26/03/2005 16:55      27.0   0.0  26.0  23.9  17  1010   ---     W    31    63   ---   6.0 Broken Clouds/
26/03/2005 17:55      26.0   0.0  25.2  23.0  18  1010   ---   WSW    21    21   ---   6.0 Broken Clouds/
26/03/2005 18:55      25.0   2.0  24.3  22.0  22  1010   ---     W    18    18   ---   6.0 Broken Clouds/
26/03/2005 19:55      24.0  -1.0  23.2  21.1  19  1011   ---     W    14    14   ---   6.0 Scattered Clouds/
25/03/2005 19:55      18.0  12.0  19.5  18.0  68  1016   ---   SSW     5     5   ---   --- /
25/03/2005 20:55      18.0  12.0  19.5  18.0  68  1016   ---   SSW     5     5   ---   --- /
27/03/2005 08:55      16.0  13.0  18.5  16.0  82  1010   ---    NE     3     3   ---999.0--- Overcast/
27/03/2005 09:55      16.0  13.0  18.5  13.2  82  1011   ---   ESE     8     8   ---999.0--- Overcast/
27/03/2005 09:55      16.0  13.0  18.5  13.2  82  1011   ---   ESE     8     8   ---   0.7 Overcast/None reported
27/03/2005 10:55      16.0  13.0  18.5  16.0  82  1011   ---   SSE     3     3   ---   0.4 Overcast/
27/03/2005 11:55      16.0  13.0  18.5  14.4  82  1011   ---   ENE     6     6   ---   6.0 Broken Clouds/
27/03/2005 12:55      18.0  14.0  20.2  18.0  77  1010   ---   WSW     3     3   ---999.00.6 Overcast/
27/03/2005 13:55      20.0  10.0  20.6  17.4  53  1010   ---   WSW    10    10   ---   6.0 Broken Clouds/
27/03/2005 14:55      21.0  10.0  21.4  16.5  49  1010   ---   WNW    18    18   ---   6.0 Broken Clouds/
27/03/2005 15:55      21.0  10.0  21.4  17.2  49  1010   ---     W    14    14   ---   2.7 Scattered Clouds/
27/03/2005 16:55      21.0   9.0  21.3  17.2  46  1010   ---    NW    14    14   ---   0.7 Scattered Clouds/
27/03/2005 17:55      20.0   8.0  20.2  15.3  46  1010   ---     W    16    16   ---   0.7 Few Clouds/
27/03/2005 18:55      20.0   7.0  20.1  14.6  43  1009   ---   WNW    19    45   ---   --- /
27/03/2005 19:55      19.0   8.0  19.4  12.7  49  1009   ---   WNW    23    43   ---   --- /
26/03/2005 20:55      24.0  -1.0  23.2  21.1  19  1011   ---     W    14    14   ---   6.0 Scattered Clouds/
28/03/2005 07:55      13.0  10.0  15.5  13.0  82  1012   ---     N     0     0   ---   --- /
28/03/2005 08:55      13.0  10.0  15.5  13.0  82  1013   ---   NNW     3     3   ---   0.7 Few Clouds/
28/03/2005 09:55      14.0  10.0  16.1  14.0  77  1013   ---     N     0     0   ---   0.7 Few Clouds/
28/03/2005 10:55      18.0  10.0  19.0  13.8  60  1013   ---     W    13    13   ---   6.0 Scattered Clouds/
28/03/2005 11:55      19.0  11.0  20.0  19.0  60  1013   ---     N     0     0   ---   6.0 Scattered Clouds/
28/03/2005 12:55      20.0  10.0  20.6  17.8  53  1014   ---     E     8     8   ---   0.6 Few Clouds/
28/03/2005 13:55      21.0   8.0  21.1  19.0  43  1014   ---     W     8     8   ---   0.6 Few Clouds/
28/03/2005 14:55      21.0   8.0  21.1  17.7  43  1014   ---   NNW    13    13   ---   0.6 Few Clouds/
28/03/2005 15:55      22.0   9.0  22.1  18.9  43  1014   ---   WNW    13    13   ---   0.6 Few Clouds/
28/03/2005 16:55      21.0  10.0  21.4  16.7  49  1013   ---   NNW    16    16   ---   0.6 Few Clouds/
28/03/2005 17:55      21.0  10.0  21.4  16.5  49  1013   ---    NW    18    18   ---   0.6 Scattered Clouds/
28/03/2005 18:55      18.0  11.0  19.2  12.6  64  1014   ---   NNW    16    16   ---   0.6 Few Clouds/
27/03/2005 19:55      19.0   8.0  19.4  12.7  49  1009   ---   WNW    23    43   ---   --- /
28/03/2005 20:55      15.0  10.0  16.8  15.0  72  1015   ---   WNW     5     5   ---   0.6 Few Clouds/
28/03/2005 20:55      15.0  10.0  16.8  15.0  72  1015   ---   WNW     5     5   ---   0.6 Few Clouds/None reported
28/03/2005 20:55      15.0  10.0  16.8  15.0  72  1015   ---   WNW     5     5   ---   0.6 Few Clouds/None reported
28/03/2005 20:55      15.0  10.0  16.8  15.0  72  1015   ---   WNW     5     5   ---   0.6 Few Clouds/None reported
29/03/2005 07:55      12.0  10.0  14.9  12.0  88  1015   ---   WSW     5     5   ---   6.0 Scattered Clouds/
28/03/2005 08:55      13.0  10.0  15.5  13.0  82  1013   ---   NNW     3     3   ---   0.7 Few Clouds/
29/03/2005 09:55      14.0  11.0  16.5  14.0  82  1015   ---     N     5     5   ---   6.0 Broken Clouds/
29/03/2005 10:55      16.0  11.0  17.8  14.4  72  1015   ---    NE     6     6   ---   6.0 Broken Clouds/
29/03/2005 11:55      16.0  12.0  18.1  13.2  77  1016   ---   ESE     8     8   ---   0.6 Scattered Clouds/
29/03/2005 13:55      16.0  13.0  18.5  12.5  82  1016   ---   ESE    10    10   ---   0.6 Few Clouds/
29/03/2005 14:55      18.0  14.0  20.2  15.5  77  1016   ---     E     8     8   ---   0.6 Few Clouds/
28/03/2005 16:55      21.0  10.0  21.4  16.7  49  1013   ---   NNW    16    16   ---   0.6 Few Clouds/
29/03/2005 17:55      17.0  13.0  19.2  14.3  77  1015   ---     E     8     8   ---   0.6 Scattered Clouds/
29/03/2005 18:55      17.0  12.0  18.8  17.0  72  1015   ---   ESE     5     5   ---   0.6 Few Clouds/
29/03/2005 19:55      16.0  13.0  18.5  14.4  82  1015   ---    SE     6     6   ---   --- /
29/03/2005 20:55      14.0  12.0  17.0  14.0  88  1016   ---     N     0     0   ---   --- /
30/03/2005 07:55      11.0   6.0  12.7   9.0  71  1014   ---   WSW     6     6   ---   6.0 Broken Clouds/
30/03/2005 09:55      12.0   9.0  14.5  12.0  82  1014   ---     N     0     0   ---   3.0 Scattered Clouds/
30/03/2005 10:55      14.0  11.0  16.5  14.0  82  1014   ---   ---     0     0   ---   3.0 Scattered Clouds/
30/03/2005 11:55      15.0  10.0  16.8  13.3  72  1014   ---     E     6     6   ---   3.0 Scattered Clouds/
30/03/2005 12:55      16.0  10.0  17.5  14.4  68  1014   ---   ENE     6     6   ---   0.7 Scattered Clouds/
30/03/2005 13:55      18.0   9.0  18.8  13.2  56  1013   ---   ENE    14    14   ---   0.7 Scattered Clouds/
30/03/2005 14:55      18.0  10.0  19.0  13.8  60  1013   ---   NNW    13    13   ---   0.7 Broken Clouds/
30/03/2005 15:55      18.0  10.0  19.0  10.8  60  1013   ---   NNW    26    26   ---   0.7 Scattered Clouds/
30/03/2005 16:55      18.0  10.0  19.0  11.8  60  1012   ---    NW    19    19   ---   0.7 Scattered Clouds/
30/03/2005 17:55      17.0  10.0  18.2  10.4  63  1012   ---   NNW    19    19   ---   0.7 Few Clouds/
29/03/2005 19:55      16.0  13.0  18.5  14.4  82  1015   ---    SE     6     6   ---   --- /
30/03/2005 20:55      14.0  10.0  16.1  14.0  77  1012   ---     N     0     0   ---   0.7 Few Clouds/
31/03/2005 07:55      12.0   9.0  14.5  12.0  82  1011   ---    SW     5     5   ---   --- Overcast/ Rain
31/03/2005 08:55      11.0   8.0  13.5  11.0  82  1011   ---    SW     3     3   ---   0.5 Overcast/
31/03/2005 09:55      11.0   8.0  13.5   6.5  82  1011   ---    NW    10    10   ---   0.5 Broken Clouds/
31/03/2005 10:55      13.0   9.0  15.1   9.7  77  1012   ---     N     8     8   ---   0.5 Broken Clouds/
31/03/2005 11:55      13.0   9.0  15.1  13.0  77  1012   ---    NW     3     3   ---   0.5 Broken Clouds/
31/03/2005 12:55      14.0  10.0  16.1   8.0  77  1012   ---    NW    14    14   ---   0.5 Broken Clouds/
31/03/2005 13:55      15.0  11.0  17.1   9.3  77  1012   ---    NW    14    14   ---   0.5 Broken Clouds/
31/03/2005 14:55      15.0  11.0  17.1  10.0  77  1012   ---   NNW    13    13   ---   0.5 Broken Clouds/
31/03/2005 15:55      15.0  12.0  17.5   9.3  82  1012   ---     N    14    14   ---   0.6 Broken Clouds/
31/03/2005 16:55      16.0  11.0  17.8  11.3  72  1012   ---     N    13    13   ---   0.6 Broken Clouds/
30/03/2005 18:55      16.0  10.0  17.5  10.6  68  1012   ---     N    14    14   ---   0.7 Scattered Clouds/
31/03/2005 19:55      14.0  11.0  16.5  12.3  82  1013   ---     N     6     6   ---   0.6 Scattered Clouds/
31/03/2005 20:55      13.0  10.0  15.5   9.7  82  1013   ---     N     8     8   ---   0.6 Scattered Clouds/
01/04/2005 07:55      11.0   8.0  13.5  11.0  82  1016   ---   SSE     3     3   ---   0.5 Scattered Clouds/
31/03/2005 08:55      11.0   8.0  13.5  11.0  82  1011   ---    SW     3     3   ---   0.5 Overcast/
01/04/2005 09:55      13.0  11.0  15.9  13.0  88  1017   ---    NE     3     3   ---   0.5 Broken Clouds/
01/04/2005 10:55      15.0  10.0  16.8   8.6  72  1017   ---   NNW    16    16   ---   0.4 Broken Clouds/
01/04/2005 11:55      16.0  11.0  17.8  16.0  72  1018   ---     E     5     5   ---   0.4 Broken Clouds/
01/04/2005 12:55      17.0  10.0  18.2  13.8  63  1018   ---   NNE    10    10   ---   0.4 Broken Clouds/
01/04/2005 13:55      16.0  11.0  17.8  12.5  72  1018   ---   ESE    10    10   ---   0.7 Broken Clouds/
01/04/2005 14:55      18.0  11.0  19.2  18.0  64  1018   ---     W     5     5   ---   0.7 Scattered Clouds/
01/04/2005 15:55      18.0  10.0  19.0  15.5  60  1018   ---     N     8     8   ---   0.7 Scattered Clouds/
01/04/2005 16:55      18.0  10.0  19.0  12.4  60  1018   ---   NNW    18    18   ---   0.6 Scattered Clouds/
01/04/2005 17:55      17.0  10.0  18.2  12.5  63  1018   ---   NNW    13    13   ---   0.6 Few Clouds/
31/03/2005 18:55      15.0  10.0  16.8  11.3  72  1013   ---     N    10    10   ---   0.6 Broken Clouds/
01/04/2005 19:55      15.0  11.0  17.1  11.3  77  1018   ---    NE    10    10   ---   0.6 Few Clouds/
01/04/2005 20:55      14.0  11.0  16.5  14.0  82  1019   ---     N     0     0   ---   --- /
01/04/2005 20:55      14.0  11.0  16.5  14.0  82  1019   ---   ---     0     0   ---   --- None reported/None reported
01/04/2005 07:55      11.0   8.0  13.5  11.0  82  1016   ---   SSE     3     3   ---   0.5 Scattered Clouds/
01/04/2005 07:55      11.0   8.0  13.5  11.0  82  1016   ---   SSE     3     3   ---   0.5 Scattered Clouds/None reported
02/04/2005 08:55      11.0   8.0  13.5   9.0  82  1020   ---     W     6     6   ---   0.7 Scattered Clouds/
01/04/2005 09:55      13.0  11.0  15.9  13.0  88  1017   ---    NE     3     3   ---   0.5 Broken Clouds/
02/04/2005 10:55      13.0  11.0  15.9  13.0  88  1021   ---   WNW     3     3   ---   0.7 Few Clouds/
02/04/2005 11:55      16.0  10.0  17.5  16.0  68  1021   ---    NE     3     3   ---   0.7 Few Clouds/
02/04/2005 12:55      17.0   8.0  17.7  14.3  55  1021   ---     E     8     8   ---   0.7 Few Clouds/
01/04/2005 13:55      16.0  11.0  17.8  12.5  72  1018   ---   ESE    10    10   ---   0.7 Broken Clouds/
02/04/2005 14:55      17.0   7.0  17.5  11.3  52  1021   ---     E    16    16   ---   0.7 Few Clouds/
02/04/2005 15:55      17.0  12.0  18.8  11.0  72  1021   ---     E    18    18   ---   0.7 Scattered Clouds/
02/04/2005 16:55      15.0  11.0  17.1   8.2  77  1021   ---     E    18    18   ---   0.5 Scattered Clouds/
02/04/2005 18:55      14.0  10.0  16.1  10.1  77  1021   ---     E    10    10   ---   0.5 Broken Clouds/
02/04/2005 19:55      13.0  10.0  15.5  13.0  82  1021   ---     E     5     5   ---   0.5 Scattered Clouds/
02/04/2005 20:55      13.0  11.0  15.9  11.2  88  1021   ---     E     6     6   ---   0.5 Broken Clouds/
03/04/2005 07:55      12.0   9.0  14.5  12.0  82  1023   ---     N     0     0   ---   0.7 Broken Clouds/
03/04/2005 08:55      12.0   9.0  14.5  12.0  82  1023   ---   ---     0     0   ---   0.7 Broken Clouds/
03/04/2005 10:55      13.0   9.0  15.1  13.0  77  1024   ---   ---     0     0   ---   0.7 Broken Clouds/
03/04/2005 11:55      14.0   9.0  15.8  14.0  72  1025   ---   ---     0     0   ---   0.7 Broken Clouds/
03/04/2005 12:55      15.0   8.0  16.2  15.0  63  1025   ---   ---     0     0   ---   0.7 Broken Clouds/
03/04/2005 13:55      15.0   7.0  15.9  10.0  59  1024   ---    SE    13    13   ---   0.7 Broken Clouds/
03/04/2005 14:55      15.0   6.0  15.7   9.3  55  1024   ---     S    14    14   ---   0.9 Broken Clouds/
03/04/2005 15:55      14.0   8.0  15.5   8.7  67  1024   ---   SSW    13    13   ---   0.7 Overcast/
02/04/2005 16:55      15.0  11.0  17.1   8.2  77  1021   ---     E    18    18   ---   0.5 Scattered Clouds/
03/04/2005 17:55      14.0   9.0  15.8  14.0  72  1025   ---     N     0     0   ---   0.7 Broken Clouds/
03/04/2005 18:55      14.0   8.0  15.5  10.8  67  1025   ---    SE     8     8   ---   0.7 Broken Clouds/
03/04/2005 19:55      13.0   8.0  14.8   9.7  72  1025   ---    SE     8     8   ---   0.7 Broken Clouds/
03/04/2005 20:55      13.0   9.0  15.1   7.4  77  1025   ---    SE    13    13   ---   0.7 Broken Clouds/
03/04/2005 20:55      13.0   9.0  15.1   7.4  77  1025   ---    SE    13    13   ---   0.7 Broken Clouds/None reported
04/04/2005 07:55      11.0   7.0  13.1  11.0  76  1025   ---     N     0     0   ---   1.2 Scattered Clouds/
04/04/2005 08:55      11.0   8.0  13.5  11.0  82  1025   ---   ---     0     0   ---   1.0 Scattered Clouds/
04/04/2005 09:55      13.0   9.0  15.1  13.0  77  1025   ---   ---     0     0   ---   0.6 Broken Clouds/
04/04/2005 10:55      15.0  10.0  16.8  15.0  72  1025   ---   SSE     5     5   ---   0.6 Broken Clouds/
04/04/2005 11:55      16.0   9.0  17.2  14.4  63  1025   ---   ESE     6     6   ---   0.6 Broken Clouds/
04/04/2005 12:55      16.0   8.0  16.9   9.9  59  1025   ---   ESE    16    16   ---   0.6 Broken Clouds/
04/04/2005 13:55      16.0   8.0  16.9  11.3  59  1025   ---    SE    13    13   ---   1.0 Broken Clouds/
04/04/2005 14:55      15.0  10.0  16.8  11.3  72  1024   ---    SE    10    10   ---   0.5 Overcast/
04/04/2005 15:55      14.0  11.0  16.5   8.7  82  1024   ---    SE    13    13   ---   0.5 Overcast/
04/04/2005 16:55      14.0  11.0  16.5  10.1  82  1024   ---     E    10    10   ---   0.5 Overcast/
04/04/2005 17:55      14.0  11.0  16.5  10.1  82  1023   ---    SE    10    10   ---   0.4 Overcast/
04/04/2005 18:55      14.0  11.0  16.5  14.0  82  1023   ---     N     0     0   ---   --- Overcast/ Light Rain
04/04/2005 19:55      13.0   9.0  15.1  13.0  77  1024   ---   ---     0     0   ---   --- Overcast/ Light Rain
04/04/2005 20:55      12.0  10.0  14.9  12.0  88  1024   ---   ---     0     0   ---   --- Overcast/ Light Rain
05/04/2005 07:55      11.0   8.0  13.5  11.0  82  1023   ---   ---     0     0   ---   0.7 Overcast/
05/04/2005 08:55      11.0   8.0  13.5  11.0  82  1023   ---   ---     0     0   ---   --- Overcast/ Light Rain
05/04/2005 09:55      11.0   8.0  13.5  11.0  82  1024   ---   ---     0     0   ---   --- Overcast/ Light Rain
05/04/2005 10:55      11.0   8.0  13.5  11.0  82  1024   ---   ---     0     0   ---   --- Overcast/ Light Rain
05/04/2005 11:55      11.0   8.0  13.5  11.0  82  1025   ---   ---     0     0   ---   --- Overcast/ Light Rain
05/04/2005 12:55      11.0   8.0  13.5  11.0  82  1025   ---   ---     0     0   ---   --- Overcast/ Light Rain
05/04/2005 13:55      11.0   9.0  13.9  11.0  87  1025   ---   ---     0     0   ---   --- Overcast/ Light Rain
05/04/2005 14:55      12.0   8.0  14.1  12.0  77  1024   ---   ---     0     0   ---   --- Overcast/ Light Rain
05/04/2005 15:55      12.0   8.0  14.1  12.0  77  1024   ---   ---     0     0   ---   --- Overcast/ Light Rain
05/04/2005 16:55      12.0   8.0  14.1  12.0  77  1024   ---   ---     0     0   ---   --- Overcast/ Light Rain
05/04/2005 17:55      12.0   8.0  14.1  12.0  77  1024   ---   ---     0     0   ---   --- Overcast/ Light Rain
05/04/2005 18:55      12.0   8.0  14.1  12.0  77  1024   ---   ---     0     0   ---   0.4 Overcast/
05/04/2005 19:55      12.0   8.0  14.1  12.0  77  1024   ---   ---     0     0   ---   0.6 Overcast/
04/04/2005 20:55      12.0  10.0  14.9  12.0  88  1024   ---   ---     0     0   ---   --- Overcast/ Light Rain
05/04/2005 20:55      12.0   8.0  14.1  12.0  77  1024   ---   ---     0     0   ---   0.6 Overcast/
06/04/2005 07:55      11.0   8.0  13.5  11.0  82  1024   ---   ---     0     0   ---   --- Overcast/ Light Rain
06/04/2005 08:55      11.0   8.0  13.5  11.0  82  1024   ---   ---     0     0   ---   --- Overcast/ Light Rain
06/04/2005 09:55      11.0   8.0  13.5  11.0  82  1025   ---   ---     0     0   ---   --- / Mist
06/04/2005 10:55      11.0   8.0  13.5  11.0  82  1025   ---   ---     0     0   ---   0.7 Overcast/
06/04/2005 11:55      11.0   8.0  13.5  11.0  82  1026   ---   ---     0     0   ---   0.7 Overcast/
06/04/2005 12:55      12.0   9.0  14.5  12.0  82  1026   ---   ---     0     0   ---   0.7 Overcast/
05/04/2005 13:55      11.0   9.0  13.9  11.0  87  1025   ---   ---     0     0   ---   --- Overcast/ Light Rain
06/04/2005 14:55      14.0   9.0  15.8   8.7  72  1026   ---     E    13    13   ---   0.7 Broken Clouds/
06/04/2005 16:55      14.0   8.0  15.5  10.8  67  1025   ---     E     8     8   ---   0.7 Broken Clouds/
06/04/2005 17:55      14.0   9.0  15.8  12.3  72  1025   ---     E     6     6   ---   0.7 Broken Clouds/
06/04/2005 19:55      13.0   9.0  15.1   9.7  77  1024   ---     N     8     8   ---   0.7 Scattered Clouds/
06/04/2005 20:55      11.0   9.0  13.9   9.0  87  1025   ---   WNW     6     6   ---   0.7 Scattered Clouds/
06/04/2005 20:55      11.0   9.0  13.9   9.0  87  1025   ---   WNW     6     6   ---   0.7 Scattered Clouds/None reported
07/04/2005 07:55      10.0   7.0  12.5  10.0  82  1023   ---     W     5     5   ---   --- /
07/04/2005 08:55      10.0   7.0  12.5  10.0  82  1023   ---   WSW     5     5   ---   --- /
07/04/2005 09:55      12.0   9.0  14.5  12.0  82  1023   ---     N     0     0   ---   0.7 Few Clouds/
07/04/2005 10:55      14.0   8.0  15.5  14.0  67  1023   ---   ---     0     0   ---   0.7 Few Clouds/
07/04/2005 11:55      15.0   8.0  16.2  15.0  63  1023   ---     S     3     3   ---   0.7 Few Clouds/
07/04/2005 12:55      16.0   7.0  16.7  16.0  55  1022   ---   ESE     5     5   ---   0.7 Few Clouds/
07/04/2005 13:55      16.0   9.0  17.2  14.4  63  1022   ---     E     6     6   ---   0.7 Few Clouds/
07/04/2005 14:55      16.0   9.0  17.2  13.2  63  1021   ---     E     8     8   ---   0.7 Few Clouds/
07/04/2005 15:55      16.0   9.0  17.2  12.5  63  1021   ---     E    10    10   ---   0.7 Few Clouds/
07/04/2005 16:55      16.0   9.0  17.2  12.5  63  1020   ---   ESE    10    10   ---   0.7 Few Clouds/
07/04/2005 17:55      15.0   9.0  16.5  11.3  67  1020   ---   ESE    10    10   ---   0.7 Scattered Clouds/
07/04/2005 18:55      15.0   9.0  16.5  13.3  67  1019   ---   ESE     6     6   ---   0.7 Scattered Clouds/
07/04/2005 19:55      14.0  11.0  16.5  14.0  82  1019   ---     E     5     5   ---   0.7 Scattered Clouds/
06/04/2005 20:55      11.0   9.0  13.9   9.0  87  1025   ---   WNW     6     6   ---   0.7 Scattered Clouds/
08/04/2005 07:55      11.0   6.0  12.7  11.0  71  1013   ---   WNW     3     3   ---   6.0 Scattered Clouds/
08/04/2005 08:55      12.0   7.0  13.7  12.0  71  1012   ---     N     0     0   ---   6.0 Broken Clouds/
08/04/2005 09:55      14.0   7.0  15.2  14.0  63  1012   ---   ---     0     0   ---   6.0 Scattered Clouds/
08/04/2005 09:55      14.0   7.0  15.2  14.0  63  1012   ---   ---     0     0   ---   1.6 Scattered Clouds/None reported
08/04/2005 10:55      18.0   8.0  18.6  15.5  52  1011   ---    SW     8     8   ---   6.0 Scattered Clouds/
08/04/2005 11:55      20.0   8.0  20.2  13.8  46  1011   ---     W    26    45   ---   6.0 Scattered Clouds/
08/04/2005 12:55      20.0   8.0  20.2  13.8  46  1010   ---   WSW    26    47   ---   6.0 Scattered Clouds/
08/04/2005 12:55      20.0   8.0  20.2  13.8  46  1010   ---   WSW    26    47   ---   1.6 Scattered Clouds/None reported
08/04/2005 14:55      21.0   6.0  20.9  16.5  38  1009   ---   WSW    18    18   ---   6.0 Scattered Clouds/
08/04/2005 15:55      22.0   7.0  21.9  16.4  38  1008   ---   WSW    29    50   ---   6.0 Scattered Clouds/
08/04/2005 16:55      22.0   6.0  21.8  16.5  35  1007   ---     W    27    60   ---   6.0 Scattered Clouds/
08/04/2005 17:55      22.0   7.0  21.9  17.1  38  1007   ---   WSW    23    23   ---   6.0 Scattered Clouds/
08/04/2005 18:55      21.0   5.0  20.8  15.6  35  1006   ---     W    23    51   ---   6.0 Scattered Clouds/
08/04/2005 19:55      21.0   4.0  20.7  16.1  33  1006   ---     W    19    19   ---   6.0 Broken Clouds/
06/04/2005 20:55      11.0   9.0  13.9   9.0  87  1025   ---   WNW     6     6   ---   0.7 Scattered Clouds/
08/04/2005 20:55      21.0   3.0  20.6  15.2  31  1006   ---     W    26    50   ---   6.0 Broken Clouds/
07/04/2005 20:55      14.0  10.0  16.1  14.0  77  1019   ---     N     0     0   ---   6.0 Few Clouds/
09/04/2005 07:55      18.0   3.0  17.8  15.5  37  1006   ---   NNW     8     8   ---   6.0 Scattered Clouds/
09/04/2005 08:55      18.0   4.0  17.9  16.6  39  1007   ---   ENE     6     6   ---   6.0 Scattered Clouds/
09/04/2005 09:55      18.0   6.0  18.2  18.0  45  1007   ---     N     0     0   ---   0.7 Broken Clouds/
09/04/2005 10:55      20.0   6.0  20.0  20.0  40  1006   ---   NNE     3     3   ---   6.0 Broken Clouds/
09/04/2005 11:55      21.0   8.0  21.1  19.9  43  1006   ---    NW     6     6   ---   6.0 Broken Clouds/
09/04/2005 12:55      22.0   9.0  22.1  22.0  43  1005   ---   NNE     3     3   ---   6.0 Broken Clouds/
09/04/2005 13:55      23.0   9.0  23.0  23.0  41  1005   ---    NE     3     3   ---   0.9 Broken Clouds/
09/04/2005 14:55      23.0   8.0  22.9  19.2  38  1005   ---   NNE    18    18   ---999.0--- Broken Clouds/
09/04/2005 15:55      21.0  10.0  21.4  19.0  49  1006   ---    SE     8     8   ---   0.7 Scattered Clouds/
09/04/2005 16:55      21.0  12.0  21.8  19.0  56  1006   ---     S     8     8   ---   0.7 Scattered Clouds/
09/04/2005 17:55      20.0  12.0  21.0  17.4  60  1005   ---   ENE    10    10   ---   0.7 Scattered Clouds/
09/04/2005 18:55      19.0  14.0  20.8  16.7  73  1005   ---    NE     8     8   ---   6.0 Scattered Clouds/
08/04/2005 19:55      21.0   4.0  20.7  16.1  33  1006   ---     W    19    19   ---   6.0 Broken Clouds/
09/04/2005 20:55      15.0  12.0  17.5  13.3  82  1005   ---   ESE     6     6   ---   --- /
10/04/2005 07:55      12.0   9.0  14.5   6.2  82  1014   ---     N    13    13   ---   --- Overcast/ Light Rain
10/04/2005 08:55      12.0   9.0  14.5   8.5  82  1004   ---   NNE     8     8   ---   --- Overcast/ Rain
10/04/2005 09:55      12.0   9.0  14.5   6.2  82  1002   ---   ENE    13    13   ---   0.5 Overcast/
10/04/2005 10:55      12.0  10.0  14.9   7.7  88  1002   ---     W    10    10   ---   --- Overcast/ Light Rain
10/04/2005 11:55      12.0  10.0  14.9   6.2  88  1001   ---   NNW    13    13   ---   --- Overcast/ Light Rain
10/04/2005 12:55      11.0   8.0  13.5   0.4  82  1001   ---    NW    26    26   ---   --- Overcast/ Light Rain
10/04/2005 13:55      10.0   7.0  12.5  -1.4  82  1001   ---    NW    27    58   ---   --- Overcast/ Light Rain
10/04/2005 14:55       9.0   5.0  11.1  -3.9  76  1000   ---    NW    34    34   ---   --- Overcast/ Light Rain
10/04/2005 15:55       8.0   5.0  10.5  -6.0  81  1000   ---   WNW    37    37   ---   --- Overcast/ Light Rain
10/04/2005 17:55       8.0   5.0  10.5  -4.4  81  1001   ---   WNW    27    27   ---   --- Overcast/ Light Rain
10/04/2005 18:55       8.0   5.0  10.5   0.0  81  1002   ---     W    14    14   ---   --- Overcast/ Light Rain
10/04/2005 19:55       8.0   4.0  10.0   0.0  76  1002   ---     S    14    14   ---   0.6 Overcast/
09/04/2005 20:55      15.0  12.0  17.5  13.3  82  1005   ---   ESE     6     6   ---   --- /
10/04/2005 07:55      12.0   9.0  14.5   6.2  82  1014   ---     N    13    13   ---   --- Overcast/ Light Rain
11/04/2005 08:55       9.0   6.0  11.5   6.8  81  1002   ---     E     6     6   ---   0.7 Broken Clouds/
11/04/2005 09:55       9.0   5.0  11.1  -0.9  76  1003   ---    SW    19    19   ---   0.6 Broken Clouds/
11/04/2005 10:55       9.0   6.0  11.5   0.4  81  1003   ---   SSW    16    16   ---   --- Overcast/ Light Rain
11/04/2005 11:55      10.0   6.0  12.1   0.5  76  1004   ---    SW    19    19   ---   0.6 Broken Clouds/
11/04/2005 12:55      10.0   7.0  12.5  -0.3  82  1003   ---   SSW    23    23   ---   --- Overcast/ Light Rain
11/04/2005 13:55      10.0   7.0  12.5   1.4  82  1003   ---   SSW    18    18   ---   --- Overcast/ Light Rain
11/04/2005 14:55      11.0   8.0  13.5   1.1  82  1003   ---   SSW    23    50   ---   --- Overcast/ Light Rain
11/04/2005 15:55      11.0   8.0  13.5   1.5  82  1003   ---   SSW    21    21   ---   --- Overcast/ Light Rain
11/04/2005 16:55      11.0   8.0  13.5   1.5  82  1003   ---    SW    21    21   ---   --- Overcast/ Light Rain
11/04/2005 17:55      10.0   7.0  12.5   1.4  82  1004   ---   SSW    18    40   ---   --- Overcast/ Light Rain
10/04/2005 18:55       8.0   5.0  10.5   0.0  81  1002   ---     W    14    14   ---   --- Overcast/ Light Rain
11/04/2005 19:55      10.0   8.0  12.9   5.3  87  1004   ---   SSW    10    10   ---   0.7 Broken Clouds/
11/04/2005 20:55      10.0   8.0  12.9   7.9  87  1005   ---   WSW     6     6   ---   --- Overcast/ Light Rain
12/04/2005 07:55      10.0   7.0  12.5   1.4  82  1005   ---   WSW    18    18   ---   0.6 Broken Clouds/
12/04/2005 08:55      10.0   7.0  12.5   3.6  82  1005   ---    SW    13    13   ---   0.7 Broken Clouds/
12/04/2005 09:55      11.0   8.0  13.5   7.3  82  1005   ---     S     8     8   ---   0.7 Broken Clouds/
12/04/2005 10:55      11.0   8.0  13.5   7.3  82  1005   ---     S     8     8   ---   --- Overcast/ Light Rain
12/04/2005 11:55      12.0   8.0  14.1   7.7  77  1005   ---    SE    10    10   ---   0.7 Broken Clouds/
12/04/2005 12:55      13.0   9.0  15.1   8.9  77  1005   ---     S    10    10   ---   0.7 Broken Clouds/
12/04/2005 13:55      12.0   8.0  14.1   8.5  77  1005   ---     S     8     8   ---   0.6 Broken Clouds/
12/04/2005 14:55      12.0   8.0  14.1   6.2  77  1005   ---   SSW    13    13   ---   --- Overcast/ Light Rain
12/04/2005 15:55      12.0   9.0  14.5  12.0  82  1005   ---     N     0     0   ---   --- Overcast/ Light Rain
12/04/2005 16:55      12.0   9.0  14.5  10.1  82  1004   ---    SE     6     6   ---   --- Overcast/ Light Rain
12/04/2005 17:55      12.0   9.0  14.5   8.5  82  1004   ---     E     8     8   ---   --- Overcast/ Light Rain
12/04/2005 18:55      12.0   9.0  14.5  10.1  82  1004   ---   ENE     6     6   ---   --- Overcast/ Light Rain
12/04/2005 19:55      11.0   8.0  13.5   4.9  82  1004   ---    NE    13    13   ---   --- Overcast/ Light Rain
12/04/2005 20:55      11.0   8.0  13.5  11.0  82  1005   ---     N     0     0   ---   0.5 Overcast/
13/04/2005 07:55      12.0   9.0  14.5   4.1  82  1009   ---   WNW    18    18   ---   0.6 Overcast/
13/04/2005 08:55      12.0   9.0  14.5   1.6  82  1010   ---   WNW    27    27   ---   0.7 Broken Clouds/
13/04/2005 09:55      13.0   9.0  15.1   5.5  77  1010   ---    NW    18    37   ---   0.6 Broken Clouds/
13/04/2005 10:55      13.0   9.0  15.1   4.8  77  1010   ---    NW    19    19   ---   0.6 Broken Clouds/
13/04/2005 11:55      15.0  10.0  16.8   8.6  72  1011   ---    NW    16    16   ---   0.6 Broken Clouds/
13/04/2005 12:55      15.0  10.0  16.8   8.2  72  1011   ---   NNW    18    18   ---   0.6 Broken Clouds/
13/04/2005 13:55      15.0   9.0  16.5   8.6  67  1011   ---   NNW    16    16   ---   0.6 Broken Clouds/
13/04/2005 14:55      15.0   8.0  16.2   7.6  63  1011   ---   NNW    19    19   ---   0.6 Broken Clouds/
13/04/2005 15:55      16.0   9.0  17.2   9.0  63  1010   ---    NW    19    19   ---   0.7 Scattered Clouds/
13/04/2005 16:55      15.0   9.0  16.5   6.9  67  1010   ---    NW    23    23   ---   0.7 Scattered Clouds/
13/04/2005 17:55      15.0   9.0  16.5   7.3  67  1010   ---    NW    21    21   ---   0.7 Scattered Clouds/
13/04/2005 18:55      14.0   8.0  15.5   6.9  67  1011   ---    NW    18    18   ---   0.7 Scattered Clouds/
13/04/2005 19:55      13.0   9.0  15.1   7.4  77  1011   ---    NW    13    13   ---   0.7 Scattered Clouds/
12/04/2005 20:55      11.0   8.0  13.5  11.0  82  1005   ---     N     0     0   ---   0.5 Overcast/
14/04/2005 07:55      12.0   8.0  14.1   8.5  77  1012   ---     W     8     8   ---   0.7 Broken Clouds/
14/04/2005 08:55      13.0   8.0  14.8   8.9  72  1012   ---   WSW    10    10   ---   0.7 Broken Clouds/
14/04/2005 09:55      15.0   8.0  16.2  11.3  63  1012   ---     W    10    10   ---   0.7 Scattered Clouds/
14/04/2005 10:55      16.0   8.0  16.9  13.2  59  1012   ---     W     8     8   ---   0.7 Scattered Clouds/
14/04/2005 12:55      18.0   8.0  18.6  13.8  52  1013   ---   WNW    13    13   ---   0.7 Scattered Clouds/
14/04/2005 13:55      19.0   8.0  19.4  14.5  49  1013   ---   WSW    14    14   ---   0.7 Few Clouds/
14/04/2005 14:55      19.0   5.0  18.9  15.1  40  1013   ---     W    13    13   ---   0.7 Few Clouds/
14/04/2005 15:55      20.0   5.0  19.8  15.1  37  1013   ---     W    18    18   ---   0.7 Few Clouds/
14/04/2005 16:55      20.0   5.0  19.8  15.9  37  1012   ---     W    14    14   ---   0.7 Few Clouds/
14/04/2005 17:55      18.0  11.0  19.2  12.4  64  1012   ---     E    18    18   ---   0.7 Few Clouds/
14/04/2005 18:55      16.0  11.0  17.8  11.3  72  1012   ---     E    13    13   ---   0.7 Few Clouds/
14/04/2005 19:55      15.0  11.0  17.1  11.3  77  1012   ---     E    10    10   ---   --- /
14/04/2005 20:55      14.0  11.0  16.5  14.0  82  1013   ---     E     5     5   ---   --- /
15/04/2005 07:55      10.0   6.0  12.1   7.9  76  1011   ---   WSW     6     6   ---   --- /
15/04/2005 08:55      12.0   8.0  14.1  12.0  77  1011   ---     N     0     0   ---   --- /
15/04/2005 08:55      12.0   8.0  14.1  12.0  77  1011   ---   ---     0     0   ---   --- None reported/None reported
15/04/2005 09:55      14.0   8.0  15.5  14.0  67  1011   ---   ---     0     0   ---   --- /
15/04/2005 10:55      16.0   7.0  16.7  16.0  55  1011   ---   ---     0     0   ---   --- /
15/04/2005 11:55      17.0   7.0  17.5  14.3  52  1011   ---     E     8     8   ---   --- /
15/04/2005 12:55      18.0   9.0  18.8  15.0  56  1010   ---   ENE    10    10   ---   6.0 Scattered Clouds/
15/04/2005 14:55      17.0  10.0  18.2  12.5  63  1010   ---     E    13    13   ---999.0--- Broken Clouds/
15/04/2005 15:55      17.0  10.0  18.2  15.5  63  1009   ---    NE     6     6   ---   6.0 Broken Clouds/
15/04/2005 16:55      16.0  10.0  17.5  12.5  68  1009   ---     E    10    10   ---   0.7 Broken Clouds/
15/04/2005 17:55      16.0  10.0  17.5  14.4  68  1008   ---    NE     6     6   ---   0.7 Overcast/
15/04/2005 18:55      16.0  10.0  17.5  16.0  68  1008   ---     N     0     0   ---   6.0 Broken Clouds/
14/04/2005 19:55      15.0  11.0  17.1  11.3  77  1012   ---     E    10    10   ---   --- /
15/04/2005 20:55      15.0  11.0  17.1  13.3  77  1008   ---   WNW     6     6   ---999.0--- Broken Clouds/
16/04/2005 07:55      14.0   9.0  15.8  14.0  72  1005   ---   WSW     5     5   ---   6.0 Broken Clouds/
16/04/2005 08:55      14.0  11.0  16.5  10.8  82  1006   ---    SW     8     8   ---   6.0 Scattered Clouds/
16/04/2005 09:55      17.0  12.0  18.8  10.1  72  1005   ---     N    21    21   ---   0.6 Scattered Clouds/
16/04/2005 10:55      16.0  11.0  17.8   7.2  72  1005   ---    NW    31    51   ---   0.6 Few Clouds/
16/04/2005 10:55      16.0  11.0  17.8   7.2  72  1005   ---    NW    31    51   ---   0.6 Few Clouds/None reported
16/04/2005 11:55      17.0  10.0  18.2   8.9  63  1005   ---    NW    29    53   ---   0.6 Few Clouds/
16/04/2005 11:55      17.0  10.0  18.2   8.9  63  1005   ---    NW    29    53   ---   0.6 Few Clouds/None reported
16/04/2005 13:55      18.0  10.0  19.0  11.8  60  1006   ---   NNW    19    19   ---   0.6 Few Clouds/
16/04/2005 14:55      18.0   8.0  18.6  10.8  52  1005   ---   NNW    26    50   ---   0.7 Few Clouds/
16/04/2005 15:55      18.0   9.0  18.8  12.4  56  1005   ---   NNW    18    18   ---   0.7 Scattered Clouds/
16/04/2005 16:55      16.0   8.0  16.9   8.7  59  1005   ---     N    21    21   ---   0.7 Broken Clouds/
16/04/2005 17:55      16.0  11.0  17.8   7.8  72  1005   ---   NNW    26    26   ---   0.6 Few Clouds/
16/04/2005 17:55      16.0  11.0  17.8   7.8  72  1005   ---   NNW    26    26   ---   0.6 Few Clouds/None reported
16/04/2005 18:55      15.0   9.0  16.5   6.4  67  1005   ---    NW    26    26   ---   0.6 Few Clouds/
16/04/2005 19:55      14.0   9.0  15.8   6.2  72  1005   ---   WNW    19    19   ---   0.6 Few Clouds/
15/04/2005 20:55      15.0  11.0  17.1  13.3  77  1008   ---   WNW     6     6   ---999.0--- Broken Clouds/
17/04/2005 07:55      12.0   8.0  14.1   7.7  77  1004   ---   WNW    10    10   ---   0.7 Scattered Clouds/
15/04/2005 20:55      15.0  11.0  17.1  13.3  77  1008   ---   WNW     6     6   ---999.0--- Broken Clouds/
15/04/2005 20:55      15.0  11.0  17.1  13.3  77  1008   ---   WNW     6     6   ---   0.1 Broken Clouds/None reported
17/04/2005 10:55      12.0   7.0  13.7   5.3  71  1006   ---     W    14    14   ---   0.7 Broken Clouds/
17/04/2005 11:55      13.0   9.0  15.1   4.8  77  1005   ---     W    19    19   ---   0.7 Scattered Clouds/
15/04/2005 20:55      15.0  11.0  17.1  13.3  77  1008   ---   WNW     6     6   ---999.0--- Broken Clouds/
17/04/2005 11:55      13.0   9.0  15.1   4.8  77  1005   ---     W    19    19   ---   0.7 Scattered Clouds/
15/04/2005 20:55      15.0  11.0  17.1  13.3  77  1008   ---   WNW     6     6   ---999.0--- Broken Clouds/
17/04/2005 11:55      13.0   9.0  15.1   4.8  77  1005   ---     W    19    19   ---   0.7 Scattered Clouds/
15/04/2005 20:55      15.0  11.0  17.1  13.3  77  1008   ---   WNW     6     6   ---999.0--- Broken Clouds/
16/04/2005 19:55      14.0   9.0  15.8   6.2  72  1005   ---   WNW    19    19   ---   0.6 Few Clouds/
18/04/2005 09:55      13.0   8.0  14.8   4.0  72  1004   ---    NW    23    23   ---   0.6 Broken Clouds/
18/04/2005 10:55      14.0   8.0  15.5   4.6  67  1004   ---    NW    27    27   ---   0.7 Broken Clouds/
18/04/2005 11:55      14.0   9.0  15.8   5.5  72  1005   ---    NW    23    23   ---   0.7 Broken Clouds/
18/04/2005 12:55      14.0   8.0  15.5   8.7  67  1005   ---    NW    13    13   ---   0.7 Broken Clouds/
18/04/2005 15:55      16.0   9.0  17.2  10.6  63  1005   ---   WNW    14    14   ---   0.7 Broken Clouds/
18/04/2005 17:55      16.0   8.0  16.9  12.5  59  1006   ---   WSW    10    10   ---   0.7 Scattered Clouds/
18/04/2005 18:55      16.0   6.0  16.5  13.2  51  1006   ---    SW     8     8   ---   0.7 Scattered Clouds/
18/04/2005 19:55      16.0   5.0  16.3  16.0  48  1006   ---     N     3     3   ---   3.0 Scattered Clouds/
18/04/2005 20:55      15.0   5.0  15.5  15.0  51  1006   ---    SW     3     3   ---   6.0 Scattered Clouds/
19/04/2005 07:55      14.0   9.0  15.8  14.0  72  1007   ---     N     0     0   ---   6.0 Scattered Clouds/
18/04/2005 08:55      12.0   8.0  14.1   1.9  77  1003   ---    NW    26    50   ---   0.6 Broken Clouds/
19/04/2005 09:55      17.0  12.0  18.8  10.1  72  1008   ---    SW    21    21   ---   6.0 Scattered Clouds/
19/04/2005 10:55      18.0  12.0  19.5  13.8  68  1009   ---   WSW    13    13   ---   6.0 Scattered Clouds/
19/04/2005 11:55      19.0  12.0  20.2  16.2  64  1009   ---    SW    10    10   ---   0.7 Scattered Clouds/
19/04/2005 14:55      21.0  13.0  22.0  16.5  60  1010   ---     W    18    18   ---   0.7 Broken Clouds/
19/04/2005 15:55      22.0  12.0  22.6  17.1  53  1010   ---   WNW    23    23   ---   0.7 Broken Clouds/
19/04/2005 16:55      22.0  11.0  22.4  17.1  50  1010   ---     W    23    23   ---   0.7 Scattered Clouds/
19/04/2005 17:55      22.0  11.0  22.4  16.7  50  1010   ---     W    26    26   ---   0.7 Scattered Clouds/
19/04/2005 18:55      21.0  10.0  21.4  15.8  49  1009   ---     W    21    21   ---   6.0 Scattered Clouds/
19/04/2005 19:55      20.0  10.0  20.6  14.4  53  1010   ---     W    21    21   ---   6.0 Scattered Clouds/
19/04/2005 20:55      18.0  12.0  19.5  12.4  68  1010   ---     W    18    18   ---   6.0 Scattered Clouds/
20/04/2005 07:55      14.0   7.0  15.2  14.0  63  1012   ---     N     0     0   ---   6.0 Scattered Clouds/
20/04/2005 08:55      15.0   7.0  15.9  15.0  59  1012   ---   ---     0     0   ---   --- /
20/04/2005 09:55      17.0   4.0  17.1  17.0  42  1013   ---   WNW     3     3   ---   --- /
20/04/2005 10:55      17.0   6.0  17.4  13.8  48  1013   ---     N    10    10   ---   --- /
20/04/2005 11:55      17.0   8.0  17.7  14.3  55  1013   ---     N     8     8   ---   6.0 Few Clouds/
20/04/2005 12:55      18.0  11.0  19.2  12.4  64  1013   ---   NNW    18    18   ---   6.0 Scattered Clouds/
20/04/2005 13:55      18.0  11.0  19.2  11.8  64  1013   ---     N    19    19   ---   6.0 Scattered Clouds/
20/04/2005 14:55      18.0  10.0  19.0  10.8  60  1013   ---   WNW    26    26   ---   6.0 Broken Clouds/
20/04/2005 15:55      19.0   9.0  19.6  14.5  52  1013   ---   NNW    14    14   ---   6.0 Scattered Clouds/
20/04/2005 16:55      19.0   9.0  19.6  16.7  52  1012   ---    NW     8     8   ---   6.0 Broken Clouds/
20/04/2005 17:55      18.0   9.0  18.8  15.0  56  1012   ---   NNW    10    10   ---   6.0 Broken Clouds/
20/04/2005 18:55      19.0  11.0  20.0  19.0  60  1012   ---    NW     5     5   ---   6.0 Scattered Clouds/
19/04/2005 19:55      20.0  10.0  20.6  14.4  53  1010   ---     W    21    21   ---   6.0 Scattered Clouds/
20/04/2005 20:55      16.0   6.0  16.5  13.2  51  1011   ---     W     8     8   ---   6.0 Few Clouds/
21/04/2005 07:55      13.0   8.0  14.8   4.4  72  1009   ---   WNW    21    21   ---   0.7 Broken Clouds/
21/04/2005 08:55      13.0   8.0  14.8   5.5  72  1010   ---   WNW    18    18   ---   0.7 Broken Clouds/
21/04/2005 10:55      14.0   6.0  14.9   4.9  59  1010   ---    NW    26    51   ---   0.7 Broken Clouds/
21/04/2005 11:55      15.0   5.0  15.5   5.6  51  1011   ---    NW    31    31   ---   0.7 Broken Clouds/
21/04/2005 12:55      15.0   6.0  15.7   7.3  55  1011   ---    NW    21    42   ---   0.7 Broken Clouds/
21/04/2005 14:55      15.0   7.0  15.9   6.9  59  1011   ---    NW    23    23   ---   0.7 Broken Clouds/
21/04/2005 15:55      15.0   7.0  15.9   8.2  59  1011   ---    NW    18    18   ---   0.7 Broken Clouds/
21/04/2005 16:55      15.0   8.0  16.2   7.3  63  1011   ---    NW    21    21   ---   0.7 Broken Clouds/
21/04/2005 17:55      15.0   8.0  16.2   7.6  63  1011   ---    NW    19    19   ---   0.7 Broken Clouds/
21/04/2005 19:55      14.0   7.0  15.2   8.0  63  1011   ---    NW    14    14   ---   0.7 Scattered Clouds/
21/04/2005 20:55      13.0   8.0  14.8  13.0  72  1011   ---     N     0     0   ---   0.7 Scattered Clouds/
21/04/2005 20:55      13.0   8.0  14.8  13.0  72  1011   ---   ---     0     0   ---   0.7 Scattered Clouds/None reported
22/04/2005 07:55      10.0   6.0  12.1  10.0  76  1012   ---   WSW     3     3   ---   1.0 Scattered Clouds/
22/04/2005 08:55      11.0   8.0  13.5  11.0  82  1013   ---     N     0     0   ---   1.0 Scattered Clouds/
22/04/2005 09:55      14.0   7.0  15.2  14.0  63  1013   ---     N     5     5   ---   1.0 Few Clouds/
22/04/2005 10:55      16.0   7.0  16.7  16.0  55  1013   ---   SSE     3     3   ---   0.7 Few Clouds/
22/04/2005 11:55      17.0   8.0  17.7  17.0  55  1014   ---     E     5     5   ---   0.7 Scattered Clouds/
22/04/2005 12:55      17.0   8.0  17.7  13.8  55  1014   ---    NW    10    10   ---   0.7 Scattered Clouds/
22/04/2005 13:55      17.0   9.0  18.0  15.5  59  1014   ---     W     6     6   ---   0.7 Broken Clouds/
22/04/2005 14:55      16.0  10.0  17.5  12.5  68  1014   ---     N    10    10   ---   0.7 Broken Clouds/
22/04/2005 15:55      16.0  11.0  17.8  10.6  72  1014   ---     N    14    14   ---   0.7 Broken Clouds/
22/04/2005 16:55      17.0  10.0  18.2  13.8  63  1014   ---   NNW    10    10   ---   0.7 Scattered Clouds/
22/04/2005 17:55      15.0  10.0  16.8   8.6  72  1014   ---   NNE    16    16   ---   0.7 Broken Clouds/
22/04/2005 18:55      15.0  10.0  16.8  10.0  72  1015   ---   NNE    13    13   ---   0.7 Broken Clouds/
22/04/2005 19:55      14.0  10.0  16.1  12.3  77  1015   ---     N     6     6   ---   0.7 Broken Clouds/
21/04/2005 19:55      14.0   7.0  15.2   8.0  63  1011   ---    NW    14    14   ---   0.7 Scattered Clouds/
23/04/2005 07:55      10.0   5.0  11.7  10.0  71  1018   ---   WSW     5     5   ---   --- /
23/04/2005 08:55      12.0   8.0  14.1  12.0  77  1019   ---     N     0     0   ---   --- /
23/04/2005 09:55      14.0   8.0  15.5  14.0  67  1019   ---   ---     0     0   ---   --- /
23/04/2005 10:55      16.0   7.0  16.7  16.0  55  1019   ---     E     5     5   ---   --- /
23/04/2005 11:55      17.0   8.0  17.7  15.5  55  1020   ---     E     6     6   ---   --- /
23/04/2005 12:55      17.0   9.0  18.0  15.5  59  1020   ---     E     6     6   ---   --- /
23/04/2005 13:55      18.0  10.0  19.0  15.0  60  1020   ---   ESE    10    10   ---   --- /
23/04/2005 14:55      18.0  10.0  19.0  13.8  60  1020   ---   ESE    13    13   ---   --- /
23/04/2005 15:55      17.0   8.0  17.7  12.5  55  1020   ---     E    13    13   ---   --- /
23/04/2005 16:55      17.0  11.0  18.5  13.8  68  1020   ---   ESE    10    10   ---   --- /
23/04/2005 17:55      17.0  10.0  18.2  14.3  63  1020   ---     E     8     8   ---   --- /
23/04/2005 18:55      16.0   8.0  16.9  14.4  59  1019   ---     E     6     6   ---   --- /
23/04/2005 19:55      16.0   9.0  17.2  14.4  63  1019   ---     E     6     6   ---   --- /
23/04/2005 20:55      15.0  10.0  16.8  15.0  72  1019   ---     N     0     0   ---   --- /
23/04/2005 20:55      15.0  10.0  16.8  15.0  72  1019   ---   ---     0     0   ---   --- None reported/None reported
24/04/2005 07:55      12.0   8.0  14.1  12.0  77  1018   ---   ---     0     0   ---   6.0 Scattered Clouds/
24/04/2005 08:55      13.0   9.0  15.1  13.0  77  1018   ---   ---     0     0   ---   6.0 Scattered Clouds/
24/04/2005 09:55      15.0   9.0  16.5  15.0  67  1018   ---   ---     0     0   ---   6.0 Broken Clouds/
24/04/2005 10:55      17.0   8.0  17.7  17.0  55  1018   ---   ---     0     0   ---   6.0 Broken Clouds/
24/04/2005 11:55      18.0   8.0  18.6  16.6  52  1018   ---     N     6     6   ---   6.0 Broken Clouds/
24/04/2005 12:55      20.0   9.0  20.4  18.8  49  1018   ---     N     6     6   ---   6.0 Broken Clouds/
24/04/2005 13:55      22.0   8.0  22.0  22.0  41  1017   ---     N     0     0   ---   6.0 Broken Clouds/
24/04/2005 14:55      22.0   8.0  22.0  18.9  41  1016   ---     N    13    13   ---   6.0 Broken Clouds/
24/04/2005 15:55      24.0   9.0  23.9  20.6  39  1016   ---     W    18    18   ---   6.0 Broken Clouds/
24/04/2005 16:55      24.0   8.0  23.8  20.1  36  1015   ---     W    21    55   ---   6.0 Scattered Clouds/
24/04/2005 18:55      24.0   4.0  23.5  21.5  27  1014   ---   WNW    13    13   ---   6.0 Broken Clouds/
24/04/2005 19:55      24.0   3.0  23.4  19.5  25  1014   ---     W    27    27   ---   6.0 Scattered Clouds/
24/04/2005 20:55      24.0   2.0  23.3  19.5  24  1013   ---     W    29    58   ---   6.0 Broken Clouds/
25/04/2005 07:55      20.0   7.0  20.1  20.0  43  1014   ---   ENE     5     5   ---999.0--- Overcast/
25/04/2005 08:55      20.0   9.0  20.4  18.8  49  1014   ---   SSW     6     6   ---999.0--- Overcast/
25/04/2005 09:55      20.0  12.0  21.0  20.0  60  1013   ---   NNW     3     3   ---999.0--- Overcast/
25/04/2005 10:55      23.0  10.0  23.1  21.0  44  1013   ---     W    10    10   ---999.0--- Overcast/
25/04/2005 11:55      24.0  10.0  24.0  21.5  41  1013   ---    NE    13    13   ---999.02.1 Overcast/
25/04/2005 12:55      26.0   8.0  25.6  23.5  32  1014   ---   WSW    16    43   ---   6.0 Broken Clouds/
25/04/2005 13:55      25.0  11.0  25.0  21.6  41  1013   ---     W    21    21   ---999.02.1 Overcast/
25/04/2005 14:55      20.0  12.0  21.0  17.4  60  1015   ---    SE    10    10   ---999.02.1 Overcast/
25/04/2005 15:55      19.0  13.0  20.5  17.7  68  1015   ---     S     6     6   ---999.02.1 Overcast/
25/04/2005 16:55      20.0  15.0  21.8  20.0  73  1014   ---     S     3     3   ---   2.4 Broken Clouds/
25/04/2005 17:55      20.0  15.0  21.8  15.9  73  1011   ---    SW    14    14   ---999.02.1 Overcast/
24/04/2005 18:55      24.0   4.0  23.5  21.5  27  1014   ---   WNW    13    13   ---   6.0 Broken Clouds/
25/04/2005 19:55      18.0  14.0  20.2  13.2  77  1013   ---    NE    14    14   ---999.02.7 Overcast/
25/04/2005 20:55      18.0  15.0  20.5  18.0  83  1014   ---   SSE     3     3   ---999.04.2 Overcast/
26/04/2005 07:55      15.0  13.0  18.0  15.0  88  1016   ---     S     5     5   ---   0.4 Broken Clouds/
25/04/2005 08:55      20.0   9.0  20.4  18.8  49  1014   ---   SSW     6     6   ---999.0--- Overcast/
26/04/2005 09:55      16.0  13.0  18.5  16.0  82  1017   ---    SE     3     3   ---   0.4 Broken Clouds/
26/04/2005 10:55      17.0  14.0  19.5  14.3  83  1017   ---   ENE     8     8   ---   0.4 Broken Clouds/
26/04/2005 12:55      17.0  14.0  19.5  13.8  83  1018   ---     E    10    10   ---   0.4 Broken Clouds/
25/04/2005 13:55      25.0  11.0  25.0  21.6  41  1013   ---     W    21    21   ---999.02.1 Overcast/
26/04/2005 14:55      19.0  10.0  19.8  15.1  56  1018   ---   ESE    13    13   ---   --- /
26/04/2005 15:55      18.0   9.0  18.8  15.0  56  1019   ---   ESE    10    10   ---   --- /
26/04/2005 16:55      18.0  10.0  19.0  15.0  60  1018   ---   ESE    10    10   ---   --- /
26/04/2005 17:55      18.0  10.0  19.0  16.6  60  1018   ---     E     6     6   ---   --- /
26/04/2005 18:55      18.0  10.0  19.0  18.0  60  1017   ---   ENE     3     3   ---   --- /
26/04/2005 19:55      18.0  11.0  19.2  18.0  64  1017   ---   SSE     3     3   ---   --- /
25/04/2005 20:55      18.0  15.0  20.5  18.0  83  1014   ---   SSE     3     3   ---999.04.2 Overcast/
26/04/2005 20:55      16.0  11.0  17.8  16.0  72  1017   ---    NE     3     3   ---   --- /
25/04/2005 20:55      18.0  15.0  20.5  18.0  83  1014   ---   SSE     3     3   ---999.00.9 Overcast/
26/04/2005 20:55      16.0  11.0  17.8  16.0  72  1017   ---    NE     3     3   ---   --- /
25/04/2005 20:55      18.0  15.0  20.5  18.0  83  1014   ---   SSE     3     3   ---999.00.9 Overcast/
26/04/2005 20:55      16.0  11.0  17.8  16.0  72  1017   ---    NE     3     3   ---   --- /
27/04/2005 07:55      11.0   8.0  13.5   9.0  82  1018   ---   WSW     6     6   ---   --- /
27/04/2005 08:55      13.0  10.0  15.5  13.0  82  1019   ---     N     0     0   ---   --- /
27/04/2005 09:55      16.0  11.0  17.8  16.0  72  1019   ---   ---     0     0   ---   --- /
27/04/2005 10:55      17.0  10.0  18.2  17.0  63  1019   ---   ---     0     0   ---   --- /
27/04/2005 11:55      18.0  11.0  19.2  13.8  64  1019   ---     E    13    13   ---   6.0 Scattered Clouds/
27/04/2005 12:55      18.0  12.0  19.5  13.8  68  1019   ---   ESE    13    13   ---   --- /
27/04/2005 13:55      18.0  13.0  19.8  15.0  73  1019   ---     E    10    10   ---   --- /
27/04/2005 14:55      19.0  13.0  20.5  15.1  68  1019   ---     E    13    13   ---   --- /
27/04/2005 15:55      19.0  13.0  20.5  16.2  68  1019   ---     E    10    10   ---   --- /
27/04/2005 16:55      19.0  15.0  21.2  16.2  78  1019   ---     E    10    10   ---   6.0 Scattered Clouds/
27/04/2005 19:55      17.0  15.0  20.0  15.5  88  1019   ---     E     6     6   ---   6.0 Scattered Clouds/
25/04/2005 20:55      18.0  15.0  20.5  18.0  83  1014   ---   SSE     3     3   ---999.04.2 Overcast/
27/04/2005 20:55      16.0  13.0  18.5  16.0  82  1019   ---     N     0     0   ---   6.0 Scattered Clouds/
26/04/2005 07:55      15.0  13.0  18.0  15.0  88  1016   ---     S     5     5   ---   0.4 Broken Clouds/
28/04/2005 08:55      16.0  12.0  18.1  16.0  77  1019   ---     N     0     0   ---   --- /
28/04/2005 09:55      19.0  13.0  20.5  19.0  68  1019   ---   ---     0     0   ---   6.0 Few Clouds/
28/04/2005 10:55      22.0  11.0  22.4  21.0  50  1019   ---   ESE     6     6   ---   6.0 Few Clouds/
28/04/2005 12:55      22.0  12.0  22.6  20.2  53  1019   ---     E     8     8   ---   --- /
28/04/2005 13:55      21.0  13.0  22.0  19.9  60  1020   ---     E     6     6   ---   0.8 Few Clouds/
28/04/2005 14:55      20.0  14.0  21.5  18.8  68  1020   ---     E     6     6   ---   0.8 Few Clouds/
28/04/2005 15:55      21.0  13.0  22.0  19.9  60  1020   ---     E     6     6   ---   0.8 Scattered Clouds/
28/04/2005 16:55      21.0  14.0  22.3  19.0  64  1019   ---     E     8     8   ---   0.8 Broken Clouds/
28/04/2005 17:55      21.0  14.0  22.3  19.9  64  1019   ---     E     6     6   ---   0.8 Broken Clouds/
28/04/2005 19:55      19.0  14.0  20.8  19.0  73  1019   ---   ESE     5     5   ---   6.0 Broken Clouds/
28/04/2005 20:55      17.0  13.0  19.2  17.0  77  1019   ---   SSE     5     5   ---   6.0 Broken Clouds/
29/04/2005 07:55      13.0   6.0  14.2  11.2  62  1018   ---   WSW     6     6   ---   --- /
29/04/2005 08:55      15.0   8.0  16.2  15.0  63  1018   ---   WSW     3     3   ---   --- /
29/04/2005 09:55      18.0  10.0  19.0  18.0  60  1018   ---     N     0     0   ---   --- /
29/04/2005 10:55      18.0  13.0  19.8  15.5  73  1018   ---   ENE     8     8   ---   --- /
29/04/2005 11:55      19.0  14.0  20.8  19.0  73  1018   ---   ENE     5     5   ---   --- /
28/04/2005 12:55      22.0  12.0  22.6  20.2  53  1019   ---     E     8     8   ---   --- /
29/04/2005 13:55      21.0  12.0  21.8  21.0  56  1018   ---     E     5     5   ---   --- /
29/04/2005 14:55      21.0   9.0  21.3  17.7  46  1017   ---   ESE    13    13   ---   --- /
29/04/2005 15:55      20.0   8.0  20.2  16.4  46  1017   ---     E    13    13   ---   --- /
29/04/2005 16:55      20.0   9.0  20.4  17.4  49  1017   ---     E    10    10   ---   --- /
29/04/2005 18:55      19.0  10.0  19.8  17.7  56  1017   ---   ESE     6     6   ---   --- /
29/04/2005 19:55      18.0  12.0  19.5  18.0  68  1017   ---     N     0     0   ---   --- /
29/04/2005 20:55      18.0  13.0  19.8  18.0  73  1017   ---   ---     0     0   ---   --- /
30/04/2005 07:55      14.0   6.0  14.9  12.3  59  1016   ---    SW     6     6   ---   --- /
30/04/2005 08:55      16.0   7.0  16.7  16.0  55  1016   ---     N     0     0   ---   --- /
30/04/2005 08:55      16.0   7.0  16.7  16.0  55  1016   ---   ---     0     0   ---   --- None reported/None reported
30/04/2005 09:55      18.0   8.0  18.6  18.0  52  1017   ---   ---     0     0   ---   --- /
30/04/2005 10:55      19.0  10.0  19.8  19.0  56  1017   ---   ENE     3     3   ---   --- /
30/04/2005 11:55      20.0   9.0  20.4  20.0  49  1017   ---     E     5     5   ---   --- /
30/04/2005 12:55      21.0  10.0  21.4  18.6  49  1017   ---     E    10    10   ---   --- /
30/04/2005 14:55      22.0  12.0  22.6  21.0  53  1017   ---     E     6     6   ---   --- /
30/04/2005 15:55      22.0  12.0  22.6  21.0  53  1017   ---     E     6     6   ---   --- /
30/04/2005 16:55      22.0  12.0  22.6  20.2  53  1016   ---     E     8     8   ---   --- /
30/04/2005 17:55      22.0  11.0  22.4  20.2  50  1016   ---   ESE     8     8   ---   --- /
30/04/2005 18:55      21.0  11.0  21.6  21.0  53  1016   ---   ESE     5     5   ---   --- /
30/04/2005 19:55      20.0  13.0  21.3  20.0  64  1016   ---    SE     3     3   ---   --- /
29/04/2005 20:55      18.0  13.0  19.8  18.0  73  1017   ---     N     0     0   ---   --- /
01/05/2005 07:55      17.0   6.0  17.4  17.0  48  1017   ---   ---     0     0   ---   --- /
01/05/2005 08:55      18.0   8.0  18.6  18.0  52  1018   ---   ---     0     0   ---   --- /
01/05/2005 09:55      20.0   7.0  20.1  20.0  43  1018   ---   ---     0     0   ---   --- /
01/05/2005 10:55      21.0   7.0  21.0  19.9  40  1019   ---     E     6     6   ---   --- /
01/05/2005 11:55      22.0   7.0  21.9  20.2  38  1019   ---   ENE     8     8   ---   --- /
01/05/2005 12:55      23.0   6.0  22.7  21.3  33  1019   ---     E     8     8   ---   --- /
01/05/2005 13:55      23.0   4.0  22.5  21.0  29  1019   ---     E    10    10   ---   --- /
01/05/2005 14:55      23.0   5.0  22.6  21.0  31  1019   ---     E    10    10   ---   --- /
01/05/2005 15:55      23.0   7.0  22.8  21.0  36  1019   ---     E    10    10   ---   --- /
01/05/2005 16:55      23.0   7.0  22.8  21.0  36  1019   ---     E    10    10   ---   --- /
01/05/2005 17:55      22.0   5.0  21.7  20.2  33  1019   ---     E     8     8   ---   --- /
01/05/2005 18:55      22.0   4.0  21.6  20.2  31  1019   ---     E     8     8   ---   --- /
30/04/2005 19:55      20.0  13.0  21.3  20.0  64  1016   ---    SE     3     3   ---   --- /
01/05/2005 20:55      20.0   5.0  19.8  20.0  37  1019   ---     N     0     0   ---   --- /
02/05/2005 08:55      17.0   8.0  17.7  17.0  55  1021   ---   SSE     5     5   ---   --- /
02/05/2005 10:55      21.0  12.0  21.8  21.0  56  1022   ---   ESE     5     5   ---   --- /
02/05/2005 11:55      22.0  11.0  22.4  21.0  50  1022   ---   ESE     6     6   ---   --- /
02/05/2005 12:55      23.0  10.0  23.1  22.1  44  1022   ---   ESE     6     6   ---   --- /
02/05/2005 13:55      23.0  10.0  23.1  21.3  44  1022   ---     E     8     8   ---   --- /
02/05/2005 14:55      23.0  11.0  23.3  20.2  47  1022   ---   ESE    13    13   ---   --- /
02/05/2005 15:55      22.0  13.0  22.8  20.2  57  1022   ---    SE     8     8   ---   --- /
02/05/2005 16:55      22.0  13.0  22.8  21.0  57  1022   ---   ESE     6     6   ---   --- /
02/05/2005 17:55      21.0  13.0  22.0  17.7  60  1022   ---     E    13    13   ---   --- /
02/05/2005 18:55      21.0  12.0  21.8  19.9  56  1022   ---    SE     6     6   ---   --- /
02/05/2005 19:55      20.0  12.0  21.0  20.0  60  1022   ---   ESE     5     5   ---   --- /
02/05/2005 20:55      19.0  13.0  20.5  19.0  68  1022   ---     N     0     0   ---   --- /
03/05/2005 07:55      16.0   7.0  16.7  12.5  55  1022   ---   WSW    10    10   ---   --- /
03/05/2005 08:55      19.0   9.0  19.6  19.0  52  1022   ---     N     0     0   ---   --- /
03/05/2005 09:55      21.0   9.0  21.3  21.0  46  1022   ---   ---     0     0   ---   6.0 Scattered Clouds/
03/05/2005 10:55      23.0   8.0  22.9  23.0  38  1022   ---   ENE     5     5   ---   6.0 Scattered Clouds/
03/05/2005 11:55      23.0   8.0  22.9  23.0  38  1022   ---     N     0     0   ---   6.0 Scattered Clouds/
03/05/2005 13:55      24.0   9.0  23.9  22.5  39  1022   ---     E     8     8   ---   6.0 Scattered Clouds/
03/05/2005 14:55      24.0  10.0  24.0  22.2  41  1022   ---   ESE    10    10   ---   6.0 Scattered Clouds/
03/05/2005 15:55      23.0  11.0  23.3  21.3  47  1022   ---   ESE     8     8   ---   6.0 Scattered Clouds/
03/05/2005 16:55      23.0  13.0  23.6  21.0  53  1021   ---   ESE    10    10   ---   6.0 Scattered Clouds/
03/05/2005 17:55      23.0  13.0  23.6  21.3  53  1021   ---     E     8     8   ---   --- /
03/05/2005 18:55      22.0  14.0  23.0  18.9  61  1022   ---   ESE    13    13   ---   --- /
03/05/2005 20:55      20.0  16.0  22.2  20.0  78  1022   ---     N     0     0   ---   6.0 Scattered Clouds/
04/05/2005 07:55      16.0  10.0  17.5  16.0  68  1018   ---   WSW     3     3   ---   --- /
04/05/2005 08:55      18.0  13.0  19.8  18.0  73  1018   ---     W     3     3   ---   6.0 Scattered Clouds/
04/05/2005 09:55      20.0  11.0  20.8  20.0  56  1017   ---     N     0     0   ---   6.0 Few Clouds/
04/05/2005 10:55      23.0  13.0  23.6  23.0  53  1017   ---   ---     0     0   ---   6.0 Few Clouds/
04/05/2005 11:55      24.0  12.0  24.3  24.0  47  1017   ---     E     3     3   ---   6.0 Scattered Clouds/
04/05/2005 12:55      25.0  11.0  25.0  23.7  41  1016   ---   ESE     8     8   ---   6.0 Scattered Clouds/
04/05/2005 13:55      25.0  11.0  25.0  23.4  41  1016   ---     E    10    10   ---   6.0 Scattered Clouds/
04/05/2005 14:55      24.0  13.0  24.5  23.2  50  1015   ---     E     6     6   ---   6.0 Broken Clouds/
04/05/2005 14:55      24.0  13.0  24.5  23.2  50  1015   ---     E     6     6   ---   0.0 Broken Clouds/None reported
04/05/2005 15:55      24.0  13.0  24.5  23.2  50  1014   ---    SE     6     6   ---   6.0 Broken Clouds/
04/05/2005 16:55      26.0  14.0  26.3  26.0  48  1013   ---     E     5     5   ---   6.0 Broken Clouds/
04/05/2005 18:55      24.0  15.0  24.8  23.2  57  1013   ---    SE     6     6   ---   3.0 Few Clouds/
04/05/2005 19:55      23.0  13.0  23.6  23.0  53  1013   ---   ESE     3     3   ---   3.0 Scattered Clouds/
04/05/2005 20:55      22.0  11.0  22.4  22.0  50  1013   ---     N     0     0   ---   3.0 Broken Clouds/
05/05/2005 07:55      18.0  15.0  20.5  18.0  83  1010   ---     S     3     3   ---   2.4 Broken Clouds/
05/05/2005 08:55      18.0  15.0  20.5  18.0  83  1010   ---     N     0     0   ---   1.0 Broken Clouds/
05/05/2005 09:55      19.0  15.0  21.2  16.7  78  1011   ---   WSW     8     8   ---   1.0 Broken Clouds/
05/05/2005 10:55      21.0  13.0  22.0  15.8  60  1012   ---     N    21    21   ---   0.7 Broken Clouds/
05/05/2005 11:55      21.0  16.0  22.9  19.9  73  1012   ---     N     6     6   ---   2.7 Broken Clouds/
05/05/2005 12:55      21.0  16.0  22.9  18.6  73  1012   ---    SE    10    10   ---   2.7 Broken Clouds/
05/05/2005 13:55      21.0  16.0  22.9  18.6  73  1013   ---   ESE    10    10   ---   2.7 Broken Clouds/
05/05/2005 14:55      21.0  14.0  22.3  19.0  64  1012   ---   ESE     8     8   ---   2.7 Broken Clouds/
05/05/2005 15:55      20.0  15.0  21.8  17.4  73  1012   ---     E    10    10   ---   2.7 Broken Clouds/
05/05/2005 17:55      19.0  15.0  21.2  19.0  78  1011   ---     N     0     0   ---   --- Overcast/ Light Rain
05/05/2005 18:55      19.0  14.0  20.8  19.0  73  1011   ---   ---     0     0   ---   2.7 Broken Clouds/
05/05/2005 19:55      20.0  15.0  21.8  20.0  73  1009   ---   ---     0     0   ---   2.7 Broken Clouds/
05/05/2005 20:55      19.0  16.0  21.6  19.0  83  1010   ---   ---     0     0   ---   2.7 Broken Clouds/
06/05/2005 07:55      14.0  11.0  16.5  14.0  82  1008   ---   ---     0     0   ---   0.7 Broken Clouds/
05/05/2005 08:55      18.0  15.0  20.5  18.0  83  1010   ---   ---     0     0   ---   1.0 Broken Clouds/
06/05/2005 09:55      14.0  11.0  16.5   6.9  82  1007   ---    NW    18    18   ---   0.7 Broken Clouds/
06/05/2005 10:55      16.0  12.0  18.1   9.6  77  1007   ---    NW    18    18   ---   0.7 Broken Clouds/
06/05/2005 12:55      17.0  11.0  18.5   9.8  68  1007   ---    NW    23    23   ---   0.7 Broken Clouds/
06/05/2005 13:55      18.0  11.0  19.2  10.6  64  1007   ---    NW    27    27   ---   0.7 Broken Clouds/
06/05/2005 15:55      17.0  12.0  18.8   8.0  72  1007   ---    NW    39    68   ---   --- Overcast/ Rain
06/05/2005 16:55      15.0  11.0  17.1   5.3  77  1007   ---    NW    34    34   ---   0.7 Broken Clouds/
06/05/2005 17:55      14.0  11.0  16.5   5.8  82  1007   ---   WNW    21    21   ---   0.6 Broken Clouds/
06/05/2005 18:55      16.0   9.0  17.2   5.9  63  1006   ---   WNW    47    92   ---   0.7 Broken Clouds/
05/05/2005 19:55      20.0  15.0  21.8  20.0  73  1009   ---     N     0     0   ---   2.7 Broken Clouds/
06/05/2005 20:55      17.0  11.0  18.5   8.4  68  1008   ---   WNW    34    64   ---   0.7 Broken Clouds/
07/05/2005 07:55      15.0  11.0  17.1  11.3  77  1011   ---     S    10    10   ---   0.6 Few Clouds/
07/05/2005 08:55      17.0  10.0  18.2  14.3  63  1011   ---     S     8     8   ---   --- /
07/05/2005 09:55      19.0   9.0  19.6  15.1  52  1011   ---   NNW    13    13   ---   --- /
07/05/2005 10:55      21.0   9.0  21.3  17.2  46  1012   ---    NW    14    14   ---   --- /
07/05/2005 11:55      21.0   9.0  21.3  17.2  46  1012   ---   NNW    14    14   ---   0.7 Few Clouds/
07/05/2005 12:55      22.0  10.0  22.3  18.5  46  1012   ---   NNW    14    14   ---   0.7 Few Clouds/
07/05/2005 13:55      22.0  11.0  22.4  17.9  50  1013   ---   NNW    18    18   ---   0.7 Few Clouds/
07/05/2005 14:55      23.0  10.0  23.1  18.7  44  1012   ---     N    21    21   ---   0.4 Few Clouds/
07/05/2005 15:55      22.0  10.0  22.3  17.3  46  1012   ---   NNW    21    21   ---   0.6 Few Clouds/
07/05/2005 16:55      22.0  14.0  23.0  17.1  61  1012   ---   NNW    23    23   ---   0.6 Few Clouds/
07/05/2005 17:55      22.0  15.0  23.3  18.9  65  1012   ---     N    13    13   ---   0.4 Few Clouds/
07/05/2005 17:55      22.0  15.0  23.3  18.9  65  1012   ---     N    13    13   ---   0.4 Few Clouds/None reported
07/05/2005 18:55      21.0  15.0  22.5  16.5  69  1012   ---   NNE    18    18   ---   0.4 Few Clouds/
07/05/2005 19:55      21.0  15.0  22.5  19.0  69  1012   ---    SW     8     8   ---   0.4 Few Clouds/
07/05/2005 20:55      17.0  14.0  19.5  14.3  83  1012   ---    NE     8     8   ---   0.6 Few Clouds/
08/05/2005 07:55      15.0  11.0  17.1  12.0  77  1011   ---     W     8     8   ---   --- /
08/05/2005 08:55      17.0  11.0  18.5  17.0  68  1011   ---     N     0     0   ---   --- /
08/05/2005 08:55      17.0  11.0  18.5  17.0  68  1011   ---   ---     0     0   ---   --- None reported/None reported
08/05/2005 10:55      21.0  11.0  21.6  21.0  53  1012   ---     E     5     5   ---   --- /
08/05/2005 11:55      23.0  10.0  23.1  20.2  44  1012   ---     W    13    13   ---   --- /
08/05/2005 12:55      23.0  10.0  23.1  19.2  44  1012   ---     W    18    18   ---   --- /
08/05/2005 13:55      24.0  10.0  24.0  20.8  41  1012   ---     W    16    16   ---   --- /
08/05/2005 14:55      24.0   8.0  23.8  20.3  36  1012   ---     W    19    19   ---   6.0 Scattered Clouds/
08/05/2005 16:55      25.0   9.0  24.8  22.8  36  1011   ---     W    13    13   ---   6.0 Scattered Clouds/
08/05/2005 17:55      25.0   8.0  24.7  25.0  34  1011   ---     W     5     5   ---   --- /
08/05/2005 18:55      25.0   6.0  24.5  24.3  30  1010   ---     W     6     6   ---   --- /
08/05/2005 19:55      23.0   7.0  22.8  21.3  36  1010   ---    SW     8     8   ---   --- /
08/05/2005 20:55      22.0   4.0  21.6  19.8  31  1010   ---    SW    10    10   ---   --- /
08/05/2005 07:55      15.0  11.0  17.1  12.0  77  1011   ---     W     8     8   ---   --- /
09/05/2005 08:55      19.0   6.0  19.1  19.0  43  1011   ---     N     0     0   ---   --- /
08/05/2005 09:55      19.0  10.0  19.8  19.0  56  1012   ---   ---     0     0   ---   --- /
09/05/2005 10:55      23.0   8.0  22.9  23.0  38  1012   ---   ---     0     0   ---   3.0 Few Clouds/
09/05/2005 11:55      23.0   9.0  23.0  21.3  41  1013   ---     E     8     8   ---   3.0 Few Clouds/
09/05/2005 12:55      24.0   7.0  23.7  22.5  34  1013   ---   ESE     8     8   ---   --- /
09/05/2005 13:55      24.0   8.0  23.8  21.5  36  1013   ---     E    13    13   ---   --- /
08/05/2005 14:55      24.0   8.0  23.8  20.3  36  1012   ---     W    19    19   ---   6.0 Scattered Clouds/
09/05/2005 15:55      24.0  11.0  24.1  21.5  44  1013   ---   ESE    13    13   ---   --- /
09/05/2005 16:55      23.0  11.0  23.3  20.2  47  1013   ---   ESE    13    13   ---   6.0 Scattered Clouds/
09/05/2005 17:55      22.0  13.0  22.8  21.0  57  1013   ---   ESE     6     6   ---   6.0 Scattered Clouds/
09/05/2005 18:55      21.0  14.0  22.3  21.0  64  1013   ---   ESE     3     3   ---   6.0 Broken Clouds/
09/05/2005 19:55      20.0  15.0  21.8  20.0  73  1013   ---     N     0     0   ---   6.0 Broken Clouds/
09/05/2005 20:55      20.0  15.0  21.8  20.0  73  1013   ---   ---     0     0   ---   6.0 Broken Clouds/
10/05/2005 08:55      18.0  10.0  19.0  18.0  60  1014   ---   ---     0     0   ---   --- /
09/05/2005 09:55      21.0   8.0  21.1  21.0  43  1012   ---     E     3     3   ---   --- /
10/05/2005 10:55      23.0  11.0  23.3  23.0  47  1014   ---     N     0     0   ---   --- /
10/05/2005 11:55      25.0  13.0  25.3  23.7  47  1014   ---   ENE     8     8   ---   --- /
10/05/2005 13:55      28.0   8.0  27.0  26.4  28  1014   ---     N    14    14   ---   --- /
10/05/2005 14:55      29.0   2.0  27.4  27.5  18  1014   ---     W    18    18   ---   --- /
10/05/2005 15:55      29.0   5.0  27.5  27.7  22  1013   ---   WNW    14    14   ---   --- /
09/05/2005 16:55      23.0  11.0  23.3  20.2  47  1013   ---   ESE    13    13   ---   6.0 Scattered Clouds/
10/05/2005 17:55      29.0   3.0  27.4  28.3  19  1013   ---   WNW     8     8   ---   --- /
10/05/2005 19:55      26.0   4.0  25.3  26.0  24  1013   ---   ENE     5     5   ---   6.0 Scattered Clouds/
10/05/2005 20:55      23.0   8.0  22.9  23.0  38  1013   ---     N     0     0   ---   6.0 Scattered Clouds/
11/05/2005 07:55      27.0   3.0  26.1  24.7  21  1011   ---     W    18    18   ---   2.7 Scattered Clouds/
11/05/2005 08:55      29.0   4.0  27.5  27.3  20  1011   ---     W    21    21   ---   2.7 Broken Clouds/
11/05/2005 09:55      30.0   4.0  28.2  28.5  19  1011   ---     W    29    55   ---   2.7 Broken Clouds/
11/05/2005 10:55      30.0   4.0  28.2  28.5  19  1010   ---     W    29    29   ---   2.7 Broken Clouds/
11/05/2005 11:55      31.0   3.0  29.0  30.1  17  1010   ---     W    23    23   ---   6.0 Scattered Clouds/
11/05/2005 12:55      33.0   4.0  30.7  33.0  16  1010   ---   WSW    27    27   ---   6.0 Broken Clouds/
11/05/2005 15:55      27.0  12.0  26.8  25.3  39  1012   ---    NE    13    13   ---   6.0 Broken Clouds/
11/05/2005 17:55      25.0   9.0  24.8  23.7  36  1012   ---    SE     8     8   ---   6.0 Broken Clouds/
11/05/2005 18:55      24.0   7.0  23.7  24.0  34  1012   ---   ESE     5     5   ---   6.0 Broken Clouds/
11/05/2005 19:55      24.0  10.0  24.0  24.0  41  1013   ---     E     3     3   ---   6.0 Broken Clouds/
11/05/2005 20:55      22.0   7.0  21.9  22.0  38  1013   ---    SE     5     5   ---   6.0 Broken Clouds/
12/05/2005 08:55      19.0  14.0  20.8  19.0  73  1011   ---     N     0     0   ---   6.0 Broken Clouds/
12/05/2005 09:55      19.0  14.0  20.8  17.7  73  1012   ---     S     6     6   ---   0.7 Broken Clouds/
12/05/2005 10:55      20.0  15.0  21.8  20.0  73  1012   ---     N     0     0   ---   0.7 Broken Clouds/
12/05/2005 11:55      21.0  15.0  22.5  21.0  69  1011   ---   ---     0     0   ---   0.7 Broken Clouds/
12/05/2005 12:55      22.0  17.0  23.9  22.0  73  1011   ---   ---     0     0   ---   0.7 Broken Clouds/
12/05/2005 13:55      23.0  15.0  24.1  19.8  61  1010   ---     E    14    14   ---999.00.7 Broken Clouds/
12/05/2005 14:55      23.0  17.0  24.6  20.2  69  1011   ---   ESE    13    13   ---   6.0 Broken Clouds/
12/05/2005 15:55      23.0  14.0  23.8  23.0  57  1012   ---   ESE     5     5   ---   6.0 Broken Clouds/
12/05/2005 16:55      23.0  14.0  23.8  22.1  57  1012   ---     E     6     6   ---999.0999.0--- Broken Clouds/
12/05/2005 17:55      26.0  14.0  26.3  25.4  48  1012   ---    NE     6     6   ---   6.0 Scattered Clouds/
12/05/2005 18:55      25.0  13.0  25.3  25.0  47  1012   ---     N     0     0   ---   6.0 Scattered Clouds/
12/05/2005 19:55      24.0  14.0  24.6  23.2  54  1012   ---   ESE     6     6   ---   --- /
12/05/2005 20:55      23.0  15.0  24.1  22.1  61  1012   ---    SE     6     6   ---   --- /
12/05/2005 20:55      23.0  15.0  24.1  22.1  61  1012   ---    SE     6     6   ---   --- None reported/None reported
12/05/2005 20:55      23.0  15.0  24.1  22.1  61  1012   ---    SE     6     6   ---   --- None reported/None reported
12/05/2005 20:55      23.0  15.0  24.1  22.1  61  1012   ---    SE     6     6   ---   --- None reported/None reported
13/05/2005 07:55      18.0  14.0  20.2  18.0  77  1015   ---   WNW     3     3   ---   6.0 Broken Clouds/
13/05/2005 08:55      19.0  16.0  21.6  19.0  83  1015   ---     N     0     0   ---   6.0 Broken Clouds/
13/05/2005 09:55      20.0  15.0  21.8  20.0  73  1015   ---    NE     3     3   ---   0.9 Broken Clouds/
13/05/2005 10:55      22.0  15.0  23.3  22.0  65  1015   ---     S     3     3   ---   6.0 Scattered Clouds/
13/05/2005 11:55      25.0  16.0  25.9  25.0  57  1015   ---    NE     3     3   ---   3.0 Scattered Clouds/
13/05/2005 12:55      25.0  17.0  26.1  23.4  61  1016   ---     E    10    10   ---   3.0 Scattered Clouds/
13/05/2005 13:55      25.0  16.0  25.9  22.5  57  1016   ---   ESE    14    14   ---   3.0 Scattered Clouds/
13/05/2005 14:55      25.0  15.0  25.7  22.8  54  1017   ---    SE    13    13   ---   3.3 Scattered Clouds/
13/05/2005 15:55      26.0  15.0  26.5  24.1  51  1017   ---    NE    13    13   ---   --- /
13/05/2005 16:55      26.0  13.0  26.2  24.6  45  1017   ---   ESE    10    10   ---   --- /
13/05/2005 17:55      26.0  13.0  26.2  24.6  45  1016   ---     E    10    10   ---   --- /
13/05/2005 18:55      25.0  12.0  25.2  24.3  44  1016   ---   ESE     6     6   ---   --- /
13/05/2005 20:55      22.0  15.0  23.3  22.0  65  1016   ---     N     0     0   ---   --- /
13/05/2005 07:55      18.0  14.0  20.2  18.0  77  1015   ---   WNW     3     3   ---   6.0 Broken Clouds/
14/05/2005 08:55      21.0  16.0  22.9  21.0  73  1013   ---     N     0     0   ---   --- /
14/05/2005 09:55      23.0  16.0  24.3  23.0  65  1014   ---     E     3     3   ---   --- /
14/05/2005 10:55      25.0  17.0  26.1  25.0  61  1014   ---     N     0     0   ---   6.0 Scattered Clouds/
14/05/2005 11:55      26.0  17.0  26.9  26.0  58  1014   ---    NE     3     3   ---   3.0 Scattered Clouds/
14/05/2005 12:55      27.0  16.0  27.5  26.4  51  1014   ---   NNE     6     6   ---   6.0 Scattered Clouds/
14/05/2005 14:55      26.0  19.0  27.3  23.1  65  1014   ---     N    19    19   ---   6.0 Scattered Clouds/
14/05/2005 15:55      26.0  19.0  27.3  23.8  65  1014   ---     N    14    14   ---   6.0 Scattered Clouds/
14/05/2005 16:55      24.0  18.0  25.6  20.3  69  1014   ---     N    19    19   ---   6.0 Scattered Clouds/
14/05/2005 17:55      24.0  17.0  25.3  22.2  65  1015   ---    NE    10    10   ---999.00.9 Overcast/
14/05/2005 18:55      23.0  17.0  24.6  21.3  69  1015   ---   NNE     8     8   ---999.00.9 Overcast/
14/05/2005 19:55      22.0  16.0  23.6  21.0  69  1014   ---   ENE     6     6   ---999.00.9 Overcast/
14/05/2005 20:55      21.0  15.0  22.5  21.0  69  1014   ---    NW     3     3   ---   6.0 Broken Clouds/
15/05/2005 07:55      17.0  14.0  19.5  17.0  83  1016   ---     N     0     0   ---   6.0 Scattered Clouds/
14/05/2005 08:55      21.0  16.0  22.9  21.0  73  1013   ---   ---     0     0   ---   --- /
15/05/2005 09:55      20.0  16.0  22.2  20.0  78  1017   ---   ---     0     0   ---   0.7 Scattered Clouds/
15/05/2005 10:55      21.0  16.0  22.9  19.0  73  1017   ---     E     8     8   ---   0.7 Few Clouds/
15/05/2005 11:55      23.0  16.0  24.3  21.3  65  1017   ---     E     8     8   ---   0.7 Few Clouds/
15/05/2005 12:55      24.0  14.0  24.6  22.5  54  1017   ---     E     8     8   ---   0.7 Few Clouds/
15/05/2005 13:55      23.0  16.0  24.3  19.8  65  1017   ---     E    14    14   ---   0.7 Few Clouds/
15/05/2005 14:55      23.0  16.0  24.3  19.8  65  1017   ---     E    14    14   ---   0.7 Few Clouds/
15/05/2005 16:55      23.0  15.0  24.1  19.2  61  1017   ---     E    18    18   ---   0.7 Few Clouds/
15/05/2005 16:55      23.0  15.0  24.1  19.2  61  1017   ---     E    18    18   ---   0.7 Few Clouds/None reported
15/05/2005 18:55      21.0  16.0  22.9  16.7  73  1017   ---   ESE    16    16   ---   0.7 Scattered Clouds/
15/05/2005 19:55      20.0  16.0  22.2  17.8  78  1016   ---   ESE     8     8   ---   0.7 Scattered Clouds/
15/05/2005 20:55      19.0  16.0  21.6  16.2  83  1016   ---   ESE    10    10   ---   0.7 Scattered Clouds/
16/05/2005 07:55      16.0  13.0  18.5  16.0  82  1015   ---   WSW     5     5   ---   0.4 Few Clouds/
16/05/2005 08:55      18.0  15.0  20.5  18.0  83  1015   ---     N     0     0   ---   0.5 Scattered Clouds/
15/05/2005 09:55      20.0  16.0  22.2  20.0  78  1017   ---   ---     0     0   ---   0.7 Scattered Clouds/
16/05/2005 10:55      21.0  16.0  22.9  19.0  73  1015   ---     N     8     8   ---   0.5 Scattered Clouds/
16/05/2005 11:55      22.0  17.0  23.9  18.9  73  1015   ---     E    13    13   ---   0.5 Few Clouds/
15/05/2005 12:55      24.0  14.0  24.6  22.5  54  1017   ---     E     8     8   ---   0.7 Few Clouds/
16/05/2005 13:55      22.0  18.0  24.2  19.8  78  1015   ---   ESE    10    10   ---   0.5 Few Clouds/
15/05/2005 14:55      23.0  16.0  24.3  19.8  65  1017   ---     E    14    14   ---   0.7 Few Clouds/
16/05/2005 15:55      22.0  18.0  24.2  18.9  78  1015   ---     E    13    13   ---   0.5 Few Clouds/
16/05/2005 16:55      22.0  18.0  24.2  19.8  78  1014   ---     E    10    10   ---   0.5 Broken Clouds/
16/05/2005 17:55      21.0  18.0  23.6  19.0  83  1014   ---   ESE     8     8   ---   0.5 Few Clouds/
16/05/2005 18:55      21.0  17.0  23.2  19.9  78  1013   ---     E     6     6   ---   0.5 Few Clouds/
16/05/2005 19:55      21.0  18.0  23.6  21.0  83  1013   ---     E     5     5   ---   0.5 Few Clouds/
16/05/2005 20:55      20.0  17.0  22.6  20.0  83  1012   ---     E     3     3   ---   0.5 Few Clouds/
17/05/2005 07:55      18.0  15.0  20.5  18.0  83  1012   ---     N     0     0   ---   --- /
16/05/2005 08:55      18.0  15.0  20.5  18.0  83  1015   ---   ---     0     0   ---   0.5 Scattered Clouds/
17/05/2005 09:55      21.0  18.0  23.6  21.0  83  1012   ---   ---     0     0   ---   0.7 Few Clouds/
17/05/2005 10:55      24.0  18.0  25.6  24.0  69  1012   ---   ESE     5     5   ---   --- /
17/05/2005 11:55      23.0  18.0  24.9  22.1  73  1011   ---    SE     6     6   ---   3.0 Scattered Clouds/
17/05/2005 12:55      25.0  17.0  26.1  25.0  61  1011   ---   ENE     3     3   ---   --- /
17/05/2005 13:55      26.0  17.0  26.9  25.4  58  1011   ---     E     6     6   ---   --- /
17/05/2005 14:55      25.0  17.0  26.1  24.3  61  1010   ---   ESE     6     6   ---   --- /
17/05/2005 15:55      25.0  18.0  26.3  22.5  65  1010   ---   ESE    14    14   ---   --- /
17/05/2005 16:55      23.0  19.0  25.2  20.2  78  1008   ---   ESE    13    13   ---   2.7 Scattered Clouds/
17/05/2005 17:55      23.0  19.0  25.2  23.0  78  1007   ---     E     3     3   ---   2.7 Broken Clouds/
17/05/2005 18:55      23.0  19.0  25.2  23.0  78  1007   ---   ENE     3     3   ---   6.0 Broken Clouds/
17/05/2005 19:55      23.0  19.0  25.2  23.0  78  1007   ---     N     0     0   ---   --- /
17/05/2005 20:55      23.0  19.0  25.2  23.0  78  1008   ---   ---     0     0   ---   --- /
17/05/2005 20:55      23.0  19.0  25.2  23.0  78  1008   ---   ---     0     0   ---   --- None reported/None reported
17/05/2005 20:55      23.0  19.0  25.2  23.0  78  1008   ---   ---     0     0   ---   --- None reported/None reported
18/05/2005 07:55      19.0   7.0  19.2  16.2  46  1012   ---     W    10    10   ---   0.7 Broken Clouds/
18/05/2005 08:55      19.0   9.0  19.6  14.5  52  1012   ---   WSW    14    14   ---   3.0 Scattered Clouds/
18/05/2005 09:55      20.0  10.0  20.6  15.1  53  1012   ---     W    18    18   ---   6.0 Scattered Clouds/
18/05/2005 10:55      21.0  10.0  21.4  16.5  49  1013   ---     W    18    18   ---   0.7 Broken Clouds/
18/05/2005 11:55      22.0  11.0  22.4  18.5  50  1013   ---     W    14    14   ---   0.7 Scattered Clouds/
18/05/2005 12:55      22.0  11.0  22.4  17.3  50  1014   ---   WNW    21    21   ---   0.7 Scattered Clouds/
18/05/2005 13:55      23.0  11.0  23.3  17.8  47  1014   ---     W    31    31   ---   0.7 Scattered Clouds/
18/05/2005 14:55      23.0  11.0  23.3  18.0  47  1014   ---     W    27    27   ---   0.7 Broken Clouds/
18/05/2005 15:55      22.0  12.0  22.6  17.3  53  1014   ---     W    21    21   ---   0.7 Broken Clouds/
18/05/2005 16:55      22.0  12.0  22.6  17.5  53  1014   ---     W    19    19   ---   0.7 Scattered Clouds/
18/05/2005 17:55      21.0   9.0  21.3  15.6  46  1014   ---    NW    23    23   ---   0.7 Scattered Clouds/
18/05/2005 19:55      20.0  11.0  20.8  15.9  56  1015   ---   WNW    14    14   ---   0.7 Scattered Clouds/
18/05/2005 20:55      19.0  12.0  20.2  19.0  64  1017   ---     N     0     0   ---   0.7 Scattered Clouds/
18/05/2005 20:55      19.0  12.0  20.2  19.0  64  1017   ---   ---     0     0   ---   0.7 Scattered Clouds/None reported
19/05/2005 07:55      16.0  12.0  18.1  11.3  77  1018   ---   NNW    13    13   ---   0.7 Scattered Clouds/
19/05/2005 08:55      17.0  11.0  18.5  10.4  68  1018   ---    NW    19    19   ---   0.7 Broken Clouds/
18/05/2005 09:55      20.0  10.0  20.6  15.1  53  1012   ---     W    18    18   ---   6.0 Scattered Clouds/
19/05/2005 10:55      19.0  10.0  19.8  14.0  56  1019   ---   NNW    16    16   ---   0.7 Scattered Clouds/
19/05/2005 11:55      20.0  12.0  21.0  15.1  60  1019   ---   NNW    18    18   ---   0.7 Scattered Clouds/
19/05/2005 12:55      20.0  10.0  20.6  14.6  53  1019   ---   NNW    19    19   ---   0.6 Scattered Clouds/
19/05/2005 14:55      21.0  11.0  21.6  15.6  53  1019   ---    NW    23    23   ---   0.6 Scattered Clouds/
19/05/2005 15:55      20.0  11.0  20.8  14.2  56  1019   ---     N    23    23   ---   0.6 Scattered Clouds/
19/05/2005 16:55      20.0  10.0  20.6  14.6  53  1019   ---    NW    19    19   ---   0.6 Scattered Clouds/
19/05/2005 17:55      19.0  10.0  19.8  13.2  56  1019   ---   NNW    19    19   ---   0.6 Scattered Clouds/
19/05/2005 18:55      18.0  11.0  19.2  11.3  64  1019   ---   NNW    23    23   ---   0.6 Scattered Clouds/
19/05/2005 19:55      18.0  11.0  19.2  11.3  64  1019   ---    NW    23    23   ---   0.7 Scattered Clouds/
19/05/2005 20:55      18.0  12.0  19.5  11.6  68  1019   ---    NW    21    21   ---   0.7 Few Clouds/
20/05/2005 07:55      17.0  13.0  19.2  11.3  77  1020   ---    NW    16    16   ---   0.4 Few Clouds/
20/05/2005 08:55      18.0  14.0  20.2  12.6  77  1020   ---    NW    16    16   ---   0.4 Scattered Clouds/
20/05/2005 09:55      19.0  14.0  20.8  13.7  73  1020   ---    NW    18    18   ---   0.4 Scattered Clouds/
20/05/2005 10:55      20.0  14.0  21.5  15.1  68  1020   ---    NW    18    18   ---   0.5 Scattered Clouds/
20/05/2005 11:55      21.0  15.0  22.5  16.1  69  1021   ---    NW    19    19   ---   0.6 Scattered Clouds/
20/05/2005 12:55      22.0  13.0  22.8  17.9  57  1021   ---   NNW    18    18   ---   0.6 Scattered Clouds/
20/05/2005 13:55      22.0  12.0  22.6  18.1  53  1021   ---   NNW    16    34   ---   0.6 Scattered Clouds/
19/05/2005 14:55      21.0  11.0  21.6  15.6  53  1019   ---    NW    23    23   ---   0.6 Scattered Clouds/
20/05/2005 15:55      22.0  11.0  22.4  17.9  50  1020   ---    NW    18    18   ---   0.6 Few Clouds/
20/05/2005 16:55      23.0   9.0  23.0  19.8  41  1020   ---     N    14    14   ---   0.6 Few Clouds/
20/05/2005 17:55      22.0  10.0  22.3  18.5  46  1020   ---   NNW    14    14   ---   0.4 Few Clouds/
20/05/2005 18:55      21.0  11.0  21.6  17.2  53  1019   ---   NNW    14    14   ---   0.4 Few Clouds/
20/05/2005 19:55      20.0  10.0  20.6  15.9  53  1019   ---   NNW    14    14   ---   0.4 Few Clouds/
20/05/2005 20:55      19.0  10.0  19.8  16.2  56  1019   ---   NNW    10    10   ---   0.4 Few Clouds/
21/05/2005 07:55      16.0  11.0  17.8  16.0  72  1019   ---     N     0     0   ---   6.0 Scattered Clouds/
21/05/2005 08:55      18.0  12.0  19.5  18.0  68  1019   ---   ---     0     0   ---   --- /
21/05/2005 09:55      20.0  13.0  21.3  20.0  64  1019   ---   ---     0     0   ---   --- /
21/05/2005 11:55      22.0  15.0  23.3  18.9  65  1019   ---     E    13    13   ---   --- /
21/05/2005 12:55      23.0  14.0  23.8  21.0  57  1019   ---     E    10    10   ---   --- /
21/05/2005 14:55      23.0  14.0  23.8  19.8  57  1019   ---   ESE    14    14   ---   --- /
21/05/2005 17:55      22.0  16.0  23.6  18.9  69  1018   ---   ESE    13    13   ---   --- /
21/05/2005 18:55      21.0  16.0  22.9  19.0  73  1018   ---   SSE     8     8   ---   --- /
21/05/2005 19:55      20.0  16.0  22.2  17.4  78  1018   ---     E    10    10   ---   --- /
21/05/2005 20:55      19.0  17.0  22.0  19.0  88  1018   ---     N     0     0   ---   --- /
22/05/2005 07:55      17.0   1.0  16.7  15.5  34  1017   ---   WSW     6     6   ---   --- /
22/05/2005 08:55      19.0   5.0  18.9  19.0  40  1017   ---     N     0     0   ---   --- /
22/05/2005 09:55      22.0   9.0  22.1  22.0  43  1017   ---   ---     0     0   ---   --- /
22/05/2005 10:55      24.0   7.0  23.7  24.0  34  1016   ---   ---     0     0   ---   --- /
22/05/2005 11:55      24.0   8.0  23.8  22.2  36  1016   ---     E    10    10   ---   --- /
22/05/2005 12:55      24.0   8.0  23.8  23.2  36  1016   ---     E     6     6   ---   --- /
22/05/2005 13:55      25.0   9.0  24.8  23.7  36  1016   ---     E     8     8   ---   --- /
22/05/2005 14:55      24.0  10.0  24.0  21.5  41  1016   ---     E    13    13   ---   --- /
22/05/2005 15:55      25.0   9.0  24.8  23.7  36  1016   ---     E     8     8   ---   --- /
22/05/2005 16:55      24.0  11.0  24.1  22.5  44  1016   ---   ESE     8     8   ---   --- /
22/05/2005 17:55      24.0  10.0  24.0  22.2  41  1016   ---     E    10    10   ---   --- /
22/05/2005 18:55      23.0  13.0  23.6  22.1  53  1016   ---     E     6     6   ---   --- /
22/05/2005 20:55      21.0  15.0  22.5  21.0  69  1016   ---   ESE     5     5   ---   --- /
23/05/2005 07:55      18.0   9.0  18.8  18.0  56  1016   ---     N     0     0   ---   6.0 Scattered Clouds/
23/05/2005 08:55      20.0  10.0  20.6  20.0  53  1017   ---   ---     0     0   ---   6.0 Scattered Clouds/
22/05/2005 08:55      19.0   5.0  18.9  19.0  40  1017   ---   ---     0     0   ---   --- /
23/05/2005 10:55      24.0  10.0  24.0  24.0  41  1017   ---     N     5     5   ---999.0--- Overcast/
23/05/2005 11:55      25.0   9.0  24.8  25.0  36  1016   ---     E     3     3   ---999.03.6 Overcast/
23/05/2005 12:55      25.0  11.0  25.0  25.0  41  1016   ---    NE     5     5   ---999.03.6 Overcast/
22/05/2005 13:55      25.0   9.0  24.8  23.7  36  1016   ---     E     8     8   ---   --- /
23/05/2005 14:55      25.0  14.0  25.5  25.0  51  1015   ---     N     3     3   ---999.00.9 Overcast/
23/05/2005 16:55      28.0  13.0  27.6  26.6  40  1015   ---   ENE    13    13   ---   6.0 Broken Clouds/
22/05/2005 17:55      24.0  10.0  24.0  22.2  41  1016   ---     E    10    10   ---   --- /
23/05/2005 18:55      24.0  14.0  24.6  21.5  54  1016   ---    SE    13    13   ---   6.0 Few Clouds/
23/05/2005 19:55      22.0  13.0  22.8  22.0  57  1016   ---     N     0     0   ---   3.0 Scattered Clouds/
23/05/2005 20:55      22.0  13.0  22.8  22.0  57  1016   ---   ---     0     0   ---   2.7 Broken Clouds/
24/05/2005 07:55      19.0  12.0  20.2  13.7  64  1017   ---   NNW    18    18   ---   0.7 Scattered Clouds/
24/05/2005 08:55      19.0  12.0  20.2  13.7  64  1017   ---   NNW    18    18   ---   0.7 Few Clouds/
24/05/2005 09:55      20.0  13.0  21.3  15.1  64  1018   ---   NNW    18    18   ---   0.7 Few Clouds/
24/05/2005 10:55      20.0  10.0  20.6  15.1  53  1018   ---   NNW    18    18   ---   0.7 Few Clouds/
24/05/2005 11:55      21.0  11.0  21.6  15.6  53  1018   ---   NNW    23    23   ---   0.7 Few Clouds/
24/05/2005 12:55      22.0  11.0  22.4  16.7  50  1018   ---   NNW    26    26   ---   0.7 Few Clouds/
24/05/2005 13:55      22.0  12.0  22.6  17.3  53  1018   ---   NNW    21    21   ---   0.7 Few Clouds/
24/05/2005 14:55      22.0  13.0  22.8  17.5  57  1018   ---   NNW    19    19   ---   0.7 Scattered Clouds/
24/05/2005 15:55      22.0  14.0  23.0  17.5  61  1018   ---   NNW    19    19   ---   0.7 Scattered Clouds/
24/05/2005 16:55      21.0  14.0  22.3  15.6  64  1018   ---   NNW    23    23   ---   0.7 Scattered Clouds/
24/05/2005 17:55      20.0  14.0  21.5  15.9  68  1018   ---   NNW    14    14   ---   0.7 Scattered Clouds/
24/05/2005 18:55      20.0  15.0  21.8  15.1  73  1018   ---    NW    18    18   ---   0.7 Scattered Clouds/
24/05/2005 19:55      19.0  15.0  21.2  13.7  78  1018   ---   NNW    18    18   ---   0.7 Broken Clouds/
24/05/2005 20:55      19.0  15.0  21.2  15.1  78  1018   ---   NNW    13    13   ---   0.7 Scattered Clouds/
25/05/2005 07:55      18.0  13.0  19.8  18.0  73  1019   ---   SSW     3     3   ---   0.4 Few Clouds/
24/05/2005 08:55      19.0  12.0  20.2  13.7  64  1017   ---   NNW    18    18   ---   0.7 Few Clouds/
25/05/2005 09:55      21.0  15.0  22.5  19.9  69  1019   ---   NNE     6     6   ---   --- /
25/05/2005 10:55      23.0  16.0  24.3  22.1  65  1019   ---   ENE     6     6   ---   --- /
25/05/2005 11:55      24.0  15.0  24.8  22.5  57  1019   ---    NE     8     8   ---   --- /
25/05/2005 13:55      23.0  16.0  24.3  19.2  65  1019   ---   ESE    18    18   ---   0.4 Few Clouds/
25/05/2005 14:55      24.0  15.0  24.8  21.5  57  1019   ---   ESE    13    13   ---   0.4 Few Clouds/
25/05/2005 15:55      25.0  15.0  25.7  22.8  54  1019   ---     E    13    13   ---   0.7 Few Clouds/
25/05/2005 16:55      25.0  14.0  25.5  22.8  51  1018   ---   ESE    13    13   ---   0.4 Few Clouds/
25/05/2005 17:55      25.0  14.0  25.5  24.3  51  1018   ---     E     6     6   ---   0.4 Few Clouds/
25/05/2005 19:55      23.0  17.0  24.6  22.1  69  1017   ---     N     6     6   ---   0.4 Few Clouds/
25/05/2005 20:55      21.0  17.0  23.2  21.0  78  1017   ---     N     3     3   ---   0.4 Few Clouds/
26/05/2005 07:55      19.0  11.0  20.0  17.7  60  1017   ---   WSW     6     6   ---   --- /
26/05/2005 08:55      20.0  12.0  21.0  20.0  60  1017   ---   NNE     3     3   ---   --- /
26/05/2005 09:55      21.0  13.0  22.0  21.0  60  1017   ---     N     0     0   ---   --- /
26/05/2005 10:55      24.0  14.0  24.6  24.0  54  1017   ---    NE     3     3   ---   --- /
26/05/2005 11:55      24.0  15.0  24.8  24.0  57  1017   ---     N     5     5   ---   --- /
26/05/2005 12:55      25.0  12.0  25.2  23.4  44  1017   ---    NE    10    10   ---   --- /
26/05/2005 13:55      25.0  10.0  24.9  22.5  39  1017   ---     E    14    14   ---   --- /
26/05/2005 14:55      25.0   9.0  24.8  22.8  36  1017   ---   ESE    13    13   ---   --- /
26/05/2005 15:55      26.0   9.0  25.7  24.8  34  1017   ---     E     8     8   ---   --- /
26/05/2005 16:55      25.0  12.0  25.2  22.5  44  1017   ---   ESE    14    14   ---   --- /
26/05/2005 17:55      25.0  13.0  25.3  22.8  47  1017   ---   NNE    13    13   ---   --- /
26/05/2005 18:55      24.0  17.0  25.3  21.1  65  1017   ---   NNE    14    14   ---   --- /
26/05/2005 19:55      22.0  15.0  23.3  18.9  65  1017   ---   ESE    13    13   ---   --- /
25/05/2005 20:55      21.0  17.0  23.2  21.0  78  1017   ---     N     3     3   ---   0.4 Few Clouds/
27/05/2005 07:55      19.0  14.0  20.8  19.0  73  1017   ---     N     0     0   ---   --- /
27/05/2005 08:55      21.0  14.0  22.3  21.0  64  1017   ---   ---     0     0   ---   --- /
27/05/2005 09:55      23.0  13.0  23.6  23.0  53  1017   ---   ---     0     0   ---   --- /
27/05/2005 10:55      25.0  14.0  25.5  23.7  51  1018   ---     E     8     8   ---   --- /
27/05/2005 11:55      25.0  14.0  25.5  22.5  51  1018   ---     E    14    14   ---   0.7 Few Clouds/
27/05/2005 12:55      26.0  14.0  26.3  24.6  48  1018   ---     E    10    10   ---   0.7 Few Clouds/
27/05/2005 13:55      26.0  15.0  26.5  24.1  51  1017   ---     E    13    13   ---   0.7 Few Clouds/
27/05/2005 14:55      26.0  15.0  26.5  23.5  51  1017   ---   ESE    16    16   ---   0.7 Few Clouds/
27/05/2005 15:55      25.0  16.0  25.9  22.8  57  1017   ---     E    13    13   ---   0.7 Few Clouds/
27/05/2005 17:55      24.0  15.0  24.8  22.2  57  1017   ---     E    10    10   ---   0.7 Few Clouds/
27/05/2005 18:55      24.0  15.0  24.8  23.2  57  1017   ---   SSE     6     6   ---   3.0 Scattered Clouds/
26/05/2005 19:55      22.0  15.0  23.3  18.9  65  1017   ---   ESE    13    13   ---   --- /
27/05/2005 20:55      22.0  17.0  23.9  21.0  73  1017   ---     E     6     6   ---   --- /
28/05/2005 07:55      20.0  13.0  21.3  20.0  64  1017   ---   WSW     3     3   ---   --- /
28/05/2005 08:55      22.0  15.0  23.3  22.0  65  1017   ---     N     0     0   ---   --- /
27/05/2005 09:55      23.0  13.0  23.6  23.0  53  1017   ---   ---     0     0   ---   --- /
28/05/2005 10:55      27.0  14.0  27.1  27.0  45  1017   ---     E     5     5   ---   --- /
28/05/2005 11:55      27.0  14.0  27.1  25.8  45  1017   ---     E    10    10   ---   --- /
28/05/2005 12:55      26.0  14.0  26.3  23.5  48  1017   ---    SE    16    16   ---   0.7 Few Clouds/
28/05/2005 13:55      26.0  14.0  26.3  23.8  48  1017   ---   ESE    14    14   ---   0.7 Few Clouds/
28/05/2005 14:55      26.0  16.0  26.7  23.5  54  1017   ---    SE    16    16   ---   0.7 Few Clouds/
28/05/2005 15:55      26.0  16.0  26.7  24.1  54  1017   ---    SE    13    13   ---   0.7 Few Clouds/
28/05/2005 17:55      24.0  16.0  25.1  21.5  61  1017   ---    SE    13    13   ---   0.7 Few Clouds/
28/05/2005 18:55      25.0  13.0  25.3  23.7  47  1016   ---     E     8     8   ---   --- /
28/05/2005 19:55      24.0  12.0  24.3  23.2  47  1016   ---     E     6     6   ---   --- /
28/05/2005 20:55      23.0  12.0  23.4  23.0  50  1016   ---     N     0     0   ---   --- /
29/05/2005 07:55      21.0  14.0  22.3  21.0  64  1016   ---    SW     5     5   ---   --- /
29/05/2005 08:55      24.0  13.0  24.5  24.0  50  1016   ---     N     0     0   ---   --- /
29/05/2005 09:55      25.0  13.0  25.3  25.0  47  1016   ---    NE     3     3   ---   --- /
29/05/2005 10:55      26.0  16.0  26.7  24.8  54  1016   ---    NE     8     8   ---   --- /
29/05/2005 11:55      25.0  13.0  25.3  23.4  47  1016   ---     E    10    10   ---   --- /
29/05/2005 12:55      26.0  14.0  26.3  26.0  48  1016   ---    SE     5     5   ---   --- /
29/05/2005 13:55      28.0  13.0  27.6  27.5  40  1016   ---     E     6     6   ---   --- /
29/05/2005 14:55      28.0  13.0  27.6  26.6  40  1016   ---   ESE    13    13   ---   --- /
29/05/2005 15:55      28.0  15.0  28.0  26.6  45  1016   ---    SE    13    13   ---   --- /
29/05/2005 16:55      26.0  19.0  27.3  24.1  65  1016   ---   SSE    13    13   ---   --- /
29/05/2005 17:55      25.0  18.0  26.3  22.0  65  1016   ---   ESE    18    18   ---   --- /
29/05/2005 19:55      25.0  18.0  26.3  23.7  65  1015   ---   ESE     8     8   ---   --- /
29/05/2005 20:55      23.0  17.0  24.6  22.1  69  1016   ---   ESE     6     6   ---   --- /
30/05/2005 07:55      20.0  15.0  21.8  20.0  73  1016   ---    SW     3     3   ---   0.0 Few Clouds/
30/05/2005 09:55      23.0  17.0  24.6  23.0  69  1017   ---     E     5     5   ---   0.4 Few Clouds/
30/05/2005 10:55      25.0  18.0  26.3  25.0  65  1017   ---   ESE     5     5   ---   0.4 Few Clouds/
30/05/2005 11:55      26.0  18.0  27.1  26.0  61  1017   ---   ENE     5     5   ---   0.5 Few Clouds/
30/05/2005 12:55      25.0  19.0  26.6  22.5  69  1017   ---   ESE    14    14   ---   0.6 Few Clouds/
30/05/2005 13:55      26.0  18.0  27.1  24.8  61  1017   ---     E     8     8   ---   0.6 Few Clouds/
30/05/2005 14:55      26.0  20.0  27.6  23.8  70  1016   ---     W    14    14   ---   0.6 Scattered Clouds/
30/05/2005 15:55      26.0  20.0  27.6  23.5  70  1016   ---   ESE    16    16   ---   0.6 Scattered Clouds/
30/05/2005 16:55      26.0  19.0  27.3  23.8  65  1016   ---   ESE    14    14   ---   0.6 Few Clouds/
30/05/2005 17:55      25.0  19.0  26.6  22.5  69  1016   ---   ESE    14    14   ---   0.7 Few Clouds/
30/05/2005 18:55      24.0  20.0  26.2  22.2  78  1016   ---   ESE    10    10   ---   0.7 Few Clouds/
30/05/2005 19:55      24.0  19.0  25.9  24.0  74  1016   ---   ESE     5     5   ---   --- /
30/05/2005 20:55      23.0  19.0  25.2  23.0  78  1016   ---   ESE     5     5   ---   6.0 Few Clouds/
30/05/2005 20:55      23.0  19.0  25.2  23.0  78  1016   ---   ESE     5     5   ---   0.1 Few Clouds/None reported
31/05/2005 07:55      21.0  17.0  23.2  21.0  78  1016   ---     N     0     0   ---   6.0 Scattered Clouds/
31/05/2005 08:55      23.0  17.0  24.6  23.0  69  1016   ---   ---     0     0   ---   6.0 Scattered Clouds/
31/05/2005 09:55      25.0  14.0  25.5  22.8  51  1016   ---   NNE    13    13   ---   6.0 Scattered Clouds/
31/05/2005 10:55      27.0  14.0  27.1  25.8  45  1016   ---    NE    10    10   ---   6.0 Scattered Clouds/
31/05/2005 11:55      27.0  15.0  27.3  25.8  48  1017   ---     E    10    10   ---   6.0 Scattered Clouds/
31/05/2005 12:55      28.0  16.0  28.3  27.2  48  1017   ---     E     8     8   ---   6.0 Scattered Clouds/
31/05/2005 13:55      28.0  17.0  28.6  26.2  51  1017   ---   ENE    16    16   ---   6.0 Scattered Clouds/
31/05/2005 14:55      28.0  16.0  28.3  25.9  48  1016   ---    NE    21    21   ---   6.0 Scattered Clouds/
30/05/2005 16:55      26.0  19.0  27.3  23.8  65  1016   ---   ESE    14    14   ---   0.6 Few Clouds/
31/05/2005 17:55      28.0  11.0  27.3  27.0  35  1015   ---   NNE    10    10   ---   6.0 Scattered Clouds/
31/05/2005 18:55      27.0  10.0  26.6  26.0  34  1015   ---     E     8     8   ---   6.0 Scattered Clouds/
31/05/2005 19:55      25.0  12.0  25.2  23.7  44  1016   ---   ESE     8     8   ---999.02.7 Broken Clouds/
31/05/2005 20:55      24.0  12.0  24.3  24.0  47  1015   ---     N     0     0   ---999.0--- Broken Clouds/
01/06/2005 07:55      21.0  13.0  22.0  21.0  60  1014   ---   ---     0     0   ---   6.0 Broken Clouds/
01/06/2005 08:55      22.0  13.0  22.8  22.0  57  1014   ---    NW     5     5   ---   6.0 Broken Clouds/
01/06/2005 09:55      23.0  16.0  24.3  23.0  65  1013   ---     N     0     0   ---   3.6 Broken Clouds/
01/06/2005 10:55      23.0  14.0  23.8  23.0  57  1014   ---    SE     3     3   ---999.0--- Overcast/
01/06/2005 11:55      25.0  16.0  25.9  24.3  57  1014   ---     E     6     6   ---999.02.7 Overcast/
01/06/2005 12:55      25.0  15.0  25.7  23.4  54  1014   ---     E    10    10   ---999.0--- Overcast/
01/06/2005 13:55      25.0  15.0  25.7  24.3  54  1014   ---     E     6     6   ---999.02.7 Overcast/
01/06/2005 15:55      24.0  17.0  25.3  23.2  65  1014   ---   ESE     6     6   ---999.0--- Overcast/
01/06/2005 16:55      24.0  19.0  25.9  22.2  74  1014   ---     E    10    10   ---999.02.7 Overcast/
01/06/2005 18:55      24.0  20.0  26.2  24.0  78  1013   ---     E     5     5   ---   6.0 Broken Clouds/
01/06/2005 19:55      24.0  20.0  26.2  23.2  78  1014   ---     E     6     6   ---   6.0 Broken Clouds/
01/06/2005 20:55      22.0  19.0  24.6  22.0  83  1014   ---     N     0     0   ---   6.0 Scattered Clouds/
02/06/2005 07:55      19.0  16.0  21.6  17.7  83  1013   ---    SW     6     6   ---   0.7 Broken Clouds/
02/06/2005 08:55      19.0  16.0  21.6  19.0  83  1014   ---     N     0     0   ---   0.7 Broken Clouds/
02/06/2005 09:55      20.0  17.0  22.6  20.0  83  1014   ---   ---     0     0   ---   0.7 Broken Clouds/
02/06/2005 10:55      21.0  18.0  23.6  21.0  83  1014   ---   ---     0     0   ---   0.7 Broken Clouds/
02/06/2005 11:55      22.0  18.0  24.2  18.9  78  1015   ---     N    13    13   ---   0.7 Broken Clouds/
02/06/2005 12:55      22.0  18.0  24.2  19.8  78  1015   ---     S    10    10   ---   0.7 Broken Clouds/
02/06/2005 13:55      23.0  19.0  25.2  23.0  78  1014   ---     N     0     0   ---   0.7 Broken Clouds/
02/06/2005 14:55      26.0  18.0  27.1  24.8  61  1014   ---    NE     8     8   ---   0.7 Broken Clouds/
02/06/2005 15:55      26.0  18.0  27.1  24.1  61  1013   ---     E    13    13   ---   0.7 Broken Clouds/
02/06/2005 17:55      24.0  19.0  25.9  21.5  74  1013   ---   ESE    13    13   ---999.0--- Broken Clouds/
02/06/2005 18:55      24.0  19.0  25.9  22.5  74  1014   ---     E     8     8   ---999.02.7 Broken Clouds/
02/06/2005 19:55      23.0  19.0  25.2  21.0  78  1014   ---   ESE    10    10   ---999.02.7 Broken Clouds/
02/06/2005 20:55      22.0  19.0  24.6  21.0  83  1014   ---   ESE     6     6   ---   0.7 Broken Clouds/
03/06/2005 07:55      20.0  15.0  21.8  20.0  73  1014   ---     N     0     0   ---999.02.7 Overcast/
03/06/2005 08:55      21.0  17.0  23.2  21.0  78  1014   ---   SSE     5     5   ---   1.2 Broken Clouds/
03/06/2005 09:55      23.0  16.0  24.3  23.0  65  1015   ---     N     0     0   ---   1.2 Broken Clouds/
03/06/2005 10:55      24.0  19.0  25.9  24.0  74  1015   ---    SE     5     5   ---   1.2 Broken Clouds/
03/06/2005 11:55      24.0  19.0  25.9  22.2  74  1015   ---     E    10    10   ---999.00.9 Overcast/
03/06/2005 12:55      24.0  19.0  25.9  24.0  74  1015   ---     N     0     0   ---   6.0 Broken Clouds/
03/06/2005 13:55      28.0  18.0  28.9  28.0  55  1014   ---   ENE     3     3   ---   6.0 Broken Clouds/
03/06/2005 14:55      27.0  19.0  28.2  25.8  62  1014   ---     E    10    10   ---   0.9 Scattered Clouds/
03/06/2005 15:55      28.0  18.0  28.9  27.5  55  1014   ---     E     6     6   ---   0.9 Few Clouds/
03/06/2005 17:55      27.0  18.0  27.9  26.0  58  1014   ---     E     8     8   ---   0.9 Scattered Clouds/
03/06/2005 18:55      26.0  19.0  27.3  25.4  65  1014   ---     E     6     6   ---   0.9 Scattered Clouds/
03/06/2005 19:55      25.0  20.0  26.9  24.3  74  1013   ---     E     6     6   ---   6.0 Scattered Clouds/
03/06/2005 20:55      24.0  20.0  26.2  24.0  78  1014   ---     E     3     3   ---   6.0 Scattered Clouds/
04/06/2005 07:55      21.0  18.0  23.6  21.0  83  1015   ---     N     0     0   ---   6.0 Scattered Clouds/
04/06/2005 08:55      23.0  19.0  25.2  23.0  78  1016   ---   ---     0     0   ---   --- /
04/06/2005 09:55      25.0  17.0  26.1  25.0  61  1016   ---     E     5     5   ---   --- /
03/06/2005 10:55      24.0  19.0  25.9  24.0  74  1015   ---    SE     5     5   ---   1.2 Broken Clouds/
04/06/2005 11:55      27.0  17.0  27.7  26.0  54  1016   ---   ENE     8     8   ---   --- /
04/06/2005 12:55      28.0  16.0  28.3  27.2  48  1016   ---     E     8     8   ---   --- /
04/06/2005 13:55      28.0  16.0  28.3  26.4  48  1016   ---   ESE    14    14   ---   --- /
03/06/2005 14:55      27.0  19.0  28.2  25.8  62  1014   ---     E    10    10   ---   0.9 Scattered Clouds/
04/06/2005 15:55      28.0  17.0  28.6  27.0  51  1016   ---     E    10    10   ---   --- /
04/06/2005 16:55      28.0  17.0  28.6  26.4  51  1016   ---     E    14    14   ---   --- /
04/06/2005 17:55      28.0  14.0  27.8  27.2  42  1015   ---    SE     8     8   ---   --- /
04/06/2005 18:55      28.0  15.0  28.0  27.0  45  1015   ---   ESE    10    10   ---   --- /
04/06/2005 19:55      27.0  14.0  27.1  27.0  45  1015   ---     E     5     5   ---   --- /
04/06/2005 20:55      26.0  14.0  26.3  26.0  48  1015   ---    SE     5     5   ---   --- /
05/06/2005 07:55      21.0  17.0  23.2  19.9  78  1015   ---   SSW     6     6   ---   3.0 Scattered Clouds/
05/06/2005 08:55      23.0  19.0  25.2  23.0  78  1015   ---     N     0     0   ---   3.0 Scattered Clouds/
05/06/2005 09:55      25.0  18.0  26.3  24.3  65  1015   ---   NNE     6     6   ---   6.0 Scattered Clouds/
05/06/2005 10:55      26.0  18.0  27.1  24.8  61  1015   ---     E     8     8   ---   6.0 Scattered Clouds/
05/06/2005 11:55      26.0  20.0  27.6  24.6  70  1015   ---     E    10    10   ---   6.0 Scattered Clouds/
05/06/2005 12:55      27.0  19.0  28.2  26.0  62  1015   ---   ENE     8     8   ---   6.0 Scattered Clouds/
05/06/2005 13:55      26.0  20.0  27.6  24.8  70  1015   ---   NNE     8     8   ---   0.7 Broken Clouds/
05/06/2005 14:55      27.0  20.0  28.5  25.8  66  1015   ---   ENE    10    10   ---999.0--- Broken Clouds/
05/06/2005 15:55      26.0  19.0  27.3  23.5  65  1015   ---   ESE    16    16   ---999.0--- Broken Clouds/
05/06/2005 16:55      26.0  18.0  27.1  23.8  61  1015   ---     E    14    14   ---   3.0 Scattered Clouds/
05/06/2005 17:55      25.0  19.0  26.6  22.8  69  1014   ---     E    13    13   ---   0.7 Broken Clouds/
05/06/2005 18:55      24.0  19.0  25.9  21.1  74  1014   ---     E    14    14   ---   0.7 Broken Clouds/
05/06/2005 19:55      23.0  19.0  25.2  20.2  78  1014   ---     E    13    13   ---   0.7 Broken Clouds/
05/06/2005 20:55      23.0  20.0  25.6  22.1  83  1014   ---     E     6     6   ---   0.7 Broken Clouds/
06/06/2005 07:55      20.0  17.0  22.6  20.0  83  1012   ---     N     0     0   ---   --- Clear/
06/06/2005 08:55      21.0  18.0  23.6  21.0  83  1012   ---   ---     0     0   ---   --- Clear/
05/06/2005 09:55      25.0  18.0  26.3  24.3  65  1015   ---   NNE     6     6   ---   6.0 Scattered Clouds/
06/06/2005 10:55      25.0  18.0  26.3  25.0  65  1012   ---     E     5     5   ---   --- /
06/06/2005 11:55      25.0  19.0  26.6  22.8  69  1012   ---     E    13    13   ---   --- /
06/06/2005 12:55      26.0  20.0  27.6  24.6  70  1012   ---     E    10    10   ---   --- /
06/06/2005 13:55      26.0  20.0  27.6  24.6  70  1012   ---   ESE    10    10   ---   0.6 Few Clouds/
06/06/2005 14:55      26.0  20.0  27.6  24.8  70  1012   ---     E     8     8   ---   0.6 Scattered Clouds/
06/06/2005 15:55      27.0  18.0  27.9  24.4  58  1012   ---   NNW    21    21   ---   0.4 Few Clouds/
06/06/2005 16:55      27.0  16.0  27.5  24.4  51  1012   ---     N    21    21   ---   0.4 Few Clouds/
06/06/2005 17:55      26.0  16.0  26.7  23.0  54  1012   ---   NNW    21    21   ---   0.4 Few Clouds/
06/06/2005 18:55      24.0  16.0  25.1  20.1  61  1012   ---   NNW    21    21   ---   0.4 Few Clouds/
06/06/2005 19:55      23.0  16.0  24.3  19.4  65  1012   ---    NW    16    16   ---   0.4 Few Clouds/
07/06/2005 07:55      20.0  16.0  22.2  18.8  78  1013   ---   WSW     6     6   ---   --- /
07/06/2005 08:55      22.0  17.0  23.9  22.0  73  1014   ---   ENE     3     3   ---   --- /
07/06/2005 09:55      23.0  17.0  24.6  21.3  69  1014   ---     E     8     8   ---   --- /
07/06/2005 10:55      24.0  17.0  25.3  20.1  65  1015   ---   NNW    21    21   ---   --- /
07/06/2005 11:55      25.0  17.0  26.1  21.2  61  1015   ---     N    26    26   ---   --- /
07/06/2005 12:55      25.0  17.0  26.1  21.6  61  1014   ---   NNW    21    21   ---   --- /
07/06/2005 13:55      26.0  17.0  26.9  23.4  58  1016   ---     N    18    18   ---   --- /
07/06/2005 14:55      25.0  18.0  26.3  21.0  65  1016   ---   NNW    29    29   ---   0.6 Scattered Clouds/
07/06/2005 15:55      25.0  18.0  26.3  21.0  65  1015   ---   NNW    29    29   ---   0.6 Scattered Clouds/
07/06/2005 16:55      25.0  17.0  26.1  21.2  61  1016   ---   NNW    26    26   ---   0.6 Scattered Clouds/
07/06/2005 17:55      25.0  18.0  26.3  21.0  65  1015   ---   NNW    27    27   ---   0.6 Few Clouds/
07/06/2005 18:55      24.0  18.0  25.6  20.0  69  1015   ---   NNW    23    23   ---   0.6 Few Clouds/
07/06/2005 19:55      23.0  19.0  25.2  18.5  78  1015   ---   NNW    23    23   ---   0.6 Few Clouds/
08/06/2005 07:55      19.0  16.0  21.6  19.0  83  1017   ---   WNW     5     5   ---   0.4 Few Clouds/
08/06/2005 08:55      22.0  15.0  23.3  22.0  65  1017   ---     N     0     0   ---   0.4 Few Clouds/
08/06/2005 10:55      24.0  16.0  25.1  21.1  61  1018   ---     N    14    14   ---   0.4 Scattered Clouds/
08/06/2005 11:55      25.0  17.0  26.1  22.0  61  1018   ---     N    18    18   ---   0.4 Scattered Clouds/
08/06/2005 12:55      26.0  17.0  26.9  23.1  58  1018   ---   NNW    19    19   ---   0.6 Scattered Clouds/
08/06/2005 13:55      25.0  17.0  26.1  21.0  61  1018   ---   NNW    27    27   ---   0.4 Scattered Clouds/
08/06/2005 14:55      26.0  16.0  26.7  22.5  54  1018   ---   NNW    27    27   ---   0.4 Scattered Clouds/
08/06/2005 15:55      25.0  17.0  26.1  21.4  61  1018   ---   NNW    23    42   ---   0.6 Scattered Clouds/
08/06/2005 16:55      25.0  15.0  25.7  21.2  54  1018   ---   NNW    26    26   ---   0.6 Scattered Clouds/
08/06/2005 17:55      24.0  17.0  25.3  20.8  65  1018   ---     N    16    16   ---   0.5 Scattered Clouds/
08/06/2005 18:55      23.0  17.0  24.6  19.2  69  1018   ---     N    18    18   ---   0.5 Scattered Clouds/
08/06/2005 19:55      22.0  17.0  23.9  18.5  73  1018   ---   NNE    14    14   ---   0.6 Broken Clouds/
08/06/2005 20:55      21.0  17.0  23.2  16.7  78  1019   ---     E    16    16   ---   0.6 Broken Clouds/
09/06/2005 07:55      18.0  12.0  19.5  18.0  68  1018   ---     N     0     0   ---   0.7 Broken Clouds/
09/06/2005 08:55      20.0  11.0  20.8  17.8  56  1018   ---     E     8     8   ---   0.7 Broken Clouds/
09/06/2005 09:55      20.0  10.0  20.6  17.4  53  1018   ---     E    10    10   ---   0.7 Broken Clouds/
09/06/2005 10:55      20.0  10.0  20.6  16.4  53  1018   ---   ENE    13    13   ---   0.7 Broken Clouds/
09/06/2005 11:55      20.0  10.0  20.6  15.9  53  1018   ---     E    14    14   ---   0.7 Broken Clouds/
09/06/2005 12:55      21.0  10.0  21.4  18.6  49  1018   ---     E    10    10   ---   0.7 Broken Clouds/
09/06/2005 13:55      21.0  11.0  21.6  17.2  53  1017   ---     E    14    14   ---   0.7 Broken Clouds/
09/06/2005 14:55      22.0  11.0  22.4  18.9  50  1017   ---   ESE    13    13   ---   0.7 Scattered Clouds/
09/06/2005 15:55      22.0  11.0  22.4  18.5  50  1016   ---     E    14    14   ---   0.7 Broken Clouds/
09/06/2005 15:55      22.0  11.0  22.4  18.5  50  1016   ---     E    14    14   ---   0.7 Broken Clouds/None reported
09/06/2005 16:55      22.0  11.0  22.4  18.5  50  1016   ---   ESE    14    14   ---   0.8 Broken Clouds/
08/06/2005 18:55      23.0  17.0  24.6  19.2  69  1018   ---     N    18    18   ---   0.5 Scattered Clouds/
09/06/2005 19:55      20.0  10.0  20.6  17.8  53  1015   ---   ENE     8     8   ---   0.8 Broken Clouds/
09/06/2005 20:55      20.0   8.0  20.2  17.4  46  1015   ---   ENE    10    10   ---   0.8 Broken Clouds/
10/06/2005 07:55      14.0   9.0  15.8  12.3  72  1015   ---     N     6     6   ---   --- Overcast/ Light Rain
10/06/2005 08:55      14.0  10.0  16.1   8.7  77  1015   ---   SSW    13    13   ---   0.6 Broken Clouds/
10/06/2005 09:55      16.0  11.0  17.8  16.0  72  1014   ---     N     0     0   ---   0.7 Few Clouds/
10/06/2005 11:55      19.0  11.0  20.0  15.1  60  1014   ---     N    13    13   ---   0.6 Scattered Clouds/
10/06/2005 12:55      18.0  11.0  19.2  12.6  64  1015   ---   NNE    16    16   ---   0.6 Scattered Clouds/
10/06/2005 12:55      18.0  11.0  19.2  12.6  64  1015   ---   NNE    16    16   ---   0.6 Scattered Clouds/None reported
10/06/2005 19:55      19.0  11.0  20.0  13.2  60  1015   ---     N    19    19   ---   0.7 Scattered Clouds/
10/06/2005 20:55      18.0  11.0  19.2  18.0  64  1015   ---     N     5     5   ---   0.7 Scattered Clouds/
11/06/2005 07:55      15.0  11.0  17.1  13.3  77  1016   ---     W     6     6   ---   0.6 Few Clouds/
10/06/2005 08:55      14.0  10.0  16.1   8.7  77  1015   ---   SSW    13    13   ---   0.6 Broken Clouds/
11/06/2005 09:55      20.0  11.0  20.8  20.0  56  1017   ---   ESE     3     3   ---   0.6 Few Clouds/
11/06/2005 10:55      21.0  10.0  21.4  19.9  49  1017   ---    NE     6     6   ---   0.7 Scattered Clouds/
10/06/2005 11:55      19.0  11.0  20.0  15.1  60  1014   ---     N    13    13   ---   0.6 Scattered Clouds/
11/06/2005 12:55      21.0  10.0  21.4  17.7  49  1017   ---     E    13    13   ---   0.8 Scattered Clouds/
11/06/2005 13:55      22.0  11.0  22.4  19.8  50  1017   ---   ESE    10    10   ---   0.8 Scattered Clouds/
11/06/2005 14:55      22.0  12.0  22.6  18.5  53  1017   ---   ESE    14    14   ---   0.8 Scattered Clouds/
11/06/2005 15:55      22.0  12.0  22.6  18.5  53  1016   ---     E    14    14   ---   0.8 Scattered Clouds/
11/06/2005 17:55      21.0  12.0  21.8  17.7  56  1016   ---   ESE    13    13   ---   0.8 Scattered Clouds/
11/06/2005 18:55      20.0  11.0  20.8  17.8  56  1016   ---     E     8     8   ---   0.8 Scattered Clouds/
11/06/2005 19:55      20.0  12.0  21.0  17.4  60  1016   ---   ENE    10    10   ---   0.8 Scattered Clouds/
11/06/2005 20:55      20.0  12.0  21.0  18.8  60  1016   ---   ESE     6     6   ---   0.8 Scattered Clouds/
12/06/2005 07:55      16.0  11.0  17.8  16.0  72  1015   ---   WSW     5     5   ---   3.3 Few Clouds/
12/06/2005 07:55      16.0  11.0  17.8  16.0  72  1015   ---   WSW     5     5   ---   0.1 Few Clouds/None reported
12/06/2005 08:55      18.0  12.0  19.5  18.0  68  1014   ---     S     3     3   ---   3.3 Few Clouds/
12/06/2005 09:55      21.0  11.0  21.6  21.0  53  1014   ---     N     0     0   ---   6.0 Few Clouds/
12/06/2005 10:55      22.0  11.0  22.4  22.0  50  1014   ---     E     3     3   ---   6.0 Few Clouds/
12/06/2005 10:55      22.0  11.0  22.4  22.0  50  1014   ---     E     3     3   ---   0.0 Few Clouds/None reported
12/06/2005 11:55      23.0  10.0  23.1  21.0  44  1014   ---     E    10    10   ---   --- /
12/06/2005 12:55      23.0  11.0  23.3  21.0  47  1014   ---     E    10    10   ---   6.0 Few Clouds/
12/06/2005 13:55      24.0  14.0  24.6  21.5  54  1014   ---     E    13    13   ---   3.3 Broken Clouds/
12/06/2005 14:55      24.0  15.0  24.8  21.5  57  1014   ---     E    13    13   ---   6.0 Few Clouds/
12/06/2005 15:55      23.0  15.0  24.1  21.0  61  1014   ---     E    10    29   ---   3.3 Broken Clouds/
11/06/2005 16:55      21.0  12.0  21.8  18.6  56  1016   ---     E    10    10   ---   0.8 Scattered Clouds/
12/06/2005 17:55      23.0  14.0  23.8  21.0  57  1014   ---   ESE    10    10   ---   --- /
12/06/2005 18:55      23.0  14.0  23.8  21.0  57  1013   ---     E    10    10   ---   --- /
12/06/2005 19:55      23.0  13.0  23.6  21.0  53  1013   ---     E    10    10   ---   --- /
12/06/2005 20:55      22.0  13.0  22.8  22.0  57  1013   ---     E     5     5   ---   --- /
13/06/2005 07:55      19.0  14.0  20.8  19.0  73  1011   ---     N     0     0   ---   --- /
13/06/2005 08:55      22.0  15.0  23.3  22.0  65  1011   ---    SE     3     3   ---   --- /
13/06/2005 09:55      24.0  15.0  24.8  24.0  57  1011   ---     N     0     0   ---   6.0 Scattered Clouds/
13/06/2005 10:55      25.0  14.0  25.5  24.3  51  1012   ---   ENE     6     6   ---   --- /
13/06/2005 11:55      25.0  15.0  25.7  25.0  54  1012   ---     E     3     3   ---   --- /
13/06/2005 12:55      26.0  18.0  27.1  24.8  61  1012   ---     E     8     8   ---   --- /
13/06/2005 13:55      25.0  19.0  26.6  21.7  69  1013   ---     E    19    19   ---   --- /
13/06/2005 14:55      26.0  18.0  27.1  24.8  61  1012   ---   ENE     8     8   ---   --- /
13/06/2005 15:55      27.0  17.0  27.7  24.9  54  1012   ---     E    16    16   ---   --- /
13/06/2005 16:55      27.0  16.0  27.5  24.9  51  1011   ---     E    16    16   ---   --- /
13/06/2005 17:55      28.0  17.0  28.6  28.0  51  1011   ---   ENE     3     3   ---   --- /
13/06/2005 18:55      29.0  16.0  29.1  29.0  45  1010   ---     E     3     3   ---   --- /
13/06/2005 19:55      29.0  17.0  29.5  29.0  48  1010   ---     N     0     0   ---   --- /
13/06/2005 20:55      26.0  21.0  27.9  23.5  74  1011   ---    SE    16    16   ---   0.6 Scattered Clouds/
14/06/2005 07:55      21.0  18.0  23.6  21.0  83  1012   ---     N     0     0   ---   --- /
14/06/2005 08:55      22.0  18.0  24.2  22.0  78  1013   ---   ---     0     0   ---   6.0 Scattered Clouds/
14/06/2005 09:55      23.0  20.0  25.6  23.0  83  1014   ---   ENE     5     5   ---   6.0 Scattered Clouds/
14/06/2005 10:55      25.0  20.0  26.9  25.0  74  1014   ---     E     3     3   ---   6.0 Scattered Clouds/
14/06/2005 11:55      27.0  19.0  28.2  26.4  62  1014   ---   ENE     6     6   ---   6.0 Scattered Clouds/
14/06/2005 12:55      27.0  19.0  28.2  26.0  62  1014   ---   ENE     8     8   ---   6.0 Broken Clouds/
14/06/2005 13:55      26.0  20.0  27.6  24.6  70  1014   ---   ESE    10    10   ---   6.0 Broken Clouds/
14/06/2005 14:55      27.0  19.0  28.2  26.0  62  1014   ---   SSE     8     8   ---   6.0 Few Clouds/
14/06/2005 15:55      26.0  18.0  27.1  24.1  61  1014   ---     E    13    13   ---   0.7 Few Clouds/
14/06/2005 16:55      27.0  17.0  27.7  26.0  54  1014   ---     E     8     8   ---   --- /
14/06/2005 17:55      27.0  17.0  27.7  26.0  54  1014   ---     E     8     8   ---   0.7 Few Clouds/
14/06/2005 18:55      27.0  18.0  27.9  26.0  58  1014   ---   ESE     8     8   ---   --- /
14/06/2005 19:55      25.0  19.0  26.6  23.7  69  1014   ---   NNE     8     8   ---   --- /
14/06/2005 20:55      24.0  21.0  26.6  21.5  83  1014   ---   NNE    13    13   ---   0.4 Few Clouds/
15/06/2005 07:55      21.0  18.0  23.6  21.0  83  1015   ---     S     5     5   ---   0.5 Broken Clouds/
15/06/2005 08:55      22.0  19.0  24.6  22.0  83  1016   ---     S     5     5   ---   0.5 Scattered Clouds/
15/06/2005 09:55      24.0  19.0  25.9  24.0  74  1016   ---   ENE     5     5   ---   0.5 Scattered Clouds/
15/06/2005 10:55      25.0  20.0  26.9  24.3  74  1016   ---     E     6     6   ---   0.5 Scattered Clouds/
15/06/2005 11:55      26.0  20.0  27.6  24.8  70  1016   ---   ESE     8     8   ---   0.6 Scattered Clouds/
15/06/2005 12:55      26.0  20.0  27.6  24.6  70  1016   ---   ESE    10    10   ---   0.6 Few Clouds/
15/06/2005 13:55      27.0  21.0  28.8  26.0  70  1016   ---     E     8     8   ---   0.6 Few Clouds/
15/06/2005 14:55      26.0  20.0  27.6  24.6  70  1015   ---   ESE    10    10   ---   0.6 Broken Clouds/
15/06/2005 15:55      26.0  20.0  27.6  24.6  70  1015   ---    NE    10    10   ---   0.6 Scattered Clouds/
15/06/2005 16:55      26.0  20.0  27.6  24.1  70  1014   ---    NE    13    13   ---   0.6 Scattered Clouds/
15/06/2005 17:55      25.0  20.0  26.9  22.5  74  1015   ---   ESE    14    14   ---   0.5 Broken Clouds/
15/06/2005 18:55      24.0  19.0  25.9  22.5  74  1015   ---    SE     8     8   ---   0.4 Overcast/
15/06/2005 19:55      24.0  19.0  25.9  24.0  74  1015   ---     E     3     3   ---   0.5 Broken Clouds/
15/06/2005 19:55      24.0  19.0  25.9  24.0  74  1015   ---     E     3     3   ---   0.5 Broken Clouds/None reported
15/06/2005 08:55      22.0  19.0  24.6  22.0  83  1016   ---     S     5     5   ---   0.5 Scattered Clouds/
16/06/2005 08:55      20.0  17.0  22.6  20.0  83  1015   ---     N     0     0   ---   6.0 Scattered Clouds/
16/06/2005 09:55      23.0  18.0  24.9  23.0  73  1016   ---   ENE     3     3   ---   0.6 Scattered Clouds/
16/06/2005 10:55      23.0  17.0  24.6  20.2  69  1016   ---   NNW    13    13   ---   0.6 Broken Clouds/
16/06/2005 11:55      24.0  17.0  25.3  22.2  65  1015   ---     N    10    10   ---   0.6 Scattered Clouds/
16/06/2005 12:55      24.0  17.0  25.3  21.5  65  1015   ---   NNE    13    13   ---   0.7 Broken Clouds/
16/06/2005 13:55      23.0  17.0  24.6  19.8  69  1015   ---   NNW    14    14   ---   0.7 Broken Clouds/
16/06/2005 14:55      23.0  19.0  25.2  18.7  78  1015   ---   NNW    21    21   ---   0.7 Broken Clouds/
16/06/2005 16:55      23.0  17.0  24.6  19.8  69  1015   ---   NNE    14    14   ---   0.7 Broken Clouds/
16/06/2005 17:55      22.0  18.0  24.2  18.9  78  1016   ---   NNE    13    13   ---   0.6 Broken Clouds/
16/06/2005 18:55      22.0  19.0  24.6  19.8  83  1016   ---     N    10    10   ---   0.6 Broken Clouds/
16/06/2005 19:55      22.0  18.0  24.2  20.2  78  1016   ---     N     8     8   ---   0.6 Broken Clouds/
16/06/2005 20:55      20.0  18.0  23.0  20.0  88  1016   ---     N     0     0   ---   0.7 Broken Clouds/
17/06/2005 07:55      19.0  15.0  21.2  19.0  78  1018   ---   ---     0     0   ---   --- /
17/06/2005 08:55      20.0  16.0  22.2  20.0  78  1018   ---   ---     0     0   ---   3.0 Scattered Clouds/
16/06/2005 09:55      23.0  18.0  24.9  23.0  73  1016   ---   ENE     3     3   ---   0.6 Scattered Clouds/
17/06/2005 10:55      24.0  17.0  25.3  22.5  65  1018   ---     E     8     8   ---   3.0 Scattered Clouds/
17/06/2005 12:55      25.0  18.0  26.3  22.0  65  1019   ---     E    18    18   ---   3.0 Scattered Clouds/
17/06/2005 13:55      25.0  17.0  26.1  22.0  61  1019   ---   ESE    18    18   ---   3.0 Scattered Clouds/
17/06/2005 14:55      25.0  19.0  26.6  21.6  69  1020   ---     E    21    21   ---   0.7 Scattered Clouds/
17/06/2005 15:55      24.0  18.0  25.6  20.6  69  1020   ---     E    18    18   ---   0.7 Broken Clouds/
17/06/2005 16:55      25.0  18.0  26.3  22.0  65  1020   ---     E    18    18   ---   0.7 Broken Clouds/
17/06/2005 17:55      25.0  16.0  25.9  23.7  57  1020   ---     E     8     8   ---   3.0 Scattered Clouds/
17/06/2005 18:55      25.0  14.0  25.5  24.3  51  1019   ---    NE     6     6   ---   0.7 Broken Clouds/
17/06/2005 19:55      25.0  13.0  25.3  25.0  47  1019   ---     N     0     0   ---   3.0 Broken Clouds/
17/06/2005 20:55      23.0  13.0  23.6  23.0  53  1019   ---   ---     0     0   ---   3.0 Broken Clouds/
17/06/2005 20:55      23.0  13.0  23.6  23.0  53  1019   ---   ---     0     0   ---   0.7 Broken Clouds/None reported
18/06/2005 07:55      20.0  16.0  22.2  20.0  78  1018   ---   WSW     3     3   ---   --- / Thunderstorm
18/06/2005 08:55      20.0  18.0  23.0  17.8  88  1019   ---    SW     8     8   ---   --- / Thunderstorm
18/06/2005 09:55      18.0  17.0  21.5  15.5  94  1020   ---   WSW     8     8   ---   0.3 Overcast/
18/06/2005 10:55      18.0  16.0  21.0  12.4  88  1019   ---    SW    18    18   ---   0.7 Overcast/
18/06/2005 11:55      21.0  18.0  23.6  21.0  83  1019   ---     S     5     5   ---   2.4 Broken Clouds/
17/06/2005 13:55      25.0  17.0  26.1  22.0  61  1019   ---   ESE    18    18   ---   3.0 Scattered Clouds/
18/06/2005 14:55      26.0  19.0  27.3  24.1  65  1018   ---     E    13    13   ---   0.7 Broken Clouds/
18/06/2005 15:55      25.0  19.0  26.6  23.7  69  1017   ---   ENE     8     8   ---   0.7 Scattered Clouds/
18/06/2005 16:55      26.0  17.0  26.9  24.1  58  1017   ---     N    13    13   ---   0.7 Scattered Clouds/
18/06/2005 17:55      26.0  16.0  26.7  24.6  54  1017   ---    NW    10    10   ---   0.7 Few Clouds/
18/06/2005 18:55      25.0  18.0  26.3  22.5  65  1017   ---   NNE    14    14   ---   0.7 Few Clouds/
18/06/2005 19:55      25.0  18.0  26.3  23.4  65  1016   ---   NNE    10    10   ---   0.7 Few Clouds/
18/06/2005 20:55      23.0  19.0  25.2  23.0  78  1016   ---     N     0     0   ---   --- /
19/06/2005 07:55      19.0  15.0  21.2  19.0  78  1015   ---    SW     5     5   ---   --- /
19/06/2005 08:55      21.0  17.0  23.2  21.0  78  1016   ---     N     0     0   ---   --- /
19/06/2005 09:55      23.0  18.0  24.9  23.0  73  1016   ---   ---     0     0   ---   --- /
19/06/2005 11:55      26.0  18.0  27.1  26.0  61  1015   ---     E     5     5   ---   --- /
19/06/2005 12:55      26.0  18.0  27.1  23.8  61  1015   ---     E    14    14   ---   --- /
19/06/2005 13:55      27.0  18.0  27.9  25.8  58  1015   ---   ESE    10    10   ---   --- /
19/06/2005 14:55      27.0  18.0  27.9  25.8  58  1015   ---     E    10    10   ---   0.7 Few Clouds/
19/06/2005 15:55      27.0  17.0  27.7  25.1  54  1014   ---   ESE    14    14   ---   0.7 Few Clouds/
18/06/2005 16:55      26.0  17.0  26.9  24.1  58  1017   ---     N    13    13   ---   0.7 Scattered Clouds/
19/06/2005 17:55      27.0  18.0  27.9  24.9  58  1014   ---    NE    16    16   ---   0.7 Few Clouds/
19/06/2005 18:55      26.0  18.0  27.1  24.6  61  1014   ---    NE    10    10   ---   --- /
19/06/2005 19:55      25.0  19.0  26.6  22.8  69  1014   ---   SSE    13    13   ---   --- /
19/06/2005 20:55      24.0  20.0  26.2  22.2  78  1014   ---    SE    10    10   ---   --- /
20/06/2005 07:55      20.0  15.0  21.8  20.0  73  1014   ---     N     0     0   ---   3.0 Scattered Clouds/
20/06/2005 08:55      22.0  18.0  24.2  22.0  78  1014   ---   ---     0     0   ---   3.0 Scattered Clouds/
20/06/2005 09:55      24.0  19.0  25.9  24.0  74  1014   ---   ---     0     0   ---   3.0 Scattered Clouds/
20/06/2005 10:55      25.0  20.0  26.9  25.0  74  1014   ---   ---     0     0   ---   3.0 Scattered Clouds/
20/06/2005 11:55      26.0  18.0  27.1  24.8  61  1014   ---     E     8     8   ---   3.0 Scattered Clouds/
20/06/2005 12:55      27.0  19.0  28.2  24.7  62  1014   ---     E    18    18   ---   0.7 Broken Clouds/
20/06/2005 13:55      26.0  19.0  27.3  25.4  65  1014   ---   NNE     6     6   ---   0.7 Broken Clouds/
20/06/2005 14:55      26.0  19.0  27.3  24.6  65  1014   ---    SE    10    10   ---   0.7 Scattered Clouds/
20/06/2005 15:55      27.0  18.0  27.9  25.8  58  1014   ---   ESE    10    10   ---   0.7 Scattered Clouds/
20/06/2005 16:55      27.0  20.0  28.5  24.7  66  1014   ---   ENE    18    18   ---   0.7 Scattered Clouds/
20/06/2005 17:55      27.0  21.0  28.8  24.9  70  1014   ---    NE    16    16   ---   0.7 Few Clouds/
20/06/2005 18:55      26.0  19.0  27.3  24.1  65  1014   ---    NE    13    13   ---   0.7 Broken Clouds/
20/06/2005 19:55      26.0  20.0  27.6  25.4  70  1014   ---   ESE     6     6   ---   3.0 Scattered Clouds/
20/06/2005 20:55      24.0  21.0  26.6  22.5  83  1014   ---   ESE     8     8   ---   3.0 Scattered Clouds/
21/06/2005 07:55      21.0  17.0  23.2  21.0  78  1014   ---    SW     3     3   ---   --- /
21/06/2005 08:55      22.0  18.0  24.2  22.0  78  1015   ---     N     0     0   ---   --- /
21/06/2005 09:55      24.0  19.0  25.9  24.0  74  1015   ---    NE     3     3   ---   --- /
21/06/2005 10:55      26.0  19.0  27.3  26.0  65  1015   ---   NNW     5     5   ---   --- /
21/06/2005 11:55      27.0  20.0  28.5  26.4  66  1015   ---    NE     6     6   ---   --- /
21/06/2005 12:55      27.0  21.0  28.8  26.0  70  1015   ---     E     8     8   ---   0.7 Few Clouds/
21/06/2005 13:55      27.0  20.0  28.5  25.8  66  1016   ---     E    10    10   ---   0.7 Few Clouds/
21/06/2005 14:55      27.0  20.0  28.5  25.1  66  1016   ---     E    14    14   ---   0.7 Few Clouds/
21/06/2005 15:55      28.0  20.0  29.7  27.2  62  1016   ---   NNE     8     8   ---   0.6 Scattered Clouds/
21/06/2005 16:55      27.0  19.0  28.2  26.0  62  1016   ---    NE     8     8   ---   0.6 Few Clouds/
21/06/2005 17:55      27.0  20.0  28.5  25.3  66  1016   ---   NNE    13    13   ---   0.6 Few Clouds/
21/06/2005 18:55      26.0  20.0  27.6  24.6  70  1016   ---   ESE    10    10   ---   0.6 Few Clouds/
21/06/2005 19:55      24.0  21.0  26.6  22.2  83  1016   ---   ESE    10    10   ---   0.5 Broken Clouds/
21/06/2005 20:55      24.0  21.0  26.6  23.2  83  1016   ---     E     6     6   ---   0.5 Scattered Clouds/
22/06/2005 07:55      21.0  17.0  23.2  21.0  78  1018   ---     N     0     0   ---   --- /
22/06/2005 08:55      24.0  19.0  25.9  24.0  74  1018   ---   ---     0     0   ---   --- /
22/06/2005 09:55      26.0  18.0  27.1  26.0  61  1019   ---   ---     0     0   ---   --- /
22/06/2005 10:55      26.0  16.0  26.7  24.1  54  1019   ---   ENE    13    13   ---   --- /
21/06/2005 13:55      27.0  20.0  28.5  25.8  66  1016   ---     E    10    10   ---   0.7 Few Clouds/
22/06/2005 14:55      28.0  15.0  28.0  26.4  45  1020   ---     E    14    14   ---   0.7 Few Clouds/
22/06/2005 16:55      28.0  19.0  29.3  26.1  58  1020   ---     E    18    18   ---   --- /
22/06/2005 17:55      27.0  19.0  28.2  25.8  62  1020   ---     E    10    10   ---   --- /
22/06/2005 18:55      27.0  20.0  28.5  25.1  66  1020   ---     E    14    14   ---   --- /
22/06/2005 19:55      25.0  20.0  26.9  23.7  74  1020   ---   ESE     8     8   ---   --- /
22/06/2005 20:55      24.0  20.0  26.2  22.5  78  1020   ---   ESE     8     8   ---   --- /
23/06/2005 07:55      20.0  15.0  21.8  18.8  73  1021   ---    SW     6     6   ---   --- /
23/06/2005 08:55      23.0  17.0  24.6  23.0  69  1021   ---     N     0     0   ---   --- /
23/06/2005 09:55      25.0  18.0  26.3  25.0  65  1021   ---     E     3     3   ---   --- /
23/06/2005 10:55      27.0  15.0  27.3  27.0  48  1021   ---    NE     3     3   ---   --- /
23/06/2005 11:55      28.0  13.0  27.6  28.0  40  1021   ---     N     3     3   ---   --- /
23/06/2005 13:55      29.0  14.0  28.6  27.9  40  1021   ---     E    13    13   ---   --- /
23/06/2005 14:55      28.0  11.0  27.3  26.2  35  1021   ---   ESE    16    16   ---   --- /
23/06/2005 14:55      28.0  11.0  27.3  26.2  35  1021   ---   ESE    16    16   ---   --- None reported/None reported
23/06/2005 15:55      28.0  13.0  27.6  26.6  40  1020   ---     E    13    13   ---   --- /
23/06/2005 16:55      28.0  17.0  28.6  26.4  51  1020   ---     E    14    14   ---   --- /
23/06/2005 17:55      27.0  18.0  27.9  25.1  58  1020   ---     E    14    14   ---   --- /
23/06/2005 18:55      27.0  17.0  27.7  25.8  54  1020   ---     E    10    10   ---   --- /
23/06/2005 19:55      25.0  19.0  26.6  23.7  69  1019   ---     E     8     8   ---   --- /
23/06/2005 20:55      24.0  19.0  25.9  24.0  74  1019   ---   ESE     5     5   ---   --- /
24/06/2005 07:55      22.0  13.0  22.8  22.0  57  1019   ---    SW     5     5   ---   --- /
24/06/2005 08:55      24.0  14.0  24.6  24.0  54  1019   ---     N     0     0   ---   --- /
23/06/2005 09:55      25.0  18.0  26.3  25.0  65  1021   ---     E     3     3   ---   --- /
24/06/2005 11:55      29.0  11.0  28.0  28.6  33  1019   ---     E     6     6   ---   --- /
24/06/2005 12:55      29.0  11.0  28.0  28.3  33  1019   ---     E     8     8   ---   --- /
24/06/2005 14:55      30.0   9.0  28.6  29.5  27  1018   ---     E     8     8   ---   --- /
24/06/2005 15:55      30.0  10.0  28.7  29.5  29  1018   ---     E     8     8   ---   --- /
24/06/2005 16:55      29.0  11.0  28.0  27.9  33  1018   ---     E    13    13   ---   --- /
24/06/2005 17:55      28.0  13.0  27.6  26.6  40  1018   ---     E    13    13   ---   --- /
24/06/2005 18:55      28.0  14.0  27.8  27.2  42  1018   ---     E     8     8   ---   --- /
24/06/2005 19:55      27.0  16.0  27.5  26.4  51  1018   ---   ESE     6     6   ---   --- /
24/06/2005 20:55      25.0  18.0  26.3  25.0  65  1018   ---    SE     5     5   ---   --- /
25/06/2005 07:55      23.0  15.0  24.1  23.0  61  1017   ---     N     0     0   ---   --- /
25/06/2005 08:55      25.0  17.0  26.1  25.0  61  1018   ---     S     5     5   ---   --- /
25/06/2005 09:55      26.0  15.0  26.5  26.0  51  1018   ---     N     0     0   ---   --- /
25/06/2005 10:55      28.0  17.0  28.6  26.6  51  1018   ---   ENE    13    13   ---   --- /
24/06/2005 11:55      29.0  11.0  28.0  28.6  33  1019   ---     E     6     6   ---   --- /
25/06/2005 12:55      28.0  18.0  28.9  27.0  55  1019   ---     E    10    10   ---   --- /
24/06/2005 15:55      30.0  10.0  28.7  29.5  29  1018   ---     E     8     8   ---   --- /
25/06/2005 08:55      25.0  17.0  26.1  25.0  61  1018   ---     S     5     5   ---   --- /
25/06/2005 10:55      28.0  17.0  28.6  26.6  51  1018   ---   ENE    13    13   ---   --- /
26/06/2005 10:55      29.0  16.0  29.1  29.0  45  1019   ---   ENE     3     3   ---   --- /
26/06/2005 12:55      29.0  19.0  30.3  28.2  55  1020   ---     E    10    10   ---   --- /
26/06/2005 13:55      29.0  18.0  29.9  27.9  52  1020   ---   ESE    13    13   ---   --- /
26/06/2005 14:55      29.0  18.0  29.9  27.9  52  1020   ---     E    13    13   ---   --- /
26/06/2005 15:55      29.0  20.0  30.8  28.2  58  1020   ---   ESE    10    10   ---   --- /
26/06/2005 16:55      29.0  22.0  32.0  28.3  66  1019   ---     E     8     8   ---   --- /
26/06/2005 17:55      29.0  18.0  29.9  28.2  52  1019   ---     E    10    10   ---   --- /
26/06/2005 18:55      28.0  20.0  29.7  27.2  62  1019   ---     E     8     8   ---   --- /
26/06/2005 19:55      28.0  22.0  30.7  27.5  70  1019   ---     E     6     6   ---   --- /
26/06/2005 20:55      27.0  22.0  29.2  27.0  74  1019   ---    SE     3     3   ---   --- /
26/06/2005 20:55      27.0  22.0  29.2  27.0  74  1019   ---    SE     3     3   ---   --- None reported/None reported
27/06/2005 07:55      23.0  15.0  24.1  23.0  61  1018   ---     N     0     0   ---   --- /
27/06/2005 08:55      26.0  15.0  26.5  26.0  51  1018   ---     E     3     3   ---   --- /
27/06/2005 09:55      28.0  15.0  28.0  28.0  45  1018   ---   ESE     3     3   ---   --- /
27/06/2005 10:55      29.0  13.0  28.4  29.0  37  1018   ---   ENE     5     5   ---   --- /
27/06/2005 11:55      30.0  14.0  29.4  29.4  38  1018   ---     E    10    10   ---   --- /
27/06/2005 12:55      30.0  15.0  29.7  29.5  40  1018   ---     E     8     8   ---   --- /
27/06/2005 13:55      31.0  13.0  30.1  30.6  33  1018   ---     E    10    10   ---   --- /
27/06/2005 14:55      31.0  12.0  29.9  30.6  31  1018   ---     E    10    10   ---   --- /
27/06/2005 15:55      31.0  13.0  30.1  30.6  33  1017   ---     E    10    10   ---   --- /
27/06/2005 16:55      30.0  12.0  29.0  29.5  33  1017   ---   ESE     8     8   ---   --- /
27/06/2005 17:55      30.0  14.0  29.4  29.4  38  1017   ---     E    10    10   ---   --- /
27/06/2005 18:55      30.0  14.0  29.4  29.4  38  1017   ---     E    10    10   ---   --- /
27/06/2005 19:55      29.0  16.0  29.1  28.3  45  1016   ---     E     8     8   ---   --- /
27/06/2005 20:55      27.0  18.0  27.9  27.0  58  1016   ---    SE     5     5   ---   --- /
28/06/2005 07:55      25.0  18.0  26.3  23.7  65  1015   ---   WSW     8     8   ---   --- /
28/06/2005 08:55      27.0  18.0  27.9  27.0  58  1015   ---     N     0     0   ---   --- /
28/06/2005 09:55      28.0  17.0  28.6  28.0  51  1016   ---   ---     0     0   ---   --- /
28/06/2005 10:55      28.0  19.0  29.3  27.5  58  1016   ---     E     6     6   ---   --- /
28/06/2005 12:55      30.0  21.0  32.6  29.4  59  1016   ---     E    10    10   ---   --- /
28/06/2005 14:55      31.0  21.0  33.8  30.6  55  1016   ---     E    10    10   ---   --- /
28/06/2005 15:55      30.0  22.0  33.3  29.2  62  1015   ---     E    13    13   ---   --- /
28/06/2005 16:55      30.0  18.0  30.8  29.2  49  1015   ---     E    13    13   ---   --- /
28/06/2005 17:55      31.0  17.0  31.4  30.7  43  1015   ---     E     8     8   ---   --- /
28/06/2005 19:55      30.0  18.0  30.8  29.5  49  1014   ---     E     8     8   ---   --- /
28/06/2005 20:55      29.0  17.0  29.5  28.3  48  1014   ---   ESE     8     8   ---   --- /
29/06/2005 07:55      25.0  14.0  25.5  24.3  51  1012   ---   WSW     6     6   ---   --- /
29/06/2005 08:55      27.0  14.0  27.1  27.0  45  1012   ---     N     0     0   ---   --- /
29/06/2005 09:55      29.0  15.0  28.9  29.0  43  1013   ---   ---     0     0   ---   --- /
29/06/2005 10:55      30.0  19.0  31.3  29.5  52  1013   ---     E     8     8   ---   --- /
29/06/2005 11:55      31.0  18.0  31.9  30.8  46  1013   ---     E     6     6   ---   --- /
29/06/2005 12:55      32.0  17.0  32.4  31.8  41  1013   ---     E     8     8   ---   --- /
29/06/2005 13:55      32.0  18.0  32.9  31.7  43  1013   ---     E    13    13   ---   --- /
29/06/2005 14:55      32.0  17.0  32.4  31.8  41  1012   ---   ESE     8     8   ---   --- /
29/06/2005 15:55      32.0  15.0  31.6  31.8  36  1012   ---   ESE     8     8   ---   --- /
29/06/2005 16:55      32.0  13.0  31.0  31.8  32  1012   ---     E    10    10   ---   --- /
29/06/2005 17:55      32.0  15.0  31.6  31.8  36  1012   ---   ESE     8     8   ---   --- /
28/06/2005 18:55      31.0  17.0  31.4  30.7  43  1014   ---   ESE     8     8   ---   --- /
29/06/2005 20:55      29.0  16.0  29.1  29.0  45  1011   ---     N     0     0   ---   --- /
30/06/2005 07:55      27.0  12.0  26.8  26.0  39  1010   ---   WSW     8     8   ---   --- /
29/06/2005 08:55      27.0  14.0  27.1  27.0  45  1012   ---     N     0     0   ---   --- /
30/06/2005 09:55      31.0  15.0  30.6  31.0  38  1011   ---   NNE     3     3   ---   --- /
30/06/2005 10:55      32.0  15.0  31.6  32.0  36  1011   ---     E     5     5   ---   --- /
29/06/2005 11:55      31.0  18.0  31.9  30.8  46  1013   ---     E     6     6   ---   --- /
30/06/2005 12:55      34.0  16.0  34.1  34.0  34  1012   ---     E     6     6   ---   --- /
30/06/2005 13:55      37.0  15.0  37.0  37.0  27  1012   ---   WSW    14    14   ---   --- /
30/06/2005 14:55      38.0  14.0  37.7  38.0  24  1011   ---     W    13    13   ---   --- /
30/06/2005 15:55      36.0  17.0  36.9  36.0  33  1011   ---   ENE    14    14   ---   0.8 Few Clouds/
30/06/2005 17:55      32.0  24.0  37.9  31.9  63  1011   ---   NNE     6     6   ---   --- /
30/06/2005 18:55      31.0  24.0  36.6  31.0  66  1011   ---   NNE     5     5   ---   --- /
30/06/2005 19:55      31.0  22.0  34.6  30.7  59  1011   ---   ENE     8     8   ---   --- /
30/06/2005 20:55      29.0  24.0  33.6  29.0  75  1012   ---    NE     3     3   ---   --- /
01/07/2005 07:55      25.0  21.0  27.2  25.0  79  1012   ---     N     0     0   ---   3.0 Scattered Clouds/
01/07/2005 08:55      26.0  22.0  28.3  25.4  79  1012   ---     E     6     6   ---   0.4 Broken Clouds/
01/07/2005 09:55      27.0  22.0  29.2  26.0  74  1013   ---   ESE     8     8   ---   0.4 Scattered Clouds/
01/07/2005 10:55      28.0  23.0  31.3  26.6  74  1012   ---    NE    13    13   ---   0.4 Scattered Clouds/
01/07/2005 12:55      30.0  25.0  36.2  29.5  75  1013   ---     E     8     8   ---   0.4 Scattered Clouds/
01/07/2005 15:55      30.0  25.0  36.2  28.9  75  1013   ---   ESE    18    18   ---   0.4 Scattered Clouds/
30/06/2005 17:55      32.0  24.0  37.9  31.9  63  1011   ---   NNE     6     6   ---   --- /
01/07/2005 18:55      29.0  25.0  34.5  28.3  79  1012   ---     E     8     8   ---   3.0 Scattered Clouds/
01/07/2005 19:55      28.0  25.0  32.7  26.4  84  1012   ---     N    14    14   ---   0.5 Scattered Clouds/
01/07/2005 20:55      27.0  24.0  30.1  26.4  84  1012   ---   NNE     6     6   ---   0.4 Scattered Clouds/
02/07/2005 07:55      24.0  20.0  26.2  20.8  78  1012   ---    NW    16    16   ---   0.7 Scattered Clouds/
02/07/2005 08:55      25.0  19.0  26.6  22.8  69  1013   ---   NNW    13    13   ---   0.7 Scattered Clouds/
02/07/2005 09:55      26.0  21.0  27.9  24.1  74  1013   ---   NNW    13    13   ---   0.7 Scattered Clouds/
02/07/2005 10:55      26.0  20.0  27.6  23.8  70  1013   ---    NW    14    14   ---   0.7 Scattered Clouds/
02/07/2005 11:55      27.0  19.0  28.2  24.5  62  1013   ---   NNW    19    19   ---   0.7 Scattered Clouds/
02/07/2005 12:55      27.0  19.0  28.2  25.1  62  1013   ---    NW    14    14   ---   0.7 Scattered Clouds/
02/07/2005 13:55      28.0  20.0  29.7  26.2  62  1014   ---    NW    16    16   ---   0.7 Scattered Clouds/
02/07/2005 14:55      28.0  21.0  30.1  25.8  66  1014   ---   NNW    23    23   ---   0.7 Scattered Clouds/
02/07/2005 15:55      28.0  20.0  29.7  26.2  62  1013   ---   NNW    16    16   ---   0.7 Scattered Clouds/
02/07/2005 16:55      28.0  20.0  29.7  25.8  62  1013   ---   NNW    23    23   ---   0.7 Scattered Clouds/
02/07/2005 17:55      26.0  21.0  27.9  23.1  74  1013   ---    NW    19    19   ---   0.7 Scattered Clouds/
02/07/2005 18:55      25.0  20.0  26.9  21.6  74  1013   ---   NNW    21    21   ---   0.7 Scattered Clouds/
02/07/2005 19:55      25.0  20.0  26.9  21.7  74  1013   ---    NW    19    19   ---   0.7 Scattered Clouds/
02/07/2005 20:55      24.0  20.0  26.2  22.2  78  1013   ---    NW    10    10   ---   0.7 Scattered Clouds/
03/07/2005 07:55      23.0  19.0  25.2  23.0  78  1013   ---    NW     3     3   ---   0.5 Few Clouds/
03/07/2005 08:55      25.0  19.0  26.6  22.8  69  1013   ---    NW    13    13   ---   0.5 Few Clouds/
03/07/2005 09:55      26.0  19.0  27.3  23.8  65  1014   ---    NW    14    14   ---   0.5 Scattered Clouds/
03/07/2005 10:55      27.0  19.0  28.2  24.9  62  1014   ---   NNW    16    16   ---   0.5 Scattered Clouds/
03/07/2005 11:55      28.0  19.0  29.3  26.2  58  1014   ---     N    16    16   ---   0.6 Scattered Clouds/
03/07/2005 12:55      28.0  17.0  28.6  26.4  51  1014   ---     N    14    14   ---   0.6 Scattered Clouds/
03/07/2005 13:55      29.0  17.0  29.5  27.3  48  1014   ---   NNW    21    21   ---   0.6 Few Clouds/
03/07/2005 14:55      29.0  18.0  29.9  27.4  52  1014   ---   NNW    19    19   ---   0.6 Few Clouds/
02/07/2005 15:55      28.0  20.0  29.7  26.2  62  1013   ---   NNW    16    16   ---   0.7 Scattered Clouds/
03/07/2005 16:55      29.0  18.0  29.9  27.6  52  1014   ---    NW    16    16   ---   0.7 Few Clouds/
03/07/2005 17:55      28.0  17.0  28.6  26.6  51  1014   ---    NW    13    13   ---   0.7 Few Clouds/
03/07/2005 18:55      28.0  18.0  28.9  26.2  55  1013   ---   NNE    16    16   ---   --- /
03/07/2005 19:55      26.0  19.0  27.3  23.4  65  1013   ---   NNE    18    18   ---   0.7 Few Clouds/
03/07/2005 20:55      25.0  21.0  27.2  22.8  79  1013   ---     N    13    13   ---   0.7 Few Clouds/
04/07/2005 07:55      23.0  11.0  23.3  22.1  47  1013   ---   WSW     6     6   ---   --- /
04/07/2005 08:55      24.0  13.0  24.5  24.0  50  1013   ---     N     0     0   ---   --- /
04/07/2005 09:55      27.0  13.0  27.0  27.0  42  1013   ---    SE     3     3   ---   --- /
04/07/2005 10:55      29.0  14.0  28.6  29.0  40  1013   ---   ESE     3     3   ---   --- /
04/07/2005 11:55      29.0  17.0  29.5  29.0  48  1013   ---    NE     5     5   ---   --- /
04/07/2005 12:55      30.0  16.0  30.0  29.4  43  1013   ---     E    10    10   ---   --- /
04/07/2005 14:55      32.0  15.0  31.6  31.6  36  1012   ---   NNW    21    21   ---   --- /
04/07/2005 15:55      32.0  15.0  31.6  31.6  36  1012   ---   NNW    21    21   ---   --- /
04/07/2005 16:55      31.0  13.0  30.1  30.0  33  1012   ---   NNW    27    27   ---   --- /
04/07/2005 17:55      30.0  12.0  29.0  28.8  33  1012   ---   NNW    19    19   ---   --- /
04/07/2005 18:55      29.0  15.0  28.9  27.3  43  1011   ---   NNW    21    21   ---   --- /
04/07/2005 19:55      28.0  13.0  27.6  26.2  40  1011   ---    NW    16    16   ---   --- /
04/07/2005 20:55      27.0  13.0  27.0  25.1  42  1011   ---    NW    14    14   ---   --- /
05/07/2005 07:55      22.0  15.0  23.3  21.0  65  1011   ---    SW     6     6   ---   --- /
05/07/2005 08:55      24.0  17.0  25.3  24.0  65  1013   ---     N     0     0   ---   --- /
05/07/2005 09:55      26.0  19.0  27.3  26.0  65  1012   ---     N     5     5   ---   --- /
05/07/2005 11:55      28.0  21.0  30.1  26.6  66  1012   ---     E    13    13   ---   --- /
05/07/2005 12:55      29.0  20.0  30.8  29.0  58  1011   ---     E     5     5   ---   --- /
05/07/2005 13:55      29.0  21.0  31.4  27.9  62  1011   ---     E    13    13   ---   --- /
05/07/2005 14:55      29.0  21.0  31.4  27.9  62  1011   ---     E    13    13   ---   --- /
05/07/2005 15:55      30.0  20.0  31.9  29.7  55  1011   ---   ESE     6     6   ---   --- /
04/07/2005 16:55      31.0  13.0  30.1  30.0  33  1012   ---   NNW    27    27   ---   --- /
05/07/2005 17:55      28.0  22.0  30.7  26.1  70  1011   ---    SE    18    18   ---   --- /
05/07/2005 18:55      28.0  22.0  30.7  26.6  70  1011   ---   SSE    13    13   ---   --- /
05/07/2005 19:55      27.0  21.0  28.8  25.1  70  1011   ---   SSE    14    14   ---   --- /
05/07/2005 20:55      26.0  22.0  28.3  25.4  79  1011   ---   ESE     6     6   ---   --- /
06/07/2005 07:55      24.0  20.0  26.2  24.0  78  1009   ---    SW     5     5   ---   --- /
05/07/2005 08:55      24.0  17.0  25.3  24.0  65  1013   ---     N     0     0   ---   --- /
06/07/2005 08:55      26.0  21.0  27.9  23.5  74  1009   ---     S    16    16   ---   --- /
06/07/2005 10:55      28.0  22.0  30.7  25.9  70  1011   ---     W    19    19   ---   0.6 Scattered Clouds/
06/07/2005 11:55      27.0  23.0  29.6  24.7  79  1011   ---   NNW    18    37   ---   0.6 Broken Clouds/
06/07/2005 12:55      27.0  22.0  29.2  24.5  74  1011   ---   NNW    19    19   ---   0.6 Broken Clouds/
06/07/2005 13:55      27.0  22.0  29.2  24.4  74  1011   ---     N    21    21   ---   0.6 Broken Clouds/
05/07/2005 14:55      29.0  21.0  31.4  27.9  62  1011   ---     E    13    13   ---   --- /
06/07/2005 15:55      27.0  19.0  28.2  24.1  62  1011   ---   NNW    26    26   ---   0.7 Scattered Clouds/
06/07/2005 16:55      27.0  19.0  28.2  24.4  62  1011   ---   NNW    21    21   ---   0.7 Scattered Clouds/
06/07/2005 17:55      26.0  19.0  27.3  23.0  65  1011   ---   NNW    21    21   ---   0.7 Scattered Clouds/
06/07/2005 18:55      26.0  18.0  27.1  23.0  61  1011   ---    NW    21    21   ---   0.7 Few Clouds/
05/07/2005 19:55      27.0  21.0  28.8  25.1  70  1011   ---   SSE    14    14   ---   --- /
05/07/2005 19:55      27.0  21.0  28.8  25.1  70  1011   ---   SSE    14    14   ---   --- None reported/None reported
06/07/2005 20:55      24.0  16.0  25.1  22.2  61  1011   ---   NNW    10    10   ---   0.7 Few Clouds/
07/07/2005 07:55      21.0  13.0  22.0  21.0  60  1012   ---   WSW     5     5   ---   --- /
06/07/2005 08:55      26.0  21.0  27.9  23.5  74  1009   ---     S    16    16   ---   --- /
06/07/2005 10:55      28.0  22.0  30.7  25.9  70  1011   ---     W    19    19   ---   0.6 Scattered Clouds/
07/07/2005 12:55      28.0  16.0  28.3  26.6  48  1013   ---   ESE    13    13   ---   --- /
07/07/2005 14:55      28.0  17.0  28.6  26.1  51  1013   ---    SE    18    18   ---   --- /
07/07/2005 15:55      28.0  17.0  28.6  26.6  51  1013   ---   ESE    13    13   ---   --- /
07/07/2005 16:55      28.0  17.0  28.6  27.0  51  1013   ---   ESE    10    10   ---   --- /
07/07/2005 17:55      28.0  16.0  28.3  26.6  48  1013   ---   WSW    13    13   ---   --- /
06/07/2005 18:55      26.0  18.0  27.1  23.0  61  1011   ---    NW    21    21   ---   0.7 Few Clouds/
07/07/2005 19:55      26.0  17.0  26.9  24.6  58  1013   ---   ESE    10    10   ---   --- /
07/07/2005 20:55      25.0  14.0  25.5  25.0  51  1012   ---    SE     5     5   ---   --- /
08/07/2005 07:55      22.0  13.0  22.8  22.0  57  1012   ---   WSW     3     3   ---   --- /
08/07/2005 08:55      24.0  14.0  24.6  24.0  54  1012   ---     N     0     0   ---   --- /
07/07/2005 09:55      26.0  14.0  26.3  26.0  48  1012   ---   ---     0     0   ---   --- /
08/07/2005 10:55      28.0  15.0  28.0  27.0  45  1012   ---     E    10    10   ---   6.0 Scattered Clouds/
08/07/2005 11:55      29.0  15.0  28.9  28.3  43  1012   ---     E     8     8   ---   6.0 Scattered Clouds/
08/07/2005 12:55      29.0  16.0  29.1  28.3  45  1012   ---   ENE     8     8   ---   --- /
08/07/2005 13:55      30.0  16.0  30.0  29.0  43  1012   ---   ESE    14    14   ---   --- /
07/07/2005 14:55      28.0  17.0  28.6  26.1  51  1013   ---    SE    18    18   ---   --- /
08/07/2005 15:55      29.0  19.0  30.3  27.7  55  1012   ---    SE    14    14   ---   0.7 Few Clouds/
08/07/2005 17:55      29.0  19.0  30.3  28.3  55  1012   ---   ESE     8     8   ---   --- /
08/07/2005 18:55      29.0  19.0  30.3  28.3  55  1013   ---   ESE     8     8   ---   --- /
08/07/2005 19:55      27.0  21.0  28.8  25.8  70  1013   ---   ESE    10    10   ---   --- /
08/07/2005 20:55      26.0  22.0  28.3  24.6  79  1013   ---   ESE    10    10   ---   --- /
09/07/2005 07:55      23.0  20.0  25.6  23.0  83  1013   ---     W     5     5   ---   --- /
09/07/2005 07:55      23.0  20.0  25.6  23.0  83  1013   ---     W     5     5   ---   --- None reported/None reported
09/07/2005 08:55      25.0  20.0  26.9  25.0  74  1013   ---     N     0     0   ---   --- /
09/07/2005 09:55      26.0  20.0  27.6  26.0  70  1013   ---     E     3     3   ---   6.0 Scattered Clouds/
09/07/2005 10:55      28.0  21.0  30.1  28.0  66  1013   ---   ENE     5     5   ---   --- /
09/07/2005 11:55      28.0  21.0  30.1  27.5  66  1013   ---   ESE     6     6   ---   --- /
09/07/2005 12:55      29.0  22.0  32.0  28.3  66  1013   ---     E     8     8   ---   --- /
09/07/2005 14:55      29.0  22.0  32.0  28.2  66  1013   ---     E    10    10   ---   --- /
09/07/2005 15:55      29.0  20.0  30.8  28.2  58  1014   ---     E    10    10   ---   0.8 Scattered Clouds/
09/07/2005 16:55      29.0  20.0  30.8  28.3  58  1014   ---    NE     8     8   ---   0.8 Few Clouds/
08/07/2005 17:55      29.0  19.0  30.3  28.3  55  1012   ---   ESE     8     8   ---   --- /
09/07/2005 18:55      28.0  21.0  30.1  27.0  66  1014   ---   ESE    10    10   ---   0.8 Scattered Clouds/
09/07/2005 19:55      27.0  21.0  28.8  26.0  70  1014   ---   ESE     8     8   ---   0.8 Scattered Clouds/
09/07/2005 20:55      26.0  21.0  27.9  24.8  74  1014   ---   SSE     8     8   ---   0.6 Scattered Clouds/
10/07/2005 07:55      23.0  16.0  24.3  17.4  65  1013   ---   WNW    37    55   ---   --- Overcast/ Light Rain
10/07/2005 08:55      23.0  18.0  24.9  19.2  73  1015   ---   WNW    18    18   ---   0.8 Overcast/
10/07/2005 09:55      22.0  19.0  24.6  18.9  83  1013   ---    SW    13    13   ---   0.8 Overcast/
10/07/2005 10:55      23.0  20.0  25.6  19.8  83  1014   ---     E    14    14   ---   0.9 Broken Clouds/
10/07/2005 11:55      25.0  19.0  26.6  25.0  69  1015   ---    SE     3     3   ---   0.9 Broken Clouds/
10/07/2005 12:55      27.0  19.0  28.2  27.0  62  1015   ---   ENE     5     5   ---   2.7 Broken Clouds/
10/07/2005 13:55      27.0  20.0  28.5  26.4  66  1015   ---    NE     6     6   ---   2.4 Broken Clouds/
10/07/2005 14:55      27.0  20.0  28.5  24.5  66  1015   ---     N    19    19   ---   2.7 Broken Clouds/
10/07/2005 15:55      28.0  21.0  30.1  25.9  66  1015   ---   NNE    19    19   ---   3.0 Scattered Clouds/
10/07/2005 16:55      27.0  21.0  28.8  24.9  70  1015   ---   NNE    16    16   ---   0.9 Few Clouds/
10/07/2005 17:55      27.0  20.0  28.5  25.8  66  1016   ---     E    10    10   ---   6.0 Scattered Clouds/
10/07/2005 18:55      26.0  22.0  28.3  24.6  79  1016   ---   ESE    10    10   ---   0.7 Broken Clouds/
10/07/2005 19:55      25.0  21.0  27.2  25.0  79  1016   ---   ESE     5     5   ---   0.7 Scattered Clouds/
10/07/2005 20:55      25.0  21.0  27.2  25.0  79  1016   ---   ESE     5     5   ---   0.6 Scattered Clouds/
11/07/2005 07:55      24.0  20.0  26.2  22.2  78  1014   ---   NNW    10    10   ---   0.4 Broken Clouds/
11/07/2005 08:55      24.0  21.0  26.6  23.2  83  1015   ---   NNE     6     6   ---   0.4 Broken Clouds/
11/07/2005 09:55      24.0  22.0  27.0  22.2  89  1015   ---     N    10    10   ---   0.4 Broken Clouds/
11/07/2005 10:55      25.0  21.0  27.2  22.1  79  1016   ---     N    16    16   ---   0.5 Broken Clouds/
11/07/2005 11:55      26.0  21.0  27.9  24.6  74  1016   ---    NE    10    10   ---   0.6 Broken Clouds/
11/07/2005 13:55      27.0  19.0  28.2  25.8  62  1015   ---   NNE    10    10   ---   0.6 Scattered Clouds/
11/07/2005 14:55      29.0  19.0  30.3  27.2  55  1015   ---   NNW    23    23   ---   0.6 Few Clouds/
11/07/2005 15:55      29.0  18.0  29.9  27.2  52  1015   ---   NNW    23    23   ---   0.6 Scattered Clouds/
11/07/2005 16:55      26.0  20.0  27.6  23.1  70  1016   ---   NNW    19    19   ---   0.6 Broken Clouds/
11/07/2005 17:55      25.0  19.0  26.6  21.7  69  1016   ---   NNW    19    19   ---   0.6 Broken Clouds/
11/07/2005 18:55      24.0  17.0  25.3  20.3  65  1016   ---   NNW    19    19   ---   0.6 Scattered Clouds/
11/07/2005 19:55      24.0  16.0  25.1  21.5  61  1017   ---   NNW    13    13   ---   --- /
12/07/2005 07:55      21.0  17.0  23.2  21.0  78  1017   ---   WSW     3     3   ---   --- /
12/07/2005 08:55      22.0  16.0  23.6  21.0  69  1017   ---   SSW     6     6   ---   --- /
12/07/2005 09:55      24.0  17.0  25.3  24.0  65  1017   ---     S     5     5   ---   0.7 Few Clouds/
12/07/2005 10:55      26.0  17.0  26.9  26.0  58  1017   ---   NNE     3     3   ---   --- /
12/07/2005 11:55      26.0  17.0  26.9  25.4  58  1017   ---   NNE     6     6   ---   0.7 Few Clouds/
12/07/2005 12:55      27.0  17.0  27.7  25.3  54  1017   ---     E    13    13   ---   0.7 Few Clouds/
12/07/2005 13:55      27.0  17.0  27.7  24.9  54  1017   ---     E    16    16   ---   0.7 Few Clouds/
12/07/2005 14:55      28.0  12.0  27.5  26.2  37  1017   ---   NNE    16    16   ---   0.7 Few Clouds/
12/07/2005 15:55      28.0  13.0  27.6  27.2  40  1017   ---   NNW     8     8   ---   0.7 Few Clouds/
12/07/2005 16:55      27.0  16.0  27.5  24.4  51  1017   ---   ENE    21    21   ---   0.7 Few Clouds/
12/07/2005 17:55      27.0  16.0  27.5  24.5  51  1017   ---     N    19    19   ---   0.7 Few Clouds/
12/07/2005 18:55      26.0  16.0  26.7  23.0  54  1017   ---    NW    21    21   ---   0.7 Few Clouds/
12/07/2005 19:55      26.0  14.0  26.3  23.8  48  1017   ---   NNW    14    14   ---   --- /
12/07/2005 20:55      25.0  16.0  25.9  22.5  57  1017   ---   NNW    14    14   ---   --- /
13/07/2005 07:55      22.0  17.0  23.9  21.0  73  1017   ---   SSW     6     6   ---   --- /
13/07/2005 08:55      23.0  18.0  24.9  23.0  73  1017   ---   SSW     5     5   ---   --- /
13/07/2005 09:55      26.0  19.0  27.3  24.1  65  1017   ---     N    13    13   ---   --- /
12/07/2005 10:55      26.0  17.0  26.9  26.0  58  1017   ---   NNE     3     3   ---   --- /
13/07/2005 11:55      28.0  16.0  28.3  26.4  48  1017   ---     N    14    14   ---   --- /
13/07/2005 12:55      28.0  15.0  28.0  26.4  45  1017   ---     N    14    14   ---   --- /
13/07/2005 13:55      28.0  14.0  27.8  26.1  42  1017   ---     N    18    18   ---   --- /
13/07/2005 14:55      28.0  13.0  27.6  25.9  40  1017   ---     N    21    21   ---   --- /
13/07/2005 15:55      28.0  14.0  27.8  26.1  42  1017   ---   NNW    18    18   ---   --- /
13/07/2005 16:55      28.0  15.0  28.0  25.9  45  1017   ---    NE    19    19   ---   --- /
13/07/2005 17:55      28.0  17.0  28.6  25.9  51  1017   ---   NNW    21    21   ---   --- /
13/07/2005 18:55      27.0  15.0  27.3  24.7  48  1017   ---     N    18    18   ---   --- /
13/07/2005 19:55      26.0  16.0  26.7  23.1  54  1017   ---   NNW    19    19   ---   --- /
13/07/2005 20:55      25.0  18.0  26.3  22.5  65  1017   ---   NNW    14    14   ---   --- /
14/07/2005 07:55      22.0  17.0  23.9  22.0  73  1017   ---     S     5     5   ---   --- /
14/07/2005 08:55      24.0  18.0  25.6  20.3  69  1017   ---   WNW    19    19   ---   0.7 Few Clouds/
13/07/2005 09:55      26.0  19.0  27.3  24.1  65  1017   ---     N    13    13   ---   --- /
14/07/2005 10:55      27.0  18.0  27.9  24.7  58  1017   ---   NNW    18    18   ---   0.7 Few Clouds/
14/07/2005 11:55      27.0  18.0  27.9  24.9  58  1018   ---   NNW    16    16   ---   0.7 Few Clouds/
14/07/2005 12:55      28.0  15.0  28.0  26.2  45  1018   ---   NNW    16    16   ---   0.7 Few Clouds/
14/07/2005 13:55      28.0  14.0  27.8  26.1  42  1018   ---   NNW    18    18   ---   0.7 Few Clouds/
14/07/2005 14:55      28.0  14.0  27.8  25.9  42  1018   ---   NNW    21    21   ---   --- /
14/07/2005 15:55      28.0  14.0  27.8  25.9  42  1018   ---   NNW    19    19   ---   --- /
14/07/2005 16:55      28.0  14.0  27.8  25.8  42  1017   ---   NNW    23    23   ---   --- /
14/07/2005 17:55      27.0  15.0  27.3  24.4  48  1017   ---   NNW    21    21   ---   --- /
14/07/2005 18:55      26.0  16.0  26.7  23.0  54  1017   ---     N    21    21   ---   0.7 Few Clouds/
14/07/2005 19:55      25.0  16.0  25.9  22.0  57  1017   ---   NNW    18    18   ---   0.7 Scattered Clouds/
14/07/2005 20:55      24.0  18.0  25.6  21.5  69  1017   ---   NNW    13    13   ---   0.7 Scattered Clouds/
15/07/2005 07:55      22.0  13.0  22.8  21.0  57  1019   ---   WSW     6     6   ---   --- /
15/07/2005 08:55      24.0  15.0  24.8  24.0  57  1019   ---     N     0     0   ---   --- /
15/07/2005 09:55      27.0  14.0  27.1  27.0  45  1020   ---     S     5     5   ---   --- /
15/07/2005 10:55      28.0  15.0  28.0  26.6  45  1020   ---    NW    13    13   ---   --- /
15/07/2005 11:55      29.0  15.0  28.9  27.7  43  1020   ---     N    14    14   ---   0.6 Few Clouds/
15/07/2005 12:55      29.0  18.0  29.9  27.4  52  1020   ---   NNW    19    19   ---   0.6 Few Clouds/
15/07/2005 13:55      29.0  19.0  30.3  27.5  55  1020   ---   NNW    18    18   ---   0.6 Few Clouds/
15/07/2005 14:55      29.0  18.0  29.9  27.4  52  1020   ---    NW    19    19   ---   0.6 Few Clouds/
15/07/2005 15:55      29.0  18.0  29.9  27.4  52  1019   ---   NNW    19    19   ---   0.6 Few Clouds/
15/07/2005 16:55      30.0  18.0  30.8  28.9  49  1019   ---   NNW    18    18   ---   0.6 Few Clouds/
15/07/2005 17:55      30.0  15.0  29.7  29.2  40  1019   ---     N    13    13   ---   0.6 Few Clouds/
15/07/2005 18:55      30.0  14.0  29.4  29.4  38  1019   ---     N    10    10   ---   --- /
15/07/2005 19:55      28.0  15.0  28.0  27.5  45  1019   ---   NNE     6     6   ---   --- /
15/07/2005 20:55      28.0  15.0  28.0  27.5  45  1019   ---   NNE     6     6   ---   --- /
16/07/2005 07:55      22.0  10.0  22.3  20.2  46  1019   ---   WSW     8     8   ---   --- /
16/07/2005 08:55      25.0  11.0  25.0  25.0  41  1019   ---    SW     5     5   ---   --- /
16/07/2005 09:55      28.0  11.0  27.3  28.0  35  1020   ---     S     5     5   ---   --- /
16/07/2005 10:55      30.0  11.0  28.8  30.0  31  1020   ---   ENE     5     5   ---   --- /
16/07/2005 11:55      31.0  12.0  29.9  30.7  31  1019   ---   ENE     8     8   ---   --- /
16/07/2005 12:55      31.0  12.0  29.9  30.6  31  1020   ---     E    10    10   ---   --- /
16/07/2005 13:55      31.0  11.0  29.7  30.6  29  1020   ---   NNE    10    10   ---   --- /
16/07/2005 14:55      32.0  11.0  30.6  31.8  28  1020   ---    NE     8     8   ---   --- /
16/07/2005 16:55      31.0  10.0  29.5  30.3  27  1019   ---     E    16    16   ---   --- /
16/07/2005 17:55      30.0  12.0  29.0  29.0  33  1019   ---   ESE    14    14   ---   --- /
16/07/2005 18:55      30.0  12.0  29.0  29.4  33  1019   ---     E    10    10   ---   --- /
16/07/2005 19:55      29.0  15.0  28.9  28.3  43  1018   ---   ESE     8     8   ---   --- /
16/07/2005 20:55      28.0  18.0  28.9  28.0  55  1018   ---     N     0     0   ---   --- /
17/07/2005 07:55      24.0   9.0  23.9  23.2  39  1017   ---   WSW     6     6   ---   --- /
16/07/2005 08:55      25.0  11.0  25.0  25.0  41  1019   ---    SW     5     5   ---   --- /
17/07/2005 09:55      28.0  10.0  27.2  28.0  33  1018   ---     N     0     0   ---   --- /
17/07/2005 10:55      30.0  11.0  28.8  30.0  31  1017   ---     E     5     5   ---   --- /
17/07/2005 11:55      31.0  10.0  29.5  30.8  27  1017   ---     E     6     6   ---   --- /
17/07/2005 12:55      32.0  12.0  30.8  31.9  30  1017   ---     E     6     6   ---   --- /
17/07/2005 13:55      33.0  11.0  31.5  33.0  26  1017   ---     E     8     8   ---   --- /
17/07/2005 14:55      32.0  10.0  30.4  31.8  26  1017   ---     E    10    10   ---   --- /
17/07/2005 15:55      31.0  13.0  30.1  30.4  33  1017   ---   ESE    13    13   ---   --- /
17/07/2005 16:55      31.0  14.0  30.3  30.6  36  1017   ---   ESE    10    10   ---   --- /
17/07/2005 17:55      31.0  11.0  29.7  30.6  29  1017   ---     E    10    10   ---   --- /
17/07/2005 18:55      31.0  10.0  29.5  30.7  27  1016   ---     E     8     8   ---   --- /
17/07/2005 19:55      31.0  10.0  29.5  31.0  27  1016   ---     E     5     5   ---   --- /
17/07/2005 20:55      30.0  13.0  29.2  30.0  35  1016   ---     N     0     0   ---   --- /
18/07/2005 07:55      26.0   6.0  25.5  26.0  28  1015   ---   ---     0     0   ---   --- /
18/07/2005 08:55      27.0   7.0  26.3  27.0  28  1016   ---   ---     0     0   ---   --- /
18/07/2005 09:55      29.0   7.0  27.6  29.0  25  1016   ---   ---     0     0   ---   --- /
18/07/2005 10:55      32.0  12.0  30.8  32.0  30  1016   ---   ---     0     0   ---   --- /
18/07/2005 11:55      33.0  10.0  31.3  33.0  24  1016   ---     E     8     8   ---   --- /
18/07/2005 12:55      33.0  11.0  31.5  33.0  26  1016   ---   ENE     6     6   ---   --- /
18/07/2005 13:55      33.0  11.0  31.5  33.0  26  1016   ---     E     8     8   ---   --- /
18/07/2005 14:55      34.0  14.0  33.3  34.0  30  1016   ---     E    13    13   ---   --- /
18/07/2005 15:55      34.0  12.0  32.7  34.0  26  1016   ---     E    10    10   ---   --- /
18/07/2005 16:55      34.0  11.0  32.5  34.0  25  1016   ---   ENE    10    10   ---   --- /
18/07/2005 18:55      34.0  12.0  32.7  34.0  26  1016   ---     E     6     6   ---   --- /
18/07/2005 20:55      32.0  14.0  31.3  32.0  34  1015   ---     N     0     0   ---   --- /
19/07/2005 08:55      35.0   2.0  32.4  35.0  13  1013   ---     W    13    13   ---   3.0 Scattered Clouds/
19/07/2005 09:55      35.0   4.0  32.5  35.0  15  1014   ---    SE    21    21   ---   3.0 Scattered Clouds/
19/07/2005 10:55      34.0  11.0  32.5  34.0  25  1016   ---     W    13    13   ---   3.0 Scattered Clouds/
19/07/2005 11:55      35.0   8.0  32.9  35.0  19  1016   ---   SSW    14    14   ---   2.7 Broken Clouds/
19/07/2005 12:55      36.0  11.0  34.5  36.0  22  1016   ---   WSW    21    21   ---   3.0 Broken Clouds/
19/07/2005 14:55      33.0  16.0  33.0  33.0  36  1018   ---   NNW    29    29   ---   --- /
19/07/2005 15:55      33.0  17.0  33.5  33.0  39  1018   ---   NNW    19    19   ---   --- /
19/07/2005 16:55      31.0  22.0  34.6  30.0  59  1019   ---   NNW    26    26   ---   --- /
19/07/2005 17:55      31.0  21.0  33.8  30.1  55  1019   ---   NNW    23    23   ---   --- /
19/07/2005 18:55      31.0  13.0  30.1  30.4  33  1019   ---     N    14    14   ---   --- /
19/07/2005 19:55      29.0  14.0  28.6  27.7  40  1019   ---   NNE    14    14   ---   --- /
19/07/2005 20:55      29.0  16.0  29.1  28.6  45  1019   ---    NE     6     6   ---   --- /
20/07/2005 07:55      22.0  16.0  23.6  21.0  69  1020   ---   WSW     6     6   ---   --- /
20/07/2005 08:55      24.0  16.0  25.1  24.0  61  1020   ---    SW     3     3   ---   --- /
20/07/2005 09:55      27.0  19.0  28.2  27.0  62  1020   ---     E     3     3   ---   0.6 Few Clouds/
20/07/2005 10:55      27.0  19.0  28.2  26.4  62  1020   ---   ENE     6     6   ---   0.6 Few Clouds/
20/07/2005 11:55      28.0  20.0  29.7  27.5  62  1020   ---   ESE     6     6   ---   --- /
20/07/2005 12:55      28.0  20.0  29.7  27.0  62  1020   ---     E    10    10   ---   --- /
20/07/2005 14:55      28.0  22.0  30.7  26.6  70  1020   ---   ESE    13    13   ---   --- /
20/07/2005 15:55      29.0  16.0  29.1  27.5  45  1020   ---     E    18    18   ---   --- /
20/07/2005 16:55      30.0  14.0  29.4  28.9  38  1019   ---   NNE    18    18   ---   --- /
20/07/2005 17:55      29.0  16.0  29.1  27.5  45  1019   ---   NNE    18    18   ---   --- /
20/07/2005 18:55      29.0  14.0  28.6  27.5  40  1019   ---   NNW    18    18   ---   --- /
20/07/2005 19:55      27.0  16.0  27.5  24.9  51  1018   ---   NNW    16    16   ---   --- /
20/07/2005 20:55      26.0  18.0  27.1  24.6  61  1018   ---   NNW    10    10   ---   --- /
21/07/2005 07:55      22.0  17.0  23.9  21.0  73  1015   ---   WSW     6     6   ---   --- /
21/07/2005 08:55      23.0  17.0  24.6  23.0  69  1015   ---     N     0     0   ---   --- /
20/07/2005 09:55      27.0  19.0  28.2  27.0  62  1020   ---     E     3     3   ---   0.6 Few Clouds/
21/07/2005 10:55      28.0  17.0  28.6  28.0  51  1015   ---     N     0     0   ---   --- /
20/07/2005 12:55      28.0  20.0  29.7  27.0  62  1020   ---     E    10    10   ---   --- /
21/07/2005 13:55      28.0  18.0  28.9  26.1  55  1015   ---     E    18    18   ---   --- /
21/07/2005 14:55      28.0  19.0  29.3  26.1  58  1015   ---     E    18    18   ---   0.7 Few Clouds/
21/07/2005 15:55      27.0  19.0  28.2  24.7  62  1014   ---     E    18    18   ---   0.7 Few Clouds/
21/07/2005 16:55      27.0  20.0  28.5  25.1  66  1014   ---     E    14    14   ---   --- /
21/07/2005 17:55      26.0  20.0  27.6  23.8  70  1014   ---     E    14    14   ---   0.7 Scattered Clouds/
21/07/2005 18:55      26.0  20.0  27.6  24.8  70  1013   ---   NNE     8     8   ---   0.7 Scattered Clouds/
21/07/2005 20:55      25.0  20.0  26.9  23.7  74  1013   ---    SE     8     8   ---   0.7 Few Clouds/
22/07/2005 07:55      22.0  13.0  22.8  22.0  57  1011   ---     W     3     3   ---   --- /
22/07/2005 08:55      24.0  17.0  25.3  24.0  65  1011   ---     N     0     0   ---   --- /
22/07/2005 09:55      26.0  17.0  26.9  26.0  58  1011   ---   ---     0     0   ---   --- /
22/07/2005 10:55      28.0  16.0  28.3  28.0  48  1011   ---   ENE     3     3   ---   --- /
22/07/2005 11:55      28.0  17.0  28.6  26.6  51  1011   ---     E    13    13   ---   --- /
22/07/2005 12:55      28.0  17.0  28.6  27.0  51  1011   ---   ESE    10    10   ---   --- /
22/07/2005 13:55      28.0  19.0  29.3  27.0  58  1011   ---     E    10    10   ---   --- /
22/07/2005 14:55      28.0  19.0  29.3  26.4  58  1010   ---    SE    14    14   ---   --- /
22/07/2005 15:55      28.0  20.0  29.7  26.6  62  1010   ---    SE    13    13   ---   --- /
22/07/2005 16:55      28.0  20.0  29.7  27.0  62  1010   ---   ESE    10    10   ---   --- /
21/07/2005 17:55      26.0  20.0  27.6  23.8  70  1014   ---     E    14    14   ---   0.7 Scattered Clouds/
22/07/2005 18:55      28.0  20.0  29.7  27.2  62  1010   ---   ESE     8     8   ---   --- /
22/07/2005 19:55      27.0  21.0  28.8  27.0  70  1009   ---     E     5     5   ---   --- /
22/07/2005 20:55      26.0  21.0  27.9  25.4  74  1009   ---    SE     6     6   ---   --- /
23/07/2005 07:55      23.0   8.0  22.9  23.0  38  1009   ---     W     5     5   ---   --- /
22/07/2005 08:55      24.0  17.0  25.3  24.0  65  1011   ---     N     0     0   ---   --- /
23/07/2005 09:55      27.0  17.0  27.7  27.0  54  1009   ---     E     3     3   ---   --- /
22/07/2005 10:55      28.0  16.0  28.3  28.0  48  1011   ---   ENE     3     3   ---   --- /
23/07/2005 11:55      30.0  15.0  29.7  29.4  40  1010   ---    NE    10    10   ---   --- /
22/07/2005 12:55      28.0  17.0  28.6  27.0  51  1011   ---   ESE    10    10   ---   --- /
23/07/2005 13:55      31.0  18.0  31.9  30.4  46  1010   ---    NE    14    14   ---   --- /
22/07/2005 14:55      28.0  19.0  29.3  26.4  58  1010   ---    SE    14    14   ---   --- /
23/07/2005 15:55      32.0  19.0  33.5  31.6  46  1010   ---   NNW    16    16   ---   --- /
23/07/2005 16:55      31.0  15.0  30.6  30.1  38  1010   ---   NNW    23    23   ---   --- /
23/07/2005 17:55      31.0  10.0  29.5  30.1  27  1010   ---    NE    21    21   ---   --- /
23/07/2005 20:55      27.0  16.0  27.5  26.4  51  1011   ---   ESE     6     6   ---   --- /
23/07/2005 07:55      23.0   8.0  22.9  23.0  38  1009   ---     W     5     5   ---   --- /
24/07/2005 08:55      26.0  13.0  26.2  26.0  45  1011   ---     N     0     0   ---   --- /
23/07/2005 10:55      29.0  17.0  29.5  29.0  48  1009   ---    NE     5     5   ---   --- /
24/07/2005 11:55      31.0  16.0  31.0  30.7  41  1012   ---   ESE     8     8   ---   --- /
23/07/2005 12:55      31.0  17.0  31.4  30.4  43  1010   ---     E    13    13   ---   --- /
24/07/2005 13:55      29.0  20.0  30.8  27.5  58  1012   ---    SE    18    18   ---   --- /
24/07/2005 14:55      29.0  22.0  32.0  27.7  66  1012   ---   ESE    14    14   ---   --- /
23/07/2005 15:55      32.0  19.0  33.5  31.6  46  1010   ---   NNW    16    16   ---   --- /
24/07/2005 16:55      30.0  22.0  33.3  29.2  62  1012   ---   ESE    13    13   ---   --- /
24/07/2005 17:55      30.0  22.0  33.3  29.4  62  1012   ---     E    10    10   ---   --- /
23/07/2005 18:55      29.0  18.0  29.9  27.7  52  1011   ---   ESE    14    14   ---   --- /
24/07/2005 19:55      29.0  23.0  32.8  28.3  70  1012   ---   ESE     8     8   ---   --- /
24/07/2005 20:55      28.0  22.0  30.7  27.5  70  1012   ---   ESE     6     6   ---   --- /
25/07/2005 07:55      23.0  10.0  23.1  22.1  44  1013   ---   WSW     6     6   ---   --- /
25/07/2005 08:55      25.0  15.0  25.7  25.0  54  1013   ---     N     0     0   ---   --- /
25/07/2005 09:55      27.0  17.0  27.7  27.0  54  1013   ---   ESE     5     5   ---   --- /
25/07/2005 10:55      29.0  18.0  29.9  29.0  52  1013   ---     E     5     5   ---   --- /
25/07/2005 13:55      32.0  15.0  31.6  31.8  36  1012   ---   ENE    10    10   ---   --- /
25/07/2005 14:55      32.0  16.0  32.0  31.8  38  1013   ---   ESE    10    10   ---   --- /
25/07/2005 15:55      32.0  18.0  32.9  31.8  43  1013   ---   ESE     8     8   ---   --- /
25/07/2005 16:55      32.0  16.0  32.0  31.9  38  1013   ---   ESE     6     6   ---   --- /
25/07/2005 17:55      32.0  18.0  32.9  31.8  43  1013   ---   ENE    10    10   ---   --- /
25/07/2005 18:55      31.0  15.0  30.6  30.8  38  1012   ---     E     6     6   ---   --- /
25/07/2005 19:55      30.0  20.0  31.9  30.0  55  1011   ---     N     0     0   ---   --- /
25/07/2005 20:55      29.0  20.0  30.8  29.0  58  1011   ---   ---     0     0   ---   --- /
26/07/2005 07:55      26.0  10.0  25.8  26.0  37  1011   ---   ---     0     0   ---   --- /
26/07/2005 08:55      27.0  10.0  26.6  27.0  34  1011   ---     W     3     3   ---   --- /
26/07/2005 09:55      29.0  13.0  28.4  29.0  37  1012   ---     N     0     0   ---   --- /
26/07/2005 10:55      32.0  13.0  31.0  32.0  32  1012   ---   ENE     5     5   ---   --- /
26/07/2005 11:55      34.0  11.0  32.5  34.0  25  1012   ---   ENE     5     5   ---   --- /
26/07/2005 12:55      34.0  11.0  32.5  34.0  25  1012   ---    NE    14    14   ---   --- /
26/07/2005 13:55      34.0  13.0  33.0  34.0  28  1012   ---    SE    10    10   ---   --- /
26/07/2005 14:55      34.0  13.0  33.0  34.0  28  1012   ---   ESE    14    14   ---   --- /
26/07/2005 15:55      33.0  13.0  32.0  33.0  30  1012   ---   ESE    16    16   ---   0.8 Few Clouds/
26/07/2005 16:55      33.0  13.0  32.0  33.0  30  1012   ---   ENE     6     6   ---   0.8 Few Clouds/
26/07/2005 17:55      33.0  17.0  33.5  33.0  39  1011   ---     E    10    10   ---   0.8 Few Clouds/
26/07/2005 18:55      32.0  20.0  34.2  31.8  49  1011   ---    SE     8     8   ---   0.8 Scattered Clouds/
26/07/2005 19:55      32.0  17.0  32.4  32.0  41  1011   ---     N     0     0   ---   0.8 Scattered Clouds/
26/07/2005 20:55      32.0  17.0  32.4  32.0  41  1011   ---   ---     0     0   ---   0.8 Few Clouds/
27/07/2005 07:55      25.0  20.0  26.9  25.0  74  1012   ---   ---     0     0   ---   3.0 Scattered Clouds/
27/07/2005 08:55      26.0  21.0  27.9  26.0  74  1012   ---   ---     0     0   ---   6.0 Scattered Clouds/
27/07/2005 09:55      28.0  22.0  30.7  28.0  70  1013   ---   ---     0     0   ---   --- /
27/07/2005 10:55      30.0  22.0  33.3  30.0  62  1013   ---   ---     0     0   ---   --- /
27/07/2005 10:55      30.0  22.0  33.3  30.0  62  1013   ---   ---     0     0   ---   --- None reported/None reported
27/07/2005 11:55      31.0  22.0  34.6  30.7  59  1013   ---     E     8     8   ---   --- /
27/07/2005 12:55      31.0  23.0  35.5  30.6  63  1013   ---     E    10    10   ---   --- /
27/07/2005 14:55      32.0  24.0  37.9  31.7  63  1013   ---     E    13    13   ---   --- /
27/07/2005 15:55      32.0  24.0  37.9  31.7  63  1013   ---     E    14    14   ---   --- /
27/07/2005 17:55      31.0  20.0  33.0  30.7  52  1013   ---   ESE     8     8   ---   --- /
27/07/2005 18:55      31.0  21.0  33.8  30.8  55  1013   ---     E     6     6   ---   --- /
27/07/2005 19:55      30.0  22.0  33.3  29.5  62  1012   ---     E     8     8   ---   --- /
27/07/2005 20:55      29.0  23.0  32.8  28.3  70  1013   ---   ESE     8     8   ---   --- /
26/07/2005 20:55      32.0  17.0  32.4  32.0  41  1011   ---     N     0     0   ---   0.8 Few Clouds/
28/07/2005 07:55      24.0  16.0  25.1  23.2  61  1014   ---   WSW     6     6   ---   --- /
28/07/2005 08:55      26.0  16.0  26.7  26.0  54  1014   ---     N     0     0   ---   --- /
28/07/2005 10:55      31.0  15.0  30.6  31.0  38  1015   ---    NE     3     3   ---   --- /
28/07/2005 11:55      31.0  19.0  32.4  30.7  49  1015   ---     E     8     8   ---   --- /
28/07/2005 12:55      31.0  19.0  32.4  30.7  49  1015   ---     E     8     8   ---   --- /
28/07/2005 13:55      31.0  20.0  33.0  30.6  52  1015   ---     E    10    10   ---   --- /
28/07/2005 15:55      33.0  15.0  32.6  33.0  34  1014   ---     E     8     8   ---   --- /
28/07/2005 16:55      33.0  15.0  32.6  33.0  34  1014   ---   ESE     8     8   ---   --- /
28/07/2005 17:55      33.0  17.0  33.5  33.0  39  1014   ---     E     8     8   ---   --- /
28/07/2005 18:55      32.0  16.0  32.0  31.9  38  1014   ---     E     6     6   ---   --- /
28/07/2005 19:55      31.0  17.0  31.4  31.0  43  1014   ---   ESE     3     3   ---   --- /
28/07/2005 20:55      30.0  18.0  30.8  30.0  49  1014   ---   ESE     3     3   ---   --- /
29/07/2005 07:55      26.0   8.0  25.6  26.0  32  1013   ---     N     0     0   ---   --- /
29/07/2005 08:55      26.0   9.0  25.7  26.0  34  1014   ---   ---     0     0   ---   --- /
29/07/2005 09:55      29.0  13.0  28.4  29.0  37  1014   ---   ---     0     0   ---   --- /
29/07/2005 10:55      31.0  13.0  30.1  30.8  33  1015   ---     E     6     6   ---   --- /
29/07/2005 12:55      34.0  14.0  33.3  34.0  30  1014   ---   ESE     6     6   ---   --- /
29/07/2005 13:55      35.0  14.0  34.4  35.0  28  1014   ---     E     8     8   ---   --- /
29/07/2005 14:55      35.0  12.0  33.7  35.0  25  1014   ---     E    10    10   ---   --- /
29/07/2005 15:55      35.0  10.0  33.3  35.0  22  1013   ---   ESE     8     8   ---   --- /
29/07/2005 16:55      35.0  13.0  34.0  35.0  27  1013   ---   ESE     8     8   ---   --- /
29/07/2005 17:55      35.0  13.0  34.0  35.0  27  1013   ---     E    13    13   ---   --- /
29/07/2005 18:55      34.0  12.0  32.7  34.0  26  1013   ---     E     8     8   ---   --- /
29/07/2005 19:55      33.0  15.0  32.6  33.0  34  1012   ---   ESE     6     6   ---   --- /
29/07/2005 20:55      32.0  16.0  32.0  32.0  38  1012   ---     N     0     0   ---   --- /
30/07/2005 07:55      27.0  15.0  27.3  27.0  48  1012   ---    SW     5     5   ---   --- /
30/07/2005 08:55      29.0  16.0  29.1  29.0  45  1012   ---   WSW     5     5   ---   --- /
29/07/2005 09:55      29.0  13.0  28.4  29.0  37  1014   ---     N     0     0   ---   --- /
30/07/2005 10:55      33.0  19.0  34.6  33.0  44  1013   ---   ENE     6     6   ---   --- /
30/07/2005 11:55      34.0  18.0  35.1  34.0  39  1013   ---    NE     8     8   ---   --- /
30/07/2005 12:55      34.0  18.0  35.1  34.0  39  1012   ---   ENE     8     8   ---   --- /
30/07/2005 13:55      35.0  21.0  38.6  35.0  44  1012   ---    NE     6     6   ---   --- /
30/07/2005 14:55      34.0  22.0  38.3  34.0  50  1012   ---    NE    14    14   ---   --- /
30/07/2005 15:55      34.0  22.0  38.3  34.0  50  1012   ---    NE    14    14   ---   --- /
30/07/2005 16:55      33.0  22.0  37.1  33.0  53  1012   ---   ENE     6     6   ---   --- /
30/07/2005 17:55      34.0  20.0  36.5  34.0  44  1011   ---     E    13    13   ---   --- /
30/07/2005 18:55      32.0  25.0  39.2  31.8  67  1011   ---    NE    10    10   ---   3.0 Scattered Clouds/
30/07/2005 19:55      30.0  25.0  36.2  30.0  75  1011   ---     E     5     5   ---   3.0 Scattered Clouds/
30/07/2005 20:55      29.0  24.0  33.6  29.0  75  1011   ---    SE     3     3   ---   --- /
31/07/2005 07:55      25.0  21.0  27.2  25.0  79  1012   ---   WSW     5     5   ---   0.7 Scattered Clouds/
31/07/2005 08:55      26.0  21.0  27.9  25.4  74  1012   ---     S     6     6   ---   --- /
31/07/2005 09:55      28.0  23.0  31.3  28.0  74  1012   ---     N     0     0   ---   --- /
31/07/2005 10:55      30.0  22.0  33.3  29.5  62  1013   ---   NNE     8     8   ---   --- /
31/07/2005 11:55      31.0  23.0  35.5  30.7  63  1013   ---    NE     8     8   ---   --- /
31/07/2005 12:55      30.0  24.0  35.1  28.9  70  1013   ---     N    16    16   ---   --- /
30/07/2005 13:55      35.0  21.0  38.6  35.0  44  1012   ---    NE     6     6   ---   --- /
31/07/2005 13:55      30.0  24.0  35.1  29.2  70  1013   ---   NNE    13    13   ---   --- /
31/07/2005 15:55      31.0  24.0  36.6  30.6  66  1013   ---   ESE    10    10   ---   --- /
31/07/2005 16:55      31.0  23.0  35.5  30.4  63  1013   ---   SSE    14    14   ---   --- /
31/07/2005 18:55      30.0  23.0  34.2  29.4  66  1013   ---   ESE    10    10   ---   --- /
31/07/2005 19:55      29.0  23.0  32.8  28.3  70  1013   ---   ESE     8     8   ---   --- /
30/07/2005 20:55      29.0  24.0  33.6  29.0  75  1011   ---    SE     3     3   ---   --- /
31/07/2005 19:55      29.0  23.0  32.8  28.3  70  1013   ---   ESE     8     8   ---   --- /
30/07/2005 20:55      29.0  24.0  33.6  29.0  75  1011   ---    SE     3     3   ---   --- /
31/07/2005 19:55      29.0  23.0  32.8  28.3  70  1013   ---   ESE     8     8   ---   --- /
30/07/2005 20:55      29.0  24.0  33.6  29.0  75  1011   ---    SE     3     3   ---   --- /
31/07/2005 19:55      29.0  23.0  32.8  28.3  70  1013   ---   ESE     8     8   ---   --- /
01/08/2005 07:55      25.0  10.0  24.9  23.7  39  1013   ---   WSW     8     8   ---   --- /
01/08/2005 08:55      26.0  10.0  25.8  26.0  37  1013   ---     N     0     0   ---   --- /
01/08/2005 09:55      28.0  11.0  27.3  27.5  35  1013   ---     E     6     6   ---   --- /
01/08/2005 10:55      30.0  15.0  29.7  30.0  40  1013   ---     N     0     0   ---   --- /
01/08/2005 11:55      31.0  18.0  31.9  30.7  46  1013   ---     E     8     8   ---   --- /
01/08/2005 12:55      31.0  20.0  33.0  30.7  52  1013   ---     E     8     8   ---   --- /
01/08/2005 13:55      31.0  20.0  33.0  30.6  52  1013   ---     E    10    10   ---   --- /
01/08/2005 14:55      32.0  20.0  34.2  31.8  49  1013   ---     E     8     8   ---   --- /
01/08/2005 15:55      32.0  20.0  34.2  31.8  49  1012   ---     E     8     8   ---   --- /
01/08/2005 17:55      31.0  20.0  33.0  30.7  52  1013   ---     E     8     8   ---   --- /
01/08/2005 18:55      30.0  20.0  31.9  30.0  55  1012   ---     N     0     0   ---   6.0 Scattered Clouds/
01/08/2005 19:55      29.0  21.0  31.4  29.0  62  1012   ---   ESE     5     5   ---   6.0 Scattered Clouds/
01/08/2005 20:55      29.0  22.0  32.0  29.0  66  1012   ---     N     0     0   ---   6.0 Scattered Clouds/
02/08/2005 07:55      26.0  15.0  26.5  26.0  51  1011   ---   WSW     3     3   ---   --- /
02/08/2005 08:55      27.0  18.0  27.9  27.0  58  1011   ---     N     0     0   ---   --- /
02/08/2005 10:55      32.0  23.0  36.8  32.0  59  1012   ---    SE     5     5   ---   --- /
02/08/2005 12:55      34.0  20.0  36.5  34.0  44  1012   ---     E     5     5   ---   --- /
02/08/2005 13:55      34.0  18.0  35.1  34.0  39  1012   ---     E    13    13   ---   6.0 Few Clouds/
02/08/2005 14:55      34.0  18.0  35.1  34.0  39  1012   ---   ENE     6     6   ---   1.2 Few Clouds/
02/08/2005 15:55      34.0  20.0  36.5  34.0  44  1012   ---   ESE    10    10   ---   1.2 Scattered Clouds/
02/08/2005 16:55      34.0  22.0  38.3  34.0  50  1012   ---   ENE    10    10   ---   6.0 Few Clouds/
01/08/2005 17:55      31.0  20.0  33.0  30.7  52  1013   ---     E     8     8   ---   --- /
02/08/2005 18:55      30.0  25.0  36.2  29.4  75  1013   ---   ESE    10    10   ---   1.0 Broken Clouds/
02/08/2005 19:55      30.0  25.0  36.2  30.0  75  1013   ---     E     3     3   ---   1.0 Broken Clouds/
02/08/2005 20:55      29.0  25.0  34.5  29.0  79  1012   ---     N     0     0   ---   6.0 Few Clouds/
03/08/2005 07:55      29.0  16.0  29.1  26.8  45  1014   ---    NW    34    63   ---   0.9 Broken Clouds/
03/08/2005 08:55      30.0  14.0  29.4  28.3  38  1014   ---    NW    39    68   ---   0.9 Broken Clouds/
03/08/2005 10:55      31.0  14.0  30.3  30.0  36  1014   ---   NNW    27    69   ---999.02.1 Overcast/
03/08/2005 11:55      29.0  17.0  29.5  27.2  48  1015   ---   WNW    23    23   ---   0.9 Overcast/
03/08/2005 12:55      27.0  23.0  29.6  23.9  79  1015   ---   NNW    31    51   ---   0.4 Overcast/
03/08/2005 13:55      28.0  22.0  30.7  26.1  70  1015   ---   NNW    18    18   ---   0.4 Broken Clouds/
03/08/2005 14:55      28.0  16.0  28.3  25.8  48  1017   ---   WNW    23    50   ---   1.2 Overcast/
03/08/2005 16:55      27.0  16.0  27.5  24.5  51  1015   ---   WNW    19    19   ---   1.0 Broken Clouds/
03/08/2005 17:55      27.0  15.0  27.3  24.9  48  1015   ---   NNW    16    16   ---   1.0 Broken Clouds/
03/08/2005 18:55      27.0  17.0  27.7  24.3  54  1015   ---    NW    23    23   ---   1.0 Broken Clouds/
03/08/2005 19:55      26.0  17.0  26.9  24.1  58  1015   ---    NW    13    13   ---   1.0 Broken Clouds/
03/08/2005 20:55      25.0  16.0  25.9  25.0  57  1015   ---     W     3     3   ---   1.0 Few Clouds/
04/08/2005 07:55      24.0  19.0  25.9  24.0  74  1013   ---    NW     5     5   ---   0.7 Broken Clouds/
04/08/2005 08:55      25.0  19.0  26.6  22.5  69  1013   ---    NW    14    14   ---   0.7 Scattered Clouds/
04/08/2005 09:55      25.0  19.0  26.6  22.1  69  1013   ---   NNW    16    16   ---   0.7 Broken Clouds/
04/08/2005 10:55      26.0  19.0  27.3  23.1  65  1014   ---   NNW    19    19   ---   0.7 Broken Clouds/
04/08/2005 12:55      28.0  18.0  28.9  25.8  55  1014   ---    NW    23    23   ---   0.7 Scattered Clouds/
04/08/2005 13:55      29.0  19.0  30.3  27.3  55  1014   ---   NNW    21    21   ---   0.7 Scattered Clouds/
04/08/2005 14:55      28.0  18.0  28.9  25.8  55  1014   ---    NW    23    23   ---   0.7 Scattered Clouds/
04/08/2005 15:55      29.0  17.0  29.5  27.2  48  1014   ---    NW    23    23   ---   0.7 Few Clouds/
04/08/2005 16:55      29.0  18.0  29.9  27.3  52  1013   ---     N    21    21   ---   0.7 Few Clouds/
04/08/2005 17:55      28.0  17.0  28.6  25.8  51  1013   ---   NNW    23    23   ---   0.7 Few Clouds/
04/08/2005 18:55      28.0  17.0  28.6  25.9  51  1013   ---   NNW    21    21   ---   0.7 Few Clouds/
04/08/2005 19:55      27.0  19.0  28.2  24.5  62  1013   ---   NNW    19    19   ---   0.7 Few Clouds/
04/08/2005 20:55      26.0  18.0  27.1  23.1  61  1013   ---   NNW    19    19   ---   0.7 Few Clouds/
05/08/2005 07:55      24.0  19.0  25.9  22.5  74  1013   ---     W     8     8   ---   0.7 Scattered Clouds/
05/08/2005 08:55      25.0  20.0  26.9  22.1  74  1013   ---    NW    16    16   ---   0.7 Scattered Clouds/
05/08/2005 09:55      26.0  20.0  27.6  23.8  70  1013   ---    NW    14    14   ---   0.7 Scattered Clouds/
05/08/2005 10:55      28.0  20.0  29.7  26.1  62  1013   ---    NW    18    18   ---   0.7 Scattered Clouds/
05/08/2005 11:55      28.0  19.0  29.3  26.1  58  1014   ---   NNW    18    18   ---   0.7 Scattered Clouds/
05/08/2005 14:55      28.0  19.0  29.3  26.1  58  1014   ---     N    18    18   ---   0.7 Scattered Clouds/
05/08/2005 16:55      28.0  17.0  28.6  26.4  51  1014   ---     N    14    14   ---   0.7 Scattered Clouds/
05/08/2005 17:55      26.0  16.0  26.7  23.5  54  1014   ---     N    16    16   ---   0.7 Scattered Clouds/
05/08/2005 18:55      26.0  18.0  27.1  23.8  61  1014   ---     N    14    14   ---   0.7 Scattered Clouds/
05/08/2005 19:55      25.0  16.0  25.9  22.8  57  1014   ---     N    13    13   ---   0.7 Scattered Clouds/
05/08/2005 20:55      24.0  17.0  25.3  24.0  65  1014   ---     N     5     5   ---   0.7 Few Clouds/
06/08/2005 07:55      24.0  16.0  25.1  20.3  61  1013   ---   NNW    19    19   ---   0.9 Scattered Clouds/
06/08/2005 08:55      25.0  15.0  25.7  22.0  54  1013   ---     N    18    18   ---   0.9 Scattered Clouds/
06/08/2005 09:55      26.0  18.0  27.1  23.4  61  1013   ---     N    18    18   ---   0.9 Scattered Clouds/
06/08/2005 10:55      27.0  17.0  27.7  25.1  54  1013   ---     N    14    14   ---   0.9 Scattered Clouds/
06/08/2005 11:55      27.0  17.0  27.7  24.5  54  1014   ---   NNW    19    19   ---   0.9 Scattered Clouds/
06/08/2005 12:55      27.0  16.0  27.5  24.5  51  1013   ---   NNW    19    19   ---   0.9 Scattered Clouds/
06/08/2005 13:55      27.0  18.0  27.9  24.4  58  1014   ---   NNW    21    21   ---   0.9 Scattered Clouds/
06/08/2005 14:55      28.0  16.0  28.3  26.2  48  1013   ---   NNW    16    16   ---   0.9 Scattered Clouds/
06/08/2005 15:55      28.0  17.0  28.6  25.8  51  1013   ---   NNW    23    23   ---   0.9 Scattered Clouds/
06/08/2005 16:55      28.0  14.0  27.8  25.9  42  1013   ---     N    19    19   ---   0.9 Few Clouds/
06/08/2005 17:55      28.0  18.0  28.9  25.8  55  1012   ---     N    23    23   ---   0.9 Few Clouds/
06/08/2005 18:55      27.0  18.0  27.9  24.9  58  1012   ---   NNW    16    16   ---   0.9 Few Clouds/
06/08/2005 19:55      27.0  18.0  27.9  25.8  58  1012   ---    NW    10    10   ---   0.9 Scattered Clouds/
06/08/2005 20:55      25.0  18.0  26.3  22.1  65  1012   ---    NW    16    16   ---   0.7 Few Clouds/
07/08/2005 07:55      22.0   8.0  22.0  21.0  41  1010   ---   WSW     6     6   ---   --- /
07/08/2005 08:55      23.0  11.0  23.3  23.0  47  1010   ---     N     0     0   ---   --- /
07/08/2005 09:55      25.0  14.0  25.5  25.0  51  1010   ---     N     5     5   ---   --- /
07/08/2005 10:55      28.0  15.0  28.0  27.0  45  1009   ---   ENE    10    10   ---   --- /
07/08/2005 11:55      29.0  14.0  28.6  28.6  40  1009   ---   NNE     6     6   ---   --- /
07/08/2005 12:55      30.0  17.0  30.4  29.0  46  1009   ---   NNW    14    14   ---   0.7 Few Clouds/
06/08/2005 13:55      27.0  18.0  27.9  24.4  58  1014   ---   NNW    21    21   ---   0.9 Scattered Clouds/
07/08/2005 14:55      31.0  19.0  32.4  30.2  49  1009   ---   WNW    19    19   ---   0.7 Few Clouds/
07/08/2005 15:55      31.0  17.0  31.4  30.1  43  1008   ---   WNW    21    21   ---   0.7 Few Clouds/
07/08/2005 16:55      31.0  16.0  31.0  30.1  41  1008   ---   WNW    23    23   ---   --- /
07/08/2005 17:55      31.0  14.0  30.3  30.1  36  1008   ---   WNW    21    21   ---   6.0 Few Clouds/
07/08/2005 18:55      29.0  15.0  28.9  27.5  43  1008   ---   WNW    18    18   ---   6.0 Few Clouds/
07/08/2005 19:55      29.0  14.0  28.6  28.2  40  1008   ---     W    10    10   ---   --- /
07/08/2005 20:55      27.0  14.0  27.1  25.8  45  1008   ---     W    10    10   ---   --- /
08/08/2005 07:55      24.0  19.0  25.9  22.5  74  1008   ---     W     8     8   ---   0.7 Scattered Clouds/
08/08/2005 08:55      24.0  19.0  25.9  21.1  74  1008   ---     W    14    14   ---   0.7 Scattered Clouds/
08/08/2005 09:55      27.0  18.0  27.9  26.4  58  1009   ---     W     6     6   ---   0.7 Scattered Clouds/
08/08/2005 10:55      28.0  17.0  28.6  26.6  51  1009   ---    NW    13    13   ---   0.7 Scattered Clouds/
08/08/2005 12:55      29.0  18.0  29.9  28.3  52  1009   ---   WNW     8     8   ---   0.7 Scattered Clouds/
08/08/2005 13:55      30.0  18.0  30.8  28.9  49  1009   ---    NW    16    16   ---   0.7 Scattered Clouds/
08/08/2005 14:55      30.0  17.0  30.4  28.9  46  1009   ---    NW    16    16   ---   0.7 Few Clouds/
08/08/2005 15:55      29.0  18.0  29.9  27.7  52  1009   ---    NW    14    14   ---   0.7 Scattered Clouds/
08/08/2005 16:55      29.0  19.0  30.3  27.4  55  1009   ---    NW    19    19   ---   0.7 Few Clouds/
08/08/2005 17:55      28.0  19.0  29.3  25.9  58  1009   ---    NW    21    21   ---   0.7 Few Clouds/
08/08/2005 18:55      27.0  19.0  28.2  24.3  62  1009   ---    NW    23    23   ---   0.7 Few Clouds/
08/08/2005 19:55      26.0  18.0  27.1  22.6  61  1009   ---    NW    26    26   ---   0.7 Few Clouds/
08/08/2005 20:55      25.0  19.0  26.6  23.4  69  1009   ---    NW    10    10   ---   0.7 Few Clouds/
09/08/2005 08:55      23.0  18.0  24.9  23.0  73  1013   ---     N     0     0   ---   --- /
09/08/2005 09:55      26.0  19.0  27.3  26.0  65  1013   ---   ---     0     0   ---   --- /
09/08/2005 10:55      27.0  18.0  27.9  27.0  58  1014   ---   ENE     5     5   ---   0.9 Few Clouds/
09/08/2005 11:55      29.0  18.0  29.9  29.0  52  1014   ---    NE     5     5   ---   0.9 Few Clouds/
09/08/2005 12:55      28.0  20.0  29.7  27.2  62  1014   ---    SE     8     8   ---   0.9 Few Clouds/
09/08/2005 13:55      29.0  19.0  30.3  27.9  55  1014   ---   ESE    13    13   ---   0.9 Few Clouds/
09/08/2005 14:55      28.0  21.0  30.1  26.6  66  1015   ---   ESE    13    13   ---   0.9 Few Clouds/
09/08/2005 15:55      28.0  20.0  29.7  26.2  62  1015   ---     E    16    16   ---   0.9 Scattered Clouds/
09/08/2005 17:55      27.0  20.0  28.5  25.3  66  1015   ---     E    13    13   ---   0.8 Scattered Clouds/
09/08/2005 18:55      27.0  20.0  28.5  25.3  66  1014   ---     E    13    13   ---   0.8 Scattered Clouds/
09/08/2005 19:55      26.0  21.0  27.9  25.4  74  1014   ---     E     6     6   ---   --- /
09/08/2005 20:55      25.0  21.0  27.2  25.0  79  1014   ---     E     3     3   ---   0.8 Few Clouds/
10/08/2005 07:55      23.0  16.0  24.3  22.1  65  1015   ---   WSW     6     6   ---   --- /
10/08/2005 08:55      24.0  17.0  25.3  24.0  65  1015   ---     N     0     0   ---   --- /
10/08/2005 09:55      26.0  18.0  27.1  26.0  61  1015   ---   ---     0     0   ---   --- /
10/08/2005 10:55      28.0  18.0  28.9  28.0  55  1015   ---     E     3     3   ---   --- /
10/08/2005 11:55      29.0  18.0  29.9  28.3  52  1015   ---   ESE     8     8   ---   --- /
10/08/2005 12:55      30.0  18.0  30.8  29.5  49  1015   ---   ESE     8     8   ---   --- /
10/08/2005 13:55      30.0  19.0  31.3  29.2  52  1015   ---     E    13    13   ---   --- /
10/08/2005 14:55      30.0  20.0  31.9  29.2  55  1015   ---     E    13    13   ---   --- /
10/08/2005 15:55      30.0  20.0  31.9  29.4  55  1014   ---     E    10    10   ---   --- /
10/08/2005 16:55      30.0  21.0  32.6  29.2  59  1013   ---     E    13    13   ---   --- /
10/08/2005 17:55      29.0  22.0  32.0  28.3  66  1013   ---   ESE     8     8   ---   --- /
10/08/2005 18:55      29.0  22.0  32.0  28.6  66  1013   ---   ESE     6     6   ---   --- /
10/08/2005 20:55      28.0  23.0  31.3  28.0  74  1014   ---    SE     5     5   ---   --- /
11/08/2005 07:55      25.0  13.0  25.3  23.7  47  1013   ---   WSW     8     8   ---   6.0 Scattered Clouds/
11/08/2005 08:55      26.0  14.0  26.3  26.0  48  1013   ---     N     0     0   ---   6.0 Scattered Clouds/
11/08/2005 09:55      28.0  16.0  28.3  28.0  48  1013   ---   ---     0     0   ---   6.0 Scattered Clouds/
11/08/2005 10:55      30.0  17.0  30.4  29.7  46  1013   ---     E     6     6   ---   --- /
11/08/2005 11:55      31.0  16.0  31.0  30.8  41  1013   ---   ENE     6     6   ---   --- /
11/08/2005 12:55      32.0  16.0  32.0  31.8  38  1013   ---   ENE    10    10   ---   --- /
11/08/2005 13:55      31.0  16.0  31.0  30.6  41  1013   ---     E    10    10   ---   --- /
11/08/2005 14:55      32.0  15.0  31.6  31.9  36  1013   ---   ENE     6     6   ---   --- /
11/08/2005 15:55      32.0  16.0  32.0  31.8  38  1013   ---     E     8     8   ---   --- /
11/08/2005 16:55      32.0  15.0  31.6  31.8  36  1012   ---     E     8     8   ---   --- /
11/08/2005 18:55      31.0  15.0  30.6  30.8  38  1012   ---     E     6     6   ---   --- /
11/08/2005 19:55      30.0  18.0  30.8  30.0  49  1012   ---     N     0     0   ---   --- /
11/08/2005 20:55      29.0  19.0  30.3  29.0  55  1012   ---   ---     0     0   ---   --- /
12/08/2005 07:55      26.0  18.0  27.1  26.0  61  1010   ---   SSW     5     5   ---   3.0 Scattered Clouds/
11/08/2005 08:55      26.0  14.0  26.3  26.0  48  1013   ---     N     0     0   ---   6.0 Scattered Clouds/
12/08/2005 09:55      29.0  18.0  29.9  29.0  52  1010   ---     N     5     5   ---   3.0 Broken Clouds/
12/08/2005 10:55      32.0  18.0  32.9  31.6  43  1011   ---   NNE    23    23   ---   3.0 Scattered Clouds/
12/08/2005 11:55      32.0  20.0  34.2  31.9  49  1012   ---   NNE     6     6   ---   3.0 Scattered Clouds/
12/08/2005 12:55      30.0  22.0  33.3  29.0  62  1012   ---   SSE    14    14   ---   3.0 Broken Clouds/
12/08/2005 13:55      30.0  23.0  34.2  29.7  66  1012   ---   SSE     6     6   ---   3.0 Broken Clouds/
12/08/2005 14:55      31.0  22.0  34.6  31.0  59  1011   ---   ENE     5     5   ---   3.0 Broken Clouds/
12/08/2005 15:55      30.0  22.0  33.3  30.0  62  1011   ---   ENE     3     3   ---   2.7 Broken Clouds/
12/08/2005 17:55      31.0  23.0  35.5  31.0  63  1011   ---   ENE     5     5   ---   0.7 Broken Clouds/
12/08/2005 18:55      30.0  23.0  34.2  29.2  66  1012   ---   WNW    13    13   ---   0.7 Broken Clouds/
12/08/2005 19:55      30.0  21.0  32.6  28.9  59  1012   ---     W    16    16   ---   3.3 Few Clouds/
12/08/2005 20:55      27.0  19.0  28.2  25.8  62  1012   ---     N    10    10   ---   2.1 Scattered Clouds/
13/08/2005 07:55      23.0  11.0  23.3  23.0  47  1014   ---   WSW     5     5   ---   --- /
13/08/2005 08:55      24.0  12.0  24.3  24.0  47  1015   ---    SW     3     3   ---   --- /
13/08/2005 09:55      26.0  13.0  26.2  26.0  45  1015   ---     N     0     0   ---   --- /
13/08/2005 10:55      28.0  15.0  28.0  28.0  45  1015   ---     N     3     3   ---   --- /
13/08/2005 11:55      29.0  15.0  28.9  28.6  43  1015   ---   ENE     6     6   ---   --- /
13/08/2005 12:55      29.0  17.0  29.5  28.2  48  1016   ---     E    10    10   ---   --- /
13/08/2005 13:55      29.0  19.0  30.3  27.9  55  1016   ---    NE    13    13   ---   --- /
13/08/2005 14:55      29.0  21.0  31.4  27.9  62  1016   ---    NE    13    13   ---   --- /
13/08/2005 15:55      29.0  21.0  31.4  27.6  62  1016   ---   ESE    16    16   ---   --- /
13/08/2005 16:55      28.0  21.0  30.1  26.4  66  1016   ---   ESE    14    14   ---   --- /
13/08/2005 17:55      28.0  20.0  29.7  26.6  62  1016   ---   ESE    13    13   ---   --- /
13/08/2005 18:55      28.0  19.0  29.3  27.0  58  1016   ---   NNE    10    10   ---   --- /
13/08/2005 19:55      27.0  19.0  28.2  25.8  62  1016   ---   NNE    10    10   ---   --- /
13/08/2005 20:55      25.0  18.0  26.3  25.0  65  1016   ---   NNE     5     5   ---   --- /
14/08/2005 07:55      22.0  18.0  24.2  22.0  78  1017   ---     W     3     3   ---   --- /
14/08/2005 08:55      25.0  18.0  26.3  25.0  65  1017   ---     N     0     0   ---   --- /
14/08/2005 09:55      27.0  17.0  27.7  27.0  54  1017   ---   ---     0     0   ---   --- /
14/08/2005 10:55      29.0  14.0  28.6  28.6  40  1017   ---   ENE     6     6   ---   --- /
14/08/2005 11:55      30.0  14.0  29.4  29.7  38  1017   ---     E     6     6   ---   --- /
14/08/2005 12:55      30.0  14.0  29.4  29.2  38  1017   ---     E    13    13   ---   --- /
14/08/2005 13:55      31.0  14.0  30.3  30.3  36  1017   ---     E    16    16   ---   --- /
14/08/2005 14:55      30.0  16.0  30.0  28.9  43  1016   ---     E    16    16   ---   0.9 Few Clouds/
14/08/2005 15:55      30.0  16.0  30.0  28.9  43  1016   ---   ESE    16    16   ---   0.8 Few Clouds/
14/08/2005 16:55      30.0  16.0  30.0  29.2  43  1016   ---   ESE    13    13   ---   0.8 Few Clouds/
14/08/2005 17:55      30.0  16.0  30.0  29.4  43  1015   ---     E    10    10   ---   0.8 Few Clouds/
14/08/2005 18:55      28.0  19.0  29.3  27.0  58  1015   ---   ESE    10    10   ---   0.8 Few Clouds/
14/08/2005 19:55      27.0  21.0  28.8  26.0  70  1015   ---   ENE     8     8   ---   0.7 Scattered Clouds/
14/08/2005 20:55      27.0  21.0  28.8  27.0  70  1015   ---     N     0     0   ---   0.7 Few Clouds/
15/08/2005 07:55      24.0  15.0  24.8  24.0  57  1013   ---   ---     0     0   ---   --- /
15/08/2005 08:55      25.0  12.0  25.2  25.0  44  1012   ---   ---     0     0   ---   --- /
15/08/2005 09:55      28.0  14.0  27.8  28.0  42  1012   ---   ---     0     0   ---   --- /
15/08/2005 09:55      28.0  14.0  27.8  28.0  42  1012   ---   ---     0     0   ---   --- None reported/None reported
15/08/2005 12:55      31.0  14.0  30.3  30.6  36  1012   ---   ESE    10    10   ---   --- /
15/08/2005 13:55      32.0  12.0  30.8  31.6  30  1012   ---     W    19    19   ---   --- /
15/08/2005 14:55      31.0  12.0  29.9  30.2  31  1012   ---   NNW    18    18   ---   --- /
15/08/2005 15:55      31.0  12.0  29.9  30.1  31  1012   ---   NNW    23    23   ---   --- /
15/08/2005 16:55      31.0  11.0  29.7  30.0  29  1011   ---    NW    31    31   ---   --- /
15/08/2005 17:55      30.0  13.0  29.2  28.7  35  1011   ---    NW    23    23   ---   --- /
15/08/2005 18:55      29.0  13.0  28.4  27.4  37  1011   ---   WNW    19    19   ---   --- /
15/08/2005 19:55      28.0  13.0  27.6  26.1  40  1011   ---   WNW    18    18   ---   --- /
15/08/2005 20:55      27.0  14.0  27.1  27.0  45  1011   ---     N     0     0   ---   --- /
16/08/2005 07:55      22.0  15.0  23.3  22.0  65  1011   ---   WSW     5     5   ---   0.7 Few Clouds/
16/08/2005 08:55      24.0  18.0  25.6  23.2  69  1011   ---    NW     6     6   ---   0.7 Few Clouds/
16/08/2005 09:55      25.0  18.0  26.3  23.7  65  1012   ---    NW     8     8   ---   0.7 Few Clouds/
16/08/2005 10:55      26.0  18.0  27.1  24.1  61  1012   ---     N    13    13   ---   0.7 Few Clouds/
16/08/2005 11:55      27.0  16.0  27.5  25.3  51  1012   ---    NW    13    13   ---   0.7 Few Clouds/
16/08/2005 12:55      27.0  15.0  27.3  24.5  48  1012   ---     N    19    19   ---   0.7 Few Clouds/
16/08/2005 13:55      27.0  17.0  27.7  24.4  54  1012   ---     N    21    21   ---   0.7 Few Clouds/
16/08/2005 14:55      28.0  17.0  28.6  26.1  51  1012   ---     N    18    18   ---   0.7 Few Clouds/
16/08/2005 16:55      28.0  16.0  28.3  26.1  48  1012   ---     N    18    18   ---   0.7 Few Clouds/
16/08/2005 17:55      27.0  15.0  27.3  25.1  48  1012   ---     N    14    14   ---   0.7 Few Clouds/
16/08/2005 18:55      26.0  13.0  26.2  23.5  45  1012   ---   NNE    16    16   ---   --- /
15/08/2005 19:55      28.0  13.0  27.6  26.1  40  1011   ---   WNW    18    18   ---   --- /
16/08/2005 20:55      24.0  17.0  25.3  22.5  65  1012   ---     N     8     8   ---   --- /
17/08/2005 07:55      20.0  14.0  21.5  17.8  68  1014   ---   WSW     8     8   ---   --- /
17/08/2005 08:55      22.0  15.0  23.3  22.0  65  1014   ---    SW     5     5   ---   --- /
17/08/2005 09:55      24.0  14.0  24.6  24.0  54  1015   ---   ESE     3     3   ---   --- /
17/08/2005 10:55      26.0  12.0  26.0  26.0  42  1015   ---    NE     3     3   ---   --- /
17/08/2005 11:55      27.0  12.0  26.8  26.0  39  1015   ---   ENE     8     8   ---   --- /
17/08/2005 12:55      28.0  12.0  27.5  27.2  37  1015   ---     E     8     8   ---   --- /
17/08/2005 13:55      28.0  13.0  27.6  26.6  40  1015   ---     E    13    13   ---   --- /
17/08/2005 14:55      28.0  12.0  27.5  26.4  37  1015   ---     E    14    14   ---   0.8 Few Clouds/
17/08/2005 16:55      28.0  14.0  27.8  26.4  42  1015   ---   ESE    14    14   ---   --- /
16/08/2005 17:55      27.0  15.0  27.3  25.1  48  1012   ---     N    14    14   ---   0.7 Few Clouds/
17/08/2005 18:55      27.0  15.0  27.3  25.3  48  1015   ---   ESE    13    13   ---   --- /
17/08/2005 19:55      26.0  17.0  26.9  24.6  58  1015   ---   ESE    10    10   ---   --- /
17/08/2005 20:55      24.0  17.0  25.3  23.2  65  1015   ---    SE     6     6   ---   --- /
18/08/2005 07:55      21.0   9.0  21.3  19.9  46  1015   ---   WSW     6     6   ---   --- /
18/08/2005 08:55      23.0  11.0  23.3  23.0  47  1015   ---     N     0     0   ---   --- /
18/08/2005 09:55      25.0  13.0  25.3  25.0  47  1016   ---   ---     0     0   ---   --- /
18/08/2005 10:55      27.0  11.0  26.7  27.0  37  1016   ---   ---     0     0   ---   --- /
18/08/2005 11:55      28.0  13.0  27.6  28.0  40  1016   ---   ---     0     0   ---   --- /
18/08/2005 12:55      28.0  14.0  27.8  27.0  42  1016   ---     E    10    10   ---   --- /
18/08/2005 13:55      28.0  15.0  28.0  26.6  45  1016   ---   ENE    13    13   ---   --- /
18/08/2005 13:55      28.0  15.0  28.0  26.6  45  1016   ---   ENE    13    13   ---   --- None reported/None reported
18/08/2005 14:55      28.0  15.0  28.0  27.0  45  1015   ---   ENE    10    10   ---   --- /
18/08/2005 15:55      28.0  16.0  28.3  27.0  48  1015   ---     E    10    10   ---   3.0 Scattered Clouds/
18/08/2005 16:55      28.0  16.0  28.3  26.6  48  1015   ---     E    13    13   ---   3.0 Scattered Clouds/
18/08/2005 17:55      27.0  16.0  27.5  26.4  51  1015   ---   ENE     6     6   ---   3.0 Scattered Clouds/
18/08/2005 18:55      27.0  17.0  27.7  26.4  54  1015   ---     E     6     6   ---   3.0 Scattered Clouds/
18/08/2005 20:55      25.0  18.0  26.3  25.0  65  1014   ---     N     0     0   ---   3.0 Scattered Clouds/
18/08/2005 20:55      25.0  18.0  26.3  25.0  65  1014   ---   ---     0     0   ---   0.1 Scattered Clouds/None reported
19/08/2005 07:55      23.0  20.0  25.6  22.1  83  1017   ---    NW     6     6   ---   1.0 Overcast/
19/08/2005 08:55      22.0  18.0  24.2  18.9  78  1016   ---   SSW    13    13   ---   1.0 Overcast/
19/08/2005 09:55      22.0  18.0  24.2  22.0  78  1015   ---     N     0     0   ---   1.0 Broken Clouds/
19/08/2005 10:55      24.0  18.0  25.6  24.0  69  1014   ---     N     3     3   ---   0.9 Scattered Clouds/
19/08/2005 11:55      28.0  18.0  28.9  28.0  55  1014   ---     N     0     0   ---   --- /
19/08/2005 12:55      31.0  15.0  30.6  30.6  38  1015   ---     E    10    10   ---   --- /
19/08/2005 13:55      30.0  16.0  30.0  29.2  43  1015   ---     E    13    13   ---   --- /
19/08/2005 14:55      30.0  20.0  31.9  28.8  55  1015   ---   NNW    19    19   ---   --- /
19/08/2005 15:55      29.0  20.0  30.8  27.0  58  1016   ---   NNW    29    29   ---   --- /
19/08/2005 16:55      29.0  19.0  30.3  27.3  55  1016   ---   NNW    21    21   ---   --- /
19/08/2005 17:55      30.0  19.0  31.3  29.5  52  1016   ---     N     8     8   ---   --- /
19/08/2005 18:55      30.0  20.0  31.9  29.4  55  1015   ---   ENE    10    10   ---   --- /
19/08/2005 19:55      27.0  21.0  28.8  26.0  70  1015   ---     E     8     8   ---   --- /
19/08/2005 20:55      26.0  21.0  27.9  26.0  74  1016   ---    SE     5     5   ---   --- /
20/08/2005 07:55      23.0  16.0  24.3  23.0  65  1015   ---     N     0     0   ---   --- /
20/08/2005 09:55      26.0  19.0  27.3  26.0  65  1016   ---   ---     0     0   ---   3.0 Scattered Clouds/
20/08/2005 10:55      27.0  20.0  28.5  27.0  66  1016   ---   ---     0     0   ---   0.7 Few Clouds/
20/08/2005 11:55      29.0  20.0  30.8  28.6  58  1016   ---     E     6     6   ---   0.7 Few Clouds/
20/08/2005 12:55      29.0  21.0  31.4  28.3  62  1016   ---     E     8     8   ---   0.7 Few Clouds/
20/08/2005 13:55      29.0  21.0  31.4  28.3  62  1015   ---     E     8     8   ---   0.7 Few Clouds/
20/08/2005 14:55      29.0  22.0  32.0  28.2  66  1015   ---     E    10    10   ---   0.7 Few Clouds/
20/08/2005 15:55      29.0  22.0  32.0  28.3  66  1015   ---     E     8     8   ---   0.7 Few Clouds/
20/08/2005 16:55      28.0  22.0  30.7  27.2  70  1014   ---   ESE     8     8   ---   0.7 Few Clouds/
20/08/2005 17:55      28.0  22.0  30.7  27.0  70  1014   ---   ESE    10    10   ---   0.7 Scattered Clouds/
20/08/2005 18:55      27.0  22.0  29.2  25.8  74  1014   ---     N    10    10   ---   0.7 Scattered Clouds/
20/08/2005 20:55      25.0  21.0  27.2  25.0  79  1015   ---     N     5     5   ---   0.7 Scattered Clouds/
21/08/2005 07:55      23.0  19.0  25.2  22.1  78  1013   ---    NW     6     6   ---   0.7 Scattered Clouds/
21/08/2005 08:55      23.0  19.0  25.2  23.0  78  1013   ---     S     3     3   ---   0.7 Few Clouds/
21/08/2005 09:55      25.0  18.0  26.3  25.0  65  1013   ---     N     3     3   ---   0.7 Scattered Clouds/
21/08/2005 10:55      27.0  19.0  28.2  27.0  62  1013   ---    NE     3     3   ---   0.7 Scattered Clouds/
21/08/2005 11:55      27.0  19.0  28.2  27.0  62  1013   ---   NNW     5     5   ---   0.7 Broken Clouds/
21/08/2005 12:55      28.0  19.0  29.3  28.0  58  1013   ---   NNW     5     5   ---   0.7 Scattered Clouds/
21/08/2005 13:55      28.0  19.0  29.3  26.6  58  1013   ---   ENE    13    13   ---   0.8 Broken Clouds/
21/08/2005 14:55      27.0  19.0  28.2  25.3  62  1012   ---   ESE    13    13   ---   0.8 Broken Clouds/
21/08/2005 15:55      27.0  19.0  28.2  25.3  62  1012   ---    SE    13    13   ---   0.8 Broken Clouds/
21/08/2005 16:55      27.0  19.0  28.2  26.0  62  1012   ---   ESE     8     8   ---   0.8 Scattered Clouds/
21/08/2005 17:55      27.0  20.0  28.5  25.8  66  1011   ---     E    10    10   ---   0.8 Scattered Clouds/
21/08/2005 18:55      27.0  17.0  27.7  25.1  54  1012   ---     W    14    14   ---   0.8 Scattered Clouds/
21/08/2005 19:55      26.0  19.0  27.3  24.1  65  1012   ---    NW    13    13   ---   0.8 Scattered Clouds/
21/08/2005 20:55      25.0  18.0  26.3  25.0  65  1012   ---   WNW     5     5   ---   0.8 Scattered Clouds/
22/08/2005 07:55      21.0  15.0  22.5  17.2  69  1012   ---     W    14    14   ---   0.7 Few Clouds/
22/08/2005 08:55      22.0  15.0  23.3  18.9  65  1012   ---     W    13    13   ---   0.7 Few Clouds/
22/08/2005 09:55      23.0  15.0  24.1  19.2  61  1013   ---     W    18    45   ---   0.7 Broken Clouds/
22/08/2005 10:55      24.0  14.0  24.6  20.1  54  1013   ---   WNW    21    21   ---   0.7 Broken Clouds/
22/08/2005 11:55      24.0  15.0  24.8  20.3  57  1013   ---     W    19    19   ---   0.7 Broken Clouds/
22/08/2005 12:55      26.0  14.0  26.3  23.1  48  1013   ---   WNW    19    19   ---   0.7 Broken Clouds/
22/08/2005 13:55      26.0  14.0  26.3  22.5  48  1013   ---   WNW    27    27   ---   0.7 Scattered Clouds/
22/08/2005 14:55      27.0  13.0  27.0  24.4  42  1013   ---   WNW    21    21   ---   0.7 Scattered Clouds/
22/08/2005 15:55      27.0  13.0  27.0  24.0  42  1013   ---   WNW    29    29   ---   0.7 Scattered Clouds/
22/08/2005 16:55      26.0  13.0  26.2  22.5  45  1012   ---   WNW    27    47   ---   0.7 Scattered Clouds/
22/08/2005 17:55      26.0  13.0  26.2  23.0  45  1012   ---   WNW    21    21   ---   0.7 Scattered Clouds/
22/08/2005 18:55      24.0  16.0  25.1  19.5  61  1012   ---   WNW    27    27   ---   0.7 Broken Clouds/
22/08/2005 19:55      24.0  15.0  24.8  20.1  57  1012   ---   WNW    21    21   ---   0.7 Broken Clouds/
22/08/2005 20:55      23.0  16.0  24.3  19.2  65  1011   ---   WNW    18    18   ---   0.7 Broken Clouds/
23/08/2005 07:55      21.0  16.0  22.9  19.0  73  1012   ---   WNW     8     8   ---   0.7 Broken Clouds/
23/08/2005 08:55      22.0  17.0  23.9  18.9  73  1012   ---     W    13    13   ---   0.7 Broken Clouds/
23/08/2005 13:55      26.0  15.0  26.5  24.1  51  1013   ---    NW    13    13   ---   0.6 Broken Clouds/
23/08/2005 15:55      28.0  16.0  28.3  26.1  48  1013   ---   WNW    18    18   ---   0.7 Broken Clouds/
23/08/2005 16:55      27.0  15.0  27.3  24.3  48  1013   ---   WNW    23    23   ---   0.7 Scattered Clouds/
23/08/2005 17:55      27.0  16.0  27.5  24.4  51  1013   ---    NW    21    21   ---   0.7 Scattered Clouds/
23/08/2005 18:55      25.0  15.0  25.7  22.8  54  1012   ---   NNW    13    13   ---   0.7 Scattered Clouds/
23/08/2005 19:55      24.0  14.0  24.6  24.0  54  1013   ---     W     5     5   ---   0.7 Scattered Clouds/
23/08/2005 20:55      23.0  14.0  23.8  22.1  57  1013   ---     W     6     6   ---   0.7 Scattered Clouds/
24/08/2005 07:55      21.0  17.0  23.2  21.0  78  1012   ---     N     0     0   ---   0.8 Broken Clouds/
24/08/2005 08:55      22.0  17.0  23.9  22.0  73  1013   ---   SSW     5     5   ---   0.7 Overcast/
24/08/2005 09:55      22.0  18.0  24.2  22.0  78  1013   ---     N     0     0   ---   0.7 Broken Clouds/
24/08/2005 10:55      23.0  17.0  24.6  23.0  69  1013   ---     N     5     5   ---   0.7 Broken Clouds/
24/08/2005 11:55      25.0  17.0  26.1  23.4  61  1014   ---     N    10    10   ---   0.8 Scattered Clouds/
24/08/2005 12:55      27.0  14.0  27.1  25.8  45  1014   ---     N    10    10   ---   0.8 Scattered Clouds/
24/08/2005 13:55      26.0  16.0  26.7  23.4  54  1014   ---   NNE    18    18   ---   0.8 Broken Clouds/
24/08/2005 14:55      27.0  14.0  27.1  25.1  45  1014   ---   NNE    14    14   ---   0.8 Scattered Clouds/
24/08/2005 15:55      26.0  13.0  26.2  24.6  45  1014   ---   NNE    10    10   ---   0.8 Scattered Clouds/
24/08/2005 16:55      26.0  15.0  26.5  24.6  51  1013   ---    NE    10    10   ---   0.8 Scattered Clouds/
24/08/2005 17:55      26.0  16.0  26.7  25.4  54  1013   ---   ENE     6     6   ---   0.8 Scattered Clouds/
24/08/2005 18:55      25.0  15.0  25.7  22.8  54  1013   ---   NNE    13    13   ---   0.8 Few Clouds/
24/08/2005 19:55      24.0  17.0  25.3  21.5  65  1013   ---   NNW    13    13   ---   0.8 Scattered Clouds/
24/08/2005 20:55      24.0  17.0  25.3  24.0  65  1013   ---     N     5     5   ---   0.8 Scattered Clouds/
25/08/2005 07:55      20.0  15.0  21.8  17.8  73  1014   ---   WSW     8     8   ---   --- /
24/08/2005 08:55      22.0  17.0  23.9  22.0  73  1013   ---   SSW     5     5   ---   0.7 Overcast/
25/08/2005 10:55      25.0  17.0  26.1  25.0  61  1015   ---     S     3     3   ---   0.7 Few Clouds/
25/08/2005 11:55      26.0  17.0  26.9  26.0  58  1015   ---   SSE     5     5   ---   0.7 Few Clouds/
25/08/2005 12:55      27.0  16.0  27.5  25.8  51  1015   ---     E    10    10   ---   0.7 Few Clouds/
24/08/2005 13:55      26.0  16.0  26.7  23.4  54  1014   ---   NNE    18    18   ---   0.8 Broken Clouds/
25/08/2005 14:55      27.0  18.0  27.9  25.3  58  1015   ---     E    13    13   ---   0.7 Scattered Clouds/
24/08/2005 15:55      26.0  13.0  26.2  24.6  45  1014   ---   NNE    10    10   ---   0.8 Scattered Clouds/
25/08/2005 15:55      27.0  17.0  27.7  25.3  54  1015   ---     E    13    13   ---   0.7 Few Clouds/
24/08/2005 17:55      26.0  16.0  26.7  25.4  54  1013   ---   ENE     6     6   ---   0.8 Scattered Clouds/
25/08/2005 18:55      25.0  18.0  26.3  23.4  65  1015   ---   ESE    10    10   ---   0.7 Few Clouds/
25/08/2005 19:55      25.0  18.0  26.3  25.0  65  1015   ---     E     5     5   ---   0.7 Few Clouds/
25/08/2005 20:55      24.0  18.0  25.6  24.0  69  1015   ---     N     0     0   ---   --- /
26/08/2005 07:55      20.0  17.0  22.6  17.8  83  1016   ---   WSW     8     8   ---   0.6 Few Clouds/
26/08/2005 08:55      22.0  18.0  24.2  22.0  78  1016   ---   SSW     5     5   ---   0.7 Few Clouds/
26/08/2005 09:55      24.0  19.0  25.9  24.0  74  1017   ---   SSE     5     5   ---   0.7 Scattered Clouds/
26/08/2005 10:55      25.0  19.0  26.6  25.0  69  1017   ---     E     5     5   ---   0.7 Scattered Clouds/
26/08/2005 12:55      26.0  19.0  27.3  23.8  65  1018   ---   ESE    14    14   ---   0.7 Few Clouds/
26/08/2005 14:55      26.0  19.0  27.3  23.8  65  1017   ---     E    14    14   ---   --- /
26/08/2005 16:55      26.0  18.0  27.1  23.8  61  1017   ---     E    14    14   ---   --- /
26/08/2005 17:55      26.0  19.0  27.3  23.4  65  1017   ---     E    18    18   ---   --- /
26/08/2005 18:55      25.0  18.0  26.3  22.8  65  1017   ---     E    13    13   ---   --- /
26/08/2005 19:55      24.0  19.0  25.9  22.2  74  1017   ---   ESE    10    10   ---   --- /
26/08/2005 20:55      23.0  19.0  25.2  21.3  78  1017   ---     E     8     8   ---   --- /
27/08/2005 07:55      21.0  17.0  23.2  21.0  78  1017   ---     W     5     5   ---   0.5 Few Clouds/
27/08/2005 08:55      22.0  17.0  23.9  22.0  73  1017   ---     N     0     0   ---   --- /
27/08/2005 09:55      24.0  19.0  25.9  24.0  74  1017   ---   ---     0     0   ---   0.7 Few Clouds/
27/08/2005 10:55      26.0  19.0  27.3  26.0  65  1017   ---   WNW     3     3   ---   0.7 Few Clouds/
27/08/2005 11:55      26.0  20.0  27.6  24.1  70  1017   ---     E    13    13   ---   0.7 Few Clouds/
27/08/2005 12:55      26.0  21.0  27.9  24.1  74  1017   ---   ESE    13    13   ---   0.7 Few Clouds/
27/08/2005 13:55      27.0  21.0  28.8  25.8  70  1017   ---     E    10    10   ---   0.7 Few Clouds/
27/08/2005 14:55      27.0  20.0  28.5  25.3  66  1017   ---   ESE    13    13   ---   0.7 Few Clouds/
27/08/2005 15:55      27.0  20.0  28.5  25.1  66  1017   ---   ESE    14    14   ---   0.7 Few Clouds/
27/08/2005 16:55      27.0  21.0  28.8  25.8  70  1016   ---   ESE    10    10   ---   0.7 Few Clouds/
27/08/2005 17:55      26.0  21.0  27.9  24.1  74  1016   ---   ESE    13    13   ---   0.7 Few Clouds/
27/08/2005 18:55      26.0  20.0  27.6  24.8  70  1016   ---     E     8     8   ---   --- /
26/08/2005 19:55      24.0  19.0  25.9  22.2  74  1017   ---   ESE    10    10   ---   --- /
27/08/2005 20:55      25.0  20.0  26.9  25.0  74  1016   ---     N     0     0   ---   --- /
28/08/2005 07:55      21.0  14.0  22.3  19.9  64  1015   ---   WSW     6     6   ---   --- /
28/08/2005 08:55      22.0  17.0  23.9  22.0  73  1015   ---   WSW     5     5   ---   --- /
28/08/2005 09:55      24.0  21.0  26.6  24.0  83  1015   ---     N     0     0   ---   --- /
28/08/2005 10:55      26.0  21.0  27.9  26.0  74  1015   ---     E     5     5   ---   --- /
28/08/2005 11:55      27.0  21.0  28.8  27.0  70  1015   ---     E     5     5   ---   0.7 Scattered Clouds/
28/08/2005 12:55      27.0  21.0  28.8  26.0  70  1015   ---   ESE     8     8   ---   0.7 Broken Clouds/
28/08/2005 13:55      26.0  21.0  27.9  25.4  74  1015   ---   ESE     6     6   ---   0.9 Broken Clouds/
28/08/2005 14:55      27.0  22.0  29.2  26.4  74  1015   ---     E     6     6   ---   0.9 Broken Clouds/
28/08/2005 15:55      27.0  22.0  29.2  25.8  74  1015   ---   ENE    10    10   ---   0.9 Scattered Clouds/
28/08/2005 16:55      26.0  22.0  28.3  23.5  79  1015   ---     E    16    16   ---   0.7 Scattered Clouds/
28/08/2005 18:55      26.0  22.0  28.3  25.4  79  1015   ---   ENE     6     6   ---   0.7 Broken Clouds/
28/08/2005 20:55      25.0  22.0  27.6  25.0  83  1014   ---    NW     5     5   ---   0.5 Overcast/
29/08/2005 07:55      21.0  16.0  22.9  19.0  73  1016   ---     W     8     8   ---   --- Overcast/ Light Rain
29/08/2005 08:55      21.0  17.0  23.2  21.0  78  1016   ---     W     5     5   ---   0.7 Overcast/
29/08/2005 09:55      21.0  18.0  23.6  19.9  83  1016   ---   WSW     6     6   ---   0.7 Overcast/
29/08/2005 10:55      22.0  19.0  24.6  22.0  83  1016   ---   WNW     5     5   ---   --- Overcast/ Light Rain
29/08/2005 11:55      22.0  20.0  25.0  22.0  88  1017   ---     N     0     0   ---   0.5 Overcast/
29/08/2005 12:55      23.0  21.0  26.0  23.0  89  1018   ---   ---     0     0   ---   0.6 Overcast/
29/08/2005 13:55      24.0  20.0  26.2  24.0  78  1018   ---   ---     0     0   ---   0.7 Broken Clouds/
29/08/2005 14:55      25.0  21.0  27.2  24.3  79  1018   ---     E     6     6   ---   0.7 Broken Clouds/
29/08/2005 15:55      25.0  21.0  27.2  24.3  79  1017   ---     E     6     6   ---   0.7 Broken Clouds/
29/08/2005 16:55      25.0  21.0  27.2  24.3  79  1017   ---   ESE     6     6   ---   0.7 Broken Clouds/
29/08/2005 17:55      24.0  20.0  26.2  20.8  78  1018   ---     E    16    16   ---   0.6 Overcast/
29/08/2005 18:55      23.0  19.0  25.2  23.0  78  1018   ---     N     0     0   ---   0.7 Broken Clouds/
29/08/2005 19:55      23.0  18.0  24.9  23.0  73  1018   ---     W     5     5   ---   0.7 Broken Clouds/
29/08/2005 20:55      23.0  18.0  24.9  23.0  73  1018   ---     N     0     0   ---   0.7 Broken Clouds/
30/08/2005 07:55      21.0  17.0  23.2  21.0  78  1018   ---    SW     5     5   ---   2.7 Broken Clouds/
30/08/2005 08:55      21.0  17.0  23.2  21.0  78  1019   ---   WSW     3     3   ---   2.7 Broken Clouds/
30/08/2005 10:55      24.0  18.0  25.6  24.0  69  1019   ---     N     0     0   ---   1.2 Broken Clouds/
30/08/2005 11:55      24.0  17.0  25.3  24.0  65  1019   ---   ---     0     0   ---   2.4 Broken Clouds/
30/08/2005 12:55      24.0  20.0  26.2  24.0  78  1019   ---   WSW     3     3   ---   3.0 Broken Clouds/
30/08/2005 13:55      27.0  17.0  27.7  27.0  54  1019   ---   ENE     3     3   ---   0.7 Scattered Clouds/
30/08/2005 14:55      27.0  19.0  28.2  25.1  62  1019   ---     E    14    14   ---   0.8 Broken Clouds/
30/08/2005 16:55      25.0  19.0  26.6  23.4  69  1018   ---   ENE    10    10   ---   0.7 Broken Clouds/
30/08/2005 18:55      23.0  21.0  26.0  23.0  89  1018   ---     N     0     0   ---   --- Overcast/ Light Rain
30/08/2005 19:55      23.0  21.0  26.0  23.0  89  1018   ---   ---     0     0   ---   0.6 Broken Clouds/
31/08/2005 07:55      20.0  16.0  22.2  20.0  78  1015   ---   ---     0     0   ---   0.7 Broken Clouds/
30/08/2005 08:55      21.0  17.0  23.2  21.0  78  1019   ---   WSW     3     3   ---   2.7 Broken Clouds/
31/08/2005 09:55      21.0  17.0  23.2  21.0  78  1015   ---     N     0     0   ---   0.7 Broken Clouds/
31/08/2005 10:55      24.0  18.0  25.6  24.0  69  1015   ---   ---     0     0   ---   0.7 Broken Clouds/
31/08/2005 11:55      25.0  18.0  26.3  25.0  65  1016   ---   ---     0     0   ---   0.7 Broken Clouds/
31/08/2005 12:55      25.0  18.0  26.3  24.3  65  1016   ---     N     6     6   ---   0.7 Broken Clouds/
31/08/2005 14:55      24.0  20.0  26.2  24.0  78  1015   ---     N     0     0   ---   --- Overcast/ Light Rain
31/08/2005 15:55      23.0  20.0  25.6  22.1  83  1015   ---     S     6     6   ---   0.7 Broken Clouds/
31/08/2005 16:55      25.0  20.0  26.9  25.0  74  1014   ---    NW     5     5   ---   0.7 Broken Clouds/
31/08/2005 17:55      24.0  20.0  26.2  22.5  78  1014   ---     N     8     8   ---   0.7 Broken Clouds/
31/08/2005 18:55      23.0  19.0  25.2  23.0  78  1014   ---   ESE     5     5   ---   0.7 Broken Clouds/
31/08/2005 19:55      22.0  19.0  24.6  22.0  83  1014   ---     S     5     5   ---   0.7 Broken Clouds/
31/08/2005 20:55      22.0  18.0  24.2  22.0  78  1014   ---     S     5     5   ---   0.7 Broken Clouds/
01/09/2005 07:55      20.0  16.0  22.2  20.0  78  1014   ---     W     5     5   ---   0.7 Few Clouds/
01/09/2005 08:55      21.0  17.0  23.2  21.0  78  1014   ---   WSW     3     3   ---   0.7 Scattered Clouds/
31/08/2005 09:55      21.0  17.0  23.2  21.0  78  1015   ---     N     0     0   ---   0.7 Broken Clouds/
01/09/2005 10:55      24.0  20.0  26.2  24.0  78  1014   ---   ESE     3     3   ---   0.6 Scattered Clouds/
01/09/2005 12:55      26.0  21.0  27.9  24.6  74  1015   ---   ENE    10    10   ---   0.7 Scattered Clouds/
01/09/2005 14:55      27.0  19.0  28.2  25.3  62  1015   ---     E    13    13   ---   0.7 Few Clouds/
01/09/2005 16:55      26.0  21.0  27.9  23.4  74  1014   ---     E    18    18   ---   0.6 Scattered Clouds/
01/09/2005 17:55      25.0  21.0  27.2  22.5  79  1015   ---     N    14    14   ---   0.6 Few Clouds/
01/09/2005 18:55      25.0  21.0  27.2  23.7  79  1015   ---     E     8     8   ---   0.6 Few Clouds/
01/09/2005 19:55      25.0  20.0  26.9  25.0  74  1015   ---     N     0     0   ---   0.6 Few Clouds/
01/09/2005 20:55      24.0  21.0  26.6  24.0  83  1015   ---   ESE     5     5   ---   --- /
02/09/2005 07:55      21.0  18.0  23.6  19.9  83  1018   ---   WSW     6     6   ---   0.7 Few Clouds/
02/09/2005 08:55      22.0  18.0  24.2  22.0  78  1018   ---   WSW     5     5   ---   0.6 Few Clouds/
02/09/2005 09:55      24.0  20.0  26.2  24.0  78  1019   ---     N     0     0   ---   0.6 Few Clouds/
02/09/2005 10:55      26.0  20.0  27.6  26.0  70  1019   ---   ---     0     0   ---   0.6 Few Clouds/
02/09/2005 11:55      27.0  20.0  28.5  27.0  66  1020   ---     S     3     3   ---   0.6 Few Clouds/
02/09/2005 12:55      28.0  19.0  29.3  27.2  58  1020   ---     E     8     8   ---   0.6 Few Clouds/
02/09/2005 13:55      28.0  20.0  29.7  27.0  62  1020   ---     E    10    10   ---   0.6 Few Clouds/
02/09/2005 14:55      28.0  21.0  30.1  26.6  66  1020   ---   ESE    13    13   ---   0.6 Few Clouds/
02/09/2005 15:55      28.0  21.0  30.1  26.6  66  1020   ---   ESE    13    13   ---   0.6 Few Clouds/
02/09/2005 17:55      26.0  21.0  27.9  24.6  74  1020   ---   ESE    10    10   ---   0.7 Few Clouds/
02/09/2005 19:55      25.0  21.0  27.2  25.0  79  1020   ---   ESE     3     3   ---   0.7 Few Clouds/
02/09/2005 20:55      24.0  21.0  26.6  24.0  83  1020   ---     N     0     0   ---   --- /
03/09/2005 07:55      21.0  16.0  22.9  21.0  73  1021   ---   ---     0     0   ---   --- /
02/09/2005 08:55      22.0  18.0  24.2  22.0  78  1018   ---   WSW     5     5   ---   0.6 Few Clouds/
03/09/2005 09:55      24.0  20.0  26.2  24.0  78  1022   ---     N     0     0   ---   --- /
03/09/2005 10:55      26.0  19.0  27.3  26.0  65  1022   ---   ---     0     0   ---   --- /
03/09/2005 11:55      27.0  19.0  28.2  27.0  62  1022   ---     E     5     5   ---   --- /
03/09/2005 12:55      28.0  19.0  29.3  27.5  58  1022   ---   ENE     6     6   ---   0.7 Few Clouds/
03/09/2005 13:55      28.0  20.0  29.7  27.2  62  1022   ---     E     8     8   ---   0.7 Few Clouds/
03/09/2005 14:55      28.0  19.0  29.3  27.0  58  1022   ---     E    10    10   ---   0.7 Few Clouds/
03/09/2005 15:55      28.0  19.0  29.3  26.6  58  1022   ---   ENE    13    13   ---   0.7 Few Clouds/
03/09/2005 16:55      28.0  19.0  29.3  26.4  58  1022   ---     E    14    14   ---   0.7 Few Clouds/
03/09/2005 17:55      28.0  21.0  30.1  26.6  66  1021   ---     E    13    13   ---   0.7 Few Clouds/
03/09/2005 18:55      27.0  22.0  29.2  26.4  74  1021   ---     E     6     6   ---   --- /
03/09/2005 19:55      25.0  21.0  27.2  24.3  79  1021   ---     E     6     6   ---   --- /
03/09/2005 20:55      24.0  21.0  26.6  24.0  83  1021   ---     N     0     0   ---   --- /
03/09/2005 20:55      24.0  21.0  26.6  24.0  83  1021   ---   ---     0     0   ---   --- None reported/None reported
03/09/2005 20:55      24.0  21.0  26.6  24.0  83  1021   ---   ---     0     0   ---   --- None reported/None reported
03/09/2005 20:55      24.0  21.0  26.6  24.0  83  1021   ---   ---     0     0   ---   --- None reported/None reported
03/09/2005 20:55      24.0  21.0  26.6  24.0  83  1021   ---   ---     0     0   ---   --- None reported/None reported
03/09/2005 20:55      24.0  21.0  26.6  24.0  83  1021   ---   ---     0     0   ---   --- None reported/None reported
04/09/2005 07:55      22.0  19.0  24.6  22.0  83  1020   ---   ---     0     0   ---   --- /
04/09/2005 08:55      23.0  19.0  25.2  22.1  78  1021   ---   SSW     6     6   ---   --- /
04/09/2005 09:55      25.0  19.0  26.6  25.0  69  1021   ---     S     5     5   ---   --- /
04/09/2005 10:55      26.0  19.0  27.3  26.0  65  1021   ---     E     3     3   ---   --- /
04/09/2005 11:55      27.0  19.0  28.2  26.0  62  1021   ---     E     8     8   ---   --- /
04/09/2005 12:55      27.0  18.0  27.9  25.3  58  1021   ---     E    13    13   ---   --- /
04/09/2005 13:55      28.0  20.0  29.7  26.4  62  1021   ---     E    14    14   ---   --- /
03/09/2005 14:55      28.0  19.0  29.3  27.0  58  1022   ---     E    10    10   ---   0.7 Few Clouds/
04/09/2005 15:55      28.0  19.0  29.3  26.6  58  1020   ---   ESE    13    13   ---   --- /
04/09/2005 16:55      28.0  21.0  30.1  26.6  66  1020   ---   ESE    13    13   ---   --- /
04/09/2005 17:55      27.0  23.0  29.6  25.1  79  1019   ---     E    14    14   ---   --- /
03/09/2005 18:55      27.0  22.0  29.2  26.4  74  1021   ---     E     6     6   ---   --- /
04/09/2005 19:55      26.0  22.0  28.3  26.0  79  1019   ---     N     0     0   ---   --- /
04/09/2005 20:55      24.0  21.0  26.6  24.0  83  1019   ---    SE     5     5   ---   --- /
05/09/2005 08:55      23.0  19.0  25.2  23.0  78  1018   ---   WSW     5     5   ---   3.0 Few Clouds/
05/09/2005 09:55      24.0  21.0  26.6  24.0  83  1017   ---     N     0     0   ---   0.5 Few Clouds/
05/09/2005 10:55      26.0  20.0  27.6  26.0  70  1018   ---     E     3     3   ---   0.6 Few Clouds/
05/09/2005 11:55      27.0  21.0  28.8  25.8  70  1018   ---     E    10    10   ---   0.6 Few Clouds/
05/09/2005 12:55      28.0  21.0  30.1  27.2  66  1017   ---     E     8     8   ---   0.6 Few Clouds/
05/09/2005 13:55      28.0  21.0  30.1  26.4  66  1017   ---     E    14    14   ---   0.6 Few Clouds/
05/09/2005 15:55      28.0  21.0  30.1  26.6  66  1016   ---     E    13    13   ---   0.6 Scattered Clouds/
05/09/2005 16:55      28.0  21.0  30.1  28.0  66  1016   ---   ESE     5     5   ---   0.6 Few Clouds/
05/09/2005 17:55      27.0  20.0  28.5  25.8  66  1015   ---   NNE    10    10   ---   0.6 Scattered Clouds/
05/09/2005 18:55      26.0  19.0  27.3  24.1  65  1015   ---   NNE    13    13   ---   0.6 Scattered Clouds/
05/09/2005 19:55      25.0  20.0  26.9  22.8  74  1015   ---   ESE    13    13   ---   0.7 Broken Clouds/
05/09/2005 20:55      25.0  19.0  26.6  25.0  69  1016   ---     E     3     3   ---   0.7 Scattered Clouds/
06/09/2005 07:55      22.0  18.0  24.2  22.0  78  1014   ---     N     0     0   ---   0.7 Broken Clouds/
06/09/2005 08:55      22.0  18.0  24.2  22.0  78  1014   ---   WSW     5     5   ---   0.7 Scattered Clouds/
06/09/2005 09:55      25.0  19.0  26.6  25.0  69  1014   ---     N     0     0   ---   3.0 Scattered Clouds/
06/09/2005 11:55      28.0  16.0  28.3  27.2  48  1014   ---   ENE     8     8   ---   6.0 Scattered Clouds/
06/09/2005 12:55      28.0  17.0  28.6  27.2  51  1014   ---   NNE     8     8   ---   6.0 Scattered Clouds/
06/09/2005 13:55      28.0  17.0  28.6  26.4  51  1014   ---     E    14    14   ---   6.0 Scattered Clouds/
06/09/2005 14:55      29.0  18.0  29.9  27.6  52  1013   ---     E    16    16   ---   6.0 Scattered Clouds/
06/09/2005 15:55      28.0  20.0  29.7  26.1  62  1013   ---     E    18    18   ---   0.7 Few Clouds/
06/09/2005 16:55      28.0  20.0  29.7  26.4  62  1013   ---     E    14    14   ---   0.7 Scattered Clouds/
06/09/2005 17:55      27.0  21.0  28.8  25.8  70  1013   ---   ENE    10    10   ---   0.7 Scattered Clouds/
06/09/2005 18:55      27.0  21.0  28.8  26.0  70  1013   ---   ESE     8     8   ---   6.0 Scattered Clouds/
06/09/2005 19:55      26.0  21.0  27.9  24.8  74  1013   ---     E     8     8   ---   6.0 Scattered Clouds/
06/09/2005 20:55      25.0  21.0  27.2  25.0  79  1013   ---     N     0     0   ---   3.0 Scattered Clouds/
07/09/2005 07:55      24.0  17.0  25.3  24.0  65  1013   ---   ---     0     0   ---   0.7 Few Clouds/
07/09/2005 08:55      24.0  18.0  25.6  23.2  69  1014   ---   WNW     6     6   ---   0.7 Few Clouds/
07/09/2005 09:55      28.0  16.0  28.3  26.4  48  1014   ---   SSW    14    14   ---   0.7 Broken Clouds/
07/09/2005 11:55      31.0  16.0  31.0  30.2  41  1014   ---   WSW    19    40   ---   2.7 Broken Clouds/
07/09/2005 12:55      31.0  15.0  30.6  30.4  38  1014   ---   WSW    13    13   ---   2.7 Broken Clouds/
07/09/2005 14:55      33.0  14.0  32.3  33.0  32  1015   ---   SSW    13    13   ---   2.7 Broken Clouds/
07/09/2005 15:55      32.0  15.0  31.6  31.8  36  1014   ---    SE     8     8   ---   2.7 Broken Clouds/
07/09/2005 16:55      33.0  15.0  32.6  33.0  34  1013   ---   SSW    10    10   ---   2.7 Broken Clouds/
07/09/2005 17:55      33.0  15.0  32.6  33.0  34  1014   ---   SSW    14    14   ---   2.7 Broken Clouds/
07/09/2005 18:55      32.0  16.0  32.0  31.8  38  1014   ---   WSW     8     8   ---   2.7 Broken Clouds/
07/09/2005 19:55      31.0  18.0  31.9  30.7  46  1015   ---   WSW     8     8   ---   2.7 Broken Clouds/
07/09/2005 20:55      30.0  15.0  29.7  28.9  40  1016   ---     W    16    16   ---   2.7 Broken Clouds/
08/09/2005 07:55      25.0  11.0  25.0  25.0  41  1017   ---    SW     3     3   ---   --- /
08/09/2005 08:55      26.0  13.0  26.2  26.0  45  1017   ---   WSW     5     5   ---   --- /
08/09/2005 09:55      29.0  15.0  28.9  28.6  43  1018   ---     S     6     6   ---   --- /
08/09/2005 10:55      31.0  15.0  30.6  31.0  38  1018   ---   NNE     3     3   ---   --- /
08/09/2005 11:55      32.0  13.0  31.0  31.8  32  1018   ---   NNE     8     8   ---   --- /
08/09/2005 12:55      34.0  11.0  32.5  34.0  25  1018   ---    NE     6     6   ---   --- /
08/09/2005 13:55      32.0  15.0  31.6  31.7  36  1018   ---   ESE    14    14   ---   --- /
08/09/2005 14:55      31.0  18.0  31.9  30.8  46  1018   ---     E     6     6   ---   --- /
08/09/2005 15:55      31.0  18.0  31.9  30.7  46  1017   ---     E     8     8   ---   --- /
08/09/2005 17:55      31.0  16.0  31.0  30.8  41  1016   ---   ENE     6     6   ---   0.9 Few Clouds/
08/09/2005 18:55      31.0  15.0  30.6  30.8  38  1016   ---   ESE     6     6   ---   0.9 Few Clouds/
08/09/2005 19:55      30.0  16.0  30.0  30.0  43  1016   ---     N     0     0   ---   0.9 Few Clouds/
08/09/2005 20:55      28.0  16.0  28.3  27.5  48  1016   ---     W     6     6   ---   0.7 Few Clouds/
09/09/2005 09:55      23.0  18.0  24.9  23.0  73  1018   ---     N     0     0   ---   0.7 Broken Clouds/
09/09/2005 10:55      23.0  19.0  25.2  23.0  78  1017   ---   ---     0     0   ---   0.4 Overcast/
09/09/2005 11:55      24.0  19.0  25.9  23.2  74  1017   ---   SSW     6     6   ---   0.6 Broken Clouds/
09/09/2005 12:55      25.0  19.0  26.6  25.0  69  1017   ---     N     0     0   ---   0.7 Broken Clouds/
09/09/2005 13:55      27.0  21.0  28.8  26.0  70  1016   ---     E     8     8   ---   0.7 Broken Clouds/
09/09/2005 14:55      27.0  22.0  29.2  26.0  74  1016   ---     E     8     8   ---   0.7 Broken Clouds/
09/09/2005 15:55      28.0  21.0  30.1  28.0  66  1014   ---     N     0     0   ---   0.7 Broken Clouds/
09/09/2005 16:55      28.0  21.0  30.1  28.0  66  1014   ---   ---     0     0   ---   0.7 Broken Clouds/
09/09/2005 17:55      31.0  17.0  31.4  30.3  43  1013   ---     S    16    16   ---   0.7 Broken Clouds/
09/09/2005 18:55      30.0  19.0  31.3  30.0  52  1012   ---     N     0     0   ---   0.7 Scattered Clouds/
09/09/2005 19:55      30.0  20.0  31.9  30.0  55  1012   ---   ---     0     0   ---   3.0 Scattered Clouds/
09/09/2005 20:55      28.0  18.0  28.9  28.0  55  1012   ---   ---     0     0   ---   3.0 Scattered Clouds/
10/09/2005 08:55      24.0  20.0  26.2  24.0  78  1013   ---   SSW     5     5   ---   6.0 Broken Clouds/
10/09/2005 09:55      26.0  20.0  27.6  26.0  70  1013   ---    NE     5     5   ---   6.0 Scattered Clouds/
10/09/2005 10:55      27.0  19.0  28.2  26.4  62  1013   ---    NE     6     6   ---   --- /
10/09/2005 12:55      29.0  15.0  28.9  28.2  43  1013   ---     W    10    10   ---   6.0 Broken Clouds/
10/09/2005 15:55      28.0  20.0  29.7  25.3  62  1012   ---   NNW    32    32   ---   0.6 Few Clouds/
10/09/2005 17:55      28.0  21.0  30.1  25.8  66  1012   ---    NW    23    23   ---   0.7 Few Clouds/
10/09/2005 18:55      26.0  21.0  27.9  23.1  74  1012   ---    NE    19    19   ---   0.7 Few Clouds/
10/09/2005 19:55      24.0  21.0  26.6  21.1  83  1013   ---   NNE    14    14   ---   0.6 Broken Clouds/
10/09/2005 20:55      24.0  20.0  26.2  22.5  78  1013   ---   NNE     8     8   ---   0.6 Broken Clouds/
11/09/2005 07:55      21.0  17.0  23.2  21.0  78  1012   ---   WSW     5     5   ---   0.7 Few Clouds/
11/09/2005 08:55      22.0  17.0  23.9  22.0  73  1013   ---     N     0     0   ---   0.7 Few Clouds/
11/09/2005 09:55      24.0  19.0  25.9  24.0  74  1013   ---   ---     0     0   ---   --- /
11/09/2005 10:55      26.0  19.0  27.3  26.0  65  1013   ---     E     5     5   ---   0.7 Few Clouds/
11/09/2005 11:55      26.0  19.0  27.3  25.4  65  1013   ---     E     6     6   ---   0.7 Few Clouds/
11/09/2005 12:55      26.0  20.0  27.6  24.1  70  1013   ---   ENE    13    13   ---   0.7 Few Clouds/
11/09/2005 13:55      27.0  20.0  28.5  25.8  66  1013   ---     E    10    10   ---   --- /
11/09/2005 14:55      27.0  19.0  28.2  25.1  62  1013   ---     E    14    14   ---   --- /
11/09/2005 15:55      27.0  19.0  28.2  25.3  62  1013   ---     E    13    13   ---   --- /
11/09/2005 16:55      27.0  19.0  28.2  25.8  62  1013   ---   ENE    10    10   ---   --- /
11/09/2005 17:55      26.0  20.0  27.6  24.8  70  1012   ---     E     8     8   ---   --- /
10/09/2005 18:55      26.0  21.0  27.9  23.1  74  1012   ---    NE    19    19   ---   0.7 Few Clouds/
11/09/2005 19:55      25.0  19.0  26.6  25.0  69  1012   ---     N     0     0   ---   6.0 Scattered Clouds/
11/09/2005 20:55      24.0  20.0  26.2  24.0  78  1012   ---   ---     0     0   ---   6.0 Scattered Clouds/
12/09/2005 07:55      21.0  15.0  22.5  21.0  69  1013   ---     W     3     3   ---   6.0 Scattered Clouds/
12/09/2005 08:55      22.0  16.0  23.6  22.0  69  1014   ---     N     0     0   ---   6.0 Broken Clouds/
12/09/2005 09:55      24.0  19.0  25.9  24.0  74  1014   ---   ---     0     0   ---   0.5 Scattered Clouds/
12/09/2005 10:55      25.0  19.0  26.6  25.0  69  1014   ---   ---     0     0   ---   6.0 Broken Clouds/
12/09/2005 11:55      26.0  18.0  27.1  26.0  61  1015   ---   ---     0     0   ---   3.0 Broken Clouds/
12/09/2005 12:55      27.0  19.0  28.2  27.0  62  1015   ---   ENE     3     3   ---999.00.6 Overcast/
12/09/2005 13:55      27.0  18.0  27.9  24.7  58  1016   ---   WNW    18    18   ---   0.5 Overcast/
12/09/2005 14:55      25.0  19.0  26.6  22.1  69  1016   ---   NNW    16    16   ---   0.5 Overcast/
12/09/2005 15:55      25.0  18.0  26.3  23.7  65  1015   ---     N     8     8   ---   0.9 Overcast/
12/09/2005 16:55      25.0  18.0  26.3  25.0  65  1016   ---   NNE     5     5   ---   --- Overcast/ Light Rain
12/09/2005 17:55      24.0  18.0  25.6  24.0  69  1015   ---    SW     3     3   ---   0.9 Broken Clouds/
12/09/2005 18:55      24.0  18.0  25.6  23.2  69  1015   ---    SE     6     6   ---   0.9 Broken Clouds/
12/09/2005 20:55      23.0  18.0  24.9  23.0  73  1015   ---     N     0     0   ---   0.5 Scattered Clouds/
13/09/2005 07:55      22.0  18.0  24.2  22.0  78  1017   ---    SW     3     3   ---   0.7 Broken Clouds/
13/09/2005 08:55      22.0  18.0  24.2  22.0  78  1017   ---    SW     3     3   ---   0.7 Broken Clouds/
13/09/2005 09:55      22.0  20.0  25.0  21.0  88  1019   ---   SSW     6     6   ---   0.7 Broken Clouds/
13/09/2005 10:55      22.0  19.0  24.6  21.0  83  1018   ---     S     6     6   ---   0.7 Broken Clouds/
13/09/2005 11:55      24.0  20.0  26.2  24.0  78  1018   ---     N     0     0   ---   0.7 Broken Clouds/
13/09/2005 12:55      25.0  20.0  26.9  25.0  74  1018   ---   SSE     3     3   ---   3.0 Scattered Clouds/
13/09/2005 13:55      26.0  19.0  27.3  24.8  65  1017   ---   ENE     8     8   ---   0.7 Scattered Clouds/
13/09/2005 14:55      26.0  21.0  27.9  24.8  74  1017   ---   ENE     8     8   ---   0.7 Scattered Clouds/
13/09/2005 15:55      27.0  22.0  29.2  25.3  74  1017   ---     E    13    13   ---   0.7 Scattered Clouds/
13/09/2005 16:55      26.0  22.0  28.3  24.1  79  1017   ---     E    13    13   ---   0.6 Broken Clouds/
13/09/2005 17:55      26.0  22.0  28.3  26.0  79  1017   ---   ESE     5     5   ---   0.7 Scattered Clouds/
13/09/2005 18:55      25.0  21.0  27.2  23.4  79  1016   ---     E    10    10   ---   0.7 Scattered Clouds/
13/09/2005 19:55      25.0  20.0  26.9  24.3  74  1017   ---   ENE     6     6   ---   0.7 Few Clouds/
13/09/2005 20:55      24.0  20.0  26.2  24.0  78  1018   ---   ENE     5     5   ---   0.7 Few Clouds/
14/09/2005 07:55      22.0  19.0  24.6  22.0  83  1018   ---    NW     3     3   ---   0.5 Broken Clouds/
14/09/2005 09:55      23.0  20.0  25.6  23.0  83  1019   ---     N     5     5   ---   0.5 Broken Clouds/
14/09/2005 10:55      24.0  19.0  25.9  23.2  74  1019   ---     N     6     6   ---   0.5 Broken Clouds/
14/09/2005 11:55      24.0  19.0  25.9  24.0  74  1019   ---   ENE     3     3   ---   0.6 Broken Clouds/
14/09/2005 12:55      26.0  20.0  27.6  24.1  70  1020   ---   NNE    13    13   ---   0.6 Scattered Clouds/
14/09/2005 13:55      27.0  19.0  28.2  25.3  62  1020   ---   NNE    13    13   ---   0.6 Scattered Clouds/
14/09/2005 14:55      27.0  19.0  28.2  24.5  62  1019   ---     N    19    19   ---   0.6 Scattered Clouds/
14/09/2005 15:55      27.0  20.0  28.5  24.7  66  1019   ---   NNE    18    18   ---   0.6 Scattered Clouds/
14/09/2005 16:55      26.0  20.0  27.6  23.4  70  1019   ---   NNE    18    18   ---   0.6 Broken Clouds/
14/09/2005 18:55      24.0  19.0  25.9  21.1  74  1018   ---   NNW    14    14   ---   0.6 Scattered Clouds/
14/09/2005 20:55      23.0  19.0  25.2  21.0  78  1018   ---   NNW    10    10   ---   0.6 Scattered Clouds/
15/09/2005 07:55      22.0  18.0  24.2  17.9  78  1016   ---   WSW    18    18   ---   0.7 Broken Clouds/
15/09/2005 08:55      22.0  18.0  24.2  18.1  78  1016   ---   WSW    16    16   ---   0.7 Broken Clouds/
15/09/2005 09:55      23.0  18.0  24.9  19.2  73  1016   ---   WSW    18    18   ---   0.7 Broken Clouds/
15/09/2005 10:55      23.0  19.0  25.2  19.2  78  1016   ---    NW    18    18   ---   0.6 Broken Clouds/
15/09/2005 11:55      23.0  19.0  25.2  18.9  78  1016   ---    NW    19    19   ---   0.6 Broken Clouds/
15/09/2005 12:55      25.0  19.0  26.6  21.6  69  1016   ---   WSW    21    21   ---   0.7 Broken Clouds/
15/09/2005 13:55      25.0  18.0  26.3  21.7  65  1016   ---   NNW    19    19   ---   0.7 Broken Clouds/
15/09/2005 14:55      25.0  19.0  26.6  21.6  69  1016   ---   NNW    21    21   ---   0.7 Broken Clouds/
15/09/2005 15:55      25.0  18.0  26.3  21.7  65  1016   ---   NNW    19    19   ---   0.7 Broken Clouds/
15/09/2005 16:55      25.0  18.0  26.3  21.7  65  1015   ---   NNW    19    19   ---   0.7 Broken Clouds/
15/09/2005 17:55      24.0  19.0  25.9  20.6  74  1015   ---   NNW    18    18   ---   0.7 Broken Clouds/
15/09/2005 18:55      24.0  19.0  25.9  21.5  74  1015   ---     N    13    13   ---   0.7 Broken Clouds/
15/09/2005 19:55      23.0  18.0  24.9  19.8  73  1015   ---    NW    14    14   ---   0.7 Broken Clouds/
14/09/2005 20:55      23.0  19.0  25.2  21.0  78  1018   ---   NNW    10    10   ---   0.6 Scattered Clouds/
15/09/2005 20:55      23.0  18.0  24.9  21.3  73  1014   ---    NW     8     8   ---   0.7 Scattered Clouds/
14/09/2005 20:55      23.0  19.0  25.2  21.0  78  1018   ---   NNW    10    10   ---   0.6 Scattered Clouds/
15/09/2005 20:55      23.0  18.0  24.9  21.3  73  1014   ---    NW     8     8   ---   0.7 Scattered Clouds/
16/09/2005 07:55      19.0  15.0  21.2  17.7  78  1013   ---   WSW     6     6   ---   --- /
16/09/2005 08:55      20.0  15.0  21.8  18.8  73  1012   ---    SW     6     6   ---   --- /
16/09/2005 09:55      22.0  17.0  23.9  22.0  73  1012   ---     N     0     0   ---   --- /
16/09/2005 10:55      24.0  16.0  25.1  24.0  61  1012   ---     E     3     3   ---   --- /
16/09/2005 11:55      26.0  19.0  27.3  26.0  65  1012   ---    NE     3     3   ---   --- /
16/09/2005 13:55      26.0  19.0  27.3  25.4  65  1012   ---   NNE     6     6   ---   --- /
16/09/2005 14:55      26.0  18.0  27.1  24.8  61  1012   ---   ESE     8     8   ---   --- /
16/09/2005 17:55      25.0  19.0  26.6  22.8  69  1010   ---     N    13    13   ---   --- /
16/09/2005 18:55      25.0  18.0  26.3  23.4  65  1010   ---    SE    10    10   ---   --- /
16/09/2005 19:55      24.0  18.0  25.6  22.2  69  1010   ---   SSW    10    10   ---   6.0 Scattered Clouds/
16/09/2005 20:55      23.0  19.0  25.2  22.1  78  1010   ---   SSW     6     6   ---   6.0 Scattered Clouds/
17/09/2005 07:55      19.0  13.0  20.5  19.0  68  1009   ---     W     3     3   ---   6.0 Broken Clouds/
17/09/2005 08:55      20.0  14.0  21.5  20.0  68  1009   ---     N     0     0   ---   3.3 Broken Clouds/
17/09/2005 09:55      22.0  15.0  23.3  22.0  65  1010   ---   ---     0     0   ---   3.3 Scattered Clouds/
17/09/2005 09:55      22.0  15.0  23.3  22.0  65  1010   ---   ---     0     0   ---   0.7 Scattered Clouds/None reported
17/09/2005 10:55      25.0  16.0  25.9  25.0  57  1010   ---   ---     0     0   ---   6.0 Broken Clouds/
16/09/2005 11:55      26.0  19.0  27.3  26.0  65  1012   ---    NE     3     3   ---   --- /
17/09/2005 13:55      27.0  16.0  27.5  25.3  51  1010   ---     E    13    13   ---   3.0 Scattered Clouds/
16/09/2005 14:55      26.0  18.0  27.1  24.8  61  1012   ---   ESE     8     8   ---   --- /
16/09/2005 14:55      26.0  18.0  27.1  24.8  61  1012   ---   ESE     8     8   ---   --- None reported/None reported
17/09/2005 16:55      26.0  18.0  27.1  23.8  61  1008   ---   WSW    14    14   ---   0.7 Overcast/
17/09/2005 17:55      26.0  12.0  26.0  23.5  42  1006   ---   SSW    16    16   ---   0.7 Overcast/
17/09/2005 18:55      26.0  17.0  26.9  26.0  58  1005   ---     N     0     0   ---   1.0 Scattered Clouds/
17/09/2005 19:55      26.0  15.0  26.5  26.0  51  1006   ---   ---     0     0   ---   1.2 Broken Clouds/
17/09/2005 20:55      26.0  14.0  26.3  26.0  48  1007   ---    SW     3     3   ---   1.2 Broken Clouds/
18/09/2005 07:55      22.0  16.0  23.6  22.0  69  1009   ---     N     0     0   ---   3.0 Scattered Clouds/
18/09/2005 09:55      23.0  18.0  24.9  23.0  73  1010   ---   ---     0     0   ---   0.8 Broken Clouds/
18/09/2005 10:55      25.0  18.0  26.3  25.0  65  1010   ---   ---     0     0   ---   0.8 Scattered Clouds/
18/09/2005 11:55      26.0  19.0  27.3  25.4  65  1010   ---   ENE     6     6   ---   0.9 Broken Clouds/
18/09/2005 12:55      27.0  18.0  27.9  25.8  58  1011   ---    SE    10    10   ---   0.9 Broken Clouds/
18/09/2005 13:55      27.0  17.0  27.7  26.0  54  1011   ---     E     8     8   ---   0.8 Scattered Clouds/
18/09/2005 14:55      27.0  17.0  27.7  27.0  54  1011   ---   NNE     5     5   ---   0.7 Broken Clouds/
17/09/2005 15:55      26.0  17.0  26.9  26.0  58  1009   ---     N     0     0   ---   0.7 Overcast/
18/09/2005 16:55      25.0  20.0  26.9  22.5  74  1011   ---   NNW    14    14   ---   0.7 Broken Clouds/
18/09/2005 17:55      25.0  20.0  26.9  22.1  74  1011   ---   NNW    16    16   ---   0.7 Broken Clouds/
18/09/2005 18:55      24.0  20.0  26.2  24.0  78  1012   ---     N     0     0   ---   0.7 Broken Clouds/
18/09/2005 19:55      24.0  20.0  26.2  24.0  78  1012   ---   ---     0     0   ---   3.0 Scattered Clouds/
18/09/2005 20:55      23.0  19.0  25.2  23.0  78  1013   ---   ---     0     0   ---   3.0 Scattered Clouds/
19/09/2005 07:55      20.0  15.0  21.8  18.8  73  1015   ---    SW     6     6   ---   0.9 Broken Clouds/
19/09/2005 08:55      22.0  13.0  22.8  20.2  57  1015   ---   WSW     8     8   ---   0.9 Broken Clouds/
19/09/2005 09:55      23.0  16.0  24.3  23.0  65  1016   ---     N     0     0   ---   0.9 Scattered Clouds/
19/09/2005 11:55      25.0  15.0  25.7  21.4  54  1017   ---   WNW    23    23   ---   0.7 Scattered Clouds/
19/09/2005 12:55      25.0  15.0  25.7  22.0  54  1017   ---    NW    18    18   ---   0.7 Scattered Clouds/
19/09/2005 14:55      26.0  16.0  26.7  24.1  54  1017   ---     W    13    13   ---   0.7 Few Clouds/
19/09/2005 16:55      25.0  16.0  25.9  22.0  57  1016   ---     N    18    18   ---   0.7 Few Clouds/
19/09/2005 18:55      23.0  15.0  24.1  18.9  61  1016   ---    NW    19    19   ---   0.7 Few Clouds/
19/09/2005 20:55      21.0  16.0  22.9  17.7  73  1016   ---    NW    13    13   ---   0.7 Few Clouds/
20/09/2005 07:55      18.0  15.0  20.5  16.6  83  1014   ---    NW     6     6   ---   --- Overcast/ Light Rain
20/09/2005 08:55      18.0  15.0  20.5  16.6  83  1014   ---     S     6     6   ---   --- Overcast/ Light Rain
20/09/2005 09:55      17.0  14.0  19.5  12.5  83  1015   ---    NW    13    13   ---   0.6 Broken Clouds/
20/09/2005 11:55      18.0  14.0  20.2  18.0  77  1015   ---     S     3     3   ---   0.6 Broken Clouds/
20/09/2005 12:55      20.0  14.0  21.5  15.1  68  1015   ---    NW    18    18   ---   0.7 Broken Clouds/
20/09/2005 13:55      21.0  13.0  22.0  17.2  60  1015   ---    NW    14    14   ---   0.7 Broken Clouds/
20/09/2005 14:55      21.0  14.0  22.3  15.2  64  1014   ---   NNW    26    26   ---   0.7 Broken Clouds/
20/09/2005 17:55      21.0  14.0  22.3  18.6  64  1013   ---    NW    10    10   ---   0.7 Broken Clouds/
20/09/2005 18:55      21.0  14.0  22.3  16.5  64  1013   ---    NW    18    18   ---   0.7 Broken Clouds/
20/09/2005 19:55      20.0  15.0  21.8  15.9  73  1013   ---    NW    14    14   ---   0.7 Broken Clouds/
20/09/2005 20:55      20.0  15.0  21.8  15.3  73  1013   ---   WNW    16    16   ---   0.7 Broken Clouds/
21/09/2005 07:55      18.0  13.0  19.8  18.0  73  1013   ---     N     0     0   ---   0.7 Scattered Clouds/
21/09/2005 08:55      18.0  14.0  20.2  18.0  77  1013   ---   ---     0     0   ---   0.7 Few Clouds/
21/09/2005 09:55      21.0  15.0  22.5  21.0  69  1013   ---   ---     0     0   ---   0.7 Scattered Clouds/
21/09/2005 10:55      22.0  14.0  23.0  20.2  61  1013   ---   NNW     8     8   ---   0.7 Scattered Clouds/
21/09/2005 11:55      23.0  16.0  24.3  21.0  65  1013   ---    NW    10    10   ---   0.7 Scattered Clouds/
21/09/2005 13:55      23.0  14.0  23.8  20.2  57  1013   ---    NW    13    13   ---   0.7 Scattered Clouds/
21/09/2005 15:55      24.0  15.0  24.8  20.3  57  1013   ---    NW    19    19   ---   0.7 Scattered Clouds/
21/09/2005 15:55      24.0  15.0  24.8  20.3  57  1013   ---    NW    19    19   ---   0.7 Scattered Clouds/None reported
21/09/2005 15:55      24.0  15.0  24.8  20.3  57  1013   ---    NW    19    19   ---   0.7 Scattered Clouds/None reported
21/09/2005 17:55      23.0  15.0  24.1  19.4  61  1013   ---    NW    16    16   ---   0.7 Broken Clouds/
21/09/2005 19:55      22.0  18.0  24.2  18.9  78  1013   ---    NW    13    13   ---   --- Overcast/ Light Rain
21/09/2005 20:55      20.0  17.0  22.6  16.4  83  1014   ---   WNW    13    13   ---   0.7 Broken Clouds/
22/09/2005 08:55      20.0  16.0  22.2  18.8  78  1015   ---   WNW     6     6   ---   0.7 Scattered Clouds/
22/09/2005 10:55      22.0  16.0  23.6  21.0  69  1016   ---   NNW     6     6   ---   0.6 Scattered Clouds/
22/09/2005 11:55      23.0  15.0  24.1  21.0  61  1016   ---   WNW    10    10   ---   0.6 Scattered Clouds/
22/09/2005 12:55      24.0  14.0  24.6  21.5  54  1016   ---   NNW    13    13   ---   0.6 Scattered Clouds/
22/09/2005 13:55      24.0  14.0  24.6  20.8  54  1016   ---   NNW    16    16   ---   0.7 Scattered Clouds/
22/09/2005 17:55      24.0  16.0  25.1  20.8  61  1016   ---    NW    16    16   ---   0.7 Scattered Clouds/
22/09/2005 18:55      23.0  16.0  24.3  19.2  65  1015   ---    NW    18    18   ---   0.7 Scattered Clouds/
22/09/2005 19:55      22.0  17.0  23.9  20.2  73  1016   ---   WNW     8     8   ---   0.7 Scattered Clouds/
22/09/2005 20:55      21.0  16.0  22.9  19.9  73  1016   ---     W     6     6   ---   0.7 Scattered Clouds/
23/09/2005 07:55      19.0  14.0  20.8  19.0  73  1016   ---     N     0     0   ---   0.7 Few Clouds/
23/09/2005 08:55      19.0  15.0  21.2  19.0  78  1016   ---     N     5     5   ---   0.7 Broken Clouds/
23/09/2005 09:55      19.0  17.0  22.0  19.0  88  1017   ---    NW     5     5   ---   0.7 Broken Clouds/
23/09/2005 10:55      22.0  17.0  23.9  18.5  73  1017   ---   NNW    14    14   ---   0.7 Broken Clouds/
23/09/2005 12:55      24.0  17.0  25.3  21.5  65  1017   ---   NNW    13    13   ---   0.7 Scattered Clouds/
23/09/2005 13:55      24.0  16.0  25.1  20.6  61  1016   ---     N    18    18   ---   0.7 Scattered Clouds/
23/09/2005 14:55      24.0  16.0  25.1  20.8  61  1016   ---   NNW    16    16   ---   0.7 Scattered Clouds/
23/09/2005 15:55      24.0  17.0  25.3  20.8  65  1016   ---    NW    16    16   ---   0.7 Broken Clouds/
23/09/2005 16:55      23.0  16.0  24.3  19.4  65  1015   ---   NNW    16    16   ---   0.7 Scattered Clouds/
23/09/2005 18:55      22.0  16.0  23.6  21.0  69  1015   ---   NNW     6     6   ---   0.7 Scattered Clouds/
23/09/2005 20:55      21.0  17.0  23.2  19.9  78  1016   ---     N     6     6   ---   0.7 Few Clouds/
24/09/2005 08:55      19.0  15.0  21.2  19.0  78  1015   ---   WSW     5     5   ---   0.7 Scattered Clouds/
24/09/2005 10:55      22.0  15.0  23.3  21.0  65  1015   ---   NNW     6     6   ---   0.7 Scattered Clouds/
24/09/2005 14:55      24.0  15.0  24.8  23.2  57  1015   ---   ENE     6     6   ---   0.7 Scattered Clouds/
23/09/2005 18:55      22.0  16.0  23.6  21.0  69  1015   ---   NNW     6     6   ---   0.7 Scattered Clouds/
24/09/2005 14:55      24.0  15.0  24.8  23.2  57  1015   ---   ENE     6     6   ---   0.7 Scattered Clouds/
23/09/2005 18:55      22.0  16.0  23.6  21.0  69  1015   ---   NNW     6     6   ---   0.7 Scattered Clouds/
24/09/2005 14:55      24.0  15.0  24.8  23.2  57  1015   ---   ENE     6     6   ---   0.7 Scattered Clouds/
23/09/2005 18:55      22.0  16.0  23.6  21.0  69  1015   ---   NNW     6     6   ---   0.7 Scattered Clouds/
24/09/2005 14:55      24.0  15.0  24.8  23.2  57  1015   ---   ENE     6     6   ---   0.7 Scattered Clouds/
24/09/2005 08:55      19.0  15.0  21.2  19.0  78  1015   ---   WSW     5     5   ---   0.7 Scattered Clouds/
25/09/2005 08:55      19.0  15.0  21.2  19.0  78  1014   ---     W     3     3   ---   0.7 Scattered Clouds/
24/09/2005 10:55      22.0  15.0  23.3  21.0  65  1015   ---   NNW     6     6   ---   0.7 Scattered Clouds/
24/09/2005 10:55      22.0  15.0  23.3  21.0  65  1015   ---   NNW     6     6   ---   0.7 Scattered Clouds/None reported
25/09/2005 11:55      23.0  16.0  24.3  21.0  65  1015   ---   NNE    10    10   ---   0.7 Scattered Clouds/
25/09/2005 13:55      23.0  16.0  24.3  22.1  65  1015   ---    NE     6     6   ---   0.7 Scattered Clouds/
24/09/2005 14:55      24.0  15.0  24.8  23.2  57  1015   ---   ENE     6     6   ---   0.7 Scattered Clouds/
25/09/2005 16:55      23.0  17.0  24.6  20.2  69  1015   ---     E    13    13   ---   0.7 Scattered Clouds/
25/09/2005 17:55      22.0  16.0  23.6  19.8  69  1014   ---   ENE    10    10   ---   0.7 Scattered Clouds/
25/09/2005 18:55      22.0  15.0  23.3  20.2  65  1014   ---   NNE     8     8   ---   0.7 Scattered Clouds/
25/09/2005 19:55      22.0  17.0  23.9  22.0  73  1015   ---   NNE     5     5   ---   0.7 Scattered Clouds/
25/09/2005 20:55      21.0  17.0  23.2  21.0  78  1015   ---   WNW     5     5   ---   0.7 Scattered Clouds/
26/09/2005 07:55      18.0  15.0  20.5  18.0  83  1017   ---     W     5     5   ---   0.8 Few Clouds/
26/09/2005 08:55      18.0  15.0  20.5  18.0  83  1017   ---     W     3     3   ---   0.8 Few Clouds/
26/09/2005 09:55      20.0  16.0  22.2  20.0  78  1018   ---     N     0     0   ---   0.8 Scattered Clouds/
26/09/2005 10:55      23.0  16.0  24.3  23.0  65  1018   ---     E     3     3   ---   0.8 Few Clouds/
26/09/2005 11:55      24.0  16.0  25.1  22.5  61  1019   ---   ENE     8     8   ---   0.8 Scattered Clouds/
26/09/2005 12:55      24.0  17.0  25.3  22.5  65  1019   ---   ENE     8     8   ---   0.8 Scattered Clouds/
25/09/2005 13:55      23.0  16.0  24.3  22.1  65  1015   ---    NE     6     6   ---   0.7 Scattered Clouds/
26/09/2005 14:55      25.0  17.0  26.1  23.4  61  1019   ---     E    10    10   ---   0.8 Scattered Clouds/
25/09/2005 15:55      24.0  16.0  25.1  23.2  61  1015   ---     N     6     6   ---   0.7 Scattered Clouds/
26/09/2005 16:55      23.0  17.0  24.6  20.2  69  1019   ---     E    13    13   ---   0.8 Broken Clouds/
26/09/2005 17:55      23.0  17.0  24.6  20.2  69  1019   ---     E    13    13   ---   0.9 Broken Clouds/
26/09/2005 19:55      22.0  17.0  23.9  21.0  73  1019   ---    SE     6     6   ---   0.8 Broken Clouds/
26/09/2005 20:55      21.0  17.0  23.2  21.0  78  1020   ---     N     0     0   ---   0.7 Scattered Clouds/
27/09/2005 07:55      19.0  15.0  21.2  17.7  78  1021   ---     W     6     6   ---   6.0 Scattered Clouds/
27/09/2005 08:55      19.0  16.0  21.6  17.7  83  1021   ---   WSW     6     6   ---   0.7 Few Clouds/
27/09/2005 09:55      21.0  17.0  23.2  21.0  78  1022   ---     N     0     0   ---   0.7 Few Clouds/
27/09/2005 10:55      24.0  16.0  25.1  24.0  61  1023   ---     E     3     3   ---   0.7 Few Clouds/
27/09/2005 11:55      25.0  17.0  26.1  23.7  61  1023   ---   ENE     8     8   ---   0.7 Scattered Clouds/
27/09/2005 12:55      24.0  17.0  25.3  22.2  65  1023   ---     E    10    10   ---   0.7 Scattered Clouds/
27/09/2005 13:55      25.0  18.0  26.3  23.7  65  1024   ---     E     8     8   ---   0.8 Broken Clouds/
27/09/2005 14:55      24.0  18.0  25.6  24.0  69  1022   ---   ENE     5     5   ---   0.7 Broken Clouds/
27/09/2005 16:55      23.0  18.0  24.9  22.1  73  1021   ---   ENE     6     6   ---   0.7 Broken Clouds/
27/09/2005 18:55      23.0  18.0  24.9  23.0  73  1021   ---   ENE     5     5   ---   0.7 Broken Clouds/
27/09/2005 19:55      22.0  18.0  24.2  22.0  78  1021   ---     N     0     0   ---   0.7 Broken Clouds/
27/09/2005 20:55      22.0  18.0  24.2  22.0  78  1022   ---   ---     0     0   ---   0.7 Broken Clouds/
28/09/2005 07:55      18.0  14.0  20.2  15.5  77  1022   ---   WSW     8     8   ---   0.7 Scattered Clouds/
28/09/2005 08:55      19.0  14.0  20.8  17.7  73  1022   ---   WSW     6     6   ---   0.7 Scattered Clouds/
28/09/2005 09:55      21.0  16.0  22.9  21.0  73  1022   ---     N     0     0   ---   0.7 Scattered Clouds/
28/09/2005 10:55      23.0  18.0  24.9  23.0  73  1023   ---   ---     0     0   ---   0.7 Scattered Clouds/
28/09/2005 12:55      24.0  17.0  25.3  22.2  65  1023   ---   ENE    10    10   ---   0.7 Scattered Clouds/
28/09/2005 13:55      24.0  17.0  25.3  22.2  65  1023   ---     E    10    10   ---   0.7 Scattered Clouds/
28/09/2005 14:55      25.0  17.0  26.1  23.4  61  1023   ---     E    10    10   ---   0.7 Scattered Clouds/
28/09/2005 16:55      24.0  16.0  25.1  21.5  61  1023   ---     E    13    13   ---   0.7 Scattered Clouds/
28/09/2005 17:55      24.0  17.0  25.3  22.5  65  1022   ---     E     8     8   ---   0.7 Few Clouds/
28/09/2005 18:55      23.0  17.0  24.6  22.1  69  1022   ---     E     6     6   ---   0.7 Few Clouds/
28/09/2005 19:55      22.0  17.0  23.9  22.0  73  1022   ---     N     0     0   ---   --- /
28/09/2005 20:55      21.0  17.0  23.2  21.0  78  1022   ---   ---     0     0   ---   --- /
29/09/2005 07:55      18.0  10.0  19.0  16.6  60  1021   ---   WSW     6     6   ---   6.0 Few Clouds/
29/09/2005 08:55      18.0  11.0  19.2  15.5  64  1021   ---   WSW     8     8   ---   6.0 Scattered Clouds/
29/09/2005 09:55      20.0  12.0  21.0  20.0  60  1021   ---     N     0     0   ---   6.0 Scattered Clouds/
29/09/2005 10:55      22.0  13.0  22.8  22.0  57  1021   ---   ---     0     0   ---   6.0 Scattered Clouds/
29/09/2005 11:55      23.0  14.0  23.8  23.0  57  1021   ---   ---     0     0   ---   6.0 Scattered Clouds/
29/09/2005 12:55      24.0  13.0  24.5  24.0  50  1021   ---   ENE     5     5   ---   6.0 Few Clouds/
29/09/2005 15:55      25.0  15.0  25.7  23.4  54  1020   ---     E    10    10   ---   6.0 Few Clouds/
29/09/2005 16:55      24.0  16.0  25.1  23.2  61  1020   ---     E     6     6   ---   6.0 Scattered Clouds/
29/09/2005 17:55      24.0  17.0  25.3  24.0  65  1019   ---     E     3     3   ---   6.0 Few Clouds/
29/09/2005 18:55      23.0  17.0  24.6  23.0  69  1019   ---   ESE     5     5   ---   6.0 Few Clouds/
29/09/2005 19:55      23.0  17.0  24.6  23.0  69  1019   ---     N     0     0   ---   6.0 Few Clouds/
29/09/2005 20:55      22.0  17.0  23.9  22.0  73  1019   ---   ---     0     0   ---   6.0 Few Clouds/
30/09/2005 07:55      21.0  13.0  22.0  19.0  60  1015   ---   WNW     8     8   ---   6.0 Broken Clouds/
30/09/2005 08:55      22.0  16.0  23.6  19.8  69  1015   ---   WNW    10    10   ---   0.7 Broken Clouds/
30/09/2005 09:55      22.0  16.0  23.6  21.0  69  1015   ---     S     6     6   ---   0.7 Broken Clouds/
30/09/2005 10:55      22.0  16.0  23.6  20.2  69  1015   ---   WNW     8     8   ---   0.7 Broken Clouds/
30/09/2005 11:55      24.0  14.0  24.6  22.5  54  1015   ---   SSW     8     8   ---   0.7 Broken Clouds/
30/09/2005 12:55      26.0  15.0  26.5  24.8  51  1015   ---     W     8     8   ---   0.7 Broken Clouds/
30/09/2005 13:55      25.0  15.0  25.7  22.0  54  1015   ---   NNW    18    18   ---   0.7 Broken Clouds/
30/09/2005 15:55      24.0  15.0  24.8  21.1  57  1014   ---     W    14    14   ---   0.7 Broken Clouds/
30/09/2005 16:55      23.0  14.0  23.8  19.2  57  1013   ---    NW    18    18   ---   0.7 Broken Clouds/
30/09/2005 17:55      23.0  15.0  24.1  21.3  61  1013   ---   WNW     8     8   ---   0.7 Broken Clouds/
30/09/2005 18:55      22.0  15.0  23.3  20.2  65  1013   ---    NW     8     8   ---   0.7 Broken Clouds/
30/09/2005 19:55      21.0  16.0  22.9  17.7  73  1013   ---   WNW    13    13   ---   0.7 Broken Clouds/
30/09/2005 20:55      21.0  16.0  22.9  16.5  73  1013   ---     W    18    18   ---   0.7 Broken Clouds/
01/10/2005 07:55      19.0  12.0  20.2  19.0  64  1013   ---     N     3     3   ---   0.9 Broken Clouds/
01/10/2005 08:55      19.0  12.0  20.2  19.0  64  1014   ---    NW     3     3   ---   0.9 Few Clouds/
01/10/2005 09:55      20.0  12.0  21.0  20.0  60  1014   ---     N     5     5   ---   0.9 Scattered Clouds/
01/10/2005 10:55      21.0  13.0  22.0  18.6  60  1015   ---    NE    10    10   ---   0.9 Scattered Clouds/
01/10/2005 11:55      21.0  13.0  22.0  17.2  60  1015   ---   ENE    14    14   ---   0.9 Broken Clouds/
01/10/2005 12:55      21.0  12.0  21.8  17.7  56  1015   ---   ENE    13    13   ---   0.9 Broken Clouds/
01/10/2005 13:55      21.0  12.0  21.8  21.0  56  1015   ---     E     5     5   ---   0.9 Scattered Clouds/
01/10/2005 14:55      21.0  11.0  21.6  18.6  53  1015   ---     E    10    10   ---   0.9 Broken Clouds/
01/10/2005 15:55      21.0  12.0  21.8  17.2  56  1015   ---   ESE    14    14   ---   0.9 Scattered Clouds/
01/10/2005 16:55      21.0  12.0  21.8  17.2  56  1015   ---     E    14    14   ---   0.9 Scattered Clouds/
01/10/2005 17:55      21.0  11.0  21.6  18.6  53  1015   ---     E    10    10   ---   0.9 Scattered Clouds/
01/10/2005 18:55      20.0  11.0  20.8  18.8  56  1015   ---     E     6     6   ---   0.9 Scattered Clouds/
01/10/2005 19:55      20.0  11.0  20.8  20.0  56  1015   ---     N     0     0   ---   0.9 Broken Clouds/
01/10/2005 20:55      18.0  12.0  19.5  18.0  68  1015   ---   WNW     3     3   ---   0.9 Few Clouds/
02/10/2005 07:55      18.0  14.0  20.2  16.6  77  1016   ---     W     6     6   ---   0.7 Few Clouds/
02/10/2005 08:55      18.0  14.0  20.2  16.6  77  1016   ---     W     6     6   ---   0.7 Few Clouds/
02/10/2005 09:55      19.0  14.0  20.8  19.0  73  1016   ---     S     5     5   ---   0.7 Few Clouds/
02/10/2005 10:55      21.0  14.0  22.3  19.0  64  1016   ---     N     8     8   ---   0.7 Few Clouds/
02/10/2005 11:55      23.0  13.0  23.6  23.0  53  1016   ---     E     5     5   ---   0.7 Few Clouds/
02/10/2005 12:55      24.0  14.0  24.6  22.5  54  1017   ---   ENE     8     8   ---   0.7 Few Clouds/
02/10/2005 14:55      23.0  15.0  24.1  19.8  61  1016   ---   ENE    14    14   ---   0.7 Scattered Clouds/
02/10/2005 15:55      23.0  15.0  24.1  19.8  61  1016   ---   ENE    14    14   ---   0.7 Scattered Clouds/
02/10/2005 16:55      23.0  15.0  24.1  21.0  61  1016   ---     E    10    10   ---   0.7 Scattered Clouds/
02/10/2005 17:55      22.0  15.0  23.3  22.0  65  1016   ---     E     5     5   ---   0.7 Broken Clouds/
02/10/2005 18:55      22.0  16.0  23.6  22.0  69  1016   ---    SE     5     5   ---   0.7 Broken Clouds/
02/10/2005 19:55      22.0  16.0  23.6  22.0  69  1016   ---     N     0     0   ---   0.7 Broken Clouds/
02/10/2005 20:55      21.0  17.0  23.2  21.0  78  1016   ---   ---     0     0   ---   0.7 Scattered Clouds/
03/10/2005 07:55      20.0  17.0  22.6  20.0  83  1015   ---   ---     0     0   ---   0.7 Broken Clouds/
03/10/2005 08:55      20.0  17.0  22.6  17.8  83  1014   ---   WSW     8     8   ---   --- Overcast/ Light Rain
03/10/2005 09:55      20.0  17.0  22.6  18.8  83  1016   ---   ESE     6     6   ---   0.7 Broken Clouds/
03/10/2005 10:55      20.0  17.0  22.6  20.0  83  1016   ---     N     0     0   ---   0.7 Broken Clouds/
03/10/2005 11:55      21.0  17.0  23.2  21.0  78  1017   ---   WSW     5     5   ---   0.7 Broken Clouds/
03/10/2005 12:55      21.0  16.0  22.9  19.0  73  1016   ---   NNE     8     8   ---   0.7 Broken Clouds/
03/10/2005 13:55      24.0  17.0  25.3  21.1  65  1015   ---     S    14    14   ---   0.7 Broken Clouds/
03/10/2005 14:55      24.0  15.0  24.8  22.5  57  1016   ---   WSW     8     8   ---   0.7 Broken Clouds/
03/10/2005 15:55      25.0  15.0  25.7  22.5  54  1015   ---   WSW    14    14   ---   0.7 Broken Clouds/
03/10/2005 16:55      21.0  17.0  23.2  14.8  78  1016   ---   WNW    31    58   ---   0.3 Overcast/
03/10/2005 17:55      19.0  16.0  21.6  14.5  83  1017   ---   NNW    14    14   ---   --- Overcast/ Light Rain
03/10/2005 18:55      18.0  15.0  20.5  18.0  83  1017   ---     N     0     0   ---   --- Overcast/ Light Rain
03/10/2005 19:55      18.0  16.0  21.0  18.0  88  1017   ---   ---     0     0   ---   --- Overcast/ Light Rain
03/10/2005 20:55      18.0  15.0  20.5  13.8  83  1018   ---   WSW    13    13   ---   --- Overcast/ Rain
04/10/2005 07:55      16.0  14.0  19.0  16.0  88  1019   ---   SSE     5     5   ---   0.3 Overcast/
04/10/2005 08:55      16.0  13.0  18.5  16.0  82  1019   ---     N     3     3   ---   --- Overcast/ Light Rain
04/10/2005 09:55      16.0  14.0  19.0  16.0  88  1019   ---     N     0     0   ---   --- Overcast/ Light Rain
04/10/2005 10:55      15.0  13.0  18.0  15.0  88  1019   ---   ---     0     0   ---   --- Overcast/ Light Rain
04/10/2005 11:55      16.0  14.0  19.0  16.0  88  1020   ---   ---     0     0   ---   0.3 Overcast/
04/10/2005 12:55      18.0  16.0  21.0  18.0  88  1020   ---   ---     0     0   ---   0.4 Scattered Clouds/
04/10/2005 13:55      20.0  16.0  22.2  20.0  78  1019   ---   ESE     5     5   ---   0.4 Scattered Clouds/
04/10/2005 14:55      21.0  17.0  23.2  17.2  78  1019   ---     E    14    14   ---   0.6 Scattered Clouds/
04/10/2005 15:55      21.0  16.0  22.9  19.0  73  1019   ---   NNE     8     8   ---   0.6 Scattered Clouds/
04/10/2005 16:55      21.0  14.0  22.3  19.9  64  1019   ---     N     6     6   ---   0.6 Broken Clouds/
04/10/2005 17:55      21.0  15.0  22.5  19.0  69  1018   ---    NW     8     8   ---   0.6 Broken Clouds/
04/10/2005 18:55      20.0  14.0  21.5  17.4  68  1018   ---   NNW    10    10   ---   0.6 Scattered Clouds/
04/10/2005 20:55      18.0  13.0  19.8  18.0  73  1019   ---    NW     3     3   ---   0.8 Scattered Clouds/
05/10/2005 07:55      15.0  12.0  17.5  15.0  82  1019   ---     W     5     5   ---   --- /
05/10/2005 08:55      16.0  12.0  18.1  16.0  77  1019   ---   WNW     3     3   ---   0.7 Few Clouds/
05/10/2005 09:55      18.0  14.0  20.2  18.0  77  1019   ---     N     0     0   ---   0.7 Few Clouds/
05/10/2005 10:55      20.0  13.0  21.3  17.8  64  1020   ---     N     8     8   ---   0.7 Few Clouds/
05/10/2005 11:55      21.0  13.0  22.0  18.6  60  1020   ---   NNW    10    10   ---   0.7 Few Clouds/
05/10/2005 12:55      22.0  13.0  22.8  21.0  57  1020   ---   NNW     6     6   ---   0.7 Few Clouds/
05/10/2005 13:55      22.0  13.0  22.8  18.9  57  1020   ---   NNW    13    13   ---   0.7 Scattered Clouds/
05/10/2005 14:55      22.0  13.0  22.8  22.0  57  1019   ---    NW     5     5   ---   0.7 Few Clouds/
05/10/2005 15:55      22.0  13.0  22.8  21.0  57  1019   ---    NW     6     6   ---   0.7 Scattered Clouds/
05/10/2005 16:55      21.0  14.0  22.3  21.0  64  1019   ---   WNW     3     3   ---   0.7 Broken Clouds/
05/10/2005 17:55      20.0  14.0  21.5  20.0  68  1019   ---     N     5     5   ---   0.7 Broken Clouds/
05/10/2005 18:55      20.0  14.0  21.5  20.0  68  1019   ---     N     0     0   ---   0.7 Broken Clouds/
05/10/2005 19:55      19.0  14.0  20.8  19.0  73  1019   ---   ---     0     0   ---   0.7 Scattered Clouds/
05/10/2005 20:55      19.0  15.0  21.2  19.0  78  1019   ---   ---     0     0   ---   0.7 Scattered Clouds/
05/10/2005 20:55      19.0  15.0  21.2  19.0  78  1019   ---   ---     0     0   ---   0.7 Scattered Clouds/None reported
05/10/2005 20:55      19.0  15.0  21.2  19.0  78  1019   ---   ---     0     0   ---   0.7 Scattered Clouds/None reported
06/10/2005 07:55      16.0  13.0  18.5  14.4  82  1017   ---   WSW     6     6   ---   0.7 Scattered Clouds/
06/10/2005 08:55      17.0  13.0  19.2  15.5  77  1017   ---   WSW     6     6   ---   0.7 Broken Clouds/
06/10/2005 09:55      19.0  14.0  20.8  19.0  73  1017   ---     N     0     0   ---   0.7 Broken Clouds/
06/10/2005 11:55      19.0  14.0  20.8  19.0  73  1017   ---   ---     0     0   ---   0.7 Broken Clouds/
06/10/2005 11:55      19.0  14.0  20.8  19.0  73  1017   ---   ---     0     0   ---   0.7 Broken Clouds/None reported
06/10/2005 12:55      19.0  15.0  21.2  17.7  78  1017   ---   SSW     6     6   ---   0.7 Broken Clouds/
06/10/2005 13:55      19.0  16.0  21.6  19.0  83  1017   ---     N     0     0   ---   0.7 Overcast/
06/10/2005 14:55      20.0  15.0  21.8  20.0  73  1017   ---   ---     0     0   ---   0.7 Broken Clouds/
06/10/2005 15:55      20.0  14.0  21.5  20.0  68  1017   ---   ---     0     0   ---   0.7 Broken Clouds/
06/10/2005 16:55      21.0  14.0  22.3  19.9  64  1017   ---     E     6     6   ---   0.7 Broken Clouds/
06/10/2005 17:55      21.0  14.0  22.3  21.0  64  1016   ---     E     5     5   ---   0.7 Broken Clouds/
06/10/2005 18:55      21.0  15.0  22.5  19.9  69  1016   ---     E     6     6   ---   0.7 Broken Clouds/
06/10/2005 19:55      19.0  15.0  21.2  19.0  78  1017   ---     N     0     0   ---   0.7 Broken Clouds/
06/10/2005 20:55      19.0  15.0  21.2  19.0  78  1017   ---   ---     0     0   ---   0.7 Broken Clouds/
07/10/2005 07:55      17.0  13.0  19.2  15.5  77  1016   ---   WSW     6     6   ---   2.1 Broken Clouds/
07/10/2005 08:55      17.0  13.0  19.2  15.5  77  1017   ---   WSW     6     6   ---   2.1 Broken Clouds/
07/10/2005 09:55      19.0  15.0  21.2  19.0  78  1017   ---   WSW     3     3   ---   0.7 Scattered Clouds/
07/10/2005 10:55      22.0  16.0  23.6  22.0  69  1017   ---     N     0     0   ---   0.7 Few Clouds/
07/10/2005 11:55      23.0  16.0  24.3  21.3  65  1017   ---    NE     8     8   ---   0.8 Scattered Clouds/
07/10/2005 12:55      23.0  16.0  24.3  22.1  65  1017   ---   ENE     6     6   ---   0.7 Broken Clouds/
07/10/2005 13:55      23.0  17.0  24.6  23.0  69  1017   ---   ESE     5     5   ---   0.7 Broken Clouds/
07/10/2005 14:55      23.0  17.0  24.6  22.1  69  1016   ---   NNW     6     6   ---   0.7 Scattered Clouds/
07/10/2005 15:55      23.0  17.0  24.6  19.4  69  1016   ---   NNW    16    16   ---   0.8 Scattered Clouds/
07/10/2005 16:55      21.0  17.0  23.2  19.0  78  1016   ---    NW     8     8   ---   0.6 Overcast/
07/10/2005 17:55      19.0  16.0  21.6  12.7  83  1016   ---    NW    23    42   ---   0.4 Broken Clouds/
07/10/2005 18:55      18.0  14.0  20.2  13.8  77  1017   ---   WNW    13    37   ---   0.6 Broken Clouds/
07/10/2005 19:55      18.0  14.0  20.2  18.0  77  1017   ---   SSW     3     3   ---   0.7 Broken Clouds/
07/10/2005 20:55      17.0  13.0  19.2  17.0  77  1017   ---     W     5     5   ---   0.9 Few Clouds/
08/10/2005 08:55      16.0  12.0  18.1  16.0  77  1017   ---   SSW     5     5   ---   0.7 Few Clouds/
08/10/2005 09:55      18.0  13.0  19.8  15.0  73  1018   ---   WSW    10    10   ---   0.7 Few Clouds/
08/10/2005 10:55      20.0  13.0  21.3  17.8  64  1018   ---   WSW     8     8   ---   0.7 Few Clouds/
08/10/2005 11:55      21.0  14.0  22.3  19.9  64  1018   ---     W     6     6   ---   0.7 Scattered Clouds/
08/10/2005 12:55      22.0  14.0  23.0  20.2  61  1018   ---   WNW     8     8   ---   0.7 Scattered Clouds/
08/10/2005 13:55      23.0  14.0  23.8  21.0  57  1018   ---    NW    10    10   ---   0.7 Scattered Clouds/
08/10/2005 14:55      23.0  13.0  23.6  19.2  53  1018   ---     W    18    18   ---   0.7 Few Clouds/
08/10/2005 15:55      23.0  13.0  23.6  20.2  53  1018   ---    NW    13    13   ---   0.7 Few Clouds/
08/10/2005 16:55      23.0  13.0  23.6  21.3  53  1017   ---    NW     8     8   ---   0.7 Few Clouds/
08/10/2005 17:55      22.0  15.0  23.3  19.8  65  1017   ---   NNW    10    10   ---   0.7 Few Clouds/
08/10/2005 18:55      21.0  14.0  22.3  19.9  64  1017   ---   WNW     6     6   ---   0.6 Few Clouds/
08/10/2005 19:55      20.0  13.0  21.3  20.0  64  1017   ---   WNW     3     3   ---   0.6 Broken Clouds/
08/10/2005 20:55      20.0  14.0  21.5  17.8  68  1017   ---    NW     8     8   ---   0.6 Broken Clouds/
09/10/2005 07:55      18.0  14.0  20.2  15.0  77  1016   ---   WSW    10    10   ---   0.4 Broken Clouds/
09/10/2005 08:55      18.0  14.0  20.2  12.4  77  1016   ---     W    18    18   ---   0.7 Broken Clouds/
09/10/2005 09:55      19.0  14.0  20.8  15.1  73  1016   ---     W    13    13   ---   0.7 Broken Clouds/
09/10/2005 10:55      20.0  15.0  21.8  16.4  73  1016   ---   WNW    13    13   ---   0.6 Broken Clouds/
09/10/2005 11:55      20.0  15.0  21.8  17.4  73  1016   ---    NW    10    10   ---   0.6 Broken Clouds/
09/10/2005 12:55      20.0  16.0  22.2  17.8  78  1016   ---   WNW     8     8   ---   0.6 Broken Clouds/
09/10/2005 13:55      19.0  15.0  21.2  14.5  78  1016   ---    NW    14    14   ---   0.6 Broken Clouds/
09/10/2005 14:55      20.0  14.0  21.5  15.3  68  1016   ---    NW    16    16   ---   0.6 Broken Clouds/
09/10/2005 15:55      21.0  14.0  22.3  16.5  64  1016   ---   WNW    18    18   ---   0.6 Broken Clouds/
09/10/2005 15:55      21.0  14.0  22.3  16.5  64  1016   ---   WNW    18    18   ---   0.6 Broken Clouds/None reported
09/10/2005 15:55      21.0  14.0  22.3  16.5  64  1016   ---   WNW    18    18   ---   0.6 Broken Clouds/None reported
09/10/2005 18:55      19.0  15.0  21.2  16.7  78  1015   ---    NW     8     8   ---   --- Overcast/ Light Rain
09/10/2005 19:55      18.0  15.0  20.5  18.0  83  1015   ---   NNW     5     5   ---   0.6 Broken Clouds/
09/10/2005 20:55      18.0  14.0  20.2  18.0  77  1016   ---     N     0     0   ---   0.6 Broken Clouds/
10/10/2005 07:55      17.0  13.0  19.2  17.0  77  1018   ---   ---     0     0   ---   0.5 Broken Clouds/
10/10/2005 08:55      16.0  13.0  18.5  16.0  82  1018   ---     W     5     5   ---   0.6 Broken Clouds/
10/10/2005 09:55      17.0  15.0  20.0  14.3  88  1019   ---     W     8     8   ---   0.6 Broken Clouds/
10/10/2005 10:55      18.0  16.0  21.0  18.0  88  1019   ---     N     0     0   ---   0.6 Broken Clouds/
10/10/2005 11:55      20.0  17.0  22.6  20.0  83  1019   ---   NNE     3     3   ---   0.6 Broken Clouds/
10/10/2005 12:55      21.0  16.0  22.9  19.0  73  1019   ---   ENE     8     8   ---   0.6 Broken Clouds/
10/10/2005 13:55      21.0  16.0  22.9  19.0  73  1019   ---     E     8     8   ---   0.6 Broken Clouds/
10/10/2005 14:55      21.0  17.0  23.2  18.6  78  1019   ---     E    10    10   ---   0.7 Broken Clouds/
10/10/2005 15:55      21.0  16.0  22.9  19.0  73  1019   ---     E     8     8   ---   0.7 Broken Clouds/
10/10/2005 16:55      21.0  16.0  22.9  19.0  73  1019   ---     E     8     8   ---   0.7 Broken Clouds/
10/10/2005 17:55      21.0  15.0  22.5  17.2  69  1019   ---     E    14    14   ---   0.7 Broken Clouds/
10/10/2005 18:55      20.0  14.0  21.5  17.4  68  1018   ---   ESE    10    10   ---   0.9 Broken Clouds/
10/10/2005 19:55      20.0  15.0  21.8  17.8  73  1018   ---   ESE     8     8   ---   0.9 Scattered Clouds/
10/10/2005 20:55      19.0  15.0  21.2  19.0  78  1019   ---     N     0     0   ---   0.7 Broken Clouds/
11/10/2005 07:55      16.0  12.0  18.1  14.4  77  1018   ---   WSW     6     6   ---   0.8 Scattered Clouds/
11/10/2005 08:55      16.0  12.0  18.1  16.0  77  1019   ---     W     5     5   ---   0.9 Scattered Clouds/
11/10/2005 09:55      18.0  13.0  19.8  18.0  73  1019   ---   WSW     3     3   ---   0.9 Few Clouds/
11/10/2005 10:55      21.0  14.0  22.3  21.0  64  1019   ---     N     0     0   ---   --- /
11/10/2005 11:55      22.0  14.0  23.0  21.0  61  1019   ---   ENE     6     6   ---   0.7 Few Clouds/
11/10/2005 12:55      22.0  14.0  23.0  19.8  61  1019   ---     E    10    10   ---   0.7 Few Clouds/
11/10/2005 13:55      22.0  14.0  23.0  21.0  61  1019   ---   ESE     6     6   ---   0.7 Few Clouds/
11/10/2005 14:55      22.0  13.0  22.8  19.8  57  1019   ---     E    10    10   ---   0.8 Scattered Clouds/
11/10/2005 15:55      22.0  14.0  23.0  20.2  61  1018   ---     E     8     8   ---   0.8 Scattered Clouds/
11/10/2005 16:55      21.0  14.0  22.3  19.0  64  1018   ---     E     8     8   ---   0.8 Scattered Clouds/
11/10/2005 17:55      21.0  16.0  22.9  18.6  73  1018   ---   ESE    10    10   ---   0.8 Few Clouds/
11/10/2005 18:55      20.0  15.0  21.8  17.8  73  1018   ---    SE     8     8   ---   0.8 Scattered Clouds/
11/10/2005 19:55      20.0  15.0  21.8  18.8  73  1018   ---    SE     6     6   ---   0.8 Broken Clouds/
11/10/2005 20:55      20.0  15.0  21.8  20.0  73  1019   ---    SW     3     3   ---   0.8 Broken Clouds/
12/10/2005 07:55      17.0  13.0  19.2  17.0  77  1018   ---     N     0     0   ---   0.7 Broken Clouds/
12/10/2005 08:55      17.0  14.0  19.5  17.0  83  1018   ---   ---     0     0   ---   0.7 Broken Clouds/
12/10/2005 09:55      17.0  14.0  19.5  17.0  83  1018   ---   ---     0     0   ---   0.7 Broken Clouds/
12/10/2005 10:55      20.0  15.0  21.8  20.0  73  1019   ---   ---     0     0   ---   0.7 Broken Clouds/
12/10/2005 11:55      22.0  14.0  23.0  22.0  61  1019   ---   ---     0     0   ---   0.7 Scattered Clouds/
12/10/2005 12:55      23.0  14.0  23.8  22.1  57  1019   ---    NE     6     6   ---   0.7 Broken Clouds/
12/10/2005 13:55      23.0  13.0  23.6  23.0  53  1019   ---   NNE     5     5   ---   0.7 Scattered Clouds/
12/10/2005 14:55      21.0  14.0  22.3  19.0  64  1018   ---     E     8     8   ---   0.7 Broken Clouds/
12/10/2005 15:55      22.0  14.0  23.0  22.0  61  1018   ---     N     0     0   ---   0.7 Broken Clouds/
12/10/2005 16:55      22.0  16.0  23.6  21.0  69  1018   ---     E     6     6   ---   0.7 Broken Clouds/
12/10/2005 17:55      21.0  15.0  22.5  19.9  69  1017   ---     E     6     6   ---   0.7 Broken Clouds/
12/10/2005 18:55      21.0  16.0  22.9  21.0  73  1017   ---     N     0     0   ---   0.7 Broken Clouds/
12/10/2005 19:55      20.0  16.0  22.2  20.0  78  1017   ---   ---     0     0   ---   0.7 Broken Clouds/
12/10/2005 20:55      19.0  16.0  21.6  19.0  83  1018   ---   ---     0     0   ---   0.7 Broken Clouds/
13/10/2005 07:55      17.0  14.0  19.5  17.0  83  1017   ---     W     5     5   ---   0.7 Broken Clouds/
13/10/2005 08:55      17.0  14.0  19.5  17.0  83  1017   ---     N     0     0   ---   0.7 Broken Clouds/
13/10/2005 09:55      18.0  15.0  20.5  18.0  83  1018   ---   ---     0     0   ---   0.8 Broken Clouds/
13/10/2005 10:55      19.0  15.0  21.2  19.0  78  1018   ---   ---     0     0   ---   0.8 Broken Clouds/
13/10/2005 11:55      21.0  16.0  22.9  21.0  73  1018   ---   ---     0     0   ---   0.8 Broken Clouds/
13/10/2005 12:55      23.0  16.0  24.3  23.0  65  1018   ---   ---     0     0   ---   0.8 Few Clouds/
13/10/2005 13:55      24.0  17.0  25.3  22.2  65  1018   ---   NNE    10    10   ---   0.8 Few Clouds/
13/10/2005 14:55      23.0  16.0  24.3  23.0  65  1017   ---     N     5     5   ---   0.8 Broken Clouds/
13/10/2005 15:55      23.0  16.0  24.3  22.1  65  1017   ---     E     6     6   ---   0.8 Broken Clouds/
13/10/2005 16:55      23.0  17.0  24.6  23.0  69  1017   ---   NNE     3     3   ---   0.8 Broken Clouds/
13/10/2005 17:55      23.0  17.0  24.6  23.0  69  1017   ---   ESE     3     3   ---   0.8 Broken Clouds/
13/10/2005 18:55      21.0  18.0  23.6  17.7  83  1018   ---     S    13    13   ---   --- Overcast/ Light Rain
13/10/2005 19:55      19.0  17.0  22.0  19.0  88  1018   ---    SW     5     5   ---   0.7 Overcast/
13/10/2005 20:55      19.0  17.0  22.0  19.0  88  1019   ---     N     0     0   ---   0.8 Broken Clouds/
14/10/2005 07:55      19.0  17.0  22.0  17.7  88  1020   ---   WSW     6     6   ---   1.0 Broken Clouds/
14/10/2005 08:55      19.0  17.0  22.0  19.0  88  1020   ---     W     3     3   ---   1.0 Few Clouds/
14/10/2005 09:55      20.0  18.0  23.0  20.0  88  1020   ---   WSW     3     3   ---   1.0 Few Clouds/
14/10/2005 10:55      22.0  17.0  23.9  22.0  73  1021   ---     N     0     0   ---   0.6 Few Clouds/
14/10/2005 11:55      24.0  18.0  25.6  24.0  69  1021   ---   ---     0     0   ---   0.7 Few Clouds/
14/10/2005 12:55      24.0  17.0  25.3  22.5  65  1022   ---   ESE     8     8   ---   0.7 Few Clouds/
14/10/2005 13:55      24.0  19.0  25.9  23.2  74  1022   ---     E     6     6   ---   0.7 Few Clouds/
14/10/2005 14:55      24.0  19.0  25.9  22.5  74  1022   ---     E     8     8   ---   0.7 Few Clouds/
14/10/2005 15:55      24.0  19.0  25.9  22.5  74  1022   ---   ESE     8     8   ---   0.7 Scattered Clouds/
14/10/2005 16:55      24.0  19.0  25.9  22.5  74  1022   ---     E     8     8   ---   0.7 Few Clouds/
14/10/2005 17:55      23.0  18.0  24.9  21.3  73  1022   ---     E     8     8   ---   0.7 Few Clouds/
14/10/2005 18:55      22.0  19.0  24.6  20.2  83  1022   ---   ESE     8     8   ---   0.7 Few Clouds/
14/10/2005 19:55      21.0  19.0  24.0  21.0  88  1022   ---     E     3     3   ---   0.7 Few Clouds/
14/10/2005 20:55      21.0  18.0  23.6  21.0  83  1022   ---     N     0     0   ---   0.7 Few Clouds/
15/10/2005 07:55      18.0  16.0  21.0  16.6  88  1022   ---   WSW     6     6   ---   3.0 Scattered Clouds/
15/10/2005 08:55      18.0  15.0  20.5  16.6  83  1023   ---   WSW     6     6   ---   0.7 Few Clouds/
15/10/2005 09:55      20.0  17.0  22.6  20.0  83  1023   ---     N     0     0   ---   0.7 Few Clouds/
15/10/2005 10:55      22.0  18.0  24.2  22.0  78  1024   ---   ---     0     0   ---   0.7 Few Clouds/
15/10/2005 11:55      23.0  17.0  24.6  23.0  69  1024   ---   ENE     5     5   ---   0.7 Few Clouds/
15/10/2005 12:55      24.0  17.0  25.3  23.2  65  1024   ---     E     6     6   ---   0.7 Few Clouds/
15/10/2005 13:55      24.0  19.0  25.9  22.5  74  1024   ---     E     8     8   ---   0.7 Few Clouds/
15/10/2005 14:55      23.0  19.0  25.2  21.3  78  1024   ---     E     8     8   ---   0.7 Scattered Clouds/
15/10/2005 15:55      23.0  18.0  24.9  21.0  73  1023   ---     E    10    10   ---   0.7 Scattered Clouds/
15/10/2005 16:55      22.0  19.0  24.6  21.0  83  1023   ---    NE     6     6   ---   0.7 Broken Clouds/
15/10/2005 17:55      22.0  18.0  24.2  21.0  78  1023   ---     E     6     6   ---   0.7 Broken Clouds/
15/10/2005 18:55      21.0  19.0  24.0  21.0  88  1023   ---     N     0     0   ---   0.7 Broken Clouds/
15/10/2005 19:55      20.0  18.0  23.0  20.0  88  1023   ---   ---     0     0   ---   0.7 Broken Clouds/
15/10/2005 20:55      19.0  17.0  22.0  19.0  88  1023   ---    SW     5     5   ---   0.7 Broken Clouds/
16/10/2005 07:55      16.0  13.0  18.5  12.5  82  1022   ---   WSW    10    10   ---   --- /
16/10/2005 10:55      21.0  16.0  22.9  21.0  73  1022   ---     E     3     3   ---   0.7 Few Clouds/
16/10/2005 07:55      16.0  13.0  18.5  12.5  82  1022   ---   WSW    10    10   ---   --- /
16/10/2005 12:55      22.0  16.0  23.6  20.2  69  1022   ---   ESE     8     8   ---   0.7 Scattered Clouds/
16/10/2005 13:55      22.0  17.0  23.9  21.0  73  1021   ---   ESE     6     6   ---   0.7 Scattered Clouds/
16/10/2005 16:55      23.0  18.0  24.9  23.0  73  1020   ---     E     5     5   ---   0.7 Scattered Clouds/
16/10/2005 17:55      21.0  17.0  23.2  19.0  78  1020   ---   ESE     8     8   ---   0.7 Scattered Clouds/
16/10/2005 18:55      21.0  16.0  22.9  21.0  73  1019   ---   ESE     3     3   ---   0.6 Few Clouds/
16/10/2005 19:55      20.0  16.0  22.2  20.0  78  1018   ---     N     0     0   ---   0.6 Few Clouds/
16/10/2005 20:55      19.0  15.0  21.2  19.0  78  1020   ---    SW     3     3   ---   --- /
17/10/2005 07:55      17.0  10.0  18.2  15.5  63  1018   ---   WSW     6     6   ---   6.0 Few Clouds/
17/10/2005 08:55      17.0   9.0  18.0  14.3  59  1018   ---   WSW     8     8   ---   --- /
17/10/2005 09:55      19.0  11.0  20.0  19.0  60  1018   ---     N     0     0   ---   --- /
17/10/2005 10:55      21.0  12.0  21.8  21.0  56  1019   ---   ---     0     0   ---   --- /
17/10/2005 12:55      23.0  10.0  23.1  23.0  44  1018   ---     E     3     3   ---   3.0 Scattered Clouds/
17/10/2005 12:55      23.0  10.0  23.1  23.0  44  1018   ---     E     3     3   ---   1.6 Scattered Clouds/None reported
17/10/2005 16:55      24.0  13.0  24.5  22.5  50  1016   ---     E     8     8   ---   0.9 Broken Clouds/
17/10/2005 18:55      22.0  14.0  23.0  22.0  61  1016   ---     E     5     5   ---   2.7 Broken Clouds/
17/10/2005 19:55      21.0  14.0  22.3  21.0  64  1016   ---     W     3     3   ---   2.7 Scattered Clouds/
17/10/2005 20:55      20.0  13.0  21.3  20.0  64  1016   ---     W     3     3   ---   3.0 Scattered Clouds/
18/10/2005 07:55      17.0  12.0  18.8  15.5  72  1016   ---   WSW     6     6   ---   0.9 Broken Clouds/
18/10/2005 08:55      17.0  12.0  18.8  17.0  72  1016   ---   WSW     5     5   ---   1.0 Broken Clouds/
18/10/2005 09:55      18.0  12.0  19.5  18.0  68  1017   ---   WSW     5     5   ---   0.7 Broken Clouds/
18/10/2005 10:55      19.0  13.0  20.5  19.0  68  1017   ---     N     0     0   ---   0.7 Broken Clouds/
18/10/2005 12:55      20.0  13.0  21.3  20.0  64  1018   ---   ---     0     0   ---   0.7 Broken Clouds/
18/10/2005 13:55      20.0  14.0  21.5  20.0  68  1018   ---   ---     0     0   ---   0.7 Broken Clouds/
18/10/2005 15:55      20.0  14.0  21.5  20.0  68  1018   ---   ---     0     0   ---   1.0 Overcast/
18/10/2005 16:55      21.0  15.0  22.5  21.0  69  1018   ---    SE     3     3   ---   1.0 Broken Clouds/
18/10/2005 17:55      21.0  16.0  22.9  21.0  73  1018   ---   ENE     3     3   ---   0.6 Overcast/
18/10/2005 18:55      20.0  17.0  22.6  20.0  83  1018   ---     N     0     0   ---   0.6 Overcast/
18/10/2005 19:55      19.0  17.0  22.0  19.0  88  1018   ---   ---     0     0   ---   0.6 Overcast/
18/10/2005 20:55      19.0  17.0  22.0  19.0  88  1018   ---   ---     0     0   ---   0.6 Broken Clouds/
19/10/2005 07:55      19.0  16.0  21.6  19.0  83  1020   ---   ---     0     0   ---   0.7 Broken Clouds/
19/10/2005 08:55      18.0  17.0  21.5  18.0  94  1020   ---   ---     0     0   ---   0.7 Broken Clouds/
19/10/2005 09:55      19.0  17.0  22.0  19.0  88  1020   ---   ---     0     0   ---   0.7 Broken Clouds/
19/10/2005 10:55      20.0  17.0  22.6  20.0  83  1021   ---   ---     0     0   ---   0.7 Broken Clouds/
19/10/2005 11:55      20.0  17.0  22.6  18.8  83  1022   ---     E     6     6   ---   0.7 Broken Clouds/
19/10/2005 12:55      20.0  17.0  22.6  20.0  83  1022   ---     N     0     0   ---   0.7 Overcast/
19/10/2005 13:55      21.0  17.0  23.2  21.0  78  1023   ---   ---     0     0   ---   0.7 Overcast/
19/10/2005 15:55      21.0  18.0  23.6  21.0  83  1021   ---   ---     0     0   ---   0.7 Broken Clouds/
19/10/2005 16:55      22.0  19.0  24.6  22.0  83  1021   ---   ---     0     0   ---   0.7 Broken Clouds/
19/10/2005 17:55      22.0  18.0  24.2  22.0  78  1021   ---   ENE     5     5   ---   0.7 Broken Clouds/
19/10/2005 18:55      21.0  18.0  23.6  21.0  83  1021   ---     E     5     5   ---   0.7 Broken Clouds/
19/10/2005 19:55      20.0  18.0  23.0  20.0  88  1021   ---     N     0     0   ---   0.7 Broken Clouds/
19/10/2005 20:55      20.0  18.0  23.0  20.0  88  1021   ---   ---     0     0   ---   0.7 Broken Clouds/
20/10/2005 07:55      19.0  16.0  21.6  19.0  83  1019   ---   ---     0     0   ---999.00.4 Broken Clouds/
20/10/2005 08:55      19.0  17.0  22.0  19.0  88  1019   ---     W     3     3   ---999.0--- Overcast/
20/10/2005 09:55      20.0  17.0  22.6  20.0  83  1019   ---     W     3     3   ---999.0--- Overcast/
20/10/2005 10:55      21.0  18.0  23.6  21.0  83  1020   ---   SSE     5     5   ---999.0--- Overcast/
20/10/2005 11:55      21.0  19.0  24.0  21.0  88  1020   ---   ENE     3     3   ---   2.4 Broken Clouds/
20/10/2005 12:55      23.0  19.0  25.2  23.0  78  1020   ---    NE     3     3   ---   6.0 Broken Clouds/
20/10/2005 13:55      24.0  18.0  25.6  24.0  69  1020   ---     E     5     5   ---   2.4 Broken Clouds/
20/10/2005 16:55      25.0  17.0  26.1  24.3  61  1018   ---   WSW     6     6   ---   2.4 Broken Clouds/
20/10/2005 17:55      25.0  19.0  26.6  25.0  69  1018   ---   WSW     3     3   ---   2.4 Broken Clouds/
20/10/2005 20:55      22.0  18.0  24.2  21.0  78  1017   ---   ESE     6     6   ---   1.2 Broken Clouds/
21/10/2005 07:55      20.0  16.0  22.2  20.0  78  1014   ---     N     0     0   ---   0.7 Broken Clouds/
21/10/2005 08:55      20.0  15.0  21.8  20.0  73  1014   ---   WNW     3     3   ---   0.7 Broken Clouds/
21/10/2005 09:55      20.0  15.0  21.8  20.0  73  1014   ---     N     0     0   ---   0.7 Broken Clouds/
21/10/2005 11:55      23.0  16.0  24.3  23.0  65  1014   ---     N     3     3   ---   0.7 Broken Clouds/
21/10/2005 12:55      24.0  16.0  25.1  24.0  61  1014   ---     N     0     0   ---   0.7 Broken Clouds/
21/10/2005 13:55      25.0  17.0  26.1  23.7  61  1014   ---     N     8     8   ---   1.2 Broken Clouds/
21/10/2005 14:55      24.0  18.0  25.6  24.0  69  1014   ---     N     0     0   ---   1.0 Broken Clouds/
21/10/2005 15:55      25.0  18.0  26.3  25.0  65  1013   ---   SSE     3     3   ---   1.0 Broken Clouds/
21/10/2005 18:55      25.0  17.0  26.1  25.0  61  1011   ---     N     0     0   ---   3.0 Scattered Clouds/
21/10/2005 19:55      24.0  18.0  25.6  24.0  69  1012   ---   ---     0     0   ---   3.0 Scattered Clouds/
21/10/2005 20:55      21.0  19.0  24.0  19.0  88  1013   ---   NNE     8     8   ---   0.6 Few Clouds/
22/10/2005 08:55      20.0  17.0  22.6  17.8  83  1014   ---     W     8     8   ---   1.2 Broken Clouds/
22/10/2005 09:55      20.0  17.0  22.6  20.0  83  1014   ---     W     3     3   ---   1.2 Broken Clouds/
22/10/2005 10:55      20.0  17.0  22.6  20.0  83  1014   ---   WSW     5     5   ---   1.2 Scattered Clouds/
22/10/2005 11:55      22.0  19.0  24.6  22.0  83  1015   ---    SW     3     3   ---   0.9 Scattered Clouds/
22/10/2005 12:55      24.0  18.0  25.6  24.0  69  1015   ---   ESE     5     5   ---   0.9 Scattered Clouds/
22/10/2005 13:55      25.0  19.0  26.6  25.0  69  1015   ---   ENE     5     5   ---   0.9 Few Clouds/
22/10/2005 14:55      24.0  18.0  25.6  23.2  69  1014   ---     E     6     6   ---   0.9 Scattered Clouds/
22/10/2005 15:55      22.0  19.0  24.6  18.9  83  1014   ---   NNE    13    13   ---   --- Overcast/ Light Rain
22/10/2005 16:55      21.0  19.0  24.0  19.0  88  1014   ---    SW     8     8   ---   0.4 Overcast/
22/10/2005 17:55      18.0  16.0  21.0  18.0  88  1015   ---     N     0     0   ---   --- / Thunderstorm
22/10/2005 18:55      18.0  16.0  21.0  18.0  88  1015   ---   ---     0     0   ---   --- / Thunderstorm
22/10/2005 19:55      18.0  15.0  20.5  18.0  83  1015   ---   ---     0     0   ---   0.7 Broken Clouds/
22/10/2005 20:55      18.0  15.0  20.5  18.0  83  1015   ---   ---     0     0   ---   0.7 Scattered Clouds/
23/10/2005 07:55      16.0  13.0  18.5  13.2  82  1017   ---   ENE     8     8   ---   0.7 Few Clouds/
23/10/2005 09:55      18.0  14.0  20.2  18.0  77  1017   ---     N     0     0   ---   0.7 Few Clouds/
23/10/2005 10:55      20.0  16.0  22.2  20.0  78  1018   ---   ---     0     0   ---   0.7 Scattered Clouds/
23/10/2005 11:55      23.0  17.0  24.6  22.1  69  1018   ---     E     6     6   ---   6.0 Scattered Clouds/
23/10/2005 11:55      23.0  17.0  24.6  22.1  69  1018   ---     E     6     6   ---   0.2 Scattered Clouds/None reported
23/10/2005 12:55      23.0  17.0  24.6  23.0  69  1019   ---     N     0     0   ---   0.7 Scattered Clouds/
23/10/2005 13:55      23.0  17.0  24.6  21.3  69  1019   ---   ESE     8     8   ---   0.7 Scattered Clouds/
23/10/2005 16:55      23.0  18.0  24.9  21.3  73  1018   ---     E     8     8   ---   6.0 Scattered Clouds/
23/10/2005 17:55      22.0  18.0  24.2  22.0  78  1018   ---     E     5     5   ---   6.0 Scattered Clouds/
23/10/2005 18:55      20.0  18.0  23.0  20.0  88  1018   ---     N     0     0   ---   6.0 Scattered Clouds/
23/10/2005 19:55      19.0  17.0  22.0  19.0  88  1018   ---   ---     0     0   ---   6.0 Scattered Clouds/
23/10/2005 20:55      19.0  16.0  21.6  19.0  83  1018   ---   ---     0     0   ---   6.0 Scattered Clouds/
23/10/2005 20:55      19.0  16.0  21.6  19.0  83  1018   ---   ---     0     0   ---   1.6 Scattered Clouds/None reported
23/10/2005 20:55      19.0  16.0  21.6  19.0  83  1018   ---   ---     0     0   ---   1.6 Scattered Clouds/None reported
23/10/2005 20:55      19.0  16.0  21.6  19.0  83  1018   ---   ---     0     0   ---   1.6 Scattered Clouds/None reported
24/10/2005 07:55      16.0  14.0  19.0  16.0  88  1020   ---   WSW     5     5   ---   0.6 Broken Clouds/
24/10/2005 08:55      17.0  14.0  19.5  17.0  83  1020   ---   WSW     5     5   ---   0.4 Broken Clouds/
24/10/2005 09:55      18.0  16.0  21.0  18.0  88  1021   ---    SW     5     5   ---   0.4 Broken Clouds/
24/10/2005 10:55      21.0  17.0  23.2  19.9  78  1021   ---     S     6     6   ---   0.4 Broken Clouds/
24/10/2005 12:55      22.0  17.0  23.9  21.0  73  1021   ---   ENE     6     6   ---   0.6 Scattered Clouds/
24/10/2005 14:55      22.0  16.0  23.6  20.2  69  1021   ---     E     8     8   ---   0.6 Scattered Clouds/
24/10/2005 15:55      23.0  18.0  24.9  21.0  73  1020   ---     E    10    10   ---   0.6 Few Clouds/
24/10/2005 16:55      22.0  18.0  24.2  20.2  78  1020   ---     E     8     8   ---   0.6 Scattered Clouds/
24/10/2005 17:55      21.0  18.0  23.6  19.9  83  1020   ---   ESE     6     6   ---   0.7 Scattered Clouds/
24/10/2005 18:55      20.0  17.0  22.6  20.0  83  1020   ---     N     0     0   ---   0.6 Scattered Clouds/
24/10/2005 19:55      20.0  16.0  22.2  20.0  78  1020   ---   ---     0     0   ---   0.6 Scattered Clouds/
24/10/2005 20:55      19.0  16.0  21.6  19.0  83  1021   ---   ---     0     0   ---   0.6 Scattered Clouds/
25/10/2005 07:55      17.0  15.0  20.0  17.0  88  1021   ---   ---     0     0   ---   --- /
25/10/2005 08:55      17.0  14.0  19.5  17.0  83  1021   ---   ---     0     0   ---   --- /
25/10/2005 09:55      18.0  15.0  20.5  18.0  83  1021   ---   ---     0     0   ---   --- /
25/10/2005 10:55      21.0  16.0  22.9  21.0  73  1022   ---   ---     0     0   ---   --- /
25/10/2005 11:55      22.0  16.0  23.6  22.0  69  1022   ---   ---     0     0   ---   --- /
25/10/2005 12:55      22.0  17.0  23.9  19.8  73  1022   ---     E    10    10   ---   --- /
25/10/2005 14:55      22.0  16.0  23.6  20.2  69  1022   ---   ESE     8     8   ---   0.6 Scattered Clouds/
25/10/2005 16:55      22.0  17.0  23.9  19.8  73  1021   ---     E    10    10   ---   0.6 Broken Clouds/
25/10/2005 17:55      22.0  18.0  24.2  22.0  78  1021   ---     N     0     0   ---   0.6 Broken Clouds/
25/10/2005 19:55      21.0  18.0  23.6  21.0  83  1021   ---   ---     0     0   ---   0.6 Broken Clouds/
25/10/2005 20:55      19.0  16.0  21.6  19.0  83  1022   ---   ---     0     0   ---   0.6 Scattered Clouds/
26/10/2005 07:55      17.0  14.0  19.5  14.3  83  1022   ---   WSW     8     8   ---   0.7 Scattered Clouds/
26/10/2005 08:55      17.0  14.0  19.5  15.5  83  1022   ---    SW     6     6   ---   0.7 Scattered Clouds/
26/10/2005 10:55      21.0  16.0  22.9  21.0  73  1023   ---     N     0     0   ---   0.7 Scattered Clouds/
26/10/2005 12:55      23.0  16.0  24.3  23.0  65  1023   ---   ---     0     0   ---   0.7 Scattered Clouds/
26/10/2005 13:55      23.0  16.0  24.3  21.3  65  1023   ---   ENE     8     8   ---   0.7 Few Clouds/
26/10/2005 14:55      23.0  18.0  24.9  21.3  73  1023   ---   ESE     8     8   ---   0.7 Few Clouds/
26/10/2005 15:55      22.0  16.0  23.6  21.0  69  1022   ---     E     6     6   ---   0.7 Few Clouds/
26/10/2005 16:55      22.0  18.0  24.2  21.0  78  1022   ---     E     6     6   ---   0.7 Scattered Clouds/
26/10/2005 17:55      21.0  18.0  23.6  21.0  83  1022   ---     N     0     0   ---   0.7 Scattered Clouds/
26/10/2005 18:55      20.0  17.0  22.6  20.0  83  1022   ---   ---     0     0   ---   0.7 Scattered Clouds/
26/10/2005 19:55      19.0  17.0  22.0  19.0  88  1022   ---   ---     0     0   ---   0.7 Scattered Clouds/
26/10/2005 20:55      19.0  16.0  21.6  19.0  83  1023   ---   ---     0     0   ---   0.7 Scattered Clouds/
27/10/2005 07:55      17.0  14.0  19.5  17.0  83  1023   ---   SSW     3     3   ---   --- /
27/10/2005 08:55      17.0  14.0  19.5  17.0  83  1023   ---   WSW     3     3   ---   0.7 Few Clouds/
27/10/2005 09:55      18.0  15.0  20.5  18.0  83  1023   ---   WSW     3     3   ---   0.7 Few Clouds/
27/10/2005 10:55      20.0  16.0  22.2  20.0  78  1024   ---     N     0     0   ---   0.7 Few Clouds/
27/10/2005 11:55      22.0  16.0  23.6  22.0  69  1024   ---   ---     0     0   ---   0.7 Few Clouds/
27/10/2005 12:55      23.0  16.0  24.3  21.3  65  1024   ---     E     8     8   ---   0.7 Few Clouds/
27/10/2005 13:55      23.0  16.0  24.3  20.2  65  1024   ---   ESE    13    13   ---   0.7 Few Clouds/
27/10/2005 14:55      23.0  17.0  24.6  21.0  69  1023   ---   ESE    10    10   ---   0.7 Few Clouds/
27/10/2005 15:55      22.0  17.0  23.9  19.8  73  1023   ---   ESE    10    10   ---   0.7 Scattered Clouds/
27/10/2005 16:55      22.0  17.0  23.9  20.2  73  1023   ---     E     8     8   ---   0.7 Scattered Clouds/
27/10/2005 17:55      21.0  17.0  23.2  19.9  78  1022   ---   SSE     6     6   ---   0.7 Scattered Clouds/
27/10/2005 18:55      20.0  16.0  22.2  17.8  78  1022   ---   ESE     8     8   ---   0.6 Scattered Clouds/
27/10/2005 19:55      20.0  16.0  22.2  20.0  78  1023   ---     N     0     0   ---   0.6 Scattered Clouds/
27/10/2005 20:55      19.0  16.0  21.6  19.0  83  1023   ---   ---     0     0   ---   --- /
28/10/2005 07:55      17.0  14.0  19.5  17.0  83  1023   ---   WSW     5     5   ---   --- /
28/10/2005 08:55      17.0  14.0  19.5  17.0  83  1023   ---   WSW     5     5   ---   --- /
28/10/2005 09:55      18.0  16.0  21.0  18.0  88  1023   ---     N     0     0   ---   --- /
28/10/2005 10:55      21.0  16.0  22.9  21.0  73  1023   ---   ---     0     0   ---   --- /
28/10/2005 11:55      22.0  17.0  23.9  22.0  73  1024   ---   ---     0     0   ---   --- /
28/10/2005 12:55      23.0  16.0  24.3  23.0  65  1024   ---     E     5     5   ---   --- /
28/10/2005 13:55      22.0  16.0  23.6  21.0  69  1024   ---     E     6     6   ---   --- /
28/10/2005 14:55      22.0  16.0  23.6  20.2  69  1023   ---     E     8     8   ---   --- /
28/10/2005 16:55      22.0  17.0  23.9  22.0  73  1023   ---     E     3     3   ---   --- /
28/10/2005 17:55      21.0  17.0  23.2  21.0  78  1022   ---     N     0     0   ---   --- /
28/10/2005 18:55      21.0  17.0  23.2  21.0  78  1022   ---   ---     0     0   ---   0.7 Scattered Clouds/
28/10/2005 19:55      20.0  17.0  22.6  20.0  83  1022   ---   ---     0     0   ---   0.6 Scattered Clouds/
28/10/2005 20:55      19.0  17.0  22.0  19.0  88  1022   ---   ---     0     0   ---   0.6 Scattered Clouds/
29/10/2005 07:55      16.0  14.0  19.0  14.4  88  1022   ---   WSW     6     6   ---   --- /
29/10/2005 08:55      16.0  13.0  18.5  16.0  82  1022   ---     N     0     0   ---   --- /
29/10/2005 09:55      17.0  14.0  19.5  15.5  83  1022   ---   WSW     6     6   ---   --- /
29/10/2005 10:55      20.0  15.0  21.8  20.0  73  1022   ---     N     0     0   ---   --- /
29/10/2005 11:55      21.0  15.0  22.5  21.0  69  1023   ---   ---     0     0   ---   --- /
29/10/2005 12:55      22.0  15.0  23.3  22.0  65  1023   ---   ---     0     0   ---   --- /
29/10/2005 13:55      22.0  16.0  23.6  20.2  69  1023   ---   ESE     8     8   ---   --- /
29/10/2005 14:55      22.0  18.0  24.2  20.2  78  1022   ---     E     8     8   ---   --- /
29/10/2005 14:55      22.0  18.0  24.2  20.2  78  1022   ---     E     8     8   ---   --- None reported/None reported
29/10/2005 16:55      22.0  17.0  23.9  21.0  73  1022   ---     E     6     6   ---   0.8 Few Clouds/
29/10/2005 17:55      21.0  17.0  23.2  21.0  78  1022   ---     N     0     0   ---   0.7 Few Clouds/
29/10/2005 18:55      20.0  17.0  22.6  20.0  83  1022   ---   ---     0     0   ---   0.7 Scattered Clouds/
29/10/2005 19:55      20.0  17.0  22.6  20.0  83  1022   ---   ---     0     0   ---   0.7 Scattered Clouds/
29/10/2005 20:55      19.0  17.0  22.0  19.0  88  1022   ---   ---     0     0   ---   0.7 Broken Clouds/
29/10/2005 19:55      19.0  17.0  22.0  19.0  88  1022   ---   ---     0     0   ---   0.7 Broken Clouds/
30/10/2005 07:55      15.0  13.0  18.0  13.3  88  1022   ---   WSW     6     6   ---   --- /
30/10/2005 08:55      17.0  14.0  19.5  17.0  83  1023   ---   WSW     5     5   ---   --- /
30/10/2005 09:55      19.0  16.0  21.6  19.0  83  1023   ---     N     5     5   ---   --- /
30/10/2005 10:55      21.0  15.0  22.5  21.0  69  1023   ---    NE     5     5   ---   --- /
30/10/2005 11:55      22.0  15.0  23.3  20.2  65  1023   ---     E     8     8   ---   --- /
30/10/2005 12:55      22.0  16.0  23.6  20.2  69  1023   ---     E     8     8   ---   --- /
30/10/2005 14:55      22.0  17.0  23.9  18.9  73  1022   ---     E    13    13   ---   0.7 Few Clouds/
30/10/2005 15:55      22.0  16.0  23.6  21.0  69  1022   ---   ESE     6     6   ---   --- /
30/10/2005 17:55      20.0  16.0  22.2  20.0  78  1021   ---     N     0     0   ---   --- /
30/10/2005 17:55      20.0  16.0  22.2  20.0  78  1021   ---   ---     0     0   ---   --- None reported/None reported
30/10/2005 18:55      18.0  15.0  20.5  18.0  83  1021   ---   ---     0     0   ---   --- /
30/10/2005 19:55      18.0  15.0  20.5  18.0  83  1021   ---   ---     0     0   ---   --- /
31/10/2005 07:55      16.0  13.0  18.5  16.0  82  1021   ---   WSW     5     5   ---   --- /
31/10/2005 08:55      17.0  14.0  19.5  17.0  83  1021   ---     N     0     0   ---   --- /
31/10/2005 08:55      17.0  14.0  19.5  17.0  83  1021   ---   ---     0     0   ---   --- None reported/None reported
31/10/2005 09:55      20.0  16.0  22.2  20.0  78  1021   ---   ---     0     0   ---   --- /
31/10/2005 10:55      22.0  15.0  23.3  22.0  65  1021   ---   ---     0     0   ---   --- /
31/10/2005 11:55      22.0  15.0  23.3  22.0  65  1021   ---   ---     0     0   ---   --- /
31/10/2005 12:55      23.0  15.0  24.1  23.0  61  1020   ---   ---     0     0   ---   --- /
31/10/2005 13:55      23.0  15.0  24.1  16.9  61  1020   ---   ESE   114   114   ---   --- /
31/10/2005 15:55      22.0  15.0  23.3  20.2  65  1019   ---   ESE     8     8   ---   --- /
31/10/2005 17:55      20.0  16.0  22.2  20.0  78  1019   ---     N     0     0   ---   --- /
31/10/2005 19:55      18.0  15.0  20.5  18.0  83  1019   ---    SW     5     5   ---   --- /
01/11/2005 07:55      16.0  13.0  18.5  16.0  82  1021   ---     N     0     0   ---   --- /
01/11/2005 08:55      17.0  13.0  19.2  17.0  77  1021   ---   ---     0     0   ---   6.0 Few Clouds/
01/11/2005 09:55      20.0  15.0  21.8  20.0  73  1022   ---     S     5     5   ---   --- /
01/11/2005 10:55      21.0  14.0  22.3  21.0  64  1022   ---     N     0     0   ---   --- /
01/11/2005 10:55      21.0  14.0  22.3  21.0  64  1022   ---   ---     0     0   ---   --- None reported/None reported
01/11/2005 11:55      22.0  15.0  23.3  22.0  65  1022   ---     E     5     5   ---   --- /
01/11/2005 12:55      22.0  16.0  23.6  21.0  69  1022   ---     E     6     6   ---   --- /
01/11/2005 13:55      23.0  16.0  24.3  23.0  65  1022   ---   ESE     5     5   ---   --- /
01/11/2005 14:55      23.0  16.0  24.3  22.1  65  1021   ---   ESE     6     6   ---   --- /
01/11/2005 15:55      22.0  16.0  23.6  22.0  69  1021   ---     N     0     0   ---   6.0 Scattered Clouds/
01/11/2005 16:55      22.0  17.0  23.9  22.0  73  1021   ---   ---     0     0   ---   6.0 Scattered Clouds/
01/11/2005 17:55      21.0  17.0  23.2  21.0  78  1021   ---   ---     0     0   ---   6.0 Scattered Clouds/
01/11/2005 18:55      20.0  17.0  22.6  20.0  83  1021   ---   ---     0     0   ---   0.7 Scattered Clouds/
01/11/2005 19:55      19.0  16.0  21.6  19.0  83  1022   ---   ---     0     0   ---   0.7 Few Clouds/
02/11/2005 07:55      18.0  16.0  21.0  18.0  88  1021   ---   ---     0     0   ---   0.7 Broken Clouds/
02/11/2005 08:55      19.0  16.0  21.6  19.0  83  1022   ---   WSW     5     5   ---   0.7 Broken Clouds/
02/11/2005 09:55      22.0  17.0  23.9  22.0  73  1022   ---   NNE     5     5   ---   0.7 Few Clouds/
02/11/2005 10:55      23.0  16.0  24.3  22.1  65  1022   ---   NNW     6     6   ---   0.7 Scattered Clouds/
02/11/2005 11:55      23.0  18.0  24.9  21.3  73  1022   ---     E     8     8   ---   0.7 Few Clouds/
02/11/2005 12:55      24.0  16.0  25.1  22.2  61  1021   ---    NW    10    10   ---   0.7 Few Clouds/
02/11/2005 13:55      24.0  14.0  24.6  22.5  54  1021   ---    NW     8     8   ---   0.7 Few Clouds/
02/11/2005 14:55      23.0  15.0  24.1  19.8  61  1021   ---     N    14    14   ---   0.7 Scattered Clouds/
02/11/2005 15:55      22.0  15.0  23.3  18.9  65  1021   ---     N    13    13   ---   0.7 Scattered Clouds/
02/11/2005 16:55      21.0  16.0  22.9  17.7  73  1021   ---     W    13    13   ---   0.6 Scattered Clouds/
02/11/2005 18:55      19.0  16.0  21.6  17.7  83  1021   ---   WNW     6     6   ---   0.6 Few Clouds/
02/11/2005 19:55      18.0  15.0  20.5  18.0  83  1021   ---   WNW     5     5   ---   0.6 Few Clouds/
03/11/2005 07:55      16.0  12.0  18.1  16.0  77  1020   ---   WSW     5     5   ---   0.6 Scattered Clouds/
03/11/2005 08:55      18.0  15.0  20.5  18.0  83  1020   ---     N     0     0   ---   0.6 Scattered Clouds/
03/11/2005 09:55      20.0  16.0  22.2  20.0  78  1021   ---   ---     0     0   ---   0.6 Scattered Clouds/
03/11/2005 10:55      21.0  16.0  22.9  19.9  73  1021   ---   WNW     6     6   ---   0.6 Scattered Clouds/
03/11/2005 11:55      22.0  16.0  23.6  21.0  69  1021   ---     E     6     6   ---   0.6 Scattered Clouds/
03/11/2005 12:55      22.0  16.0  23.6  20.2  69  1021   ---    NE     8     8   ---   0.6 Scattered Clouds/
03/11/2005 13:55      22.0  17.0  23.9  20.2  73  1021   ---    NE     8     8   ---   0.6 Scattered Clouds/
03/11/2005 14:55      21.0  16.0  22.9  17.7  73  1020   ---    NE    13    13   ---   0.7 Scattered Clouds/
03/11/2005 15:55      21.0  17.0  23.2  18.6  78  1020   ---   NNE    10    10   ---   0.7 Scattered Clouds/
03/11/2005 16:55      20.0  16.0  22.2  17.8  78  1021   ---    NE     8     8   ---   0.6 Scattered Clouds/
03/11/2005 17:55      19.0  16.0  21.6  19.0  83  1021   ---     N     0     0   ---   0.6 Scattered Clouds/
03/11/2005 17:55      19.0  16.0  21.6  19.0  83  1021   ---   ---     0     0   ---   0.6 Scattered Clouds/None reported
03/11/2005 19:55      19.0  16.0  21.6  19.0  83  1021   ---   ---     0     0   ---   0.7 Scattered Clouds/
04/11/2005 07:55      16.0  12.0  18.1  16.0  77  1021   ---   ---     0     0   ---   --- /
04/11/2005 08:55      17.0  13.0  19.2  17.0  77  1021   ---   ---     0     0   ---   --- /
04/11/2005 09:55      20.0  15.0  21.8  20.0  73  1022   ---   ---     0     0   ---   --- /
04/11/2005 10:55      21.0  14.0  22.3  21.0  64  1022   ---   ---     0     0   ---   --- /
04/11/2005 11:55      23.0  15.0  24.1  23.0  61  1022   ---   ---     0     0   ---   0.7 Few Clouds/
04/11/2005 12:55      23.0  15.0  24.1  22.1  61  1021   ---     E     6     6   ---   0.7 Few Clouds/
04/11/2005 13:55      22.0  16.0  23.6  21.0  69  1021   ---   ESE     6     6   ---   0.7 Few Clouds/
04/11/2005 14:55      22.0  17.0  23.9  22.0  73  1021   ---     E     5     5   ---   0.7 Few Clouds/
04/11/2005 15:55      22.0  17.0  23.9  19.8  73  1020   ---   ENE    10    10   ---   0.7 Scattered Clouds/
04/11/2005 16:55      21.0  17.0  23.2  21.0  78  1020   ---     E     5     5   ---   0.7 Few Clouds/
04/11/2005 17:55      21.0  17.0  23.2  21.0  78  1020   ---     N     0     0   ---   0.7 Scattered Clouds/
04/11/2005 18:55      20.0  17.0  22.6  20.0  83  1020   ---   ---     0     0   ---   0.7 Scattered Clouds/
04/11/2005 18:55      20.0  17.0  22.6  20.0  83  1020   ---   ---     0     0   ---   0.7 Scattered Clouds/None reported
04/11/2005 18:55      20.0  17.0  22.6  20.0  83  1020   ---   ---     0     0   ---   0.7 Scattered Clouds/None reported
04/11/2005 18:55      20.0  17.0  22.6  20.0  83  1020   ---   ---     0     0   ---   0.7 Scattered Clouds/None reported
04/11/2005 19:55      19.0  16.0  21.6  19.0  83  1021   ---   ---     0     0   ---   0.7 Scattered Clouds/
05/11/2005 07:55      16.0  12.0  18.1  16.0  77  1021   ---   WSW     5     5   ---   --- /
05/11/2005 08:55      17.0  13.0  19.2  15.5  77  1022   ---   WSW     6     6   ---   --- /
05/11/2005 09:55      20.0  14.0  21.5  20.0  68  1022   ---     N     0     0   ---   --- /
05/11/2005 10:55      22.0  13.0  22.8  22.0  57  1022   ---   ---     0     0   ---   --- /
05/11/2005 11:55      23.0  13.0  23.6  22.1  53  1022   ---   ENE     6     6   ---   --- /
05/11/2005 12:55      23.0  15.0  24.1  22.1  61  1021   ---     E     6     6   ---   0.9 Few Clouds/
05/11/2005 13:55      23.0  16.0  24.3  20.2  65  1021   ---     E    13    13   ---   1.0 Few Clouds/
05/11/2005 13:55      23.0  16.0  24.3  20.2  65  1021   ---     E    13    13   ---   1.0 Few Clouds/None reported
05/11/2005 16:55      21.0  17.0  23.2  19.0  78  1021   ---     E     8     8   ---   1.0 Few Clouds/
05/11/2005 17:55      20.0  16.0  22.2  20.0  78  1021   ---   ENE     5     5   ---   --- /
05/11/2005 18:55      19.0  16.0  21.6  19.0  83  1021   ---     N     0     0   ---   --- /
05/11/2005 19:55      18.0  15.0  20.5  18.0  83  1022   ---   WSW     5     5   ---   --- /
06/11/2005 07:55      17.0  13.0  19.2  17.0  77  1022   ---     N     0     0   ---   0.7 Few Clouds/
06/11/2005 08:55      18.0  13.0  19.8  18.0  73  1022   ---   WSW     5     5   ---   0.7 Broken Clouds/
06/11/2005 09:55      21.0  15.0  22.5  21.0  69  1022   ---     N     0     0   ---   0.7 Broken Clouds/
06/11/2005 10:55      22.0  15.0  23.3  22.0  65  1022   ---   NNW     5     5   ---   3.3 Scattered Clouds/
06/11/2005 11:55      22.0  13.0  22.8  22.0  57  1023   ---     N     0     0   ---   2.7 Broken Clouds/
06/11/2005 11:55      22.0  13.0  22.8  22.0  57  1023   ---   ---     0     0   ---   0.8 Broken Clouds/None reported
06/11/2005 11:55      22.0  13.0  22.8  22.0  57  1023   ---   ---     0     0   ---   0.8 Broken Clouds/None reported
06/11/2005 12:55      22.0  14.0  23.0  22.0  61  1023   ---   ---     0     0   ---   2.7 Broken Clouds/
06/11/2005 12:55      22.0  14.0  23.0  22.0  61  1023   ---   ---     0     0   ---   0.8 Broken Clouds/None reported
06/11/2005 13:55      22.0  15.0  23.3  22.0  65  1023   ---   ---     0     0   ---   2.7 Broken Clouds/
06/11/2005 14:55      22.0  15.0  23.3  22.0  65  1022   ---   ---     0     0   ---   2.7 Broken Clouds/
06/11/2005 15:55      22.0  15.0  23.3  22.0  65  1022   ---   ---     0     0   ---   0.7 Broken Clouds/
06/11/2005 16:55      22.0  15.0  23.3  22.0  65  1022   ---   ---     0     0   ---   0.7 Broken Clouds/
06/11/2005 17:55      19.0  16.0  21.6  19.0  83  1023   ---   ---     0     0   ---   --- Overcast/ Light Rain
06/11/2005 17:55      19.0  16.0  21.6  19.0  83  1023   ---   ---     0     0   ---   --- Overcast/ Light Rain
06/11/2005 17:55      19.0  16.0  21.6  19.0  83  1023   ---   ---     0     0   ---   --- Overcast/ Light Rain
06/11/2005 18:55      18.0  16.0  21.0  18.0  88  1023   ---   ---     0     0   ---   --- Overcast/ Light Rain
06/11/2005 19:55      18.0  15.0  20.5  18.0  83  1023   ---   ---     0     0   ---   --- Overcast/ Light Rain
07/11/2005 07:55      17.0  13.0  19.2  17.0  77  1023   ---   ---     0     0   ---   0.7 Scattered Clouds/
07/11/2005 08:55      17.0  13.0  19.2  17.0  77  1023   ---     W     3     3   ---   0.7 Few Clouds/
07/11/2005 09:55      19.0  13.0  20.5  19.0  68  1024   ---     N     0     0   ---   0.7 Few Clouds/
07/11/2005 10:55      20.0  13.0  21.3  20.0  64  1024   ---   SSW     5     5   ---   0.7 Few Clouds/
07/11/2005 11:55      20.0  12.0  21.0  20.0  60  1024   ---    NW     5     5   ---   0.6 Few Clouds/
07/11/2005 12:55      20.0  13.0  21.3  17.8  64  1024   ---    NW     8     8   ---   0.6 Scattered Clouds/
07/11/2005 13:55      19.0  15.0  21.2  16.2  78  1024   ---    NW    10    10   ---   0.6 Scattered Clouds/
07/11/2005 14:55      19.0  12.0  20.2  16.7  64  1024   ---    NW     8     8   ---   0.6 Few Clouds/
07/11/2005 15:55      19.0  12.0  20.2  17.7  64  1023   ---    NW     6     6   ---   0.6 Few Clouds/
07/11/2005 16:55      19.0  12.0  20.2  16.7  64  1023   ---   WNW     8     8   ---   0.6 Few Clouds/
07/11/2005 17:55      18.0  11.0  19.2  18.0  64  1023   ---     N     0     0   ---   0.6 Few Clouds/
07/11/2005 18:55      17.0  11.0  18.5  17.0  68  1023   ---   ---     0     0   ---   0.6 Few Clouds/
07/11/2005 19:55      16.0  11.0  17.8  16.0  72  1024   ---   ---     0     0   ---   0.6 Scattered Clouds/
08/11/2005 07:55      15.0  12.0  17.5  13.3  82  1024   ---   WSW     6     6   ---   0.7 Scattered Clouds/
08/11/2005 08:55      16.0  13.0  18.5  16.0  82  1024   ---     N     0     0   ---   0.7 Scattered Clouds/
08/11/2005 09:55      17.0  14.0  19.5  17.0  83  1024   ---   ---     0     0   ---   --- Overcast/ Light Rain
08/11/2005 09:55      17.0  14.0  19.5  17.0  83  1024   ---   ---     0     0   ---   --- Overcast/ Light Rain
08/11/2005 15:55      18.0  15.0  20.5  15.5  83  1023   ---   NNW     8     8   ---   0.7 Broken Clouds/
08/11/2005 16:55      18.0  15.0  20.5  15.5  83  1023   ---   NNW     8     8   ---   0.6 Broken Clouds/
08/11/2005 17:55      18.0  14.0  20.2  18.0  77  1023   ---   WNW     5     5   ---   0.7 Broken Clouds/
08/11/2005 19:55      16.0  14.0  19.0  16.0  88  1023   ---     N     0     0   ---   0.7 Broken Clouds/
08/11/2005 19:55      16.0  14.0  19.0  16.0  88  1023   ---   ---     0     0   ---   0.7 Broken Clouds/None reported
09/11/2005 07:55      15.0  11.0  17.1  12.0  77  1023   ---   WSW     8     8   ---   0.7 Few Clouds/
09/11/2005 08:55      16.0  13.0  18.5  16.0  82  1023   ---   WSW     5     5   ---   0.7 Few Clouds/
09/11/2005 09:55      18.0  14.0  20.2  18.0  77  1023   ---     S     5     5   ---   0.7 Few Clouds/
09/11/2005 10:55      20.0  14.0  21.5  20.0  68  1023   ---     N     0     0   ---   0.7 Few Clouds/
09/11/2005 12:55      21.0  15.0  22.5  19.9  69  1023   ---     E     6     6   ---   0.7 Scattered Clouds/
09/11/2005 13:55      20.0  15.0  21.8  20.0  73  1023   ---   ENE     5     5   ---   0.7 Scattered Clouds/
09/11/2005 15:55      19.0  15.0  21.2  19.0  78  1022   ---     N     0     0   ---   0.7 Scattered Clouds/
09/11/2005 17:00       0.0   0.0   4.0   0.0 100   ---   ---     N   ---   ---   ---   --- /
09/11/2005 18:55      18.0  14.0  20.2  18.0  77  1023   ---   ---     0     0   ---   0.7 Broken Clouds/
09/11/2005 19:55      17.0  13.0  19.2  17.0  77  1023   ---   ---     0     0   ---   0.7 Few Clouds/
09/11/2005 22:00       0.0   0.0   4.0   0.0 100   ---   ---   ---   ---   ---   ---   --- /
09/11/2005 23:00       0.0   0.0   4.0   0.0 100   ---   ---   ---   ---   ---   ---   --- /
10/11/2005 00:00       0.0   0.0   4.0   0.0 100   ---   ---   ---   ---   ---   ---   --- /
10/11/2005 01:00       0.0   0.0   4.0   0.0 100   ---   ---   ---   ---   ---   ---   --- /
10/11/2005 02:00       0.0   0.0   4.0   0.0 100   ---   ---   ---   ---   ---   ---   --- /
10/11/2005 07:00       0.0   0.0   4.0   0.0 100   ---   ---   ---   ---   ---   ---   --- /
10/11/2005 07:00      15.0  11.0  17.1  15.0  77   ---   ---         ---   ---   ---   --- None reported/None reported
10/11/2005 07:55      15.0  11.0  17.1  15.0  77  1024   ---   ---     0     0   ---   --- /
10/11/2005 08:55      16.0  12.0  18.1  16.0  77  1025   ---   ---     0     0   ---   --- /
10/11/2005 09:55      18.0  13.0  19.8  18.0  73  1025   ---   ---     0     0   ---   --- /
10/11/2005 10:55      20.0  13.0  21.3  20.0  64  1026   ---   ---     0     0   ---   --- /
10/11/2005 11:55      21.0  13.0  22.0  21.0  60  1026   ---     E     5     5   ---   --- /
10/11/2005 12:55      21.0  13.0  22.0  21.0  60  1026   ---     E     5     5   ---   --- /
10/11/2005 13:55      21.0  14.0  22.3  21.0  64  1026   ---     E     5     5   ---   --- /
10/11/2005 14:55      21.0  14.0  22.3  19.9  64  1026   ---     E     6     6   ---   --- /
10/11/2005 16:55      20.0  16.0  22.2  20.0  78  1026   ---     N     0     0   ---   0.7 Few Clouds/
10/11/2005 18:55      18.0  15.0  20.5  18.0  83  1026   ---   ---     0     0   ---   0.7 Few Clouds/
10/11/2005 18:55      18.0  15.0  20.5  18.0  83  1026   ---   ---     0     0   ---   0.7 Few Clouds/None reported
10/11/2005 19:55      17.0  15.0  20.0  17.0  88  1027   ---   ---     0     0   ---   0.7 Few Clouds/
10/11/2005 21:00       0.0   0.0   4.0   0.0 100   ---   ---   ---   ---   ---   ---   --- /
10/11/2005 23:00       0.0   0.0   4.0   0.0 100   ---   ---   ---   ---   ---   ---   --- /
11/11/2005 00:00       0.0   0.0   4.0   0.0 100   ---   ---   ---   ---   ---   ---   --- /
11/11/2005 01:00       0.0   0.0   4.0   0.0 100   ---   ---   ---   ---   ---   ---   --- /
11/11/2005 02:00       0.0   0.0   4.0   0.0 100   ---   ---   ---   ---   ---   ---   --- /
11/11/2005 03:00       0.0   0.0   4.0   0.0 100   ---   ---   ---   ---   ---   ---   --- /
11/11/2005 04:00       0.0   0.0   4.0   0.0 100   ---   ---   ---   ---   ---   ---   --- /
11/11/2005 05:00       0.0   0.0   4.0   0.0 100   ---   ---   ---   ---   ---   ---   --- /
11/11/2005 06:00       0.0   0.0   4.0   0.0 100   ---   ---   ---   ---   ---   ---   --- /
11/11/2005 07:00       0.0   0.0   4.0   0.0 100   ---   ---   ---   ---   ---   ---   --- /
11/11/2005 07:55      15.0  12.0  17.5  11.3  82  1027   ---   WSW    10    10   ---   0.7 Broken Clouds/
11/11/2005 08:55      16.0  12.0  18.1  14.4  77  1027   ---   WSW     6     6   ---   0.7 Scattered Clouds/
11/11/2005 09:55      18.0  14.0  20.2  18.0  77  1028   ---     N     0     0   ---   0.7 Scattered Clouds/
11/11/2005 10:55      20.0  14.0  21.5  20.0  68  1028   ---   ---     0     0   ---   0.7 Scattered Clouds/
11/11/2005 11:55      21.0  15.0  22.5  19.0  69  1028   ---   NNE     8     8   ---   0.7 Scattered Clouds/
11/11/2005 12:55      21.0  15.0  22.5  21.0  69  1028   ---     N     0     0   ---   0.7 Scattered Clouds/
11/11/2005 13:55      21.0  14.0  22.3  21.0  64  1027   ---   ---     0     0   ---   0.7 Scattered Clouds/
11/11/2005 13:55      21.0  14.0  22.3  21.0  64  1027   ---   ---     0     0   ---   0.7 Scattered Clouds/None reported
11/11/2005 13:55      21.0  14.0  22.3  21.0  64  1027   ---   ---     0     0   ---   0.7 Scattered Clouds/None reported
11/11/2005 13:55      21.0  14.0  22.3  21.0  64  1027   ---   ---     0     0   ---   0.7 Scattered Clouds/None reported
11/11/2005 15:55      21.0  14.0  22.3  21.0  64  1026   ---   ---     0     0   ---   0.7 Scattered Clouds/
11/11/2005 16:55      20.0  14.0  21.5  18.8  68  1026   ---   ENE     6     6   ---   0.7 Scattered Clouds/
11/11/2005 18:55      17.0  14.0  19.5  14.3  83  1026   ---    SW     8     8   ---   0.7 Scattered Clouds/
11/11/2005 19:55      16.0  13.0  18.5  13.2  82  1026   ---   WSW     8     8   ---   0.7 Scattered Clouds/
11/11/2005 21:00       0.0   0.0   4.0  -5.5 100   ---   ---   WSW   ---   ---   ---   --- /
11/11/2005 21:00      18.0  14.0  20.2  18.0  77   ---   ---         ---   ---   ---   --- None reported/None reported
11/11/2005 21:00      18.0  14.0  20.2  18.0  77   ---   ---         ---   ---   ---   --- None reported/None reported
11/11/2005 22:00       0.0   0.0   4.0   0.0 100   ---   ---         ---   ---   ---   --- /
11/11/2005 23:00       0.0   0.0   4.0   0.0 100   ---   ---         ---   ---   ---   --- /
12/11/2005 00:00       0.0   0.0   4.0   0.0 100   ---   ---         ---   ---   ---   --- /
12/11/2005 02:00       0.0   0.0   4.0   0.0 100   ---   ---         ---   ---   ---   --- /
12/11/2005 03:00       0.0   0.0   4.0   0.0 100   ---   ---         ---   ---   ---   --- /
12/11/2005 07:55      15.0  11.0  17.1  13.3  77  1024   ---     W     6     6   ---   --- /
12/11/2005 08:55      16.0  12.0  18.1  16.0  77  1024   ---   WSW     5     5   ---   --- /
12/11/2005 08:55      16.0  12.0  18.1  16.0  77  1024   ---   WSW     5     5   ---   --- None reported/None reported
12/11/2005 08:55      16.0  12.0  18.1  16.0  77  1024   ---   WSW     5     5   ---   --- None reported/None reported
12/11/2005 09:55      18.0  15.0  20.5  18.0  83  1024   ---     N     0     0   ---   --- /
12/11/2005 09:55      18.0  15.0  20.5  18.0  83  1024   ---   ---     0     0   ---   --- None reported/None reported
12/11/2005 10:55      20.0  13.0  21.3  18.8  64  1024   ---     E     6     6   ---   0.7 Few Clouds/
12/11/2005 11:55      20.0  14.0  21.5  20.0  68  1023   ---   ENE     5     5   ---   0.7 Few Clouds/
12/11/2005 11:55      20.0  14.0  21.5  20.0  68  1023   ---   ENE     5     5   ---   0.7 Few Clouds/None reported
12/11/2005 11:55      20.0  14.0  21.5  20.0  68  1023   ---   ENE     5     5   ---   0.7 Few Clouds/None reported
12/11/2005 12:55      20.0  14.0  21.5  20.0  68  1022   ---   NNE     5     5   ---   0.7 Few Clouds/
12/11/2005 13:55      20.0  13.0  21.3  17.8  64  1021   ---   ENE     8     8   ---   0.7 Few Clouds/
12/11/2005 13:55      20.0  13.0  21.3  17.8  64  1021   ---   ENE     8     8   ---   0.7 Few Clouds/None reported
12/11/2005 14:55      20.0  13.0  21.3  16.4  64  1021   ---     E    13    13   ---   --- /
12/11/2005 14:55      20.0  13.0  21.3  16.4  64  1021   ---     E    13    13   ---   --- None reported/None reported
12/11/2005 15:55      20.0  13.0  21.3  20.0  64  1020   ---     N     0     0   ---   --- /
12/11/2005 16:55      19.0  13.0  20.5  19.0  68  1020   ---   ---     0     0   ---   --- /
12/11/2005 17:55      18.0  13.0  19.8  18.0  73  1020   ---   ---     0     0   ---   --- /
12/11/2005 17:55      18.0  13.0  19.8  18.0  73  1020   ---   ---     0     0   ---   --- None reported/None reported
12/11/2005 17:55      18.0  13.0  19.8  18.0  73  1020   ---   ---     0     0   ---   --- None reported/None reported
12/11/2005 17:55      18.0  13.0  19.8  18.0  73  1020   ---   ---     0     0   ---   --- None reported/None reported
12/11/2005 17:55      18.0  13.0  19.8  18.0  73  1020   ---   ---     0     0   ---   --- None reported/None reported
12/11/2005 19:55      16.0  13.0  18.5  16.0  82  1020   ---   ---     0     0   ---   2.7 Scattered Clouds/
12/11/2005 21:00       0.0   0.0   4.0   0.0 100   ---   ---   ---   ---   ---   ---   --- /
12/11/2005 22:00       0.0   0.0   4.0   0.0 100   ---   ---   ---   ---   ---   ---   --- /
12/11/2005 23:00       0.0   0.0   4.0   0.0 100   ---   ---   ---   ---   ---   ---   --- /
13/11/2005 00:00       0.0   0.0   4.0   0.0 100   ---   ---   ---   ---   ---   ---   --- /
13/11/2005 01:00       0.0   0.0   4.0   0.0 100   ---   ---   ---   ---   ---   ---   --- /
13/11/2005 02:00       0.0   0.0   4.0   0.0 100   ---   ---   ---   ---   ---   ---   --- /
13/11/2005 03:00       0.0   0.0   4.0   0.0 100   ---   ---   ---   ---   ---   ---   --- /
13/11/2005 04:00       0.0   0.0   4.0   0.0 100   ---   ---   ---   ---   ---   ---   --- /
13/11/2005 05:00       0.0   0.0   4.0   0.0 100   ---   ---   ---   ---   ---   ---   --- /
13/11/2005 06:00       0.0   0.0   4.0   0.0 100   ---   ---   ---   ---   ---   ---   --- /
13/11/2005 07:00       0.0   0.0   4.0   0.0 100   ---   ---   ---   ---   ---   ---   --- /
13/11/2005 07:55      14.0  10.0  16.1  14.0  77  1016   ---   ---     0     0   ---   6.0 Few Clouds/
13/11/2005 10:55      17.0  12.0  18.8  17.0  72  1016   ---   ---     0     0   ---   1.0 Broken Clouds/
13/11/2005 11:55      18.0  12.0  19.5  18.0  68  1016   ---   ---     0     0   ---   0.9 Overcast/
13/11/2005 11:55      18.0  12.0  19.5  18.0  68  1016   ---   ---     0     0   ---   0.9 Overcast/None reported
13/11/2005 13:55      18.0  12.0  19.5  18.0  68  1016   ---   ESE     5     5   ---   0.9 Overcast/
13/11/2005 13:55      18.0  12.0  19.5  18.0  68  1016   ---   ESE     5     5   ---   0.9 Overcast/None reported
13/11/2005 15:55      18.0  12.0  19.5  18.0  68  1014   ---   ESE     5     5   ---   0.9 Broken Clouds/
13/11/2005 16:55      19.0  12.0  20.2  19.0  64  1014   ---     N     0     0   ---   0.9 Few Clouds/
13/11/2005 16:55      19.0  12.0  20.2  19.0  64  1014   ---   ---     0     0   ---   0.9 Few Clouds/None reported
13/11/2005 17:55      18.0  13.0  19.8  18.0  73  1014   ---   ---     0     0   ---   0.9 Few Clouds/
13/11/2005 17:55      18.0  13.0  19.8  18.0  73  1014   ---   ---     0     0   ---   0.9 Few Clouds/None reported
13/11/2005 18:55      16.0  12.0  18.1  16.0  77  1014   ---   ---     0     0   ---   --- /
13/11/2005 18:55      16.0  12.0  18.1  16.0  77  1014   ---   ---     0     0   ---   --- None reported/None reported
13/11/2005 19:55      16.0  12.0  18.1  16.0  77  1015   ---   ---     0     0   ---   --- /
13/11/2005 22:00       0.0   0.0   4.0   0.0 100   ---   ---   ---   ---   ---   ---   --- /
13/11/2005 23:00       0.0   0.0   4.0   0.0 100   ---   ---   ---   ---   ---   ---   --- /
14/11/2005 00:00       0.0   0.0   4.0   0.0 100   ---   ---   ---   ---   ---   ---   --- /
14/11/2005 01:00       0.0   0.0   4.0   0.0 100   ---   ---   ---   ---   ---   ---   --- /
14/11/2005 02:00       0.0   0.0   4.0   0.0 100   ---   ---   ---   ---   ---   ---   --- /
14/11/2005 03:00       0.0   0.0   4.0   0.0 100   ---   ---   ---   ---   ---   ---   --- /
14/11/2005 04:00       0.0   0.0   4.0   0.0 100   ---   ---   ---   ---   ---   ---   --- /
14/11/2005 05:00       0.0   0.0   4.0   0.0 100   ---   ---   ---   ---   ---   ---   --- /
14/11/2005 06:00       0.0   0.0   4.0   0.0 100   ---   ---   ---   ---   ---   ---   --- /
14/11/2005 07:00       0.0   0.0   4.0   0.0 100   ---   ---   ---   ---   ---   ---   --- /
14/11/2005 07:55      16.0  10.0  17.5  14.4  68  1017   ---   WSW     6     6   ---   3.0 Scattered Clouds/
14/11/2005 08:55      16.0   9.0  17.2  13.2  63  1018   ---   WSW     8     8   ---   --- /
14/11/2005 10:55      20.0  11.0  20.8  20.0  56  1019   ---     N     0     0   ---   --- /
14/11/2005 11:55      21.0  12.0  21.8  21.0  56  1019   ---   ---     0     0   ---   --- /
14/11/2005 12:55      22.0  15.0  23.3  18.9  65  1019   ---     E    13    13   ---   --- /
14/11/2005 13:55      22.0  15.0  23.3  20.2  65  1018   ---     E     8     8   ---   --- /
14/11/2005 14:55      22.0  14.0  23.0  22.0  61  1018   ---     N     0     0   ---   --- /
14/11/2005 15:55      22.0  14.0  23.0  22.0  61  1018   ---   ---     0     0   ---   --- /
14/11/2005 16:55      21.0  16.0  22.9  19.9  73  1018   ---   WNW     6     6   ---   --- /
14/11/2005 17:55      20.0  15.0  21.8  20.0  73  1018   ---     N     0     0   ---   --- /
14/11/2005 17:55      20.0  15.0  21.8  20.0  73  1018   ---   ---     0     0   ---   --- None reported/None reported
14/11/2005 18:55      18.0  13.0  19.8  15.5  73  1018   ---   WSW     8     8   ---   --- /
14/11/2005 19:55      18.0  15.0  20.5  16.6  83  1018   ---     W     6     6   ---   --- /
15/11/2005 07:55      17.0   8.0  17.7  17.0  55  1017   ---     N     0     0   ---   --- /
15/11/2005 08:55      17.0   9.0  18.0  17.0  59  1017   ---   ---     0     0   ---   --- /
15/11/2005 09:55      19.0   9.0  19.6  19.0  52  1017   ---   ---     0     0   ---   --- /
15/11/2005 10:55      22.0  11.0  22.4  22.0  50  1016   ---   ---     0     0   ---   --- /
15/11/2005 11:55      26.0   6.0  25.5  24.1  28  1015   ---     S    13    13   ---   --- /
15/11/2005 12:55      26.0   5.0  25.4  23.8  26  1015   ---   SSW    14    14   ---   --- /
15/11/2005 13:55      27.0   3.0  26.1  25.1  21  1014   ---    SW    14    14   ---   --- /
15/11/2005 14:55      26.0   8.0  25.6  24.1  32  1013   ---   SSW    13    13   ---   --- /
15/11/2005 15:55      26.0   7.0  25.5  23.0  30  1012   ---    SW    21    21   ---   --- /
15/11/2005 16:55      24.0   8.0  23.8  20.0  36  1012   ---    SW    23    23   ---   6.0 Scattered Clouds/
15/11/2005 17:55      23.0   7.0  22.8  18.0  36  1011   ---   SSW    29    29   ---   6.0 Scattered Clouds/
15/11/2005 18:55      23.0   6.0  22.7  17.4  33  1011   ---    SW    37    37   ---   6.0 Scattered Clouds/
15/11/2005 19:55      23.0   4.0  22.5  17.6  29  1010   ---   SSW    34    34   ---   6.0 Scattered Clouds/
15/11/2005 21:00       0.0   0.0   4.0 -17.7 100   ---   ---   SSW   ---   ---   ---   --- /
15/11/2005 22:00       0.0   0.0   4.0 -17.7 100   ---   ---   SSW   ---   ---   ---   --- /
15/11/2005 22:00      25.0  16.0  25.9  25.0  57   ---   ---         ---   ---   ---   --- None reported/None reported
15/11/2005 23:00       0.0   0.0   4.0   0.0 100   ---   ---         ---   ---   ---   --- /
16/11/2005 00:00       0.0   0.0   4.0   0.0 100   ---   ---         ---   ---   ---   --- /
16/11/2005 01:00       0.0   0.0   4.0   0.0 100   ---   ---         ---   ---   ---   --- /
16/11/2005 02:00       0.0   0.0   4.0   0.0 100   ---   ---         ---   ---   ---   --- /
16/11/2005 03:00       0.0   0.0   4.0   0.0 100   ---   ---         ---   ---   ---   --- /
16/11/2005 04:00       0.0   0.0   4.0   0.0 100   ---   ---         ---   ---   ---   --- /
16/11/2005 05:00       0.0   0.0   4.0   0.0 100   ---   ---         ---   ---   ---   --- /
16/11/2005 06:00       0.0   0.0   4.0   0.0 100   ---   ---         ---   ---   ---   --- /
16/11/2005 07:00       0.0   0.0   4.0   0.0 100   ---   ---         ---   ---   ---   --- /
16/11/2005 08:00       0.0   0.0   4.0   0.0 100   ---   ---         ---   ---   ---   --- /
16/11/2005 08:55      22.0  17.0  23.9  22.0  73  1004   ---   WSW     5     5   ---   0.7 Broken Clouds/
16/11/2005 09:55      22.0  15.0  23.3  18.9  65  1005   ---     W    13    13   ---   0.7 Few Clouds/
16/11/2005 10:55      22.0  14.0  23.0  19.8  61  1005   ---    NW    10    10   ---   0.6 Scattered Clouds/
16/11/2005 11:55      22.0  13.0  22.8  22.0  57  1005   ---     W     5     5   ---   0.7 Scattered Clouds/
16/11/2005 12:55      22.0  13.0  22.8  22.0  57  1005   ---     W     5     5   ---   0.7 Few Clouds/
16/11/2005 13:55      21.0  14.0  22.3  17.2  64  1005   ---    NW    14    14   ---   0.7 Scattered Clouds/
16/11/2005 14:55      21.0  11.0  21.6  17.2  53  1005   ---   WNW    14    14   ---   0.7 Few Clouds/
16/11/2005 15:55      21.0  12.0  21.8  17.7  56  1005   ---   NNW    13    13   ---   0.7 Few Clouds/
16/11/2005 15:55      21.0  12.0  21.8  17.7  56  1005   ---   NNW    13    13   ---   0.7 Few Clouds/None reported
16/11/2005 17:55      18.0  12.0  19.5  15.0  68  1004   ---   WNW    10    10   ---   0.7 Scattered Clouds/
16/11/2005 17:55      18.0  12.0  19.5  15.0  68  1004   ---   WNW    10    10   ---   0.7 Scattered Clouds/None reported
16/11/2005 15:55      18.0  12.0  19.5  15.0  68  1004   ---   WNW    10    10   ---   0.7 Scattered Clouds/None reported
16/11/2005 17:55      18.0  12.0  19.5  15.0  68  1004   ---   WNW    10    10   ---   0.7 Scattered Clouds/None reported
16/11/2005 18:55      17.0  11.0  18.5  17.0  68  1005   ---     W     5     5   ---   0.7 Scattered Clouds/
16/11/2005 18:55      17.0  11.0  18.5  17.0  68  1005   ---     W     5     5   ---   0.7 Scattered Clouds/None reported
16/11/2005 19:55      17.0  13.0  19.2  17.0  77  1005   ---   WSW     5     5   ---   0.7 Scattered Clouds/
16/11/2005 21:00       0.0   0.0   4.0   0.0 100   ---   ---   WSW   ---   ---   ---   --- /
16/11/2005 22:00       0.0   0.0   4.0   0.0 100   ---   ---   WSW   ---   ---   ---   --- /
16/11/2005 23:00       0.0   0.0   4.0   0.0 100   ---   ---   WSW   ---   ---   ---   --- /
17/11/2005 00:00       0.0   0.0   4.0   0.0 100   ---   ---   WSW   ---   ---   ---   --- /
17/11/2005 01:00       0.0   0.0   4.0   0.0 100   ---   ---   WSW   ---   ---   ---   --- /
17/11/2005 02:00       0.0   0.0   4.0   0.0 100   ---   ---   WSW   ---   ---   ---   --- /
17/11/2005 03:00       0.0   0.0   4.0   0.0 100   ---   ---   WSW   ---   ---   ---   --- /
17/11/2005 04:00       0.0   0.0   4.0   0.0 100   ---   ---   WSW   ---   ---   ---   --- /
17/11/2005 06:00       0.0   0.0   4.0   0.0 100   ---   ---   WSW   ---   ---   ---   --- /
17/11/2005 07:00       0.0   0.0   4.0   0.0 100   ---   ---   WSW   ---   ---   ---   --- /
17/11/2005 07:55      12.0   9.0  14.5   6.2  82  1004   ---     W    13    13   ---   0.6 Overcast/
17/11/2005 08:55      12.0   9.0  14.5  12.0  82  1002   ---     N     0     0   ---   0.6 Overcast/
17/11/2005 10:00       0.0   0.0   4.0   0.0 100   ---   ---     N   ---   ---   ---   --- /
17/11/2005 10:55      16.0  10.0  17.5   9.6  68  1003   ---     W    18    18   ---   0.7 Broken Clouds/
17/11/2005 11:55      17.0   9.0  18.0  10.4  59  1003   ---     W    19    19   ---   0.7 Broken Clouds/
17/11/2005 12:55      18.0  10.0  19.0  15.5  60  1003   ---     W     8     8   ---   0.7 Broken Clouds/
17/11/2005 13:55      18.0  11.0  19.2  13.2  64  1003   ---     W    14    14   ---   0.7 Scattered Clouds/
17/11/2005 14:55      18.0  12.0  19.5  12.4  68  1003   ---   WNW    18    18   ---   0.7 Broken Clouds/
17/11/2005 15:55      18.0  12.0  19.5  15.0  68  1004   ---   WNW    10    10   ---   0.7 Broken Clouds/
17/11/2005 16:55      18.0  12.0  19.5  15.0  68  1004   ---   WNW    10    10   ---   0.7 Broken Clouds/
17/11/2005 17:55      17.0  11.0  18.5  11.3  68  1005   ---   WNW    16    16   ---   0.7 Broken Clouds/
17/11/2005 18:55      17.0  12.0  18.8  13.8  72  1005   ---   WNW    10    10   ---   0.7 Broken Clouds/
17/11/2005 19:55      17.0  12.0  18.8  11.3  72  1006   ---   WNW    16    16   ---   0.7 Broken Clouds/
17/11/2005 21:00       0.0   0.0   4.0 -11.8 100   ---   ---   WNW   ---   ---   ---   --- /
17/11/2005 22:00       0.0   0.0   4.0 -11.8 100   ---   ---   WNW   ---   ---   ---   --- /
17/11/2005 23:00       0.0   0.0   4.0 -11.8 100   ---   ---   WNW   ---   ---   ---   --- /
18/11/2005 00:00       0.0   0.0   4.0 -11.8 100   ---   ---   WNW   ---   ---   ---   --- /
18/11/2005 01:00       0.0   0.0   4.0 -11.8 100   ---   ---   WNW   ---   ---   ---   --- /
18/11/2005 02:00       0.0   0.0   4.0 -11.8 100   ---   ---   WNW   ---   ---   ---   --- /
18/11/2005 03:00       0.0   0.0   4.0 -11.8 100   ---   ---   WNW   ---   ---   ---   --- /
18/11/2005 04:00       0.0   0.0   4.0 -11.8 100   ---   ---   WNW   ---   ---   ---   --- /
18/11/2005 05:00       0.0   0.0   4.0 -11.8 100   ---   ---   WNW   ---   ---   ---   --- /
18/11/2005 06:00       0.0   0.0   4.0 -11.8 100   ---   ---   WNW   ---   ---   ---   --- /
18/11/2005 07:00       0.0   0.0   4.0 -11.8 100   ---   ---   WNW   ---   ---   ---   --- /
18/11/2005 07:55      15.0  11.0  17.1  11.3  77  1010   ---     W    10    10   ---   0.6 Broken Clouds/
18/11/2005 08:55      16.0  11.0  17.8  12.5  72  1010   ---     W    10    10   ---   0.7 Scattered Clouds/
18/11/2005 09:55      17.0  10.0  18.2  14.3  63  1011   ---     W     8     8   ---   0.7 Scattered Clouds/
18/11/2005 10:55      18.0  11.0  19.2  18.0  64  1012   ---   SSW     5     5   ---   0.7 Scattered Clouds/
18/11/2005 11:55      19.0  11.0  20.0  16.7  60  1012   ---     W     8     8   ---   0.7 Scattered Clouds/
18/11/2005 12:55      18.0  12.0  19.5  13.8  68  1012   ---     W    13    13   ---   0.7 Broken Clouds/
18/11/2005 13:55      18.0  11.0  19.2  15.5  64  1012   ---     W     8     8   ---   0.7 Broken Clouds/
18/11/2005 14:55      18.0  12.0  19.5  18.0  68  1011   ---     W     5     5   ---   0.7 Broken Clouds/
18/11/2005 15:55      18.0  12.0  19.5  15.5  68  1011   ---     W     8     8   ---   0.7 Broken Clouds/
18/11/2005 16:55      17.0  12.0  18.8  14.3  72  1011   ---     W     8     8   ---   0.7 Broken Clouds/
18/11/2005 17:55      17.0  11.0  18.5  17.0  68  1011   ---     W     5     5   ---   0.7 Broken Clouds/
18/11/2005 18:55      16.0  12.0  18.1  14.4  77  1011   ---     W     6     6   ---   0.7 Broken Clouds/
18/11/2005 19:55      16.0  12.0  18.1  13.2  77  1012   ---     W     8     8   ---   0.7 Broken Clouds/
18/11/2005 20:00       0.0   0.0   4.0  -5.5 100   ---   ---     W   ---   ---   ---   --- /
18/11/2005 21:00       0.0   0.0   4.0  -5.5 100   ---   ---     W   ---   ---   ---   --- /
18/11/2005 22:00       0.0   0.0   4.0  -5.5 100   ---   ---     W   ---   ---   ---   --- /
18/11/2005 23:00       0.0   0.0   4.0  -5.5 100   ---   ---     W   ---   ---   ---   --- /
19/11/2005 00:00       0.0   0.0   4.0  -5.5 100   ---   ---     W   ---   ---   ---   --- /
19/11/2005 01:00       0.0   0.0   4.0  -5.5 100   ---   ---     W   ---   ---   ---   --- /
19/11/2005 02:00       0.0   0.0   4.0  -5.5 100   ---   ---     W   ---   ---   ---   --- /
19/11/2005 03:00       0.0   0.0   4.0  -5.5 100   ---   ---     W   ---   ---   ---   --- /
19/11/2005 04:00       0.0   0.0   4.0  -5.5 100   ---   ---     W   ---   ---   ---   --- /
19/11/2005 05:00       0.0   0.0   4.0  -5.5 100   ---   ---     W   ---   ---   ---   --- /
19/11/2005 06:00       0.0   0.0   4.0  -5.5 100   ---   ---     W   ---   ---   ---   --- /
19/11/2005 06:55      14.0  11.0  16.5  10.1  82  1010   ---     W    10    10   ---   0.6 Overcast/
19/11/2005 07:55      14.0  11.0  16.5  14.0  82  1010   ---     S     5     5   ---   --- Overcast/ Light Rain
19/11/2005 08:55      13.0  11.0  15.9   9.7  88  1012   ---   SSW     8     8   ---   0.6 Broken Clouds/
19/11/2005 09:55      15.0  11.0  17.1  11.3  77  1012   ---   NNW    10    10   ---   0.6 Broken Clouds/
19/11/2005 10:55      15.0  11.0  17.1  12.0  77  1013   ---     N     8     8   ---   0.6 Broken Clouds/
19/11/2005 11:55      16.0  10.0  17.5  11.3  68  1013   ---   NNW    13    13   ---   0.6 Broken Clouds/
19/11/2005 12:55      16.0  11.0  17.8  14.4  72  1013   ---    NW     6     6   ---   0.6 Broken Clouds/
19/11/2005 13:55      16.0  11.0  17.8  11.3  72  1013   ---     N    13    13   ---   0.6 Broken Clouds/
19/11/2005 14:55      15.0  10.0  16.8  13.3  72  1014   ---     N     6     6   ---   0.7 Broken Clouds/
19/11/2005 15:55      15.0  10.0  16.8  15.0  72  1014   ---   NNW     5     5   ---   0.7 Broken Clouds/
19/11/2005 16:55      14.0   8.0  15.5  12.3  67  1015   ---   NNW     6     6   ---   0.7 Broken Clouds/
19/11/2005 17:55      14.0   9.0  15.8  10.8  72  1015   ---   NNW     8     8   ---   0.7 Broken Clouds/
19/11/2005 18:55      14.0   8.0  15.5  10.8  67  1016   ---     N     8     8   ---   0.7 Broken Clouds/
19/11/2005 20:00       0.0   0.0   4.0  -5.5 100   ---   ---     N   ---   ---   ---   --- /
19/11/2005 21:00       0.0   0.0   4.0  -5.5 100   ---   ---     N   ---   ---   ---   --- /
19/11/2005 22:00       0.0   0.0   4.0  -5.5 100   ---   ---     N   ---   ---   ---   --- /
19/11/2005 23:00       0.0   0.0   4.0  -5.5 100   ---   ---     N   ---   ---   ---   --- /
20/11/2005 00:00       0.0   0.0   4.0  -5.5 100   ---   ---     N   ---   ---   ---   --- /
20/11/2005 01:00       0.0   0.0   4.0  -5.5 100   ---   ---     N   ---   ---   ---   --- /
20/11/2005 02:00       0.0   0.0   4.0  -5.5 100   ---   ---     N   ---   ---   ---   --- /
20/11/2005 03:00       0.0   0.0   4.0  -5.5 100   ---   ---     N   ---   ---   ---   --- /
20/11/2005 04:00       0.0   0.0   4.0  -5.5 100   ---   ---     N   ---   ---   ---   --- /
20/11/2005 05:00       0.0   0.0   4.0  -5.5 100   ---   ---     N   ---   ---   ---   --- /
20/11/2005 06:00       0.0   0.0   4.0  -5.5 100   ---   ---     N   ---   ---   ---   --- /
20/11/2005 06:55      10.0   7.0  12.5  10.0  82  1022   ---     N     0     0   ---   0.6 Broken Clouds/
20/11/2005 07:55      10.0   6.0  12.1   7.9  76  1022   ---   WNW     6     6   ---   0.6 Broken Clouds/
20/11/2005 08:55      11.0   6.0  12.7   7.3  71  1023   ---   ENE     8     8   ---   --- Overcast/ Light Rain
20/11/2005 09:55      11.0   6.0  12.7   9.0  71  1024   ---   NNW     6     6   ---   0.6 Broken Clouds/
20/11/2005 09:55      11.0   6.0  12.7   9.0  71  1024   ---   NNW     6     6   ---   0.6 Broken Clouds/None reported
20/11/2005 10:55      11.0   5.0  12.4   6.5  66  1024   ---   ENE    10    10   ---   0.6 Broken Clouds/
20/11/2005 11:55      12.0   4.0  12.9   6.2  58  1025   ---   ENE    13    13   ---   0.6 Broken Clouds/
20/11/2005 12:55      12.0   4.0  12.9   4.1  58  1025   ---   ENE    18    18   ---   0.6 Broken Clouds/
20/11/2005 13:55      12.0   4.0  12.9   7.7  58  1025   ---   ENE    10    10   ---   0.6 Broken Clouds/
20/11/2005 14:55      12.0   4.0  12.9   6.2  58  1025   ---   NNE    13    13   ---   0.7 Broken Clouds/
20/11/2005 15:55      11.0   4.0  12.1   6.5  62  1025   ---   NNE    10    10   ---   0.7 Broken Clouds/
20/11/2005 16:55      11.0   4.0  12.1   7.3  62  1025   ---     N     8     8   ---   0.7 Broken Clouds/
20/11/2005 17:55      10.0   4.0  11.4   7.9  66  1025   ---     N     6     6   ---   0.7 Broken Clouds/
20/11/2005 18:55      10.0   4.0  11.4  10.0  66  1026   ---    NW     5     5   ---   0.7 Broken Clouds/
20/11/2005 20:00       0.0   0.0   4.0   0.0 100   ---   ---    NW   ---   ---   ---   --- /
20/11/2005 21:00       0.0   0.0   4.0   0.0 100   ---   ---    NW   ---   ---   ---   --- /
20/11/2005 22:00       0.0   0.0   4.0   0.0 100   ---   ---    NW   ---   ---   ---   --- /
20/11/2005 23:00       0.0   0.0   4.0   0.0 100   ---   ---    NW   ---   ---   ---   --- /
21/11/2005 00:00       0.0   0.0   4.0   0.0 100   ---   ---    NW   ---   ---   ---   --- /
21/11/2005 01:00       0.0   0.0   4.0   0.0 100   ---   ---    NW   ---   ---   ---   --- /
21/11/2005 02:00       0.0   0.0   4.0   0.0 100   ---   ---    NW   ---   ---   ---   --- /
21/11/2005 03:00       0.0   0.0   4.0   0.0 100   ---   ---    NW   ---   ---   ---   --- /
21/11/2005 04:00       0.0   0.0   4.0   0.0 100   ---   ---    NW   ---   ---   ---   --- /
21/11/2005 05:00       0.0   0.0   4.0   0.0 100   ---   ---    NW   ---   ---   ---   --- /
21/11/2005 06:00       0.0   0.0   4.0   0.0 100   ---   ---    NW   ---   ---   ---   --- /
21/11/2005 06:55       7.0   4.0   9.4   2.7  81  1025   ---   WSW     8     8   ---   0.7 Scattered Clouds/
21/11/2005 07:55       8.0   3.0   9.7   5.7  71  1025   ---   WSW     6     6   ---   0.7 Scattered Clouds/
21/11/2005 09:00       0.0   0.0   4.0  -3.0 100   ---   ---   WSW   ---   ---   ---   --- /
21/11/2005 09:55      13.0   3.0  13.5  13.0  51  1025   ---     S     3     3   ---   0.7 Scattered Clouds/
21/11/2005 10:55      14.0   3.0  14.3  14.0  47  1024   ---     S     5     5   ---   0.7 Scattered Clouds/
21/11/2005 11:55      14.0   3.0  14.3  14.0  47  1024   ---   ESE     5     5   ---   0.7 Scattered Clouds/
21/11/2005 12:55      14.0   3.0  14.3  14.0  47  1023   ---   ESE     5     5   ---   0.7 Few Clouds/
21/11/2005 13:55      14.0   3.0  14.3  12.3  47  1022   ---    SE     6     6   ---   0.7 Few Clouds/
21/11/2005 14:55      13.0   4.0  13.7  11.2  54  1021   ---     E     6     6   ---   --- /
21/11/2005 15:55      13.0   4.0  13.7  13.0  54  1021   ---     E     5     5   ---   --- /
21/11/2005 16:55      11.0   5.0  12.4  11.0  66  1021   ---     W     5     5   ---   --- /
21/11/2005 17:55       9.0   4.0  10.7   5.0  71  1021   ---   WSW     8     8   ---   --- /
21/11/2005 18:55       9.0   4.0  10.7   5.0  71  1021   ---   WSW     8     8   ---   --- /
21/11/2005 20:00       0.0   0.0   4.0  -5.5 100   ---   ---   WSW   ---   ---   ---   --- /
21/11/2005 21:00       0.0   0.0   4.0  -5.5 100   ---   ---   WSW   ---   ---   ---   --- /
21/11/2005 22:00       0.0   0.0   4.0  -5.5 100   ---   ---   WSW   ---   ---   ---   --- /
21/11/2005 23:00       0.0   0.0   4.0  -5.5 100   ---   ---   WSW   ---   ---   ---   --- /
22/11/2005 00:00       0.0   0.0   4.0  -5.5 100   ---   ---   WSW   ---   ---   ---   --- /
22/11/2005 01:00       0.0   0.0   4.0  -5.5 100   ---   ---   WSW   ---   ---   ---   --- /
22/11/2005 02:00       0.0   0.0   4.0  -5.5 100   ---   ---   WSW   ---   ---   ---   --- /
22/11/2005 03:00       0.0   0.0   4.0  -5.5 100   ---   ---   WSW   ---   ---   ---   --- /
22/11/2005 04:00       0.0   0.0   4.0  -5.5 100   ---   ---   WSW   ---   ---   ---   --- /
22/11/2005 05:00       0.0   0.0   4.0  -5.5 100   ---   ---   WSW   ---   ---   ---   --- /
22/11/2005 06:00       0.0   0.0   4.0  -5.5 100   ---   ---   WSW   ---   ---   ---   --- /
22/11/2005 06:55       8.0   2.0   9.4   2.9  66  1013   ---   WSW    10    10   ---   1.0 Broken Clouds/
22/11/2005 07:55       9.0   3.0  10.4   9.0  66  1012   ---     W     5     5   ---   0.8 Scattered Clouds/
22/11/2005 08:55      12.0   4.0  12.9  12.0  58  1012   ---     N     0     0   ---   1.0 Broken Clouds/
22/11/2005 09:55      13.0   5.0  13.9  13.0  58  1012   ---   ---     0     0   ---   0.9 Broken Clouds/
22/11/2005 10:55      13.0   6.0  14.2  13.0  62  1011   ---   SSE     3     3   ---   0.9 Scattered Clouds/
22/11/2005 11:55      15.0   4.0  15.3  15.0  48  1010   ---   ESE     5     5   ---   0.9 Few Clouds/
22/11/2005 12:55      16.0   4.0  16.2  16.0  45  1009   ---   NNE     3     3   ---   0.9 Few Clouds/
22/11/2005 13:55      16.0   5.0  16.3  16.0  48  1008   ---     E     3     3   ---   0.9 Few Clouds/
22/11/2005 14:55      15.0   7.0  15.9  15.0  59  1007   ---     N     0     0   ---   0.9 Scattered Clouds/
22/11/2005 15:55      14.0   8.0  15.5  14.0  67  1007   ---   ---     0     0   ---   0.7 Broken Clouds/
22/11/2005 16:55      14.0   8.0  15.5  14.0  67  1007   ---   ---     0     0   ---   0.7 Scattered Clouds/
22/11/2005 17:55      13.0   9.0  15.1   6.6  77  1007   ---   NNW    14    14   ---   0.7 Broken Clouds/
22/11/2005 18:55      13.0  10.0  15.5  13.0  82  1006   ---   NNW     3     3   ---   0.7 Broken Clouds/
22/11/2005 20:00       0.0   0.0   4.0   0.0 100   ---   ---   NNW   ---   ---   ---   --- /
22/11/2005 21:00       0.0   0.0   4.0   0.0 100   ---   ---   NNW   ---   ---   ---   --- /
22/11/2005 22:00       0.0   0.0   4.0   0.0 100   ---   ---   NNW   ---   ---   ---   --- /
22/11/2005 23:00       0.0   0.0   4.0   0.0 100   ---   ---   NNW   ---   ---   ---   --- /
23/11/2005 00:00       0.0   0.0   4.0   0.0 100   ---   ---   NNW   ---   ---   ---   --- /
23/11/2005 01:00       0.0   0.0   4.0   0.0 100   ---   ---   NNW   ---   ---   ---   --- /
23/11/2005 02:00       0.0   0.0   4.0   0.0 100   ---   ---   NNW   ---   ---   ---   --- /
23/11/2005 03:00       0.0   0.0   4.0   0.0 100   ---   ---   NNW   ---   ---   ---   --- /
23/11/2005 04:00       0.0   0.0   4.0   0.0 100   ---   ---   NNW   ---   ---   ---   --- /
23/11/2005 05:00       0.0   0.0   4.0   0.0 100   ---   ---   NNW   ---   ---   ---   --- /
23/11/2005 06:00       0.0   0.0   4.0   0.0 100   ---   ---   NNW   ---   ---   ---   --- /
23/11/2005 06:55      10.0   6.0  12.1   0.5  76  1004   ---    NW    19    19   ---   --- Overcast/ Rain
23/11/2005 07:55      10.0   6.0  12.1   5.3  76  1005   ---    NW    10    10   ---   0.6 Broken Clouds/
23/11/2005 08:55      11.0   6.0  12.7   7.3  71  1006   ---    NW     8     8   ---   0.6 Broken Clouds/
23/11/2005 09:55      10.0   6.0  12.1   3.6  76  1007   ---     W    13    13   ---   --- Overcast/ Rain
23/11/2005 10:55      10.0   5.0  11.7  10.0  71  1008   ---     N     0     0   ---   0.6 Broken Clouds/
23/11/2005 11:55      11.0   7.0  13.1  11.0  76  1008   ---   ---     0     0   ---   0.6 Broken Clouds/
23/11/2005 12:55      12.0   7.0  13.7   7.7  71  1008   ---    NW    10    10   ---   0.6 Broken Clouds/
23/11/2005 13:55      12.0   7.0  13.7   7.7  71  1008   ---   WNW    10    10   ---   0.7 Broken Clouds/
23/11/2005 14:55      12.0   7.0  13.7   8.5  71  1008   ---    NW     8     8   ---   0.6 Broken Clouds/
23/11/2005 16:55      11.0   7.0  13.1   9.0  76  1008   ---   NNW     6     6   ---   0.6 Overcast/
23/11/2005 16:55      11.0   7.0  13.1   9.0  76  1008   ---   NNW     6     6   ---   0.6 Overcast/None reported
23/11/2005 16:55      11.0   7.0  13.1   9.0  76  1008   ---   NNW     6     6   ---   0.6 Overcast/None reported
23/11/2005 17:55      10.0   5.0  11.7   5.3  71  1009   ---     W    10    10   ---   0.6 Broken Clouds/
23/11/2005 18:55       9.0   5.0  11.1   5.0  76  1009   ---   WSW     8     8   ---   0.7 Broken Clouds/
23/11/2005 20:00       0.0   0.0   4.0  -5.5 100   ---   ---   WSW   ---   ---   ---   --- /
23/11/2005 21:00       0.0   0.0   4.0  -5.5 100   ---   ---   WSW   ---   ---   ---   --- /
23/11/2005 22:00       0.0   0.0   4.0  -5.5 100   ---   ---   WSW   ---   ---   ---   --- /
23/11/2005 23:00       0.0   0.0   4.0  -5.5 100   ---   ---   WSW   ---   ---   ---   --- /
24/11/2005 00:00       0.0   0.0   4.0  -5.5 100   ---   ---   WSW   ---   ---   ---   --- /
24/11/2005 01:00       0.0   0.0   4.0  -5.5 100   ---   ---   WSW   ---   ---   ---   --- /
24/11/2005 02:00       0.0   0.0   4.0  -5.5 100   ---   ---   WSW   ---   ---   ---   --- /
24/11/2005 03:00       0.0   0.0   4.0  -5.5 100   ---   ---   WSW   ---   ---   ---   --- /
24/11/2005 04:00       0.0   0.0   4.0  -5.5 100   ---   ---   WSW   ---   ---   ---   --- /
24/11/2005 05:00       0.0   0.0   4.0  -5.5 100   ---   ---   WSW   ---   ---   ---   --- /
24/11/2005 06:00       0.0   0.0   4.0  -5.5 100   ---   ---   WSW   ---   ---   ---   --- /
24/11/2005 07:00       0.0   0.0   4.0  -5.5 100   ---   ---   WSW   ---   ---   ---   --- /
24/11/2005 07:55       9.0   3.0  10.4   4.1  66  1010   ---   WSW    10    10   ---   0.7 Scattered Clouds/
24/11/2005 08:55      11.0   4.0  12.1   7.3  62  1010   ---     W     8     8   ---   0.7 Scattered Clouds/
24/11/2005 09:55      13.0   5.0  13.9  13.0  58  1010   ---     W     5     5   ---   0.7 Scattered Clouds/
24/11/2005 10:55      14.0   4.0  14.5  14.0  51  1010   ---     S     5     5   ---   0.7 Scattered Clouds/
24/11/2005 11:55      13.0   2.0  13.3  13.0  47  1009   ---    NW     5     5   ---   0.7 Broken Clouds/
24/11/2005 12:55      13.0   3.0  13.5   9.7  51  1008   ---    NW     8     8   ---   0.7 Broken Clouds/
24/11/2005 13:55      12.0   2.0  12.5   8.5  50  1008   ---   WNW     8     8   ---   0.7 Broken Clouds/
24/11/2005 14:55       9.0   5.0  11.1   2.3  76  1007   ---   WNW    13    13   ---   0.5 Overcast/
24/11/2005 15:55       9.0   5.0  11.1   2.3  76  1008   ---   SSE    13    13   ---   0.7 Broken Clouds/
24/11/2005 16:55       9.0   5.0  11.1   9.0  76  1008   ---   SSW     5     5   ---   0.7 Broken Clouds/
24/11/2005 18:55       8.0   4.0  10.0   8.0  76  1008   ---     N     0     0   ---   0.7 Broken Clouds/
24/11/2005 20:00       0.0   0.0   4.0   0.0 100   ---   ---     N   ---   ---   ---   --- /
24/11/2005 21:00       0.0   0.0   4.0   0.0 100   ---   ---     N   ---   ---   ---   --- /
24/11/2005 22:00       0.0   0.0   4.0   0.0 100   ---   ---     N   ---   ---   ---   --- /
24/11/2005 23:00       0.0   0.0   4.0   0.0 100   ---   ---     N   ---   ---   ---   --- /
25/11/2005 00:00       0.0   0.0   4.0   0.0 100   ---   ---     N   ---   ---   ---   --- /
25/11/2005 01:00       0.0   0.0   4.0   0.0 100   ---   ---     N   ---   ---   ---   --- /
25/11/2005 02:00       0.0   0.0   4.0   0.0 100   ---   ---     N   ---   ---   ---   --- /
25/11/2005 03:00       0.0   0.0   4.0   0.0 100   ---   ---     N   ---   ---   ---   --- /
25/11/2005 04:00       0.0   0.0   4.0   0.0 100   ---   ---     N   ---   ---   ---   --- /
25/11/2005 05:00       0.0   0.0   4.0   0.0 100   ---   ---     N   ---   ---   ---   --- /
25/11/2005 06:00       0.0   0.0   4.0   0.0 100   ---   ---     N   ---   ---   ---   --- /
25/11/2005 06:55      10.0   3.0  11.1   2.7  62  1007   ---     W    14    14   ---   0.7 Broken Clouds/
25/11/2005 07:55      11.0   4.0  12.1   3.1  62  1008   ---   WNW    16    16   ---   0.7 Broken Clouds/
25/11/2005 08:55      11.0   6.0  12.7   0.4  71  1008   ---   WNW    26    26   ---   --- Overcast/ Rain
25/11/2005 09:55      12.0   5.0  13.1  10.1  62  1009   ---    SW     6     6   ---   0.7 Few Clouds/
25/11/2005 10:55      13.0   5.0  13.9   8.9  58  1009   ---   WSW    10    10   ---   0.7 Scattered Clouds/
25/11/2005 11:55      14.0   5.0  14.7  10.8  55  1009   ---     W     8     8   ---   0.7 Scattered Clouds/
25/11/2005 12:55      12.0   4.0  12.9   3.3  58  1009   ---     W    19    19   ---   0.7 Scattered Clouds/
25/11/2005 13:55      13.0   5.0  13.9   7.4  58  1008   ---   WNW    13    13   ---   0.7 Scattered Clouds/
25/11/2005 14:55      13.0   6.0  14.2   5.8  62  1008   ---     W    16    37   ---   0.7 Few Clouds/
25/11/2005 15:55      13.0   5.0  13.9   7.4  58  1008   ---     W    13    13   ---   0.7 Few Clouds/
25/11/2005 16:55      12.0   5.0  13.1   6.2  62  1008   ---     W    13    13   ---   0.7 Few Clouds/
25/11/2005 18:00       0.0   0.0   4.0  -9.2 100   ---   ---     W   ---   ---   ---   --- /
25/11/2005 18:55      12.0   6.0  13.4  10.1  67  1008   ---   WSW     6     6   ---   --- /
25/11/2005 20:00       0.0   0.0   4.0  -3.0 100   ---   ---   WSW   ---   ---   ---   --- /
25/11/2005 21:00       0.0   0.0   4.0  -3.0 100   ---   ---   WSW   ---   ---   ---   --- /
25/11/2005 22:00       0.0   0.0   4.0  -3.0 100   ---   ---   WSW   ---   ---   ---   --- /
25/11/2005 23:00       0.0   0.0   4.0  -3.0 100   ---   ---   WSW   ---   ---   ---   --- /
26/11/2005 00:00       0.0   0.0   4.0  -3.0 100   ---   ---   WSW   ---   ---   ---   --- /
26/11/2005 01:00       0.0   0.0   4.0  -3.0 100   ---   ---   WSW   ---   ---   ---   --- /
26/11/2005 02:00       0.0   0.0   4.0  -3.0 100   ---   ---   WSW   ---   ---   ---   --- /
26/11/2005 03:00       0.0   0.0   4.0  -3.0 100   ---   ---   WSW   ---   ---   ---   --- /
26/11/2005 04:00       0.0   0.0   4.0  -3.0 100   ---   ---   WSW   ---   ---   ---   --- /
26/11/2005 05:00       0.0   0.0   4.0  -3.0 100   ---   ---   WSW   ---   ---   ---   --- /
26/11/2005 06:00       0.0   0.0   4.0  -3.0 100   ---   ---   WSW   ---   ---   ---   --- /
26/11/2005 06:55      13.0   8.0  14.8   6.6  72  1005   ---   SSW    14    14   ---   0.7 Broken Clouds/
26/11/2005 07:55      13.0   7.0  14.4   4.4  67  1004   ---   WSW    21    21   ---   0.7 Broken Clouds/
26/11/2005 08:55      14.0   7.0  15.2   4.6  63  1004   ---    SW    27    58   ---   0.7 Scattered Clouds/
26/11/2005 09:55      16.0   8.0  16.9   9.6  59  1004   ---   SSW    18    18   ---   0.7 Scattered Clouds/
26/11/2005 10:55      16.0   6.0  16.5   7.2  51  1004   ---   WSW    31    58   ---   0.7 Broken Clouds/
26/11/2005 11:55      17.0   7.0  17.5   9.8  52  1003   ---   WSW    23    23   ---   0.7 Broken Clouds/
26/11/2005 12:55      18.0   8.0  18.6  10.8  52  1002   ---   WSW    26    26   ---   0.7 Broken Clouds/
26/11/2005 13:55      16.0   7.0  16.7   8.7  55  1002   ---   WSW    21    47   ---   0.7 Broken Clouds/
26/11/2005 14:55      16.0   6.0  16.5  10.6  51  1001   ---     W    14    14   ---   0.7 Scattered Clouds/
26/11/2005 14:55      16.0   6.0  16.5  10.6  51  1001   ---     W    14    14   ---   0.7 Scattered Clouds/None reported
26/11/2005 15:55      15.0   6.0  15.7   8.2  55  1001   ---   WSW    18    18   ---   0.7 Broken Clouds/
26/11/2005 16:55      14.0   5.0  14.7   6.2  55  1001   ---   WSW    19    40   ---   0.7 Scattered Clouds/
26/11/2005 16:55      14.0   5.0  14.7   6.2  55  1001   ---   WSW    19    40   ---   0.7 Scattered Clouds/None reported
26/11/2005 17:55      14.0   5.0  14.7   4.4  55  1001   ---   WSW    29    58   ---   0.7 Broken Clouds/
26/11/2005 18:55      14.0   6.0  14.9   5.8  59  1001   ---   WSW    21    21   ---   0.7 Scattered Clouds/
26/11/2005 20:00       0.0   0.0   4.0 -14.2 100   ---   ---   WSW   ---   ---   ---   --- /
26/11/2005 22:00       0.0   0.0   4.0 -14.2 100   ---   ---   WSW   ---   ---   ---   --- /
26/11/2005 23:00       0.0   0.0   4.0 -14.2 100   ---   ---   WSW   ---   ---   ---   --- /
27/11/2005 00:00       0.0   0.0   4.0 -14.2 100   ---   ---   WSW   ---   ---   ---   --- /
27/11/2005 01:00       0.0   0.0   4.0 -14.2 100   ---   ---   WSW   ---   ---   ---   --- /
27/11/2005 02:00       0.0   0.0   4.0 -14.2 100   ---   ---   WSW   ---   ---   ---   --- /
27/11/2005 03:00       0.0   0.0   4.0 -14.2 100   ---   ---   WSW   ---   ---   ---   --- /
27/11/2005 04:00       0.0   0.0   4.0 -14.2 100   ---   ---   WSW   ---   ---   ---   --- /
27/11/2005 05:00       0.0   0.0   4.0 -14.2 100   ---   ---   WSW   ---   ---   ---   --- /
27/11/2005 06:00       0.0   0.0   4.0 -14.2 100   ---   ---   WSW   ---   ---   ---   --- /
27/11/2005 06:55      12.0   9.0  14.5   1.9  82  1000   ---     W    26    26   ---   --- Overcast/ Light Rain
27/11/2005 07:55      13.0   9.0  15.1   7.4  77  1001   ---   WNW    13    13   ---   0.5 Broken Clouds/
27/11/2005 08:55      14.0   9.0  15.8   6.9  72  1001   ---     W    18    18   ---   0.7 Broken Clouds/
27/11/2005 09:55      13.0  10.0  15.5   2.6  82  1003   ---   WNW    31    31   ---   0.5 Overcast/
27/11/2005 10:55      12.0   9.0  14.5   1.9  82  1003   ---   WNW    26    26   ---   --- Overcast/ Light Rain
27/11/2005 11:55      12.0   8.0  14.1   2.6  77  1003   ---   WNW    23    23   ---   0.7 Broken Clouds/
27/11/2005 12:55      14.0   7.0  15.2   6.9  63  1003   ---     W    18    18   ---   0.7 Scattered Clouds/
27/11/2005 13:55      15.0   6.0  15.7  12.0  55  1003   ---     W     8     8   ---   0.7 Scattered Clouds/
27/11/2005 14:55      14.0   5.0  14.7   5.5  55  1003   ---     W    23    47   ---   0.7 Scattered Clouds/
27/11/2005 15:55      13.0   4.0  13.7  13.0  54  1003   ---     W     5     5   ---   0.6 Broken Clouds/
27/11/2005 16:55      10.0   7.0  12.5   3.6  82  1005   ---    NW    13    13   ---   --- Overcast/ Rain
27/11/2005 18:55       9.0   5.0  11.1   9.0  76  1005   ---     S     5     5   ---   0.8 Broken Clouds/
27/11/2005 20:00       0.0   0.0   4.0   0.0 100   ---   ---     S   ---   ---   ---   --- /
27/11/2005 21:00       0.0   0.0   4.0   0.0 100   ---   ---     S   ---   ---   ---   --- /
27/11/2005 22:00       0.0   0.0   4.0   0.0 100   ---   ---     S   ---   ---   ---   --- /
27/11/2005 23:00       0.0   0.0   4.0   0.0 100   ---   ---     S   ---   ---   ---   --- /
28/11/2005 00:00       0.0   0.0   4.0   0.0 100   ---   ---     S   ---   ---   ---   --- /
28/11/2005 01:00       0.0   0.0   4.0   0.0 100   ---   ---     S   ---   ---   ---   --- /
28/11/2005 02:00       0.0   0.0   4.0   0.0 100   ---   ---     S   ---   ---   ---   --- /
28/11/2005 03:00       0.0   0.0   4.0   0.0 100   ---   ---     S   ---   ---   ---   --- /
28/11/2005 04:00       0.0   0.0   4.0   0.0 100   ---   ---     S   ---   ---   ---   --- /
28/11/2005 06:00       0.0   0.0   4.0   0.0 100   ---   ---     S   ---   ---   ---   --- /
28/11/2005 06:55      10.0   5.0  11.7   5.3  71  1009   ---   WSW    10    10   ---   0.7 Scattered Clouds/
28/11/2005 07:55      11.0   6.0  12.7  11.0  71  1009   ---     N     0     0   ---   --- Overcast/ Light Rain
28/11/2005 08:55      11.0   7.0  13.1   7.3  76  1010   ---    SW     8     8   ---   0.7 Few Clouds/
28/11/2005 10:55      14.0   6.0  14.9   5.5  59  1010   ---   WNW    23    23   ---   0.7 Few Clouds/
28/11/2005 11:55      15.0   7.0  15.9   7.3  59  1010   ---     W    21    21   ---   0.7 Scattered Clouds/
28/11/2005 13:00       0.0   0.0   4.0 -14.2 100   ---   ---     W   ---   ---   ---   --- /
28/11/2005 13:55      15.0   6.0  15.7   6.9  55  1011   ---     W    23    23   ---   0.7 Broken Clouds/
28/11/2005 14:55      14.0   5.0  14.7   7.2  55  1011   ---     W    16    16   ---   0.7 Few Clouds/
28/11/2005 15:55      13.0   5.0  13.9   1.8  58  1011   ---   WNW    39    58   ---   0.7 Broken Clouds/
28/11/2005 17:55      11.0   5.0  12.4   7.3  66  1011   ---     W     8     8   ---   --- /
28/11/2005 20:00       0.0   0.0   4.0  -5.5 100   ---   ---     W   ---   ---   ---   --- /
28/11/2005 21:00       0.0   0.0   4.0  -5.5 100   ---   ---     W   ---   ---   ---   --- /
28/11/2005 22:00       0.0   0.0   4.0  -5.5 100   ---   ---     W   ---   ---   ---   --- /
28/11/2005 23:00       0.0   0.0   4.0  -5.5 100   ---   ---     W   ---   ---   ---   --- /
29/11/2005 00:00       0.0   0.0   4.0  -5.5 100   ---   ---     W   ---   ---   ---   --- /
29/11/2005 01:00       0.0   0.0   4.0  -5.5 100   ---   ---     W   ---   ---   ---   --- /
29/11/2005 02:00       0.0   0.0   4.0  -5.5 100   ---   ---     W   ---   ---   ---   --- /
29/11/2005 03:00       0.0   0.0   4.0  -5.5 100   ---   ---     W   ---   ---   ---   --- /
29/11/2005 04:00       0.0   0.0   4.0  -5.5 100   ---   ---     W   ---   ---   ---   --- /
29/11/2005 06:00       0.0   0.0   4.0  -5.5 100   ---   ---     W   ---   ---   ---   --- /
29/11/2005 07:00       0.0   0.0   4.0  -5.5 100   ---   ---     W   ---   ---   ---   --- /
29/11/2005 07:55       9.0   4.0  10.7   9.0  71  1014   ---     N     0     0   ---   3.0 Broken Clouds/
29/11/2005 08:55      10.0   5.0  11.7   7.9  71  1014   ---     W     6     6   ---   3.0 Scattered Clouds/
29/11/2005 09:55      12.0   5.0  13.1  12.0  62  1014   ---     N     0     0   ---   3.0 Scattered Clouds/
29/11/2005 09:55      12.0   5.0  13.1  12.0  62  1014   ---   ---     0     0   ---   1.6 Scattered Clouds/None reported
29/11/2005 11:00       0.0   0.0   4.0   0.0 100   ---   ---   ---   ---   ---   ---   --- /
29/11/2005 11:55      14.0   6.0  14.9  14.0  59  1013   ---   ---     0     0   ---   0.7 Broken Clouds/
29/11/2005 12:55      15.0   6.0  15.7   8.2  55  1012   ---   SSW    18    18   ---   0.7 Broken Clouds/
29/11/2005 14:00       0.0   0.0   4.0 -12.4 100   ---   ---   SSW   ---   ---   ---   --- /
29/11/2005 14:55      15.0   6.0  15.7  13.3  55  1011   ---   WSW     6     6   ---   0.7 Broken Clouds/
28/11/2005 14:55      14.0   5.0  14.7   7.2  55  1011   ---     W    16    16   ---   0.7 Few Clouds/
29/11/2005 17:00       0.0   0.0   4.0 -11.8 100   ---   ---     W   ---   ---   ---   --- /
29/11/2005 16:55      14.0   5.0  14.7   6.9  55  1010   ---    SW    18    18   ---   0.7 Broken Clouds/
29/11/2005 18:55      14.0  -1.0  13.8   6.2  36  1010   ---     W    19    19   ---   0.7 Broken Clouds/
29/11/2005 20:00       0.0   0.0   4.0 -13.6 100   ---   ---     W   ---   ---   ---   --- /
29/11/2005 21:00       0.0   0.0   4.0 -13.6 100   ---   ---     W   ---   ---   ---   --- /
29/11/2005 22:00       0.0   0.0   4.0 -13.6 100   ---   ---     W   ---   ---   ---   --- /
29/11/2005 23:00       0.0   0.0   4.0 -13.6 100   ---   ---     W   ---   ---   ---   --- /
30/11/2005 00:00       0.0   0.0   4.0 -13.6 100   ---   ---     W   ---   ---   ---   --- /
30/11/2005 01:00       0.0   0.0   4.0 -13.6 100   ---   ---     W   ---   ---   ---   --- /
30/11/2005 03:00       0.0   0.0   4.0 -13.6 100   ---   ---     W   ---   ---   ---   --- /
30/11/2005 04:00       0.0   0.0   4.0 -13.6 100   ---   ---     W   ---   ---   ---   --- /
30/11/2005 06:00       0.0   0.0   4.0 -13.6 100   ---   ---     W   ---   ---   ---   --- /
30/11/2005 06:55      13.0   9.0  15.1   9.7  77  1007   ---     W     8     8   ---   0.6 Broken Clouds/
30/11/2005 07:55      14.0  10.0  16.1  14.0  77  1007   ---     W     3     3   ---   0.6 Overcast/
30/11/2005 08:55      15.0  11.0  17.1  15.0  77  1006   ---   NNW     5     5   ---   0.6 Overcast/
30/11/2005 09:55      16.0  12.0  18.1  16.0  77  1007   ---     S     5     5   ---   0.6 Overcast/
30/11/2005 10:55      17.0  14.0  19.5  14.3  83  1006   ---   ENE     8     8   ---   0.6 Broken Clouds/
30/11/2005 11:55      18.0  14.0  20.2  15.5  77  1006   ---     E     8     8   ---   0.6 Broken Clouds/
30/11/2005 12:55      18.0  14.0  20.2  18.0  77  1005   ---    NW     5     5   ---   0.6 Overcast/
30/11/2005 14:00       0.0   0.0   4.0   0.0 100   ---   ---    NW   ---   ---   ---   --- /
30/11/2005 15:00       0.0   0.0   4.0   0.0 100   ---   ---    NW   ---   ---   ---   --- /
30/11/2005 15:55      15.0  12.0  17.5  10.0  82  1006   ---   NNW    13    13   ---   0.7 Overcast/
30/11/2005 16:55      15.0  12.0  17.5  15.0  82  1006   ---    NW     3     3   ---   0.7 Overcast/
30/11/2005 17:55      14.0  11.0  16.5  14.0  82  1007   ---     N     0     0   ---   --- Overcast/ Light Rain
30/11/2005 18:55      13.0   9.0  15.1  11.2  77  1007   ---   SSW     6     6   ---   0.7 Overcast/
30/11/2005 20:00       0.0   0.0   4.0  -3.0 100   ---   ---   SSW   ---   ---   ---   --- /
30/11/2005 21:00       0.0   0.0   4.0  -3.0 100   ---   ---   SSW   ---   ---   ---   --- /
30/11/2005 22:00       0.0   0.0   4.0  -3.0 100   ---   ---   SSW   ---   ---   ---   --- /
30/11/2005 23:00       0.0   0.0   4.0  -3.0 100   ---   ---   SSW   ---   ---   ---   --- /
01/12/2005 00:00       0.0   0.0   4.0  -3.0 100   ---   ---   SSW   ---   ---   ---   --- /
01/12/2005 01:00       0.0   0.0   4.0  -3.0 100   ---   ---   SSW   ---   ---   ---   --- /
01/12/2005 02:00       0.0   0.0   4.0  -3.0 100   ---   ---   SSW   ---   ---   ---   --- /
01/12/2005 03:00       0.0   0.0   4.0  -3.0 100   ---   ---   SSW   ---   ---   ---   --- /
01/12/2005 04:00       0.0   0.0   4.0  -3.0 100   ---   ---   SSW   ---   ---   ---   --- /
01/12/2005 05:00       0.0   0.0   4.0  -3.0 100   ---   ---   SSW   ---   ---   ---   --- /
01/12/2005 06:00       0.0   0.0   4.0  -3.0 100   ---   ---   SSW   ---   ---   ---   --- /
01/12/2005 06:55      12.0   9.0  14.5   6.2  82  1009   ---     N    13    13   ---   --- Overcast/ Light Rain
01/12/2005 07:55      12.0   8.0  14.1  10.1  77  1010   ---     N     6     6   ---   0.5 Overcast/
01/12/2005 08:55      12.0   9.0  14.5  12.0  82  1010   ---     N     0     0   ---   --- Overcast/ Light Rain
01/12/2005 10:00       0.0   0.0   4.0   0.0 100   ---   ---     N   ---   ---   ---   --- /
01/12/2005 09:55      12.0  10.0  14.9  12.0  88  1010   ---   ---     0     0   ---   0.5 Overcast/
01/12/2005 11:55      12.0  10.0  14.9  10.1  88  1010   ---   NNW     6     6   ---   0.5 Overcast/
01/12/2005 12:55      12.0  10.0  14.9  10.1  88  1009   ---     W     6     6   ---   0.5 Overcast/
01/12/2005 14:00       0.0   0.0   4.0  -3.0 100   ---   ---     W   ---   ---   ---   --- /
01/12/2005 14:55      11.0   9.0  13.9  11.0  87  1010   ---     N     5     5   ---   --- Overcast/ Light Rain
01/12/2005 15:55      11.0   9.0  13.9  11.0  87  1010   ---     N     0     0   ---   0.5 Overcast/
01/12/2005 16:55      11.0   9.0  13.9  11.0  87  1010   ---   ---     0     0   ---   0.5 Overcast/
01/12/2005 17:55      10.0   8.0  12.9   7.9  87  1011   ---     S     6     6   ---   0.4 Overcast/
01/12/2005 18:55      10.0   8.0  12.9  10.0  87  1011   ---     N     0     0   ---   0.5 Overcast/
01/12/2005 20:00       0.0   0.0   4.0   0.0 100   ---   ---     N   ---   ---   ---   --- /
01/12/2005 21:00       0.0   0.0   4.0   0.0 100   ---   ---     N   ---   ---   ---   --- /
01/12/2005 22:00       0.0   0.0   4.0   0.0 100   ---   ---     N   ---   ---   ---   --- /
01/12/2005 23:00       0.0   0.0   4.0   0.0 100   ---   ---     N   ---   ---   ---   --- /
02/12/2005 00:00       0.0   0.0   4.0   0.0 100   ---   ---     N   ---   ---   ---   --- /
02/12/2005 01:00       0.0   0.0   4.0   0.0 100   ---   ---     N   ---   ---   ---   --- /
02/12/2005 02:00       0.0   0.0   4.0   0.0 100   ---   ---     N   ---   ---   ---   --- /
02/12/2005 03:00       0.0   0.0   4.0   0.0 100   ---   ---     N   ---   ---   ---   --- /
02/12/2005 04:00       0.0   0.0   4.0   0.0 100   ---   ---     N   ---   ---   ---   --- /
02/12/2005 05:00       0.0   0.0   4.0   0.0 100   ---   ---     N   ---   ---   ---   --- /
02/12/2005 06:00       0.0   0.0   4.0   0.0 100   ---   ---     N   ---   ---   ---   --- /
02/12/2005 06:55       9.0   7.0  11.9   6.8  87  1015   ---   WSW     6     6   ---   0.8 Scattered Clouds/
02/12/2005 07:55      10.0   7.0  12.5   5.3  82  1016   ---   WSW    10    10   ---   0.8 Scattered Clouds/
02/12/2005 08:55      12.0   8.0  14.1  10.1  77  1017   ---    SW     6     6   ---   0.7 Few Clouds/
02/12/2005 09:55      14.0   7.0  15.2  14.0  63  1017   ---     N     0     0   ---   0.7 Few Clouds/
02/12/2005 10:55      15.0   8.0  16.2  15.0  63  1018   ---   ---     0     0   ---   0.7 Few Clouds/
02/12/2005 11:55      16.0   7.0  16.7  16.0  55  1018   ---   ---     0     0   ---   0.7 Few Clouds/
02/12/2005 12:55      16.0   7.0  16.7  16.0  55  1018   ---   ---     0     0   ---   0.7 Scattered Clouds/
02/12/2005 13:55      16.0   7.0  16.7  16.0  55  1017   ---   ENE     3     3   ---   0.7 Few Clouds/
02/12/2005 14:55      15.0   7.0  15.9  13.3  59  1017   ---     E     6     6   ---   0.7 Few Clouds/
02/12/2005 15:55      14.0   8.0  15.5  14.0  67  1017   ---     E     3     3   ---   0.7 Few Clouds/
02/12/2005 16:55      12.0   8.0  14.1  10.1  77  1017   ---   WSW     6     6   ---   0.7 Few Clouds/
02/12/2005 17:55      11.0   8.0  13.5   9.0  82  1017   ---   WSW     6     6   ---   --- /
02/12/2005 18:55      11.0   7.0  13.1  11.0  76  1017   ---   WSW     5     5   ---   --- /
02/12/2005 20:00       0.0   0.0   4.0   0.0 100   ---   ---   WSW   ---   ---   ---   --- /
02/12/2005 21:00       0.0   0.0   4.0   0.0 100   ---   ---   WSW   ---   ---   ---   --- /
02/12/2005 22:00       0.0   0.0   4.0   0.0 100   ---   ---   WSW   ---   ---   ---   --- /
02/12/2005 23:00       0.0   0.0   4.0   0.0 100   ---   ---   WSW   ---   ---   ---   --- /
03/12/2005 00:00       0.0   0.0   4.0   0.0 100   ---   ---   WSW   ---   ---   ---   --- /
03/12/2005 01:00       0.0   0.0   4.0   0.0 100   ---   ---   WSW   ---   ---   ---   --- /
03/12/2005 02:00       0.0   0.0   4.0   0.0 100   ---   ---   WSW   ---   ---   ---   --- /
03/12/2005 03:00       0.0   0.0   4.0   0.0 100   ---   ---   WSW   ---   ---   ---   --- /
03/12/2005 04:00       0.0   0.0   4.0   0.0 100   ---   ---   WSW   ---   ---   ---   --- /
03/12/2005 05:00       0.0   0.0   4.0   0.0 100   ---   ---   WSW   ---   ---   ---   --- /
03/12/2005 06:00       0.0   0.0   4.0   0.0 100   ---   ---   WSW   ---   ---   ---   --- /
03/12/2005 06:55      14.0   8.0  15.5   6.9  67  1016   ---     W    18    18   ---   --- /
03/12/2005 07:55      14.0   9.0  15.8  10.1  72  1016   ---   WSW    10    10   ---   0.7 Few Clouds/
03/12/2005 08:55      15.0   8.0  16.2   9.3  63  1016   ---     W    14    14   ---   3.0 Scattered Clouds/
03/12/2005 09:55      16.0   8.0  16.9   7.4  59  1016   ---     W    29    29   ---   3.0 Few Clouds/
03/12/2005 10:55      17.0   9.0  18.0   9.3  59  1016   ---     W    26    26   ---   3.3 Few Clouds/
03/12/2005 11:55      18.0   9.0  18.8  11.3  56  1015   ---     W    23    23   ---   --- /
03/12/2005 12:55      18.0   9.0  18.8  10.6  56  1015   ---   WSW    27    27   ---   --- /
03/12/2005 13:55      18.0   9.0  18.8  12.6  56  1015   ---     W    16    16   ---   3.0 Scattered Clouds/
03/12/2005 14:55      17.0   9.0  18.0  10.1  59  1014   ---   WSW    21    21   ---   3.0 Scattered Clouds/
03/12/2005 15:55      16.0   7.0  16.7   7.6  55  1014   ---    SW    27    27   ---   0.7 Scattered Clouds/
03/12/2005 17:55      16.0   8.0  16.9  12.5  59  1014   ---    SW    10    10   ---   2.7 Scattered Clouds/
03/12/2005 18:55      17.0  10.0  18.2   9.1  63  1014   ---     W    27    27   ---   0.8 Scattered Clouds/
03/12/2005 20:00       0.0   0.0   4.0 -16.4 100   ---   ---     W   ---   ---   ---   --- /
03/12/2005 21:00       0.0   0.0   4.0 -16.4 100   ---   ---     W   ---   ---   ---   --- /
03/12/2005 22:00       0.0   0.0   4.0 -16.4 100   ---   ---     W   ---   ---   ---   --- /
03/12/2005 23:00       0.0   0.0   4.0 -16.4 100   ---   ---     W   ---   ---   ---   --- /
04/12/2005 00:00       0.0   0.0   4.0 -16.4 100   ---   ---     W   ---   ---   ---   --- /
04/12/2005 01:00       0.0   0.0   4.0 -16.4 100   ---   ---     W   ---   ---   ---   --- /
04/12/2005 02:00       0.0   0.0   4.0 -16.4 100   ---   ---     W   ---   ---   ---   --- /
04/12/2005 03:00       0.0   0.0   4.0 -16.4 100   ---   ---     W   ---   ---   ---   --- /
04/12/2005 04:00       0.0   0.0   4.0 -16.4 100   ---   ---     W   ---   ---   ---   --- /
04/12/2005 05:00       0.0   0.0   4.0 -16.4 100   ---   ---     W   ---   ---   ---   --- /
04/12/2005 06:00       0.0   0.0   4.0 -16.4 100   ---   ---     W   ---   ---   ---   --- /
04/12/2005 06:55      13.0  10.0  15.5  13.0  82  1018   ---     N     0     0   ---   0.7 Few Clouds/
04/12/2005 07:55      13.0  10.0  15.5  13.0  82  1019   ---   ---     0     0   ---   0.7 Few Clouds/
04/12/2005 08:55      14.0  10.0  16.1  12.3  77  1019   ---   SSW     6     6   ---   0.7 Few Clouds/
04/12/2005 09:55      16.0  10.0  17.5  11.3  68  1020   ---     S    13    13   ---   0.7 Few Clouds/
04/12/2005 10:55      17.0   9.0  18.0  17.0  59  1020   ---     W     5     5   ---   0.7 Few Clouds/
04/12/2005 11:55      18.0   9.0  18.8  15.5  56  1020   ---     W     8     8   ---   --- /
04/12/2005 13:00       0.0   0.0   4.0  -5.5 100   ---   ---     W   ---   ---   ---   --- /
04/12/2005 13:55      18.0  10.0  19.0  15.5  60  1019   ---     W     8     8   ---   0.8 Few Clouds/
04/12/2005 13:55      18.0  10.0  19.0  15.5  60  1019   ---     W     8     8   ---   0.8 Few Clouds/None reported
04/12/2005 14:55      18.0   9.0  18.8  18.0  56  1019   ---     N     0     0   ---   --- /
04/12/2005 15:55      16.0  10.0  17.5  16.0  68  1019   ---    SW     3     3   ---   6.0 Scattered Clouds/
04/12/2005 16:55      15.0  10.0  16.8  15.0  72  1019   ---     N     0     0   ---   6.0 Scattered Clouds/
04/12/2005 17:55      13.0   9.0  15.1  13.0  77  1019   ---     W     5     5   ---   6.0 Few Clouds/
04/12/2005 18:55      12.0   8.0  14.1  10.1  77  1018   ---     W     6     6   ---   --- /
04/12/2005 20:00       0.0   0.0   4.0  -3.0 100   ---   ---     W   ---   ---   ---   --- /
04/12/2005 21:00       0.0   0.0   4.0  -3.0 100   ---   ---     W   ---   ---   ---   --- /
04/12/2005 22:00       0.0   0.0   4.0  -3.0 100   ---   ---     W   ---   ---   ---   --- /
04/12/2005 23:00       0.0   0.0   4.0  -3.0 100   ---   ---     W   ---   ---   ---   --- /
05/12/2005 00:00       0.0   0.0   4.0  -3.0 100   ---   ---     W   ---   ---   ---   --- /
05/12/2005 01:00       0.0   0.0   4.0  -3.0 100   ---   ---     W   ---   ---   ---   --- /
05/12/2005 02:00       0.0   0.0   4.0  -3.0 100   ---   ---     W   ---   ---   ---   --- /
05/12/2005 03:00       0.0   0.0   4.0  -3.0 100   ---   ---     W   ---   ---   ---   --- /
05/12/2005 04:00       0.0   0.0   4.0  -3.0 100   ---   ---     W   ---   ---   ---   --- /
05/12/2005 05:00       0.0   0.0   4.0  -3.0 100   ---   ---     W   ---   ---   ---   --- /
05/12/2005 06:00       0.0   0.0   4.0  -3.0 100   ---   ---     W   ---   ---   ---   --- /
05/12/2005 06:55      16.0  13.0  18.5   9.9  82  1014   ---     W    16    16   ---   0.7 Broken Clouds/
05/12/2005 07:55      16.0  13.0  18.5  11.3  82  1014   ---   WSW    13    13   ---   0.7 Broken Clouds/
05/12/2005 08:55      16.0  13.0  18.5  10.6  82  1014   ---   WSW    14    14   ---   0.7 Broken Clouds/
05/12/2005 09:55      16.0  13.0  18.5  10.6  82  1013   ---   WSW    14    14   ---   0.7 Broken Clouds/
05/12/2005 10:55      17.0  12.0  18.8  10.1  72  1014   ---    SW    21    21   ---   0.7 Broken Clouds/
05/12/2005 11:55      17.0  11.0  18.5  10.4  68  1013   ---   WSW    19    40   ---   0.7 Scattered Clouds/
05/12/2005 12:55      17.0  10.0  18.2  14.3  63  1012   ---   WSW     8     8   ---   0.7 Scattered Clouds/
05/12/2005 14:00       0.0   0.0   4.0  -5.5 100   ---   ---   WSW   ---   ---   ---   --- /
05/12/2005 14:55      18.0  13.0  19.8  15.5  73  1011   ---   WSW     8     8   ---   0.7 Scattered Clouds/
05/12/2005 15:55      17.0  12.0  18.8  12.5  72  1011   ---   WSW    13    13   ---   0.7 Broken Clouds/
05/12/2005 17:00       0.0   0.0   4.0  -9.2 100   ---   ---   WSW   ---   ---   ---   --- /
05/12/2005 17:55      16.0  12.0  18.1  13.2  77  1011   ---   WSW     8     8   ---   0.7 Broken Clouds/
05/12/2005 17:55      16.0  12.0  18.1  13.2  77  1011   ---   WSW     8     8   ---   0.7 Broken Clouds/None reported
05/12/2005 18:55      15.0  13.0  18.0  12.0  88  1011   ---   WSW     8     8   ---   0.7 Scattered Clouds/
05/12/2005 20:00       0.0   0.0   4.0  -5.5 100   ---   ---   WSW   ---   ---   ---   --- /
05/12/2005 21:00       0.0   0.0   4.0  -5.5 100   ---   ---   WSW   ---   ---   ---   --- /
05/12/2005 22:00       0.0   0.0   4.0  -5.5 100   ---   ---   WSW   ---   ---   ---   --- /
05/12/2005 23:00       0.0   0.0   4.0  -5.5 100   ---   ---   WSW   ---   ---   ---   --- /
06/12/2005 00:00       0.0   0.0   4.0  -5.5 100   ---   ---   WSW   ---   ---   ---   --- /
06/12/2005 01:00       0.0   0.0   4.0  -5.5 100   ---   ---   WSW   ---   ---   ---   --- /
06/12/2005 02:00       0.0   0.0   4.0  -5.5 100   ---   ---   WSW   ---   ---   ---   --- /
06/12/2005 03:00       0.0   0.0   4.0  -5.5 100   ---   ---   WSW   ---   ---   ---   --- /
06/12/2005 04:00       0.0   0.0   4.0  -5.5 100   ---   ---   WSW   ---   ---   ---   --- /
06/12/2005 05:00       0.0   0.0   4.0  -5.5 100   ---   ---   WSW   ---   ---   ---   --- /
06/12/2005 06:00       0.0   0.0   4.0  -5.5 100   ---   ---   WSW   ---   ---   ---   --- /
06/12/2005 06:55      13.0   9.0  15.1  13.0  77  1008   ---     W     5     5   ---   0.8 Scattered Clouds/
06/12/2005 08:55      14.0  10.0  16.1  12.3  77  1010   ---   WNW     6     6   ---   0.7 Broken Clouds/
06/12/2005 09:55      15.0  11.0  17.1   8.2  77  1011   ---     W    18    18   ---   0.7 Scattered Clouds/
06/12/2005 10:55      16.0  10.0  17.5  11.3  68  1011   ---   WNW    13    13   ---   0.7 Broken Clouds/
06/12/2005 11:55      16.0  10.0  17.5   9.0  68  1011   ---   WNW    19    40   ---   0.6 Scattered Clouds/
06/12/2005 12:55      17.0   9.0  18.0  13.8  59  1011   ---    NW    10    10   ---   0.6 Scattered Clouds/
06/12/2005 13:55      17.0   8.0  17.7  13.8  55  1011   ---   NNE    10    10   ---   0.6 Scattered Clouds/
06/12/2005 14:55      16.0   8.0  16.9  13.2  59  1011   ---     W     8     8   ---   0.6 Scattered Clouds/
06/12/2005 15:55      15.0   7.0  15.9  12.0  59  1011   ---     W     8     8   ---   0.6 Scattered Clouds/
06/12/2005 17:55      13.0   7.0  14.4   8.9  67  1012   ---     W    10    10   ---   0.7 Scattered Clouds/
06/12/2005 20:00       0.0   0.0   4.0  -6.7 100   ---   ---     W   ---   ---   ---   --- /
06/12/2005 21:00       0.0   0.0   4.0  -6.7 100   ---   ---     W   ---   ---   ---   --- /
06/12/2005 22:00       0.0   0.0   4.0  -6.7 100   ---   ---     W   ---   ---   ---   --- /
06/12/2005 23:00       0.0   0.0   4.0  -6.7 100   ---   ---     W   ---   ---   ---   --- /
07/12/2005 00:00       0.0   0.0   4.0  -6.7 100   ---   ---     W   ---   ---   ---   --- /
07/12/2005 01:00       0.0   0.0   4.0  -6.7 100   ---   ---     W   ---   ---   ---   --- /
07/12/2005 02:00       0.0   0.0   4.0  -6.7 100   ---   ---     W   ---   ---   ---   --- /
07/12/2005 03:00       0.0   0.0   4.0  -6.7 100   ---   ---     W   ---   ---   ---   --- /
07/12/2005 04:00       0.0   0.0   4.0  -6.7 100   ---   ---     W   ---   ---   ---   --- /
07/12/2005 05:00       0.0   0.0   4.0  -6.7 100   ---   ---     W   ---   ---   ---   --- /
07/12/2005 07:55      13.0  11.0  15.9   9.7  88  1015   ---     W     8     8   ---   --- Overcast/ Light Rain
07/12/2005 08:55      13.0  10.0  15.5   9.7  82  1015   ---     W     8     8   ---   0.7 Scattered Clouds/
07/12/2005 09:55      15.0  10.0  16.8  10.0  72  1016   ---     W    13    13   ---   0.7 Scattered Clouds/
07/12/2005 10:55      16.0  10.0  17.5  14.4  68  1016   ---   NNW     6     6   ---   0.7 Broken Clouds/
07/12/2005 11:55      16.0   8.0  16.9   9.6  59  1016   ---    NW    18    18   ---   0.7 Scattered Clouds/
07/12/2005 14:00       0.0   0.0   4.0 -12.4 100   ---   ---    NW   ---   ---   ---   --- /
07/12/2005 14:55      14.0   7.0  15.2   6.9  63  1016   ---    NW    18    18   ---   0.7 Broken Clouds/
07/12/2005 15:55      13.0   6.0  14.2   8.9  62  1017   ---    NW    10    10   ---   0.7 Broken Clouds/
07/12/2005 16:55      13.0   7.0  14.4   9.7  67  1017   ---    NW     8     8   ---   0.7 Broken Clouds/
07/12/2005 17:55      12.0   7.0  13.7   7.7  71  1018   ---    NW    10    10   ---   0.7 Scattered Clouds/
07/12/2005 18:55      12.0   6.0  13.4   7.7  67  1018   ---   WNW    10    10   ---   0.7 Scattered Clouds/
07/12/2005 20:00       0.0   0.0   4.0  -6.7 100   ---   ---   WNW   ---   ---   ---   --- /
07/12/2005 21:00       0.0   0.0   4.0  -6.7 100   ---   ---   WNW   ---   ---   ---   --- /
07/12/2005 22:00       0.0   0.0   4.0  -6.7 100   ---   ---   WNW   ---   ---   ---   --- /
07/12/2005 23:00       0.0   0.0   4.0  -6.7 100   ---   ---   WNW   ---   ---   ---   --- /
08/12/2005 00:00       0.0   0.0   4.0  -6.7 100   ---   ---   WNW   ---   ---   ---   --- /
08/12/2005 01:00       0.0   0.0   4.0  -6.7 100   ---   ---   WNW   ---   ---   ---   --- /
08/12/2005 02:00       0.0   0.0   4.0  -6.7 100   ---   ---   WNW   ---   ---   ---   --- /
08/12/2005 03:00       0.0   0.0   4.0  -6.7 100   ---   ---   WNW   ---   ---   ---   --- /
08/12/2005 04:00       0.0   0.0   4.0  -6.7 100   ---   ---   WNW   ---   ---   ---   --- /
08/12/2005 05:00       0.0   0.0   4.0  -6.7 100   ---   ---   WNW   ---   ---   ---   --- /
08/12/2005 06:00       0.0   0.0   4.0  -6.7 100   ---   ---   WNW   ---   ---   ---   --- /
08/12/2005 06:55      11.0   8.0  13.5  11.0  82  1021   ---     N     0     0   ---   0.7 Broken Clouds/
08/12/2005 07:55      11.0   8.0  13.5  11.0  82  1022   ---   ---     0     0   ---   0.7 Broken Clouds/
08/12/2005 08:55      13.0   8.0  14.8  13.0  72  1022   ---   ---     0     0   ---   0.7 Scattered Clouds/
08/12/2005 09:55      13.0   8.0  14.8   8.9  72  1022   ---   WNW    10    10   ---   0.7 Broken Clouds/
08/12/2005 10:55      14.0   8.0  15.5   8.0  67  1022   ---   WNW    14    14   ---   0.7 Scattered Clouds/
08/12/2005 11:55      14.0   9.0  15.8  10.1  72  1022   ---    NW    10    10   ---   0.7 Broken Clouds/
08/12/2005 13:55      13.0   9.0  15.1  13.0  77  1022   ---     N     0     0   ---   0.7 Broken Clouds/
08/12/2005 14:55      14.0   8.0  15.5  14.0  67  1021   ---   ---     0     0   ---   0.7 Scattered Clouds/
08/12/2005 15:55      13.0   8.0  14.8  13.0  72  1021   ---    NW     5     5   ---   0.7 Broken Clouds/
08/12/2005 16:55      12.0   8.0  14.1  12.0  77  1021   ---     N     0     0   ---   0.7 Broken Clouds/
08/12/2005 17:55      11.0   7.0  13.1  -2.4  76  1021   ---   WSW   106   106   ---   0.7 Broken Clouds/
08/12/2005 18:55      10.0   7.0  12.5   5.3  82  1021   ---   WSW    10    10   ---   0.7 Scattered Clouds/
08/12/2005 20:00       0.0   0.0   4.0  -6.7 100   ---   ---   WSW   ---   ---   ---   --- /
08/12/2005 21:00       0.0   0.0   4.0  -6.7 100   ---   ---   WSW   ---   ---   ---   --- /
08/12/2005 22:00       0.0   0.0   4.0  -6.7 100   ---   ---   WSW   ---   ---   ---   --- /
08/12/2005 23:00       0.0   0.0   4.0  -6.7 100   ---   ---   WSW   ---   ---   ---   --- /
09/12/2005 00:00       0.0   0.0   4.0  -6.7 100   ---   ---   WSW   ---   ---   ---   --- /
09/12/2005 01:00       0.0   0.0   4.0  -6.7 100   ---   ---   WSW   ---   ---   ---   --- /
09/12/2005 02:00       0.0   0.0   4.0  -6.7 100   ---   ---   WSW   ---   ---   ---   --- /
09/12/2005 03:00       0.0   0.0   4.0  -6.7 100   ---   ---   WSW   ---   ---   ---   --- /
09/12/2005 04:00       0.0   0.0   4.0  -6.7 100   ---   ---   WSW   ---   ---   ---   --- /
09/12/2005 05:00       0.0   0.0   4.0  -6.7 100   ---   ---   WSW   ---   ---   ---   --- /
09/12/2005 06:00       0.0   0.0   4.0  -6.7 100   ---   ---   WSW   ---   ---   ---   --- /
09/12/2005 06:55      13.0   8.0  14.8   4.4  72  1014   ---     W    21    21   ---   0.7 Overcast/
09/12/2005 07:55      13.0   8.0  14.8   5.8  72  1014   ---   WSW    16    34   ---   0.7 Overcast/
09/12/2005 08:55      13.0   9.0  15.1   7.4  77  1014   ---   WSW    13    13   ---   --- Overcast/ Light Rain
09/12/2005 09:55      12.0   9.0  14.5   4.5  82  1015   ---    SW    16    16   ---   --- Overcast/ Light Rain
09/12/2005 10:55      12.0   9.0  14.5  12.0  82  1015   ---   WNW     5     5   ---   --- Overcast/ Light Rain
09/12/2005 11:55      12.0   9.0  14.5  10.1  82  1013   ---   WSW     6     6   ---   0.8 Broken Clouds/
09/12/2005 12:55      13.0   9.0  15.1   7.4  77  1013   ---     W    13    13   ---   0.7 Broken Clouds/
09/12/2005 14:00       0.0   0.0   4.0  -9.2 100   ---   ---     W   ---   ---   ---   --- /
09/12/2005 14:55      14.0   7.0  15.2  10.8  63  1013   ---     W     8     8   ---   0.7 Scattered Clouds/
09/12/2005 15:55      13.0   7.0  14.4  13.0  67  1013   ---     N     0     0   ---   0.7 Scattered Clouds/
09/12/2005 15:55      13.0   7.0  14.4  13.0  67  1013   ---   ---     0     0   ---   0.7 Scattered Clouds/None reported
09/12/2005 16:55      11.0   7.0  13.1  11.0  76  1016   ---     W     5     5   ---   0.8 Few Clouds/
09/12/2005 17:55      10.0   6.0  12.1   7.9  76  1014   ---   WSW     6     6   ---   --- /
09/12/2005 18:55      10.0   6.0  12.1  10.0  76  1014   ---     N     0     0   ---   --- /
09/12/2005 20:00       0.0   0.0   4.0   0.0 100   ---   ---     N   ---   ---   ---   --- /
09/12/2005 21:00       0.0   0.0   4.0   0.0 100   ---   ---     N   ---   ---   ---   --- /
09/12/2005 22:00       0.0   0.0   4.0   0.0 100   ---   ---     N   ---   ---   ---   --- /
09/12/2005 23:00       0.0   0.0   4.0   0.0 100   ---   ---     N   ---   ---   ---   --- /
10/12/2005 00:00       0.0   0.0   4.0   0.0 100   ---   ---     N   ---   ---   ---   --- /
10/12/2005 01:00       0.0   0.0   4.0   0.0 100   ---   ---     N   ---   ---   ---   --- /
10/12/2005 02:00       0.0   0.0   4.0   0.0 100   ---   ---     N   ---   ---   ---   --- /
10/12/2005 03:00       0.0   0.0   4.0   0.0 100   ---   ---     N   ---   ---   ---   --- /
10/12/2005 04:00       0.0   0.0   4.0   0.0 100   ---   ---     N   ---   ---   ---   --- /
10/12/2005 05:00       0.0   0.0   4.0   0.0 100   ---   ---     N   ---   ---   ---   --- /
10/12/2005 06:00       0.0   0.0   4.0   0.0 100   ---   ---     N   ---   ---   ---   --- /
10/12/2005 06:55      10.0   8.0  12.9  10.0  87  1015   ---   ---     0     0   ---   0.6 Broken Clouds/
10/12/2005 07:55      10.0   8.0  12.9  10.0  87  1015   ---   ---     0     0   ---   0.6 Broken Clouds/
10/12/2005 08:55      11.0   9.0  13.9  11.0  87  1015   ---    NW     5     5   ---   --- Overcast/ Light Rain
10/12/2005 09:55      11.0   9.0  13.9  11.0  87  1016   ---   WNW     5     5   ---   0.5 Broken Clouds/
10/12/2005 10:55      11.0  10.0  14.4  11.0  94  1016   ---     N     0     0   ---   0.5 Broken Clouds/
10/12/2005 11:55      13.0   9.0  15.1  13.0  77  1015   ---   NNE     3     3   ---   0.5 Broken Clouds/
10/12/2005 12:55      13.0   9.0  15.1  11.2  77  1015   ---   NNE     6     6   ---   0.7 Broken Clouds/
10/12/2005 13:55      13.0  10.0  15.5  13.0  82  1015   ---     N     0     0   ---   0.7 Broken Clouds/
10/12/2005 14:55      13.0  10.0  15.5   9.7  82  1015   ---    NE     8     8   ---   0.6 Broken Clouds/
10/12/2005 15:55      12.0  10.0  14.9  12.0  88  1015   ---   ESE     5     5   ---   --- Overcast/ Light Rain
10/12/2005 16:55      12.0   9.0  14.5  10.1  82  1015   ---     N     6     6   ---   0.4 Overcast/
10/12/2005 17:55      11.0   9.0  13.9  11.0  87  1016   ---   NNE     5     5   ---   0.4 Broken Clouds/
10/12/2005 18:55      11.0   9.0  13.9  11.0  87  1016   ---     N     0     0   ---   0.4 Overcast/
10/12/2005 20:00       0.0   0.0   4.0   0.0 100   ---   ---     N   ---   ---   ---   --- /
10/12/2005 21:00       0.0   0.0   4.0   0.0 100   ---   ---     N   ---   ---   ---   --- /
10/12/2005 22:00       0.0   0.0   4.0   0.0 100   ---   ---     N   ---   ---   ---   --- /
10/12/2005 23:00       0.0   0.0   4.0   0.0 100   ---   ---     N   ---   ---   ---   --- /
11/12/2005 00:00       0.0   0.0   4.0   0.0 100   ---   ---     N   ---   ---   ---   --- /
11/12/2005 01:00       0.0   0.0   4.0   0.0 100   ---   ---     N   ---   ---   ---   --- /
11/12/2005 02:00       0.0   0.0   4.0   0.0 100   ---   ---     N   ---   ---   ---   --- /
11/12/2005 03:00       0.0   0.0   4.0   0.0 100   ---   ---     N   ---   ---   ---   --- /
11/12/2005 04:00       0.0   0.0   4.0   0.0 100   ---   ---     N   ---   ---   ---   --- /
11/12/2005 05:00       0.0   0.0   4.0   0.0 100   ---   ---     N   ---   ---   ---   --- /
11/12/2005 06:00       0.0   0.0   4.0   0.0 100   ---   ---     N   ---   ---   ---   --- /
11/12/2005 06:55      10.0   8.0  12.9  10.0  87  1013   ---   ---     0     0   ---   --- Overcast/ Rain
11/12/2005 07:55      10.0   8.0  12.9   7.9  87  1013   ---   ENE     6     6   ---   --- Overcast/ Rain
11/12/2005 08:55      10.0   8.0  12.9   6.2  87  1012   ---    SW     8     8   ---   --- Overcast/ Light Rain
11/12/2005 09:55      10.0   8.0  12.9  10.0  87  1013   ---   WNW     5     5   ---   --- Overcast/ Light Rain
11/12/2005 10:55      11.0   8.0  13.5  11.0  82  1013   ---     N     0     0   ---   0.5 Overcast/
11/12/2005 11:55      11.0   8.0  13.5  11.0  82  1012   ---   ---     0     0   ---   0.5 Broken Clouds/
11/12/2005 12:55      12.0   8.0  14.1  12.0  77  1011   ---   ---     0     0   ---   --- Overcast/ Light Rain
11/12/2005 13:55      13.0  10.0  15.5  13.0  82  1011   ---   ---     0     0   ---   0.5 Broken Clouds/
11/12/2005 14:55      13.0  10.0  15.5  11.2  82  1010   ---     E     6     6   ---   0.5 Broken Clouds/
11/12/2005 15:55      12.0  10.0  14.9  10.1  88  1010   ---     E     6     6   ---   0.5 Broken Clouds/
11/12/2005 16:55      11.0   9.0  13.9  11.0  87  1010   ---     N     0     0   ---   0.5 Broken Clouds/
11/12/2005 17:55      10.0   8.0  12.9  10.0  87  1011   ---   ---     0     0   ---   0.6 Broken Clouds/
11/12/2005 18:55      10.0   8.0  12.9   6.2  87  1011   ---   WSW     8     8   ---   0.6 Broken Clouds/
11/12/2005 18:55      10.0   8.0  12.9   6.2  87  1011   ---   WSW     8     8   ---   0.6 Broken Clouds/None reported
11/12/2005 20:00       0.0   0.0   4.0  -5.5 100   ---   ---   WSW   ---   ---   ---   --- /
11/12/2005 21:00       0.0   0.0   4.0  -5.5 100   ---   ---   WSW   ---   ---   ---   --- /
11/12/2005 22:00       0.0   0.0   4.0  -5.5 100   ---   ---   WSW   ---   ---   ---   --- /
11/12/2005 23:00       0.0   0.0   4.0  -5.5 100   ---   ---   WSW   ---   ---   ---   --- /
12/12/2005 00:00       0.0   0.0   4.0  -5.5 100   ---   ---   WSW   ---   ---   ---   --- /
12/12/2005 01:00       0.0   0.0   4.0  -5.5 100   ---   ---   WSW   ---   ---   ---   --- /
12/12/2005 02:00       0.0   0.0   4.0  -5.5 100   ---   ---   WSW   ---   ---   ---   --- /
12/12/2005 03:00       0.0   0.0   4.0  -5.5 100   ---   ---   WSW   ---   ---   ---   --- /
12/12/2005 04:00       0.0   0.0   4.0  -5.5 100   ---   ---   WSW   ---   ---   ---   --- /
12/12/2005 05:00       0.0   0.0   4.0  -5.5 100   ---   ---   WSW   ---   ---   ---   --- /
12/12/2005 06:00       0.0   0.0   4.0  -5.5 100   ---   ---   WSW   ---   ---   ---   --- /
12/12/2005 06:55       9.0   7.0  11.9   9.0  87  1015   ---     N     0     0   ---   --- /
12/12/2005 07:55       9.0   7.0  11.9   9.0  87  1016   ---   ---     0     0   ---   --- /
12/12/2005 08:55      11.0   8.0  13.5  11.0  82  1017   ---   SSW     3     3   ---   --- /
12/12/2005 09:55      13.0   9.0  15.1  13.0  77  1018   ---     N     0     0   ---   --- /
12/12/2005 10:55      15.0   8.0  16.2  15.0  63  1019   ---     E     3     3   ---   --- /
12/12/2005 11:55      15.0   8.0  16.2  15.0  63  1019   ---    NW     3     3   ---   0.7 Few Clouds/
12/12/2005 12:55      15.0   9.0  16.5  13.3  67  1019   ---     E     6     6   ---   0.7 Few Clouds/
12/12/2005 14:00       0.0   0.0   4.0  -3.0 100   ---   ---     E   ---   ---   ---   --- /
12/12/2005 14:55      15.0   9.0  16.5  15.0  67  1018   ---     N     5     5   ---   6.0 Few Clouds/
12/12/2005 15:55      13.0  10.0  15.5  13.0  82  1018   ---   WNW     5     5   ---   6.0 Few Clouds/
12/12/2005 16:55      12.0   9.0  14.5  12.0  82  1018   ---     N     0     0   ---   0.7 Few Clouds/
12/12/2005 17:55      11.0   9.0  13.9  11.0  87  1018   ---   WSW     5     5   ---   0.7 Scattered Clouds/
12/12/2005 18:55      11.0   8.0  13.5  11.0  82  1019   ---   WSW     5     5   ---   0.7 Broken Clouds/
12/12/2005 20:00       0.0   0.0   4.0   0.0 100   ---   ---   WSW   ---   ---   ---   --- /
12/12/2005 21:00       0.0   0.0   4.0   0.0 100   ---   ---   WSW   ---   ---   ---   --- /
12/12/2005 22:00       0.0   0.0   4.0   0.0 100   ---   ---   WSW   ---   ---   ---   --- /
12/12/2005 23:00       0.0   0.0   4.0   0.0 100   ---   ---   WSW   ---   ---   ---   --- /
13/12/2005 00:00       0.0   0.0   4.0   0.0 100   ---   ---   WSW   ---   ---   ---   --- /
13/12/2005 01:00       0.0   0.0   4.0   0.0 100   ---   ---   WSW   ---   ---   ---   --- /
13/12/2005 02:00       0.0   0.0   4.0   0.0 100   ---   ---   WSW   ---   ---   ---   --- /
13/12/2005 03:00       0.0   0.0   4.0   0.0 100   ---   ---   WSW   ---   ---   ---   --- /
13/12/2005 04:00       0.0   0.0   4.0   0.0 100   ---   ---   WSW   ---   ---   ---   --- /
13/12/2005 05:00       0.0   0.0   4.0   0.0 100   ---   ---   WSW   ---   ---   ---   --- /
13/12/2005 06:00       0.0   0.0   4.0   0.0 100   ---   ---   WSW   ---   ---   ---   --- /
13/12/2005 06:55      13.0  11.0  15.9   7.4  88  1012   ---    NE    13    13   ---   --- Overcast/ Light Rain
13/12/2005 07:55      13.0  11.0  15.9   5.8  88  1012   ---   ESE    16    16   ---   --- Overcast/ Light Rain
13/12/2005 08:55      12.0  11.0  15.4   8.5  94  1012   ---   SSE     8     8   ---   --- Overcast/ Light Rain
13/12/2005 09:55      12.0   9.0  14.5   6.2  82  1011   ---    SE    13    13   ---   --- Overcast/ Light Rain
13/12/2005 10:55      12.0  10.0  14.9  10.1  88  1010   ---   SSE     6     6   ---   --- Overcast/ Light Rain
13/12/2005 11:55      12.0  11.0  15.4   7.7  94  1009   ---    SE    10    10   ---   0.0 Overcast/
13/12/2005 12:55      12.0  11.0  15.4  12.0  94  1007   ---     E     5     5   ---   --- Overcast/ Light Rain
13/12/2005 14:00       0.0   0.0   4.0   0.0 100   ---   ---     E   ---   ---   ---   --- /
13/12/2005 14:55      12.0  11.0  15.4   4.1  94  1005   ---    SE    18    18   ---   --- Overcast/ Light Rain
13/12/2005 16:00       0.0   0.0   4.0 -12.4 100   ---   ---    SE   ---   ---   ---   --- /
13/12/2005 16:55      12.0  11.0  15.4  10.1  94  1004   ---   SSE     6     6   ---   --- Overcast/ Rain
13/12/2005 17:55      12.0  11.0  15.4  12.0  94  1005   ---     S     5     5   ---   --- Overcast/ Light Rain
13/12/2005 18:55      12.0  11.0  15.4  12.0  94  1004   ---   SSW     5     5   ---   0.0 Overcast/
13/12/2005 20:00       0.0   0.0   4.0   0.0 100   ---   ---   SSW   ---   ---   ---   --- /
13/12/2005 21:00       0.0   0.0   4.0   0.0 100   ---   ---   SSW   ---   ---   ---   --- /
13/12/2005 22:00       0.0   0.0   4.0   0.0 100   ---   ---   SSW   ---   ---   ---   --- /
13/12/2005 23:00       0.0   0.0   4.0   0.0 100   ---   ---   SSW   ---   ---   ---   --- /
14/12/2005 00:00       0.0   0.0   4.0   0.0 100   ---   ---   SSW   ---   ---   ---   --- /
14/12/2005 01:00       0.0   0.0   4.0   0.0 100   ---   ---   SSW   ---   ---   ---   --- /
14/12/2005 02:00       0.0   0.0   4.0   0.0 100   ---   ---   SSW   ---   ---   ---   --- /
14/12/2005 03:00       0.0   0.0   4.0   0.0 100   ---   ---   SSW   ---   ---   ---   --- /
14/12/2005 04:00       0.0   0.0   4.0   0.0 100   ---   ---   SSW   ---   ---   ---   --- /
14/12/2005 05:00       0.0   0.0   4.0   0.0 100   ---   ---   SSW   ---   ---   ---   --- /
14/12/2005 06:00       0.0   0.0   4.0   0.0 100   ---   ---   SSW   ---   ---   ---   --- /
14/12/2005 06:55      13.0  12.0  16.4   4.4  94   998   ---     E    21    21   ---   0.4 Broken Clouds/
14/12/2005 07:55      13.0  11.0  15.9   4.0  88   999   ---     E    23    23   ---   --- Overcast/ Light Rain
14/12/2005 09:00       0.0   0.0   4.0 -14.8 100   ---   ---     E   ---   ---   ---   --- /
14/12/2005 09:55      13.0  12.0  16.4   3.4  94  1000   ---     E    26    26   ---   0.4 Broken Clouds/
14/12/2005 10:55      13.0  12.0  16.4   3.4  94  1000   ---   ENE    26    26   ---   0.4 Broken Clouds/
14/12/2005 12:00       0.0   0.0   4.0 -15.9 100   ---   ---   ENE   ---   ---   ---   --- /
14/12/2005 13:00       0.0   0.0   4.0 -15.9 100   ---   ---   ENE   ---   ---   ---   --- /
14/12/2005 15:00       0.0   0.0   4.0 -15.9 100   ---   ---   ENE   ---   ---   ---   --- /
14/12/2005 16:00       0.0   0.0   4.0 -15.9 100   ---   ---   ENE   ---   ---   ---   --- /
14/12/2005 17:00       0.0   0.0   4.0 -15.9 100   ---   ---   ENE   ---   ---   ---   --- /
14/12/2005 17:55      13.0  12.0  16.4   7.4  94  1002   ---    NE    13    13   ---   0.4 Broken Clouds/
14/12/2005 18:55      13.0  12.0  16.4  13.0  94  1004   ---     E     5     5   ---   0.4 Broken Clouds/
14/12/2005 20:00       0.0   0.0   4.0   0.0 100   ---   ---     E   ---   ---   ---   --- /
14/12/2005 21:00       0.0   0.0   4.0   0.0 100   ---   ---     E   ---   ---   ---   --- /
14/12/2005 22:00       0.0   0.0   4.0   0.0 100   ---   ---     E   ---   ---   ---   --- /
14/12/2005 23:00       0.0   0.0   4.0   0.0 100   ---   ---     E   ---   ---   ---   --- /
15/12/2005 00:00       0.0   0.0   4.0   0.0 100   ---   ---     E   ---   ---   ---   --- /
15/12/2005 01:00       0.0   0.0   4.0   0.0 100   ---   ---     E   ---   ---   ---   --- /
15/12/2005 02:00       0.0   0.0   4.0   0.0 100   ---   ---     E   ---   ---   ---   --- /
15/12/2005 03:00       0.0   0.0   4.0   0.0 100   ---   ---     E   ---   ---   ---   --- /
15/12/2005 04:00       0.0   0.0   4.0   0.0 100   ---   ---     E   ---   ---   ---   --- /
15/12/2005 06:55      13.0  11.0  15.9   9.7  88  1011   ---    NW     8     8   ---   0.7 Broken Clouds/
15/12/2005 07:55      13.0  11.0  15.9  11.2  88  1012   ---    NW     6     6   ---   0.7 Broken Clouds/
15/12/2005 08:55      13.0  10.0  15.5  13.0  82  1012   ---     N     0     0   ---   0.6 Broken Clouds/
15/12/2005 09:55      14.0  11.0  16.5  14.0  82  1012   ---   ---     0     0   ---   0.7 Scattered Clouds/
15/12/2005 10:55      15.0  11.0  17.1  13.3  77  1012   ---   SSE     6     6   ---   0.6 Scattered Clouds/
15/12/2005 12:00       0.0   0.0   4.0  -3.0 100   ---   ---   SSE   ---   ---   ---   --- /
15/12/2005 12:55      15.0  11.0  17.1  12.0  77  1012   ---     W     8     8   ---   0.7 Broken Clouds/
15/12/2005 14:00       0.0   0.0   4.0  -5.5 100   ---   ---     W   ---   ---   ---   --- /
15/12/2005 14:55      14.0  10.0  16.1  14.0  77  1011   ---   NNW     5     5   ---   --- Overcast/ Light Rain
15/12/2005 15:55      14.0  11.0  16.5  14.0  82  1011   ---     N     0     0   ---   0.7 Overcast/
15/12/2005 16:55      13.0  11.0  15.9  13.0  88  1012   ---   ---     0     0   ---   --- Overcast/ Light Rain
15/12/2005 17:55      12.0  10.0  14.9  12.0  88  1012   ---   SSE     5     5   ---   0.5 Overcast/
15/12/2005 18:55      12.0  10.0  14.9  12.0  88  1013   ---    SW     3     3   ---   0.5 Overcast/
15/12/2005 18:55      12.0  10.0  14.9  12.0  88  1013   ---    SW     3     3   ---   0.5 Overcast/None reported
15/12/2005 20:00       0.0   0.0   4.0   0.0 100   ---   ---    SW   ---   ---   ---   --- /
15/12/2005 21:00       0.0   0.0   4.0   0.0 100   ---   ---    SW   ---   ---   ---   --- /
15/12/2005 22:00       0.0   0.0   4.0   0.0 100   ---   ---    SW   ---   ---   ---   --- /
15/12/2005 23:00       0.0   0.0   4.0   0.0 100   ---   ---    SW   ---   ---   ---   --- /
16/12/2005 00:00       0.0   0.0   4.0   0.0 100   ---   ---    SW   ---   ---   ---   --- /
16/12/2005 01:00       0.0   0.0   4.0   0.0 100   ---   ---    SW   ---   ---   ---   --- /
16/12/2005 02:00       0.0   0.0   4.0   0.0 100   ---   ---    SW   ---   ---   ---   --- /
16/12/2005 03:00       0.0   0.0   4.0   0.0 100   ---   ---    SW   ---   ---   ---   --- /
16/12/2005 04:00       0.0   0.0   4.0   0.0 100   ---   ---    SW   ---   ---   ---   --- /
16/12/2005 05:00       0.0   0.0   4.0   0.0 100   ---   ---    SW   ---   ---   ---   --- /
16/12/2005 06:00       0.0   0.0   4.0   0.0 100   ---   ---    SW   ---   ---   ---   --- /
16/12/2005 06:55      11.0   9.0  13.9   9.0  87  1013   ---    NW     6     6   ---   0.7 Overcast/
16/12/2005 07:55      11.0   9.0  13.9   9.0  87  1013   ---    NW     6     6   ---   0.7 Broken Clouds/
16/12/2005 08:55      11.0   9.0  13.9  11.0  87  1014   ---   WNW     3     3   ---   0.7 Broken Clouds/
16/12/2005 09:55      13.0   9.0  15.1  13.0  77  1014   ---     N     0     0   ---   0.7 Broken Clouds/
16/12/2005 10:55      13.0   9.0  15.1  11.2  77  1014   ---    NW     6     6   ---   0.7 Broken Clouds/
16/12/2005 11:55      14.0   9.0  15.8  10.1  72  1013   ---    NW    10    10   ---   0.7 Broken Clouds/
16/12/2005 12:55      13.0  10.0  15.5   8.9  82  1013   ---    NW    10    10   ---   0.8 Broken Clouds/
16/12/2005 13:55      13.0  10.0  15.5   9.7  82  1012   ---     W     8     8   ---   0.8 Broken Clouds/
16/12/2005 14:55      12.0  10.0  14.9   4.1  88  1012   ---     W    18    18   ---   0.7 Overcast/
16/12/2005 15:55      12.0   9.0  14.5   6.2  82  1012   ---   WNW    13    13   ---   0.7 Broken Clouds/
16/12/2005 16:55      12.0   9.0  14.5   4.5  82  1012   ---     W    16    16   ---   0.7 Broken Clouds/
16/12/2005 17:55      12.0   8.0  14.1  12.0  77  1012   ---     W     5     5   ---   0.7 Broken Clouds/
16/12/2005 18:55      12.0   8.0  14.1  12.0  77  1012   ---   NNW     3     3   ---   0.7 Broken Clouds/
16/12/2005 20:00       0.0   0.0   4.0   0.0 100   ---   ---   NNW   ---   ---   ---   --- /
16/12/2005 21:00       0.0   0.0   4.0   0.0 100   ---   ---   NNW   ---   ---   ---   --- /
16/12/2005 22:00       0.0   0.0   4.0   0.0 100   ---   ---   NNW   ---   ---   ---   --- /
16/12/2005 23:00       0.0   0.0   4.0   0.0 100   ---   ---   NNW   ---   ---   ---   --- /
17/12/2005 00:00       0.0   0.0   4.0   0.0 100   ---   ---   NNW   ---   ---   ---   --- /
17/12/2005 01:00       0.0   0.0   4.0   0.0 100   ---   ---   NNW   ---   ---   ---   --- /
17/12/2005 02:00       0.0   0.0   4.0   0.0 100   ---   ---   NNW   ---   ---   ---   --- /
17/12/2005 03:00       0.0   0.0   4.0   0.0 100   ---   ---   NNW   ---   ---   ---   --- /
17/12/2005 04:00       0.0   0.0   4.0   0.0 100   ---   ---   NNW   ---   ---   ---   --- /
17/12/2005 05:00       0.0   0.0   4.0   0.0 100   ---   ---   NNW   ---   ---   ---   --- /
17/12/2005 06:00       0.0   0.0   4.0   0.0 100   ---   ---   NNW   ---   ---   ---   --- /
17/12/2005 06:55      12.0  12.0  16.0   3.0 100  1004   ---     W    21    47   ---   0.6 Broken Clouds/
17/12/2005 07:55      13.0  12.0  16.4   5.8  94  1004   ---     W    16    16   ---   --- Overcast/ Light Rain
17/12/2005 08:55      13.0  12.0  16.4   5.5  94  1004   ---   WNW    18    18   ---   --- Overcast/ Light Rain
17/12/2005 09:55      13.0  12.0  16.4   5.8  94  1004   ---     W    16    16   ---   --- Overcast/ Light Rain
17/12/2005 10:55      13.0  12.0  16.4   4.8  94  1004   ---   WNW    19    40   ---   --- Overcast/ Light Rain
17/12/2005 11:55      14.0  12.0  17.0   4.4  88  1002   ---   WNW    29    29   ---   --- Overcast/ Light Rain
17/12/2005 12:55      14.0  12.0  17.0   3.8  88  1001   ---   WNW    34    58   ---   --- Overcast/ Light Rain
17/12/2005 13:55      14.0  12.0  17.0   3.9  88  1001   ---   WNW    32    58   ---   --- Overcast/ Light Rain
17/12/2005 14:55      13.0  12.0  16.4   2.2  94  1001   ---   WNW    34    69   ---   --- Overcast/ Light Rain
17/12/2005 15:55      14.0  12.0  17.0   4.1  88  1000   ---   WNW    31    31   ---   --- Overcast/ Light Rain
17/12/2005 16:55      14.0  11.0  16.5   3.9  82  1001   ---   WNW    32    68   ---   0.5 Overcast/
17/12/2005 17:55      14.0  11.0  16.5   3.2  82  1000   ---   WNW    40    74   ---   0.5 Broken Clouds/
17/12/2005 18:55      14.0  10.0  16.1   3.3  77  1000   ---   WNW    39    58   ---   0.5 Broken Clouds/
17/12/2005 20:00       0.0   0.0   4.0 -18.6 100   ---   ---   WNW   ---   ---   ---   --- /
17/12/2005 21:00       0.0   0.0   4.0 -18.6 100   ---   ---   WNW   ---   ---   ---   --- /
17/12/2005 22:00       0.0   0.0   4.0 -18.6 100   ---   ---   WNW   ---   ---   ---   --- /
17/12/2005 23:00       0.0   0.0   4.0 -18.6 100   ---   ---   WNW   ---   ---   ---   --- /
18/12/2005 00:00       0.0   0.0   4.0 -18.6 100   ---   ---   WNW   ---   ---   ---   --- /
18/12/2005 01:00       0.0   0.0   4.0 -18.6 100   ---   ---   WNW   ---   ---   ---   --- /
18/12/2005 02:00       0.0   0.0   4.0 -18.6 100   ---   ---   WNW   ---   ---   ---   --- /
18/12/2005 03:00       0.0   0.0   4.0 -18.6 100   ---   ---   WNW   ---   ---   ---   --- /
18/12/2005 04:00       0.0   0.0   4.0 -18.6 100   ---   ---   WNW   ---   ---   ---   --- /
18/12/2005 05:00       0.0   0.0   4.0 -18.6 100   ---   ---   WNW   ---   ---   ---   --- /
18/12/2005 06:00       0.0   0.0   4.0 -18.6 100   ---   ---   WNW   ---   ---   ---   --- /
18/12/2005 06:55       9.0   7.0  11.9   4.1  87  1006   ---    NW    10    10   ---   0.6 Overcast/
18/12/2005 07:55      10.0   5.0  11.7   0.1  71  1007   ---   NNW    21    50   ---   0.6 Overcast/
18/12/2005 08:55      10.0   2.0  10.9  -1.1  58  1008   ---   NNW    26    45   ---   0.7 Broken Clouds/
18/12/2005 10:00       0.0   0.0   4.0 -15.9 100   ---   ---   NNW   ---   ---   ---   --- /
18/12/2005 10:55       9.0   3.0  10.4  -3.5  66  1011   ---     N    31    53   ---   0.7 Broken Clouds/
18/12/2005 12:00       0.0   0.0   4.0 -17.1 100   ---   ---     N   ---   ---   ---   --- /
18/12/2005 12:55       8.0   4.0  10.0   0.0  76  1011   ---   NNW    14    14   ---   --- Overcast/ Light Rain
18/12/2005 13:55       8.0   2.0   9.4  -2.3  66  1012   ---     N    19    39   ---   0.7 Broken Clouds/
18/12/2005 14:55       8.0   3.0   9.7   2.9  71  1014   ---   NNE    10    10   ---   0.7 Broken Clouds/
18/12/2005 15:55       8.0   3.0   9.7   0.0  71  1014   ---   NNE    14    14   ---   0.7 Broken Clouds/
18/12/2005 16:55       8.0   2.0   9.4  -2.7  66  1016   ---   NNE    21    21   ---   0.7 Broken Clouds/
18/12/2005 17:55       7.0   2.0   8.7   7.0  70  1017   ---   NNW     5     5   ---   0.7 Scattered Clouds/
18/12/2005 18:55       8.0  -4.0   8.1   1.0  42  1017   ---   NNW    13    13   ---   0.7 Scattered Clouds/
18/12/2005 20:00       0.0   0.0   4.0  -9.2 100   ---   ---   NNW   ---   ---   ---   --- /
18/12/2005 21:00       0.0   0.0   4.0  -9.2 100   ---   ---   NNW   ---   ---   ---   --- /
18/12/2005 22:00       0.0   0.0   4.0  -9.2 100   ---   ---   NNW   ---   ---   ---   --- /
18/12/2005 23:00       0.0   0.0   4.0  -9.2 100   ---   ---   NNW   ---   ---   ---   --- /
19/12/2005 00:00       0.0   0.0   4.0  -9.2 100   ---   ---   NNW   ---   ---   ---   --- /
19/12/2005 01:00       0.0   0.0   4.0  -9.2 100   ---   ---   NNW   ---   ---   ---   --- /
19/12/2005 02:00       0.0   0.0   4.0  -9.2 100   ---   ---   NNW   ---   ---   ---   --- /
19/12/2005 03:00       0.0   0.0   4.0  -9.2 100   ---   ---   NNW   ---   ---   ---   --- /
19/12/2005 04:00       0.0   0.0   4.0  -9.2 100   ---   ---   NNW   ---   ---   ---   --- /
19/12/2005 05:00       0.0   0.0   4.0  -9.2 100   ---   ---   NNW   ---   ---   ---   --- /
19/12/2005 06:00       0.0   0.0   4.0  -9.2 100   ---   ---   NNW   ---   ---   ---   --- /
19/12/2005 06:55       7.0   4.0   9.4   7.0  81  1023   ---     N     0     0   ---   0.8 Overcast/
19/12/2005 07:55       7.0   5.0   9.9   7.0  87  1024   ---   WNW     3     3   ---   0.8 Overcast/
19/12/2005 08:55       7.0   5.0   9.9   7.0  87  1025   ---     W     3     3   ---   0.8 Broken Clouds/
19/12/2005 09:55       7.0   5.0   9.9   7.0  87  1026   ---    SW     3     3   ---   0.8 Broken Clouds/
19/12/2005 10:55       8.0   5.0  10.5   8.0  81  1026   ---     N     0     0   ---   0.7 Broken Clouds/
19/12/2005 11:55      11.0   3.0  11.9  11.0  58  1026   ---     E     3     3   ---   0.7 Scattered Clouds/
19/12/2005 12:55      11.0   2.0  11.6   7.3  54  1026   ---    NE     8     8   ---   0.7 Scattered Clouds/
19/12/2005 14:00       0.0   0.0   4.0  -5.5 100   ---   ---    NE   ---   ---   ---   --- /
19/12/2005 14:55      10.0   2.0  10.9   6.2  58  1025   ---     E     8     8   ---   0.7 Scattered Clouds/
19/12/2005 15:55       9.0   2.0  10.1   9.0  62  1026   ---   ENE     5     5   ---   0.7 Scattered Clouds/
19/12/2005 16:55       9.0   3.0  10.4   9.0  66  1026   ---   WNW     3     3   ---   0.7 Scattered Clouds/
19/12/2005 17:55       7.0   3.0   9.0   4.6  76  1026   ---     W     6     6   ---   0.7 Scattered Clouds/
19/12/2005 18:55       6.0   3.0   8.4   3.5  81  1027   ---   WSW     6     6   ---   0.7 Few Clouds/
19/12/2005 20:00       0.0   0.0   4.0  -3.0 100   ---   ---   WSW   ---   ---   ---   --- /
19/12/2005 21:00       0.0   0.0   4.0  -3.0 100   ---   ---   WSW   ---   ---   ---   --- /
19/12/2005 22:00       0.0   0.0   4.0  -3.0 100   ---   ---   WSW   ---   ---   ---   --- /
19/12/2005 23:00       0.0   0.0   4.0  -3.0 100   ---   ---   WSW   ---   ---   ---   --- /
20/12/2005 00:00       0.0   0.0   4.0  -3.0 100   ---   ---   WSW   ---   ---   ---   --- /
20/12/2005 01:00       0.0   0.0   4.0  -3.0 100   ---   ---   WSW   ---   ---   ---   --- /
20/12/2005 02:00       0.0   0.0   4.0  -3.0 100   ---   ---   WSW   ---   ---   ---   --- /
20/12/2005 03:00       0.0   0.0   4.0  -3.0 100   ---   ---   WSW   ---   ---   ---   --- /
20/12/2005 04:00       0.0   0.0   4.0  -3.0 100   ---   ---   WSW   ---   ---   ---   --- /
20/12/2005 05:00       0.0   0.0   4.0  -3.0 100   ---   ---   WSW   ---   ---   ---   --- /
20/12/2005 06:00       0.0   0.0   4.0  -3.0 100   ---   ---   WSW   ---   ---   ---   --- /
20/12/2005 06:55       5.0   3.0   7.9  -0.7  87  1027   ---   WSW    10    10   ---   0.7 Scattered Clouds/
20/12/2005 08:55       7.0   4.0   9.4   4.6  81  1028   ---   WSW     6     6   ---   0.7 Few Clouds/
20/12/2005 09:55      10.0   4.0  11.4  10.0  66  1028   ---     N     0     0   ---   0.7 Scattered Clouds/
20/12/2005 10:55      10.0   4.0  11.4   7.9  66  1028   ---   NNE     6     6   ---   0.7 Scattered Clouds/
20/12/2005 11:55      11.0   3.0  11.9  11.0  58  1028   ---   ESE     5     5   ---   0.7 Scattered Clouds/
20/12/2005 12:55      11.0   3.0  11.9   7.3  58  1027   ---   ESE     8     8   ---   0.7 Broken Clouds/
20/12/2005 14:00       0.0   0.0   4.0  -5.5 100   ---   ---   ESE   ---   ---   ---   --- /
20/12/2005 14:55      11.0   4.0  12.1  11.0  62  1027   ---     N     0     0   ---   0.7 Broken Clouds/
20/12/2005 15:55      10.0   4.0  11.4  10.0  66  1027   ---   ---     0     0   ---   0.7 Broken Clouds/
20/12/2005 15:55      10.0   4.0  11.4  10.0  66  1027   ---   ---     0     0   ---   0.7 Broken Clouds/None reported
20/12/2005 16:55       9.0   5.0  11.1   9.0  76  1027   ---   ---     0     0   ---   0.7 Scattered Clouds/
20/12/2005 17:55       7.0   4.0   9.4   2.7  81  1027   ---   WSW     8     8   ---   6.0 Scattered Clouds/
20/12/2005 18:55       7.0   4.0   9.4   4.6  81  1027   ---   WSW     6     6   ---   6.0 Scattered Clouds/
20/12/2005 20:00       0.0   0.0   4.0  -3.0 100   ---   ---   WSW   ---   ---   ---   --- /
20/12/2005 21:00       0.0   0.0   4.0  -3.0 100   ---   ---   WSW   ---   ---   ---   --- /
20/12/2005 22:00       0.0   0.0   4.0  -3.0 100   ---   ---   WSW   ---   ---   ---   --- /
20/12/2005 23:00       0.0   0.0   4.0  -3.0 100   ---   ---   WSW   ---   ---   ---   --- /
21/12/2005 00:00       0.0   0.0   4.0  -3.0 100   ---   ---   WSW   ---   ---   ---   --- /
21/12/2005 02:00       0.0   0.0   4.0  -3.0 100   ---   ---   WSW   ---   ---   ---   --- /
21/12/2005 04:00       0.0   0.0   4.0  -3.0 100   ---   ---   WSW   ---   ---   ---   --- /
21/12/2005 05:00       0.0   0.0   4.0  -3.0 100   ---   ---   WSW   ---   ---   ---   --- /
21/12/2005 06:00       0.0   0.0   4.0  -3.0 100   ---   ---   WSW   ---   ---   ---   --- /
21/12/2005 06:55       7.0   3.0   9.0   4.6  76  1015   ---     W     6     6   ---   2.4 Broken Clouds/
21/12/2005 08:55       7.0   3.0   9.0   7.0  76  1026   ---     W     3     3   ---   0.7 Scattered Clouds/
21/12/2005 09:55      10.0   4.0  11.4  10.0  66  1027   ---     N     0     0   ---   0.7 Few Clouds/
21/12/2005 10:55      13.0   4.0  13.7  13.0  54  1026   ---     E     5     5   ---   0.8 Few Clouds/
21/12/2005 11:55      12.0   4.0  12.9  10.1  58  1026   ---    SE     6     6   ---   0.8 Few Clouds/
21/12/2005 14:00       0.0   0.0   4.0  -3.0 100   ---   ---    SE   ---   ---   ---   --- /
21/12/2005 14:55      12.0   4.0  12.9  12.0  58  1025   ---   ENE     5     5   ---   0.8 Few Clouds/
21/12/2005 15:55      11.0   4.0  12.1   9.0  62  1026   ---   ENE     6     6   ---   0.9 Scattered Clouds/
21/12/2005 16:55      10.0   5.0  11.7  10.0  71  1026   ---   NNW     3     3   ---   0.9 Scattered Clouds/
21/12/2005 16:55      10.0   5.0  11.7  10.0  71  1026   ---   NNW     3     3   ---   0.9 Scattered Clouds/None reported
21/12/2005 17:55       9.0   5.0  11.1   6.8  76  1026   ---   WSW     6     6   ---   0.9 Scattered Clouds/
21/12/2005 18:55       8.0   4.0  10.0   5.7  76  1026   ---   WSW     6     6   ---   0.9 Few Clouds/
21/12/2005 20:00       0.0   0.0   4.0  -3.0 100   ---   ---   WSW   ---   ---   ---   --- /
21/12/2005 21:00       0.0   0.0   4.0  -3.0 100   ---   ---   WSW   ---   ---   ---   --- /
21/12/2005 22:00       0.0   0.0   4.0  -3.0 100   ---   ---   WSW   ---   ---   ---   --- /
22/12/2005 00:00       0.0   0.0   4.0  -3.0 100   ---   ---   WSW   ---   ---   ---   --- /
22/12/2005 01:00       0.0   0.0   4.0  -3.0 100   ---   ---   WSW   ---   ---   ---   --- /
22/12/2005 02:00       0.0   0.0   4.0  -3.0 100   ---   ---   WSW   ---   ---   ---   --- /
22/12/2005 03:00       0.0   0.0   4.0  -3.0 100   ---   ---   WSW   ---   ---   ---   --- /
22/12/2005 04:00       0.0   0.0   4.0  -3.0 100   ---   ---   WSW   ---   ---   ---   --- /
22/12/2005 05:00       0.0   0.0   4.0  -3.0 100   ---   ---   WSW   ---   ---   ---   --- /
22/12/2005 06:00       0.0   0.0   4.0  -3.0 100   ---   ---   WSW   ---   ---   ---   --- /
22/12/2005 06:55       8.0   5.0  10.5   8.0  81  1027   ---     N     0     0   ---   0.7 Broken Clouds/
22/12/2005 07:55       8.0   5.0  10.5   3.8  81  1028   ---    NW     8     8   ---   0.6 Broken Clouds/
22/12/2005 08:55       8.0   6.0  10.9   8.0  87  1028   ---     N     0     0   ---   --- Overcast/ Light Rain
22/12/2005 09:55      10.0   7.0  12.5  10.0  82  1029   ---   ---     0     0   ---   0.6 Broken Clouds/
22/12/2005 10:55      12.0   7.0  13.7  10.1  71  1029   ---     S     6     6   ---   0.7 Scattered Clouds/
22/12/2005 11:55      13.0   8.0  14.8  11.2  72  1028   ---   NNE     6     6   ---   0.7 Broken Clouds/
22/12/2005 12:55      12.0   6.0  13.4  10.1  67  1028   ---   NNW     6     6   ---   0.7 Broken Clouds/
22/12/2005 13:55      12.0   5.0  13.1   6.2  62  1027   ---     N    13    13   ---   0.7 Broken Clouds/
22/12/2005 14:55      12.0   5.0  13.1  12.0  62  1027   ---     N     5     5   ---   0.7 Broken Clouds/
22/12/2005 15:55      12.0   5.0  13.1  12.0  62  1027   ---     N     0     0   ---   0.8 Scattered Clouds/
22/12/2005 16:55      10.0   6.0  12.1  10.0  76  1027   ---   WNW     3     3   ---   0.8 Scattered Clouds/
22/12/2005 17:55       9.0   5.0  11.1   6.8  76  1027   ---     W     6     6   ---   0.8 Scattered Clouds/
22/12/2005 18:55       8.0   5.0  10.5   8.0  81  1027   ---     N     0     0   ---   --- /
22/12/2005 20:00       0.0   0.0   4.0   0.0 100   ---   ---     N   ---   ---   ---   --- /
22/12/2005 21:00       0.0   0.0   4.0   0.0 100   ---   ---     N   ---   ---   ---   --- /
22/12/2005 22:00       0.0   0.0   4.0   0.0 100   ---   ---     N   ---   ---   ---   --- /
22/12/2005 23:00       0.0   0.0   4.0   0.0 100   ---   ---     N   ---   ---   ---   --- /
23/12/2005 00:00       0.0   0.0   4.0   0.0 100   ---   ---     N   ---   ---   ---   --- /
23/12/2005 01:00       0.0   0.0   4.0   0.0 100   ---   ---     N   ---   ---   ---   --- /
23/12/2005 02:00       0.0   0.0   4.0   0.0 100   ---   ---     N   ---   ---   ---   --- /
23/12/2005 03:00       0.0   0.0   4.0   0.0 100   ---   ---     N   ---   ---   ---   --- /
23/12/2005 04:00       0.0   0.0   4.0   0.0 100   ---   ---     N   ---   ---   ---   --- /
23/12/2005 05:00       0.0   0.0   4.0   0.0 100   ---   ---     N   ---   ---   ---   --- /
23/12/2005 06:00       0.0   0.0   4.0   0.0 100   ---   ---     N   ---   ---   ---   --- /
23/12/2005 06:55       9.0   6.0  11.5   9.0  81  1024   ---   ---     0     0   ---   0.9 Broken Clouds/
23/12/2005 07:55       9.0   6.0  11.5   9.0  81  1024   ---   ---     0     0   ---   0.9 Broken Clouds/
23/12/2005 08:55       9.0   7.0  11.9   9.0  87  1024   ---   ---     0     0   ---   0.7 Broken Clouds/
23/12/2005 09:55      10.0   7.0  12.5  10.0  82  1024   ---   ---     0     0   ---   0.7 Broken Clouds/
23/12/2005 10:55      12.0   7.0  13.7  12.0  71  1024   ---   ---     0     0   ---   0.7 Broken Clouds/
23/12/2005 11:55      13.0   7.0  14.4   5.5  67  1023   ---   WNW    18    18   ---   0.7 Broken Clouds/
23/12/2005 12:55      13.0   5.0  13.9  13.0  58  1022   ---   NNW     5     5   ---   0.7 Broken Clouds/
23/12/2005 14:00       0.0   0.0   4.0   0.0 100   ---   ---   NNW   ---   ---   ---   --- /
23/12/2005 14:55      12.0   7.0  13.7   8.5  71  1021   ---    NW     8     8   ---   0.7 Broken Clouds/
23/12/2005 15:55      12.0   7.0  13.7  12.0  71  1022   ---     N     5     5   ---   0.7 Broken Clouds/
23/12/2005 16:55      12.0   8.0  14.1   7.7  77  1022   ---     N    10    10   ---   0.6 Broken Clouds/
23/12/2005 17:55      11.0   7.0  13.1  11.0  76  1022   ---     N     3     3   ---   0.6 Broken Clouds/
23/12/2005 18:55      11.0   7.0  13.1  11.0  76  1022   ---   WNW     3     3   ---   0.6 Broken Clouds/
23/12/2005 20:00       0.0   0.0   4.0   0.0 100   ---   ---   WNW   ---   ---   ---   --- /
23/12/2005 21:00       0.0   0.0   4.0   0.0 100   ---   ---   WNW   ---   ---   ---   --- /
23/12/2005 22:00       0.0   0.0   4.0   0.0 100   ---   ---   WNW   ---   ---   ---   --- /
23/12/2005 23:00       0.0   0.0   4.0   0.0 100   ---   ---   WNW   ---   ---   ---   --- /
24/12/2005 00:00       0.0   0.0   4.0   0.0 100   ---   ---   WNW   ---   ---   ---   --- /
24/12/2005 01:00       0.0   0.0   4.0   0.0 100   ---   ---   WNW   ---   ---   ---   --- /
24/12/2005 02:00       0.0   0.0   4.0   0.0 100   ---   ---   WNW   ---   ---   ---   --- /
24/12/2005 03:00       0.0   0.0   4.0   0.0 100   ---   ---   WNW   ---   ---   ---   --- /
24/12/2005 04:00       0.0   0.0   4.0   0.0 100   ---   ---   WNW   ---   ---   ---   --- /
24/12/2005 05:00       0.0   0.0   4.0   0.0 100   ---   ---   WNW   ---   ---   ---   --- /
24/12/2005 06:00       0.0   0.0   4.0   0.0 100   ---   ---   WNW   ---   ---   ---   --- /
24/12/2005 06:55       7.0   4.0   9.4   2.7  81  1023   ---   WSW     8     8   ---   0.7 Few Clouds/
24/12/2005 07:55       7.0   3.0   9.0   1.7  76  1024   ---     W    10    10   ---   0.7 Few Clouds/
24/12/2005 08:55       9.0   4.0  10.7   6.8  71  1024   ---   WSW     6     6   ---   0.7 Few Clouds/
24/12/2005 10:00       0.0   0.0   4.0  -3.0 100   ---   ---   WSW   ---   ---   ---   --- /
24/12/2005 10:55      13.0   4.0  13.7  13.0  54  1025   ---     N     0     0   ---   0.7 Few Clouds/
24/12/2005 11:55      13.0   2.0  13.3  13.0  47  1025   ---     S     3     3   ---   0.7 Few Clouds/
24/12/2005 11:55      13.0   2.0  13.3  13.0  47  1025   ---     S     3     3   ---   0.7 Few Clouds/None reported
24/12/2005 12:55      14.0   3.0  14.3  14.0  47  1024   ---   ENE     3     3   ---   --- /
24/12/2005 13:55      13.0   1.0  13.1  13.0  44  1024   ---     E     5     5   ---   --- /
24/12/2005 14:55      13.0   1.0  13.1  11.2  44  1024   ---   ESE     6     6   ---   --- /
24/12/2005 15:55      12.0   2.0  12.5  12.0  50  1024   ---   ESE     3     3   ---   --- /
24/12/2005 16:55      10.0   4.0  11.4  10.0  66  1024   ---   WSW     5     5   ---   --- /
24/12/2005 16:55      10.0   4.0  11.4  10.0  66  1024   ---   WSW     5     5   ---   --- None reported/None reported
24/12/2005 17:55       8.0   2.0   9.4   5.7  66  1024   ---     W     6     6   ---   --- /
24/12/2005 18:55       8.0   3.0   9.7   5.7  71  1024   ---     W     6     6   ---   --- /
24/12/2005 20:00       0.0   0.0   4.0  -3.0 100   ---   ---     W   ---   ---   ---   --- /
24/12/2005 21:00       0.0   0.0   4.0  -3.0 100   ---   ---     W   ---   ---   ---   --- /
24/12/2005 22:00       0.0   0.0   4.0  -3.0 100   ---   ---     W   ---   ---   ---   --- /
24/12/2005 23:00       0.0   0.0   4.0  -3.0 100   ---   ---     W   ---   ---   ---   --- /
25/12/2005 00:00       0.0   0.0   4.0  -3.0 100   ---   ---     W   ---   ---   ---   --- /
25/12/2005 01:00       0.0   0.0   4.0  -3.0 100   ---   ---     W   ---   ---   ---   --- /
25/12/2005 02:00       0.0   0.0   4.0  -3.0 100   ---   ---     W   ---   ---   ---   --- /
25/12/2005 03:00       0.0   0.0   4.0  -3.0 100   ---   ---     W   ---   ---   ---   --- /
25/12/2005 04:00       0.0   0.0   4.0  -3.0 100   ---   ---     W   ---   ---   ---   --- /
25/12/2005 05:00       0.0   0.0   4.0  -3.0 100   ---   ---     W   ---   ---   ---   --- /
25/12/2005 06:00       0.0   0.0   4.0  -3.0 100   ---   ---     W   ---   ---   ---   --- /
25/12/2005 06:55       6.0   0.0   7.3   1.5  65  1022   ---   WSW     8     8   ---   --- /
25/12/2005 07:55       7.0   0.0   8.1   4.6  61  1022   ---   WSW     6     6   ---   --- /
25/12/2005 08:55       9.0   2.0  10.1   9.0  62  1022   ---   WSW     5     5   ---   --- /
25/12/2005 09:55      12.0   2.0  12.5  12.0  50  1022   ---     N     0     0   ---   --- /
25/12/2005 10:55      13.0   2.0  13.3  13.0  47  1022   ---   ---     0     0   ---   --- /
25/12/2005 11:55      15.0   5.0  15.5  13.3  51  1020   ---     S     6     6   ---   --- /
25/12/2005 12:55      14.0   4.0  14.5  12.3  51  1019   ---   WSW     6     6   ---   1.2 Few Clouds/
25/12/2005 13:55      14.0   4.0  14.5  14.0  51  1019   ---   ENE     5     5   ---   0.8 Scattered Clouds/
25/12/2005 14:55      13.0   6.0  14.2  13.0  62  1019   ---     N     0     0   ---   1.2 Overcast/
25/12/2005 15:55      13.0   6.0  14.2  13.0  62  1018   ---   NNE     3     3   ---   0.9 Broken Clouds/
25/12/2005 16:55      12.0   6.0  13.4  12.0  67  1018   ---   SSE     3     3   ---   0.9 Broken Clouds/
25/12/2005 17:55      11.0   6.0  12.7  11.0  71  1018   ---     N     0     0   ---   0.9 Scattered Clouds/
25/12/2005 18:55      10.0   6.0  12.1  10.0  76  1017   ---    NW     5     5   ---   0.8 Scattered Clouds/
25/12/2005 20:00       0.0   0.0   4.0   0.0 100   ---   ---    NW   ---   ---   ---   --- /
25/12/2005 21:00       0.0   0.0   4.0   0.0 100   ---   ---    NW   ---   ---   ---   --- /
25/12/2005 22:00       0.0   0.0   4.0   0.0 100   ---   ---    NW   ---   ---   ---   --- /
25/12/2005 23:00       0.0   0.0   4.0   0.0 100   ---   ---    NW   ---   ---   ---   --- /
26/12/2005 00:00       0.0   0.0   4.0   0.0 100   ---   ---    NW   ---   ---   ---   --- /
26/12/2005 01:00       0.0   0.0   4.0   0.0 100   ---   ---    NW   ---   ---   ---   --- /
26/12/2005 02:00       0.0   0.0   4.0   0.0 100   ---   ---    NW   ---   ---   ---   --- /
26/12/2005 05:00       0.0   0.0   4.0   0.0 100   ---   ---    NW   ---   ---   ---   --- /
26/12/2005 06:55      12.0   6.0  13.4   8.5  67  1013   ---   WSW     8     8   ---   0.8 Broken Clouds/
26/12/2005 07:55      12.0   7.0  13.7   5.3  71  1013   ---   WSW    14    14   ---   0.8 Broken Clouds/
26/12/2005 08:55      12.0   7.0  13.7   4.1  71  1013   ---     W    18    18   ---   0.8 Overcast/
26/12/2005 09:55      12.0   8.0  14.1  10.1  77  1013   ---   WSW     6     6   ---   0.7 Broken Clouds/
26/12/2005 10:55      13.0   9.0  15.1   4.8  77  1013   ---    SW    19    19   ---   0.7 Broken Clouds/
26/12/2005 11:55      13.0   9.0  15.1   6.6  77  1012   ---   WSW    14    14   ---   0.7 Broken Clouds/
26/12/2005 12:55      13.0  10.0  15.5  13.0  82  1011   ---    SW     5     5   ---   0.7 Broken Clouds/
26/12/2005 13:55      13.0   9.0  15.1   7.4  77  1011   ---     W    13    13   ---   0.7 Broken Clouds/
26/12/2005 14:55      14.0   9.0  15.8   8.7  72  1011   ---     W    13    13   ---   0.7 Few Clouds/
26/12/2005 15:55      13.0   8.0  14.8  13.0  72  1010   ---     W     3     3   ---   0.7 Few Clouds/
26/12/2005 16:55      12.0   8.0  14.1  10.1  77  1010   ---     W     6     6   ---   0.6 Few Clouds/
26/12/2005 17:55      12.0   8.0  14.1  12.0  77  1010   ---     W     3     3   ---   0.6 Scattered Clouds/
26/12/2005 18:55      13.0   7.0  14.4   6.6  67  1010   ---   WSW    14    14   ---   0.6 Scattered Clouds/
26/12/2005 20:00       0.0   0.0   4.0 -10.5 100   ---   ---   WSW   ---   ---   ---   --- /
26/12/2005 21:00       0.0   0.0   4.0 -10.5 100   ---   ---   WSW   ---   ---   ---   --- /
26/12/2005 23:00       0.0   0.0   4.0 -10.5 100   ---   ---   WSW   ---   ---   ---   --- /
27/12/2005 00:00       0.0   0.0   4.0 -10.5 100   ---   ---   WSW   ---   ---   ---   --- /
27/12/2005 01:00       0.0   0.0   4.0 -10.5 100   ---   ---   WSW   ---   ---   ---   --- /
27/12/2005 02:00       0.0   0.0   4.0 -10.5 100   ---   ---   WSW   ---   ---   ---   --- /
27/12/2005 03:00       0.0   0.0   4.0 -10.5 100   ---   ---   WSW   ---   ---   ---   --- /
27/12/2005 04:00       0.0   0.0   4.0 -10.5 100   ---   ---   WSW   ---   ---   ---   --- /
27/12/2005 05:00       0.0   0.0   4.0 -10.5 100   ---   ---   WSW   ---   ---   ---   --- /
27/12/2005 06:00       0.0   0.0   4.0 -10.5 100   ---   ---   WSW   ---   ---   ---   --- /
27/12/2005 06:55      14.0   8.0  15.5   5.8  67  1007   ---   WSW    21    21   ---   0.7 Scattered Clouds/
27/12/2005 07:55      14.0   8.0  15.5  12.3  67  1007   ---   WSW     6     6   ---   0.8 Scattered Clouds/
27/12/2005 08:55      15.0   8.0  16.2   8.2  63  1007   ---     W    18    18   ---   0.9 Scattered Clouds/
27/12/2005 09:55      16.0   9.0  17.2   7.6  63  1007   ---     W    27    27   ---   0.8 Scattered Clouds/
27/12/2005 10:55      16.0   9.0  17.2   8.4  63  1007   ---     W    23    23   ---   0.7 Broken Clouds/
27/12/2005 11:55      17.0  10.0  18.2   9.1  63  1005   ---   WNW    27    47   ---   0.7 Scattered Clouds/
27/12/2005 12:55      17.0   9.0  18.0  11.3  59  1005   ---    SW    16    16   ---   0.7 Broken Clouds/
27/12/2005 13:55      17.0   9.0  18.0  14.3  59  1005   ---   SSW     8     8   ---   0.7 Broken Clouds/
27/12/2005 14:55      17.0  10.0  18.2  13.8  63  1004   ---   WSW    10    10   ---   0.7 Broken Clouds/
26/12/2005 14:55      14.0   9.0  15.8   8.7  72  1011   ---     W    13    13   ---   0.7 Few Clouds/
27/12/2005 16:55      15.0  11.0  17.1   7.6  77  1004   ---   SSW    19    19   ---   0.7 Broken Clouds/
27/12/2005 17:55      15.0  11.0  17.1   7.3  77  1004   ---   WSW    21    21   ---   0.7 Broken Clouds/
27/12/2005 18:55      15.0  10.0  16.8   9.3  72  1004   ---   WSW    14    14   ---   0.7 Broken Clouds/
27/12/2005 20:00       0.0   0.0   4.0 -10.5 100   ---   ---   WSW   ---   ---   ---   --- /
27/12/2005 21:00       0.0   0.0   4.0 -10.5 100   ---   ---   WSW   ---   ---   ---   --- /
27/12/2005 22:00       0.0   0.0   4.0 -10.5 100   ---   ---   WSW   ---   ---   ---   --- /
27/12/2005 23:00       0.0   0.0   4.0 -10.5 100   ---   ---   WSW   ---   ---   ---   --- /
28/12/2005 00:00       0.0   0.0   4.0 -10.5 100   ---   ---   WSW   ---   ---   ---   --- /
28/12/2005 01:00       0.0   0.0   4.0 -10.5 100   ---   ---   WSW   ---   ---   ---   --- /
28/12/2005 02:00       0.0   0.0   4.0 -10.5 100   ---   ---   WSW   ---   ---   ---   --- /
28/12/2005 03:00       0.0   0.0   4.0 -10.5 100   ---   ---   WSW   ---   ---   ---   --- /
28/12/2005 04:00       0.0   0.0   4.0 -10.5 100   ---   ---   WSW   ---   ---   ---   --- /
28/12/2005 05:00       0.0   0.0   4.0 -10.5 100   ---   ---   WSW   ---   ---   ---   --- /
28/12/2005 06:00       0.0   0.0   4.0 -10.5 100   ---   ---   WSW   ---   ---   ---   --- /
28/12/2005 06:55      13.0   8.0  14.8  13.0  72  1006   ---     W     3     3   ---   0.8 Broken Clouds/
28/12/2005 07:55      12.0   8.0  14.1  12.0  77  1007   ---   WNW     5     5   ---   0.8 Broken Clouds/
28/12/2005 08:55      13.0   8.0  14.8  13.0  72  1007   ---     N     5     5   ---   0.8 Broken Clouds/
28/12/2005 09:55      13.0   8.0  14.8   6.6  72  1007   ---     W    14    14   ---   0.8 Broken Clouds/
28/12/2005 10:55      13.0   9.0  15.1  11.2  77  1008   ---     W     6     6   ---   0.8 Broken Clouds/
28/12/2005 11:55      12.0   8.0  14.1   5.3  77  1008   ---   WNW    14    14   ---   --- Overcast/ Light Rain
28/12/2005 12:55      14.0   8.0  15.5   4.9  67  1006   ---   WNW    26    47   ---   0.8 Scattered Clouds/
28/12/2005 14:55      14.0   9.0  15.8  10.8  72  1007   ---     W     8     8   ---   0.8 Scattered Clouds/
28/12/2005 16:55      11.0   9.0  13.9   7.3  87  1008   ---   WNW     8     8   ---   --- Overcast/ Light Rain
28/12/2005 17:55      11.0   8.0  13.5   6.5  82  1009   ---   WNW    10    10   ---   0.7 Broken Clouds/
28/12/2005 18:55      11.0   8.0  13.5   2.7  82  1011   ---    NW    18    18   ---   0.7 Broken Clouds/
28/12/2005 18:55      11.0   8.0  13.5   2.7  82  1011   ---    NW    18    18   ---   0.7 Broken Clouds/None reported
28/12/2005 21:00       0.0   0.0   4.0 -12.4 100   ---   ---    NW   ---   ---   ---   --- /
28/12/2005 22:00       0.0   0.0   4.0 -12.4 100   ---   ---    NW   ---   ---   ---   --- /
28/12/2005 23:00       0.0   0.0   4.0 -12.4 100   ---   ---    NW   ---   ---   ---   --- /
28/12/2005 23:00      11.0   5.0  12.4  11.0  66   ---   ---         ---   ---   ---   --- None reported/None reported
29/12/2005 01:00       0.0   0.0   4.0   0.0 100   ---   ---         ---   ---   ---   --- /
29/12/2005 02:00       0.0   0.0   4.0   0.0 100   ---   ---         ---   ---   ---   --- /
29/12/2005 03:00       0.0   0.0   4.0   0.0 100   ---   ---         ---   ---   ---   --- /
29/12/2005 04:00       0.0   0.0   4.0   0.0 100   ---   ---         ---   ---   ---   --- /
29/12/2005 05:00       0.0   0.0   4.0   0.0 100   ---   ---         ---   ---   ---   --- /
29/12/2005 06:00       0.0   0.0   4.0   0.0 100   ---   ---         ---   ---   ---   --- /
29/12/2005 06:55       9.0   6.0  11.5   6.8  81  1013   ---   WNW     6     6   ---   0.8 Overcast/
29/12/2005 07:55       8.0   6.0  10.9   8.0  87  1013   ---     N     0     0   ---   0.9 Overcast/
29/12/2005 08:55       9.0   7.0  11.9   9.0  87  1013   ---   ---     0     0   ---   0.8 Broken Clouds/
29/12/2005 09:55      10.0   8.0  12.9  10.0  87  1013   ---   ---     0     0   ---   0.6 Broken Clouds/
29/12/2005 10:55      11.0   7.0  13.1  11.0  76  1012   ---   WNW     3     3   ---   0.6 Overcast/
29/12/2005 12:55      10.0   8.0  12.9  -1.1  87  1011   ---    NW    26    50   ---   --- Overcast/ Rain Showers
29/12/2005 14:00       0.0   0.0   4.0 -15.9 100   ---   ---    NW   ---   ---   ---   --- /
29/12/2005 14:55       8.0   6.0  10.9   5.7  87  1012   ---   NNE     6     6   ---   --- Overcast/ Light Rain
29/12/2005 15:55       7.0   5.0   9.9   7.0  87  1012   ---   NNE     3     3   ---   0.2 Overcast/
29/12/2005 17:55       7.0   5.0   9.9   7.0  87  1013   ---     N     5     5   ---   0.4 Overcast/
29/12/2005 18:55       7.0   4.0   9.4   4.6  81  1014   ---     N     6     6   ---   0.4 Overcast/
29/12/2005 20:00       0.0   0.0   4.0  -3.0 100   ---   ---     N   ---   ---   ---   --- /
29/12/2005 21:00       0.0   0.0   4.0  -3.0 100   ---   ---     N   ---   ---   ---   --- /
29/12/2005 22:00       0.0   0.0   4.0  -3.0 100   ---   ---     N   ---   ---   ---   --- /
29/12/2005 23:00       0.0   0.0   4.0  -3.0 100   ---   ---     N   ---   ---   ---   --- /
30/12/2005 01:00       0.0   0.0   4.0  -3.0 100   ---   ---     N   ---   ---   ---   --- /
30/12/2005 02:00       0.0   0.0   4.0  -3.0 100   ---   ---     N   ---   ---   ---   --- /
30/12/2005 03:00       0.0   0.0   4.0  -3.0 100   ---   ---     N   ---   ---   ---   --- /
30/12/2005 04:00       0.0   0.0   4.0  -3.0 100   ---   ---     N   ---   ---   ---   --- /
30/12/2005 05:00       0.0   0.0   4.0  -3.0 100   ---   ---     N   ---   ---   ---   --- /
30/12/2005 06:00       0.0   0.0   4.0  -3.0 100   ---   ---     N   ---   ---   ---   --- /
30/12/2005 06:55       6.0  -2.0   6.8   6.0  56  1019   ---   WSW     3     3   ---   0.7 Scattered Clouds/
30/12/2005 07:55       7.0   0.0   8.1   4.6  61  1020   ---    SW     6     6   ---   0.7 Scattered Clouds/
30/12/2005 08:55       8.0   0.0   8.8   8.0  57  1020   ---    SW     5     5   ---   0.7 Scattered Clouds/
30/12/2005 09:55      10.0   0.0  10.4  10.0  50  1021   ---    SW     3     3   ---   0.7 Broken Clouds/
30/12/2005 10:55      11.0   1.0  11.4  11.0  50  1021   ---     N     0     0   ---   0.7 Scattered Clouds/
30/12/2005 11:55      11.0   1.0  11.4  11.0  50  1021   ---     N     5     5   ---   0.7 Scattered Clouds/
30/12/2005 12:55      11.0   1.0  11.4   6.5  50  1021   ---   WSW    10    10   ---   0.7 Broken Clouds/
30/12/2005 13:55      11.0   2.0  11.6  11.0  54  1020   ---     N     0     0   ---   0.7 Scattered Clouds/
30/12/2005 14:55      11.0   2.0  11.6   6.5  54  1021   ---     W    10    10   ---   0.7 Scattered Clouds/
30/12/2005 15:55      11.0   2.0  11.6   7.3  54  1021   ---   WSW     8     8   ---   0.7 Scattered Clouds/
30/12/2005 16:55      10.0   3.0  11.1   5.3  62  1021   ---   WSW    10    10   ---   0.7 Scattered Clouds/
30/12/2005 17:55       9.0   4.0  10.7   2.3  71  1021   ---     W    13    13   ---   0.7 Scattered Clouds/
30/12/2005 18:55       9.0   4.0  10.7   0.4  71  1021   ---   WSW    16    16   ---   0.9 Few Clouds/
30/12/2005 21:00       0.0   0.0   4.0 -11.8 100   ---   ---   WSW   ---   ---   ---   --- /
30/12/2005 22:00       0.0   0.0   4.0 -11.8 100   ---   ---   WSW   ---   ---   ---   --- /
30/12/2005 23:00       0.0   0.0   4.0 -11.8 100   ---   ---   WSW   ---   ---   ---   --- /
31/12/2005 01:00       0.0   0.0   4.0 -11.8 100   ---   ---   WSW   ---   ---   ---   --- /
31/12/2005 02:00       0.0   0.0   4.0 -11.8 100   ---   ---   WSW   ---   ---   ---   --- /
31/12/2005 03:00       0.0   0.0   4.0 -11.8 100   ---   ---   WSW   ---   ---   ---   --- /
31/12/2005 04:00       0.0   0.0   4.0 -11.8 100   ---   ---   WSW   ---   ---   ---   --- /
31/12/2005 05:00       0.0   0.0   4.0 -11.8 100   ---   ---   WSW   ---   ---   ---   --- /
31/12/2005 06:00       0.0   0.0   4.0 -11.8 100   ---   ---   WSW   ---   ---   ---   --- /
31/12/2005 06:55      12.0   8.0  14.1   4.5  77  1021   ---     W    16    16   ---   0.8 Broken Clouds/
31/12/2005 07:55      12.0   8.0  14.1   4.1  77  1021   ---   WSW    18    18   ---   0.7 Scattered Clouds/
31/12/2005 08:55      14.0   9.0  15.8   8.0  72  1022   ---     W    14    14   ---   0.7 Few Clouds/
31/12/2005 09:55      14.0   9.0  15.8   8.0  72  1022   ---   WSW    14    34   ---   0.7 Few Clouds/
31/12/2005 10:55      16.0  10.0  17.5  12.5  68  1022   ---     W    10    10   ---   0.7 Scattered Clouds/
31/12/2005 11:55      16.0  10.0  17.5  13.2  68  1021   ---     W     8     8   ---   0.7 Scattered Clouds/
31/12/2005 12:55      15.0  10.0  16.8   6.9  72  1020   ---   SSW    23    23   ---   0.7 Broken Clouds/
31/12/2005 14:55      14.0  10.0  16.1   4.6  77  1020   ---    SW    27    27   ---   0.7 Broken Clouds/
31/12/2005 15:55      14.0  10.0  16.1   6.2  77  1020   ---   WSW    19    19   ---   0.7 Broken Clouds/
31/12/2005 16:55      13.0  10.0  15.5   5.8  82  1020   ---   SSW    16    16   ---   0.7 Scattered Clouds/
31/12/2005 17:55      13.0  10.0  15.5   7.4  82  1020   ---     W    13    13   ---   0.7 Scattered Clouds/
31/12/2005 20:00       0.0   0.0   4.0  -9.2 100   ---   ---     W   ---   ---   ---   --- /
31/12/2005 21:00       0.0   0.0   4.0  -9.2 100   ---   ---     W   ---   ---   ---   --- /
31/12/2005 23:00       0.0   0.0   4.0  -9.2 100   ---   ---     W   ---   ---   ---   --- /


Updated Automatically by Ambient Software's Virtual Weather Station  V 12.07
 All rights reserved. Unauthorized duplication or distribution is prohibited
 Never base important decisions on this or any weather information obtained from the Internet